<?xml version='1.0' encoding='UTF-8'?><gpx version="1.1" creator="JPX - https://github.com/jenetics/jpx" xmlns="http://www.topografix.com/GPX/1/1"><trk><trkseg><trkpt lat="45.7185677354778" lon="9.770994566880013"><ele>333.0</ele><time>2026-04-30T11:33:33Z</time></trkpt><trkpt lat="45.71850384736767" lon="9.77097970333859"><ele>333.0</ele><time>2026-04-30T11:33:35Z</time></trkpt><trkpt lat="45.71842626078395" lon="9.770953950755061"><ele>333.0</ele><time>2026-04-30T11:33:37Z</time></trkpt><trkpt lat="45.718327806919234" lon="9.7708747325777"><ele>333.0</ele><time>2026-04-30T11:33:39Z</time></trkpt><trkpt lat="45.71821754808256" lon="9.770784573179997"><ele>333.0</ele><time>2026-04-30T11:33:41Z</time></trkpt><trkpt lat="45.718159755454565" lon="9.770745964197207"><ele>333.0</ele><time>2026-04-30T11:33:42Z</time></trkpt><trkpt lat="45.71809780517943" lon="9.770706400804789"><ele>333.0</ele><time>2026-04-30T11:33:43Z</time></trkpt><trkpt lat="45.71804021281292" lon="9.770668951718976"><ele>333.0</ele><time>2026-04-30T11:33:44Z</time></trkpt><trkpt lat="45.717980125450744" lon="9.770618443764238"><ele>333.0</ele><time>2026-04-30T11:33:45Z</time></trkpt><trkpt lat="45.71790700091477" lon="9.770556832966179"><ele>333.0</ele><time>2026-04-30T11:33:47Z</time></trkpt><trkpt lat="45.71781885701309" lon="9.770644007887377"><ele>333.0</ele><time>2026-04-30T11:33:49Z</time></trkpt><trkpt lat="45.71778173264504" lon="9.77072682331917"><ele>333.0</ele><time>2026-04-30T11:33:50Z</time></trkpt><trkpt lat="45.71773784543146" lon="9.770797422066742"><ele>332.3333333333333</ele><time>2026-04-30T11:33:51Z</time></trkpt><trkpt lat="45.7176981737694" lon="9.770870026238835"><ele>331.6666666666667</ele><time>2026-04-30T11:33:52Z</time></trkpt><trkpt lat="45.71765559091264" lon="9.77093988293334"><ele>331.0</ele><time>2026-04-30T11:33:53Z</time></trkpt><trkpt lat="45.71761702935784" lon="9.771012000191087"><ele>330.33333333333337</ele><time>2026-04-30T11:33:54Z</time></trkpt><trkpt lat="45.71755745583299" lon="9.771177770571006"><ele>329.6666666666667</ele><time>2026-04-30T11:33:56Z</time></trkpt><trkpt lat="45.71751031639149" lon="9.771345936458516"><ele>329.0</ele><time>2026-04-30T11:33:58Z</time></trkpt><trkpt lat="45.71747045432894" lon="9.771482003948984"><ele>329.0</ele><time>2026-04-30T11:34:00Z</time></trkpt><trkpt lat="45.717403257361944" lon="9.771525980710027"><ele>329.0</ele><time>2026-04-30T11:34:02Z</time></trkpt><trkpt lat="45.71728673397542" lon="9.771484679463988"><ele>329.0</ele><time>2026-04-30T11:34:04Z</time></trkpt><trkpt lat="45.71722396000537" lon="9.771455586614634"><ele>329.0</ele><time>2026-04-30T11:34:05Z</time></trkpt><trkpt lat="45.71715782705509" lon="9.771434605790112"><ele>329.0</ele><time>2026-04-30T11:34:06Z</time></trkpt><trkpt lat="45.71708696787115" lon="9.771424920776525"><ele>329.0</ele><time>2026-04-30T11:34:07Z</time></trkpt><trkpt lat="45.71701668952186" lon="9.77141394740732"><ele>329.0</ele><time>2026-04-30T11:34:08Z</time></trkpt><trkpt lat="45.716952534575974" lon="9.771394659776051"><ele>329.0</ele><time>2026-04-30T11:34:09Z</time></trkpt><trkpt lat="45.71682841297389" lon="9.77139082319012"><ele>329.0</ele><time>2026-04-30T11:34:11Z</time></trkpt><trkpt lat="45.71676930894861" lon="9.771430341908655"><ele>329.0</ele><time>2026-04-30T11:34:12Z</time></trkpt><trkpt lat="45.716665420383514" lon="9.771502401617818"><ele>329.0</ele><time>2026-04-30T11:34:14Z</time></trkpt><trkpt lat="45.7165830189431" lon="9.771614362420813"><ele>328.33333333333337</ele><time>2026-04-30T11:34:16Z</time></trkpt><trkpt lat="45.71650118574244" lon="9.771721476862087"><ele>327.6666666666667</ele><time>2026-04-30T11:34:18Z</time></trkpt><trkpt lat="45.7164551243507" lon="9.77178909951529"><ele>327.0</ele><time>2026-04-30T11:34:19Z</time></trkpt><trkpt lat="45.71640898166241" lon="9.77185152607858"><ele>326.3333333333333</ele><time>2026-04-30T11:34:20Z</time></trkpt><trkpt lat="45.71630279343807" lon="9.771936123530777"><ele>325.66666666666663</ele><time>2026-04-30T11:34:22Z</time></trkpt><trkpt lat="45.71624738904411" lon="9.771985578632778"><ele>325.0</ele><time>2026-04-30T11:34:23Z</time></trkpt><trkpt lat="45.71619328497452" lon="9.772032109019083"><ele>325.0</ele><time>2026-04-30T11:34:24Z</time></trkpt><trkpt lat="45.71614526405342" lon="9.772090643260926"><ele>325.0</ele><time>2026-04-30T11:34:25Z</time></trkpt><trkpt lat="45.71605013313564" lon="9.772210632977492"><ele>325.0</ele><time>2026-04-30T11:34:27Z</time></trkpt><trkpt lat="45.71597252409226" lon="9.772322976844595"><ele>325.0</ele><time>2026-04-30T11:34:29Z</time></trkpt><trkpt lat="45.71588531995575" lon="9.77241674611919"><ele>325.0</ele><time>2026-04-30T11:34:31Z</time></trkpt><trkpt lat="45.71580870522568" lon="9.772513541709479"><ele>325.8333333333333</ele><time>2026-04-30T11:34:33Z</time></trkpt><trkpt lat="45.715739893575176" lon="9.77261279931442"><ele>326.66666666666663</ele><time>2026-04-30T11:34:35Z</time></trkpt><trkpt lat="45.71567053360059" lon="9.772702856529266"><ele>327.5</ele><time>2026-04-30T11:34:37Z</time></trkpt><trkpt lat="45.715621587461875" lon="9.772781570615882"><ele>328.3333333333333</ele><time>2026-04-30T11:34:39Z</time></trkpt><trkpt lat="45.715560448451605" lon="9.772860526141798"><ele>329.1666666666667</ele><time>2026-04-30T11:34:41Z</time></trkpt><trkpt lat="45.71548714616798" lon="9.77295671883989"><ele>330.0</ele><time>2026-04-30T11:34:43Z</time></trkpt><trkpt lat="45.71541313319835" lon="9.773054208366664"><ele>330.0</ele><time>2026-04-30T11:34:45Z</time></trkpt><trkpt lat="45.7153276167092" lon="9.773083168812601"><ele>330.0</ele><time>2026-04-30T11:34:47Z</time></trkpt><trkpt lat="45.715253382702926" lon="9.773109505538697"><ele>330.0</ele><time>2026-04-30T11:34:49Z</time></trkpt><trkpt lat="45.71520392678238" lon="9.773264064522593"><ele>330.0</ele><time>2026-04-30T11:34:51Z</time></trkpt><trkpt lat="45.71518484890459" lon="9.773436952021116"><ele>330.0</ele><time>2026-04-30T11:34:53Z</time></trkpt><trkpt lat="45.71516296115185" lon="9.773604111768778"><ele>331.0</ele><time>2026-04-30T11:34:55Z</time></trkpt><trkpt lat="45.715145327853705" lon="9.773771827653013"><ele>332.0</ele><time>2026-04-30T11:34:57Z</time></trkpt><trkpt lat="45.71514256987535" lon="9.773926497586574"><ele>333.0</ele><time>2026-04-30T11:34:59Z</time></trkpt><trkpt lat="45.71513792731582" lon="9.77407853405122"><ele>334.0</ele><time>2026-04-30T11:35:01Z</time></trkpt><trkpt lat="45.715162555501166" lon="9.7742343828249"><ele>335.0</ele><time>2026-04-30T11:35:03Z</time></trkpt><trkpt lat="45.71516815952752" lon="9.77438705348471"><ele>336.4</ele><time>2026-04-30T11:35:05Z</time></trkpt><trkpt lat="45.715165476534686" lon="9.774549174488502"><ele>337.8</ele><time>2026-04-30T11:35:07Z</time></trkpt><trkpt lat="45.715164566470854" lon="9.774686758702606"><ele>339.20000000000005</ele><time>2026-04-30T11:35:09Z</time></trkpt><trkpt lat="45.71513912902472" lon="9.77477661869844"><ele>340.6</ele><time>2026-04-30T11:35:10Z</time></trkpt><trkpt lat="45.715120248203014" lon="9.77493340946516"><ele>342.0</ele><time>2026-04-30T11:35:12Z</time></trkpt><trkpt lat="45.71508698656183" lon="9.775086544976599"><ele>342.20000000000005</ele><time>2026-04-30T11:35:14Z</time></trkpt><trkpt lat="45.71504553421223" lon="9.7752250860174"><ele>342.4</ele><time>2026-04-30T11:35:16Z</time></trkpt><trkpt lat="45.71498998558191" lon="9.775352413745791"><ele>342.6</ele><time>2026-04-30T11:35:18Z</time></trkpt><trkpt lat="45.714905190454495" lon="9.775463752326084"><ele>342.79999999999995</ele><time>2026-04-30T11:35:20Z</time></trkpt><trkpt lat="45.71481077728702" lon="9.775563403888697"><ele>343.0</ele><time>2026-04-30T11:35:22Z</time></trkpt><trkpt lat="45.7147114800484" lon="9.775668499815735"><ele>343.0</ele><time>2026-04-30T11:35:24Z</time></trkpt><trkpt lat="45.714665610629226" lon="9.775730671053614"><ele>343.0</ele><time>2026-04-30T11:35:25Z</time></trkpt><trkpt lat="45.71462774087616" lon="9.775804356379192"><ele>343.0</ele><time>2026-04-30T11:35:26Z</time></trkpt><trkpt lat="45.71456171208048" lon="9.775960683553857"><ele>343.0</ele><time>2026-04-30T11:35:28Z</time></trkpt><trkpt lat="45.71453377694761" lon="9.776045671984765"><ele>343.0</ele><time>2026-04-30T11:35:29Z</time></trkpt><trkpt lat="45.714516845404475" lon="9.776133033991801"><ele>343.0</ele><time>2026-04-30T11:35:30Z</time></trkpt><trkpt lat="45.714498385583326" lon="9.77630993608004"><ele>343.25</ele><time>2026-04-30T11:35:32Z</time></trkpt><trkpt lat="45.714489811645066" lon="9.77648629450075"><ele>343.5</ele><time>2026-04-30T11:35:34Z</time></trkpt><trkpt lat="45.71448218682248" lon="9.776655385303684"><ele>343.75</ele><time>2026-04-30T11:35:36Z</time></trkpt><trkpt lat="45.71451735984452" lon="9.77682150994857"><ele>344.0</ele><time>2026-04-30T11:35:38Z</time></trkpt><trkpt lat="45.714575491992754" lon="9.776971711179478"><ele>345.0</ele><time>2026-04-30T11:35:40Z</time></trkpt><trkpt lat="45.71465957283441" lon="9.777104654809534"><ele>346.0</ele><time>2026-04-30T11:35:42Z</time></trkpt><trkpt lat="45.71471218786042" lon="9.777175667017497"><ele>347.0</ele><time>2026-04-30T11:35:43Z</time></trkpt><trkpt lat="45.71478621553723" lon="9.77730409836448"><ele>348.0</ele><time>2026-04-30T11:35:45Z</time></trkpt><trkpt lat="45.714829970192866" lon="9.777375802856689"><ele>349.0</ele><time>2026-04-30T11:35:46Z</time></trkpt><trkpt lat="45.71489760022045" lon="9.777522289063814"><ele>349.0</ele><time>2026-04-30T11:35:48Z</time></trkpt><trkpt lat="45.7149393979655" lon="9.777680919931607"><ele>349.0</ele><time>2026-04-30T11:35:50Z</time></trkpt><trkpt lat="45.71495103491094" lon="9.77784966933472"><ele>349.0</ele><time>2026-04-30T11:35:52Z</time></trkpt><trkpt lat="45.71495584012201" lon="9.778017789309562"><ele>349.0</ele><time>2026-04-30T11:35:54Z</time></trkpt><trkpt lat="45.714961256101574" lon="9.778187962585177"><ele>349.79999999999995</ele><time>2026-04-30T11:35:56Z</time></trkpt><trkpt lat="45.71496726702561" lon="9.778345480151026"><ele>350.59999999999997</ele><time>2026-04-30T11:35:58Z</time></trkpt><trkpt lat="45.71496920198808" lon="9.778513252255703"><ele>351.4</ele><time>2026-04-30T11:36:00Z</time></trkpt><trkpt lat="45.71497462979101" lon="9.778686521946163"><ele>352.2</ele><time>2026-04-30T11:36:02Z</time></trkpt><trkpt lat="45.71497520576315" lon="9.778776879830549"><ele>353.0</ele><time>2026-04-30T11:36:03Z</time></trkpt><trkpt lat="45.71495466774781" lon="9.778950507348235"><ele>353.0</ele><time>2026-04-30T11:36:05Z</time></trkpt><trkpt lat="45.7149039272137" lon="9.779112273892524"><ele>353.0</ele><time>2026-04-30T11:36:07Z</time></trkpt><trkpt lat="45.714842170057466" lon="9.779267313299552"><ele>353.0</ele><time>2026-04-30T11:36:09Z</time></trkpt><trkpt lat="45.714777937101786" lon="9.779412569515689"><ele>353.0</ele><time>2026-04-30T11:36:11Z</time></trkpt><trkpt lat="45.71470544065579" lon="9.779557824651333"><ele>353.4</ele><time>2026-04-30T11:36:13Z</time></trkpt><trkpt lat="45.714659970636866" lon="9.779623806084343"><ele>353.79999999999995</ele><time>2026-04-30T11:36:14Z</time></trkpt><trkpt lat="45.71456446278696" lon="9.77973987767015"><ele>354.2</ele><time>2026-04-30T11:36:16Z</time></trkpt><trkpt lat="45.7144550959218" lon="9.779849392419708"><ele>354.6</ele><time>2026-04-30T11:36:18Z</time></trkpt><trkpt lat="45.714368435035226" lon="9.779972163689134"><ele>355.0</ele><time>2026-04-30T11:36:20Z</time></trkpt><trkpt lat="45.71432726652646" lon="9.78004377557822"><ele>355.8</ele><time>2026-04-30T11:36:21Z</time></trkpt><trkpt lat="45.714260471292526" lon="9.780201724583668"><ele>356.6</ele><time>2026-04-30T11:36:23Z</time></trkpt><trkpt lat="45.71423244314464" lon="9.78028421767475"><ele>357.4</ele><time>2026-04-30T11:36:24Z</time></trkpt><trkpt lat="45.71420124338913" lon="9.780457924948891"><ele>358.2</ele><time>2026-04-30T11:36:26Z</time></trkpt><trkpt lat="45.71419128881991" lon="9.78054695051523"><ele>359.0</ele><time>2026-04-30T11:36:27Z</time></trkpt><trkpt lat="45.71416957963642" lon="9.780719549240064"><ele>359.0</ele><time>2026-04-30T11:36:29Z</time></trkpt><trkpt lat="45.71414236158148" lon="9.780883541427762"><ele>359.0</ele><time>2026-04-30T11:36:31Z</time></trkpt><trkpt lat="45.71412477042609" lon="9.78104206128834"><ele>359.0</ele><time>2026-04-30T11:36:33Z</time></trkpt><trkpt lat="45.71412335515239" lon="9.781205271355546"><ele>359.0</ele><time>2026-04-30T11:36:35Z</time></trkpt><trkpt lat="45.71411292209249" lon="9.781360007880359"><ele>359.75</ele><time>2026-04-30T11:36:37Z</time></trkpt><trkpt lat="45.714105870015885" lon="9.781526537174473"><ele>360.5</ele><time>2026-04-30T11:36:39Z</time></trkpt><trkpt lat="45.714097828919826" lon="9.781680584557904"><ele>361.25</ele><time>2026-04-30T11:36:41Z</time></trkpt><trkpt lat="45.71408273069409" lon="9.78183949553145"><ele>362.0</ele><time>2026-04-30T11:36:43Z</time></trkpt><trkpt lat="45.71403457638039" lon="9.781991441473478"><ele>362.0</ele><time>2026-04-30T11:36:45Z</time></trkpt><trkpt lat="45.713976835668355" lon="9.782137966835778"><ele>362.0</ele><time>2026-04-30T11:36:47Z</time></trkpt><trkpt lat="45.71393376574175" lon="9.78228776526199"><ele>362.0</ele><time>2026-04-30T11:36:49Z</time></trkpt><trkpt lat="45.71389420498954" lon="9.782415005218297"><ele>362.0</ele><time>2026-04-30T11:36:51Z</time></trkpt><trkpt lat="45.71385951392369" lon="9.782535176138293"><ele>362.0</ele><time>2026-04-30T11:36:53Z</time></trkpt><trkpt lat="45.713833050167096" lon="9.782700222621596"><ele>361.83333333333337</ele><time>2026-04-30T11:36:55Z</time></trkpt><trkpt lat="45.71382937439034" lon="9.782792483430097"><ele>361.6666666666667</ele><time>2026-04-30T11:36:56Z</time></trkpt><trkpt lat="45.713832008255146" lon="9.782885789402247"><ele>361.5</ele><time>2026-04-30T11:36:57Z</time></trkpt><trkpt lat="45.71383768218572" lon="9.782977903578567"><ele>361.3333333333333</ele><time>2026-04-30T11:36:58Z</time></trkpt><trkpt lat="45.71384324779289" lon="9.78306988828389"><ele>361.16666666666663</ele><time>2026-04-30T11:36:59Z</time></trkpt><trkpt lat="45.71385706637581" lon="9.78323886207968"><ele>361.0</ele><time>2026-04-30T11:37:01Z</time></trkpt><trkpt lat="45.71385589087009" lon="9.783392843536467"><ele>361.6</ele><time>2026-04-30T11:37:03Z</time></trkpt><trkpt lat="45.71387137683229" lon="9.783537811492941"><ele>362.20000000000005</ele><time>2026-04-30T11:37:05Z</time></trkpt><trkpt lat="45.71387615273284" lon="9.783721135751914"><ele>362.79999999999995</ele><time>2026-04-30T11:37:07Z</time></trkpt><trkpt lat="45.71388125657585" lon="9.783902820514166"><ele>363.4</ele><time>2026-04-30T11:37:09Z</time></trkpt><trkpt lat="45.713881794659635" lon="9.78399357124313"><ele>364.0</ele><time>2026-04-30T11:37:10Z</time></trkpt><trkpt lat="45.71388811469135" lon="9.784085295442761"><ele>364.0</ele><time>2026-04-30T11:37:11Z</time></trkpt><trkpt lat="45.713888833194005" lon="9.784260626738474"><ele>364.0</ele><time>2026-04-30T11:37:13Z</time></trkpt><trkpt lat="45.71388702001325" lon="9.784351285838548"><ele>364.0</ele><time>2026-04-30T11:37:14Z</time></trkpt><trkpt lat="45.71387690432514" lon="9.784527222561461"><ele>364.0</ele><time>2026-04-30T11:37:16Z</time></trkpt><trkpt lat="45.713859804853776" lon="9.78469272204556"><ele>364.0</ele><time>2026-04-30T11:37:18Z</time></trkpt><trkpt lat="45.713846087921674" lon="9.784863562430257"><ele>365.5</ele><time>2026-04-30T11:37:20Z</time></trkpt><trkpt lat="45.71384021209126" lon="9.785035948216807"><ele>367.0</ele><time>2026-04-30T11:37:22Z</time></trkpt><trkpt lat="45.713816964776655" lon="9.78520203032836"><ele>368.5</ele><time>2026-04-30T11:37:24Z</time></trkpt><trkpt lat="45.71379606550621" lon="9.785371581002243"><ele>370.0</ele><time>2026-04-30T11:37:26Z</time></trkpt><trkpt lat="45.713773662161586" lon="9.785537772407263"><ele>371.0</ele><time>2026-04-30T11:37:28Z</time></trkpt><trkpt lat="45.7137580414147" lon="9.785707140697697"><ele>372.0</ele><time>2026-04-30T11:37:30Z</time></trkpt><trkpt lat="45.71373674169199" lon="9.785872618618564"><ele>373.0</ele><time>2026-04-30T11:37:32Z</time></trkpt><trkpt lat="45.713712215326396" lon="9.786038416225935"><ele>374.0</ele><time>2026-04-30T11:37:34Z</time></trkpt><trkpt lat="45.71369370724058" lon="9.786206421775573"><ele>374.4</ele><time>2026-04-30T11:37:36Z</time></trkpt><trkpt lat="45.713669040573286" lon="9.786363527649627"><ele>374.79999999999995</ele><time>2026-04-30T11:37:38Z</time></trkpt><trkpt lat="45.71364533766722" lon="9.786535172331746"><ele>375.20000000000005</ele><time>2026-04-30T11:37:40Z</time></trkpt><trkpt lat="45.71363248914954" lon="9.786688869315057"><ele>375.6</ele><time>2026-04-30T11:37:42Z</time></trkpt><trkpt lat="45.71361971967796" lon="9.786832653187298"><ele>376.0</ele><time>2026-04-30T11:37:44Z</time></trkpt><trkpt lat="45.713616388077035" lon="9.786969677077204"><ele>376.8</ele><time>2026-04-30T11:37:46Z</time></trkpt><trkpt lat="45.71364182633012" lon="9.78711055418574"><ele>377.6</ele><time>2026-04-30T11:37:48Z</time></trkpt><trkpt lat="45.71368077907048" lon="9.787247770033842"><ele>378.4</ele><time>2026-04-30T11:37:50Z</time></trkpt><trkpt lat="45.71373827701295" lon="9.787396780140558"><ele>379.2</ele><time>2026-04-30T11:37:52Z</time></trkpt><trkpt lat="45.713797455448386" lon="9.787550676285738"><ele>380.0</ele><time>2026-04-30T11:37:54Z</time></trkpt><trkpt lat="45.71384865217827" lon="9.78770445143046"><ele>380.5</ele><time>2026-04-30T11:37:56Z</time></trkpt><trkpt lat="45.71388504105296" lon="9.787855551715404"><ele>381.0</ele><time>2026-04-30T11:37:58Z</time></trkpt><trkpt lat="45.71389112210166" lon="9.788028444933548"><ele>381.5</ele><time>2026-04-30T11:38:00Z</time></trkpt><trkpt lat="45.713888013346775" lon="9.78812022605506"><ele>382.0</ele><time>2026-04-30T11:38:01Z</time></trkpt><trkpt lat="45.7138786510338" lon="9.788210017051798"><ele>382.5</ele><time>2026-04-30T11:38:02Z</time></trkpt><trkpt lat="45.713864985958075" lon="9.788298538954212"><ele>383.0</ele><time>2026-04-30T11:38:03Z</time></trkpt><trkpt lat="45.713815437820955" lon="9.788464055275274"><ele>382.5</ele><time>2026-04-30T11:38:05Z</time></trkpt><trkpt lat="45.71378320783182" lon="9.78854212210325"><ele>382.0</ele><time>2026-04-30T11:38:06Z</time></trkpt><trkpt lat="45.71372249790347" lon="9.788694652419998"><ele>381.5</ele><time>2026-04-30T11:38:08Z</time></trkpt><trkpt lat="45.71369166084606" lon="9.788773624115244"><ele>381.0</ele><time>2026-04-30T11:38:09Z</time></trkpt><trkpt lat="45.71365778665327" lon="9.788849860920337"><ele>380.5</ele><time>2026-04-30T11:38:10Z</time></trkpt><trkpt lat="45.71358921392479" lon="9.788994850455204"><ele>380.0</ele><time>2026-04-30T11:38:12Z</time></trkpt><trkpt lat="45.71351269167871" lon="9.789140292680697"><ele>380.6666666666667</ele><time>2026-04-30T11:38:14Z</time></trkpt><trkpt lat="45.71347477086986" lon="9.78921707815624"><ele>381.33333333333337</ele><time>2026-04-30T11:38:15Z</time></trkpt><trkpt lat="45.71338584407944" lon="9.789345870296804"><ele>382.0</ele><time>2026-04-30T11:38:17Z</time></trkpt><trkpt lat="45.71333449755529" lon="9.78939842823906"><ele>382.6666666666667</ele><time>2026-04-30T11:38:18Z</time></trkpt><trkpt lat="45.713281611080504" lon="9.789451207357896"><ele>383.3333333333333</ele><time>2026-04-30T11:38:19Z</time></trkpt><trkpt lat="45.713167383769004" lon="9.789523302622086"><ele>384.0</ele><time>2026-04-30T11:38:21Z</time></trkpt><trkpt lat="45.713106993628756" lon="9.789553960307376"><ele>384.0</ele><time>2026-04-30T11:38:22Z</time></trkpt><trkpt lat="45.71298722269494" lon="9.789601099171502"><ele>384.0</ele><time>2026-04-30T11:38:24Z</time></trkpt><trkpt lat="45.71292275417913" lon="9.789622373431245"><ele>384.0</ele><time>2026-04-30T11:38:25Z</time></trkpt><trkpt lat="45.712808266342805" lon="9.789686787593004"><ele>384.0</ele><time>2026-04-30T11:38:27Z</time></trkpt><trkpt lat="45.71275585444875" lon="9.789739002386641"><ele>384.0</ele><time>2026-04-30T11:38:28Z</time></trkpt><trkpt lat="45.71265566681397" lon="9.789843351562427"><ele>384.6</ele><time>2026-04-30T11:38:30Z</time></trkpt><trkpt lat="45.71256287509247" lon="9.789962980915057"><ele>385.2</ele><time>2026-04-30T11:38:32Z</time></trkpt><trkpt lat="45.71251725738519" lon="9.790026827633293"><ele>385.8</ele><time>2026-04-30T11:38:33Z</time></trkpt><trkpt lat="45.71243452881945" lon="9.790159353185583"><ele>386.40000000000003</ele><time>2026-04-30T11:38:35Z</time></trkpt><trkpt lat="45.712377374809975" lon="9.790217472407088"><ele>387.0</ele><time>2026-04-30T11:38:36Z</time></trkpt><trkpt lat="45.71229663037734" lon="9.790348364115436"><ele>387.0</ele><time>2026-04-30T11:38:38Z</time></trkpt><trkpt lat="45.71224895555108" lon="9.790408535153844"><ele>387.0</ele><time>2026-04-30T11:38:39Z</time></trkpt><trkpt lat="45.71215801962469" lon="9.79052974461076"><ele>387.0</ele><time>2026-04-30T11:38:41Z</time></trkpt><trkpt lat="45.71207384182701" lon="9.790658350896518"><ele>387.0</ele><time>2026-04-30T11:38:43Z</time></trkpt><trkpt lat="45.711990098655114" lon="9.790779459193441"><ele>387.0</ele><time>2026-04-30T11:38:45Z</time></trkpt><trkpt lat="45.71190818465583" lon="9.790896882643034"><ele>390.25</ele><time>2026-04-30T11:38:47Z</time></trkpt><trkpt lat="45.71183048973438" lon="9.79102167088054"><ele>393.5</ele><time>2026-04-30T11:38:49Z</time></trkpt><trkpt lat="45.711763201258506" lon="9.79115767944393"><ele>396.75</ele><time>2026-04-30T11:38:51Z</time></trkpt><trkpt lat="45.71170272362969" lon="9.791303157411722"><ele>400.0</ele><time>2026-04-30T11:38:53Z</time></trkpt><trkpt lat="45.711653503084854" lon="9.791445823795641"><ele>400.0</ele><time>2026-04-30T11:38:55Z</time></trkpt><trkpt lat="45.711616330988214" lon="9.79158978975752"><ele>400.0</ele><time>2026-04-30T11:38:57Z</time></trkpt><trkpt lat="45.71157743661964" lon="9.791745826903691"><ele>400.0</ele><time>2026-04-30T11:38:59Z</time></trkpt><trkpt lat="45.71153920103715" lon="9.791897895382538"><ele>400.0</ele><time>2026-04-30T11:39:01Z</time></trkpt><trkpt lat="45.71147963037798" lon="9.792039858569458"><ele>400.25</ele><time>2026-04-30T11:39:03Z</time></trkpt><trkpt lat="45.71142331119553" lon="9.792175506237996"><ele>400.5</ele><time>2026-04-30T11:39:05Z</time></trkpt><trkpt lat="45.711364519003844" lon="9.792320638558182"><ele>400.75</ele><time>2026-04-30T11:39:07Z</time></trkpt><trkpt lat="45.711295089771674" lon="9.792454171224886"><ele>401.0</ele><time>2026-04-30T11:39:09Z</time></trkpt><trkpt lat="45.711242010378804" lon="9.792602986169925"><ele>400.8333333333333</ele><time>2026-04-30T11:39:11Z</time></trkpt><trkpt lat="45.711208468354634" lon="9.792686621851429"><ele>400.66666666666663</ele><time>2026-04-30T11:39:12Z</time></trkpt><trkpt lat="45.71116908400088" lon="9.792848232287136"><ele>400.5</ele><time>2026-04-30T11:39:14Z</time></trkpt><trkpt lat="45.71114987967884" lon="9.792943676854858"><ele>400.33333333333337</ele><time>2026-04-30T11:39:15Z</time></trkpt><trkpt lat="45.71114129272704" lon="9.79304411592265"><ele>400.1666666666667</ele><time>2026-04-30T11:39:16Z</time></trkpt><trkpt lat="45.71113436061455" lon="9.79314179744647"><ele>400.0</ele><time>2026-04-30T11:39:17Z</time></trkpt><trkpt lat="45.71112862541988" lon="9.793240408647865"><ele>400.00000000000006</ele><time>2026-04-30T11:39:18Z</time></trkpt><trkpt lat="45.711142935971466" lon="9.793339504235174"><ele>400.0</ele><time>2026-04-30T11:39:19Z</time></trkpt><trkpt lat="45.71114042609003" lon="9.793435238443001"><ele>400.0</ele><time>2026-04-30T11:39:20Z</time></trkpt><trkpt lat="45.71112485250741" lon="9.79353716974818"><ele>400.0</ele><time>2026-04-30T11:39:21Z</time></trkpt><trkpt lat="45.711132237139786" lon="9.793638510132036"><ele>400.0</ele><time>2026-04-30T11:39:22Z</time></trkpt><trkpt lat="45.711140321272794" lon="9.793736785373405"><ele>400.00000000000006</ele><time>2026-04-30T11:39:23Z</time></trkpt><trkpt lat="45.711162896686076" lon="9.793835686285822"><ele>400.0</ele><time>2026-04-30T11:39:24Z</time></trkpt><trkpt lat="45.711171728289465" lon="9.793931309944261"><ele>400.5714285714286</ele><time>2026-04-30T11:39:25Z</time></trkpt><trkpt lat="45.71119397991623" lon="9.794020966228874"><ele>401.14285714285717</ele><time>2026-04-30T11:39:26Z</time></trkpt><trkpt lat="45.71122268170667" lon="9.794111503557836"><ele>401.7142857142857</ele><time>2026-04-30T11:39:27Z</time></trkpt><trkpt lat="45.71125693169337" lon="9.794200411422405"><ele>402.28571428571433</ele><time>2026-04-30T11:39:28Z</time></trkpt><trkpt lat="45.71129369083625" lon="9.794283576733696"><ele>402.85714285714283</ele><time>2026-04-30T11:39:29Z</time></trkpt><trkpt lat="45.711339930257175" lon="9.794376102292821"><ele>403.42857142857144</ele><time>2026-04-30T11:39:30Z</time></trkpt><trkpt lat="45.711373690975016" lon="9.794454213537778"><ele>404.0</ele><time>2026-04-30T11:39:31Z</time></trkpt><trkpt lat="45.71140897104736" lon="9.794539157074276"><ele>405.7142857142857</ele><time>2026-04-30T11:39:32Z</time></trkpt><trkpt lat="45.71145180499863" lon="9.794624216959031"><ele>407.42857142857144</ele><time>2026-04-30T11:39:33Z</time></trkpt><trkpt lat="45.71149865029299" lon="9.79470131134495"><ele>409.1428571428571</ele><time>2026-04-30T11:39:34Z</time></trkpt><trkpt lat="45.71155362361638" lon="9.794775587083178"><ele>410.8571428571429</ele><time>2026-04-30T11:39:35Z</time></trkpt><trkpt lat="45.71160588753566" lon="9.794844791677678"><ele>412.5714285714286</ele><time>2026-04-30T11:39:36Z</time></trkpt><trkpt lat="45.71166919131413" lon="9.794896768586034"><ele>414.2857142857143</ele><time>2026-04-30T11:39:37Z</time></trkpt><trkpt lat="45.71173806774236" lon="9.794934612942802"><ele>416.0</ele><time>2026-04-30T11:39:38Z</time></trkpt><trkpt lat="45.71180686576351" lon="9.794956996500769"><ele>415.99999999999994</ele><time>2026-04-30T11:39:39Z</time></trkpt><trkpt lat="45.7118729552089" lon="9.79497371649492"><ele>416.0</ele><time>2026-04-30T11:39:40Z</time></trkpt><trkpt lat="45.71194053426525" lon="9.794990543988606"><ele>416.0</ele><time>2026-04-30T11:39:41Z</time></trkpt><trkpt lat="45.71205772112424" lon="9.795036679833746"><ele>416.0</ele><time>2026-04-30T11:39:43Z</time></trkpt><trkpt lat="45.712118581607186" lon="9.79506057942884"><ele>415.99999999999994</ele><time>2026-04-30T11:39:44Z</time></trkpt><trkpt lat="45.712230523813176" lon="9.795121470376925"><ele>416.0</ele><time>2026-04-30T11:39:46Z</time></trkpt><trkpt lat="45.71232113365548" lon="9.795233250835153"><ele>416.20000000000005</ele><time>2026-04-30T11:39:48Z</time></trkpt><trkpt lat="45.71237036787315" lon="9.795386584992839"><ele>416.40000000000003</ele><time>2026-04-30T11:39:50Z</time></trkpt><trkpt lat="45.712392762257856" lon="9.795541176803201"><ele>416.6</ele><time>2026-04-30T11:39:52Z</time></trkpt><trkpt lat="45.71238203341079" lon="9.795690427625475"><ele>416.8</ele><time>2026-04-30T11:39:54Z</time></trkpt><trkpt lat="45.712341410861136" lon="9.79584345252946"><ele>417.0</ele><time>2026-04-30T11:39:56Z</time></trkpt><trkpt lat="45.71229709183909" lon="9.795999172938467"><ele>416.6</ele><time>2026-04-30T11:39:58Z</time></trkpt><trkpt lat="45.71224933550592" lon="9.796161712600448"><ele>416.20000000000005</ele><time>2026-04-30T11:40:00Z</time></trkpt><trkpt lat="45.71219758647789" lon="9.79632769451423"><ele>415.8</ele><time>2026-04-30T11:40:02Z</time></trkpt><trkpt lat="45.71214917743283" lon="9.796402455972435"><ele>415.4</ele><time>2026-04-30T11:40:03Z</time></trkpt><trkpt lat="45.71210947146557" lon="9.796475559698981"><ele>415.0</ele><time>2026-04-30T11:40:04Z</time></trkpt><trkpt lat="45.71208765963122" lon="9.796577025755482"><ele>415.00000000000006</ele><time>2026-04-30T11:40:05Z</time></trkpt><trkpt lat="45.71202669158302" lon="9.796644981857856"><ele>415.0</ele><time>2026-04-30T11:40:06Z</time></trkpt><trkpt lat="45.711963841247574" lon="9.796717207935304"><ele>415.0</ele><time>2026-04-30T11:40:07Z</time></trkpt><trkpt lat="45.71189185754982" lon="9.79677723460872"><ele>415.0</ele><time>2026-04-30T11:40:08Z</time></trkpt><trkpt lat="45.711821310836235" lon="9.796853754121901"><ele>415.00000000000006</ele><time>2026-04-30T11:40:09Z</time></trkpt><trkpt lat="45.711757976016656" lon="9.796948232255728"><ele>415.0</ele><time>2026-04-30T11:40:10Z</time></trkpt><trkpt lat="45.71170009602033" lon="9.797051088665114"><ele>413.4</ele><time>2026-04-30T11:40:11Z</time></trkpt><trkpt lat="45.71163896157292" lon="9.797196343679456"><ele>411.8</ele><time>2026-04-30T11:40:12Z</time></trkpt><trkpt lat="45.711561818656115" lon="9.797339161047786"><ele>410.20000000000005</ele><time>2026-04-30T11:40:13Z</time></trkpt><trkpt lat="45.71154190197843" lon="9.797469482533923"><ele>408.6</ele><time>2026-04-30T11:40:14Z</time></trkpt><trkpt lat="45.711508590827" lon="9.797610665691959"><ele>407.0</ele><time>2026-04-30T11:40:15Z</time></trkpt><trkpt lat="45.71146106430005" lon="9.797746082335008"><ele>405.40000000000003</ele><time>2026-04-30T11:40:16Z</time></trkpt><trkpt lat="45.71141200224693" lon="9.797881350124277"><ele>403.8</ele><time>2026-04-30T11:40:17Z</time></trkpt><trkpt lat="45.711359982905705" lon="9.7980082683519"><ele>402.2</ele><time>2026-04-30T11:40:18Z</time></trkpt><trkpt lat="45.711295698114796" lon="9.798122561344469"><ele>400.6</ele><time>2026-04-30T11:40:19Z</time></trkpt><trkpt lat="45.71122747326929" lon="9.798223046643448"><ele>399.0</ele><time>2026-04-30T11:40:20Z</time></trkpt><trkpt lat="45.711163563844885" lon="9.798316357390307"><ele>399.0</ele><time>2026-04-30T11:40:21Z</time></trkpt><trkpt lat="45.711096091217" lon="9.798402818959964"><ele>399.0</ele><time>2026-04-30T11:40:22Z</time></trkpt><trkpt lat="45.711011949652516" lon="9.798499705999198"><ele>399.0</ele><time>2026-04-30T11:40:23Z</time></trkpt><trkpt lat="45.71096582597912" lon="9.798598458851064"><ele>399.0</ele><time>2026-04-30T11:40:24Z</time></trkpt><trkpt lat="45.71095030781394" lon="9.798712625500388"><ele>399.0</ele><time>2026-04-30T11:40:25Z</time></trkpt><trkpt lat="45.710954194464435" lon="9.798824106893413"><ele>399.0</ele><time>2026-04-30T11:40:26Z</time></trkpt><trkpt lat="45.71083783485452" lon="9.798952601838007"><ele>399.3333333333333</ele><time>2026-04-30T11:40:27Z</time></trkpt><trkpt lat="45.71083854907141" lon="9.799075684036344"><ele>399.66666666666663</ele><time>2026-04-30T11:40:28Z</time></trkpt><trkpt lat="45.710846470767514" lon="9.799195497875658"><ele>400.0</ele><time>2026-04-30T11:40:29Z</time></trkpt><trkpt lat="45.71087158677088" lon="9.799315592640829"><ele>400.3333333333333</ele><time>2026-04-30T11:40:30Z</time></trkpt><trkpt lat="45.71090478214483" lon="9.799425657628959"><ele>400.66666666666663</ele><time>2026-04-30T11:40:31Z</time></trkpt><trkpt lat="45.7109461801278" lon="9.79954655202667"><ele>401.0</ele><time>2026-04-30T11:40:32Z</time></trkpt><trkpt lat="45.71097860429001" lon="9.79966133034059"><ele>400.99999999999994</ele><time>2026-04-30T11:40:33Z</time></trkpt><trkpt lat="45.71100267995381" lon="9.79977660994199"><ele>401.0</ele><time>2026-04-30T11:40:34Z</time></trkpt><trkpt lat="45.711003274756116" lon="9.799896161563126"><ele>401.0</ele><time>2026-04-30T11:40:35Z</time></trkpt><trkpt lat="45.71099034482434" lon="9.800008777560258"><ele>401.0</ele><time>2026-04-30T11:40:36Z</time></trkpt><trkpt lat="45.71097170248646" lon="9.800117151642723"><ele>400.99999999999994</ele><time>2026-04-30T11:40:37Z</time></trkpt><trkpt lat="45.71094214549806" lon="9.800216952247158"><ele>401.0</ele><time>2026-04-30T11:40:38Z</time></trkpt><trkpt lat="45.710905230861826" lon="9.800316087604495"><ele>400.14285714285717</ele><time>2026-04-30T11:40:39Z</time></trkpt><trkpt lat="45.71088022446307" lon="9.800414343285194"><ele>399.28571428571433</ele><time>2026-04-30T11:40:40Z</time></trkpt><trkpt lat="45.71085717764443" lon="9.80051357293684"><ele>398.42857142857144</ele><time>2026-04-30T11:40:41Z</time></trkpt><trkpt lat="45.710841307068605" lon="9.800609414494966"><ele>397.57142857142856</ele><time>2026-04-30T11:40:42Z</time></trkpt><trkpt lat="45.71083611937338" lon="9.800707064827106"><ele>396.7142857142857</ele><time>2026-04-30T11:40:43Z</time></trkpt><trkpt lat="45.710842365095026" lon="9.800799529354418"><ele>395.85714285714283</ele><time>2026-04-30T11:40:44Z</time></trkpt><trkpt lat="45.71086698405376" lon="9.800890805516547"><ele>395.0</ele><time>2026-04-30T11:40:45Z</time></trkpt><trkpt lat="45.71089185236696" lon="9.800989114131708"><ele>395.16666666666663</ele><time>2026-04-30T11:40:46Z</time></trkpt><trkpt lat="45.710925065620025" lon="9.801093491931764"><ele>395.3333333333333</ele><time>2026-04-30T11:40:47Z</time></trkpt><trkpt lat="45.710960835962325" lon="9.801190126035776"><ele>395.5</ele><time>2026-04-30T11:40:48Z</time></trkpt><trkpt lat="45.711016625377226" lon="9.801273295149533"><ele>395.66666666666663</ele><time>2026-04-30T11:40:49Z</time></trkpt><trkpt lat="45.71107028888931" lon="9.801352344264423"><ele>395.8333333333333</ele><time>2026-04-30T11:40:50Z</time></trkpt><trkpt lat="45.711135744568274" lon="9.801418807456763"><ele>396.0</ele><time>2026-04-30T11:40:51Z</time></trkpt><trkpt lat="45.71120384135082" lon="9.801476828988019"><ele>394.20000000000005</ele><time>2026-04-30T11:40:52Z</time></trkpt><trkpt lat="45.711274543613015" lon="9.801540846435257"><ele>392.40000000000003</ele><time>2026-04-30T11:40:53Z</time></trkpt><trkpt lat="45.711354180733615" lon="9.801610842473442"><ele>390.6</ele><time>2026-04-30T11:40:54Z</time></trkpt><trkpt lat="45.711439593174426" lon="9.801684392193149"><ele>388.8</ele><time>2026-04-30T11:40:55Z</time></trkpt><trkpt lat="45.711529859720876" lon="9.801765160758187"><ele>387.0</ele><time>2026-04-30T11:40:56Z</time></trkpt><trkpt lat="45.711621722007" lon="9.8018484796858"><ele>387.0</ele><time>2026-04-30T11:40:57Z</time></trkpt><trkpt lat="45.71171131671055" lon="9.801952081178001"><ele>387.0</ele><time>2026-04-30T11:40:58Z</time></trkpt><trkpt lat="45.711793331926806" lon="9.802072754053777"><ele>387.0</ele><time>2026-04-30T11:40:59Z</time></trkpt><trkpt lat="45.71186808616839" lon="9.802212909332273"><ele>387.0</ele><time>2026-04-30T11:41:00Z</time></trkpt><trkpt lat="45.711932246472145" lon="9.802368938128131"><ele>381.25</ele><time>2026-04-30T11:41:01Z</time></trkpt><trkpt lat="45.71199995821041" lon="9.802534239552486"><ele>375.5</ele><time>2026-04-30T11:41:02Z</time></trkpt><trkpt lat="45.71206598561087" lon="9.802694829852275"><ele>369.75</ele><time>2026-04-30T11:41:03Z</time></trkpt><trkpt lat="45.71213542311409" lon="9.802853516107747"><ele>364.0</ele><time>2026-04-30T11:41:04Z</time></trkpt><trkpt lat="45.71218825198107" lon="9.80300026845312"><ele>364.0</ele><time>2026-04-30T11:41:05Z</time></trkpt><trkpt lat="45.71222407606691" lon="9.803139253031173"><ele>364.0</ele><time>2026-04-30T11:41:06Z</time></trkpt><trkpt lat="45.71223428849023" lon="9.803267780768303"><ele>364.0</ele><time>2026-04-30T11:41:07Z</time></trkpt><trkpt lat="45.712249937134175" lon="9.803384313347337"><ele>364.0</ele><time>2026-04-30T11:41:08Z</time></trkpt><trkpt lat="45.71228766156056" lon="9.803461231751296"><ele>364.0</ele><time>2026-04-30T11:41:09Z</time></trkpt><trkpt lat="45.71236011782305" lon="9.80349017778566"><ele>364.0</ele><time>2026-04-30T11:41:10Z</time></trkpt><trkpt lat="45.71243667420307" lon="9.803465294312398"><ele>364.0</ele><time>2026-04-30T11:41:11Z</time></trkpt><trkpt lat="45.7124982216716" lon="9.803373583107673"><ele>364.0</ele><time>2026-04-30T11:41:12Z</time></trkpt><trkpt lat="45.71250680168307" lon="9.803240020694902"><ele>364.0</ele><time>2026-04-30T11:41:13Z</time></trkpt><trkpt lat="45.71245753975881" lon="9.80311124927457"><ele>364.0</ele><time>2026-04-30T11:41:14Z</time></trkpt><trkpt lat="45.712397993018634" lon="9.80302868817883"><ele>364.0</ele><time>2026-04-30T11:41:15Z</time></trkpt><trkpt lat="45.71233050843292" lon="9.802915346513029"><ele>364.0</ele><time>2026-04-30T11:41:17Z</time></trkpt><trkpt lat="45.71235462405069" lon="9.80281382493649"><ele>364.0</ele><time>2026-04-30T11:41:19Z</time></trkpt><trkpt lat="45.71241396355885" lon="9.802779385783195"><ele>364.0</ele><time>2026-04-30T11:41:21Z</time></trkpt><trkpt lat="45.7124844303294" lon="9.802787255253973"><ele>364.0</ele><time>2026-04-30T11:41:23Z</time></trkpt><trkpt lat="45.71253293138705" lon="9.802853332482837"><ele>364.0</ele><time>2026-04-30T11:41:25Z</time></trkpt><trkpt lat="45.71259224942172" lon="9.80295926422081"><ele>364.0</ele><time>2026-04-30T11:41:27Z</time></trkpt><trkpt lat="45.712667435722935" lon="9.803099066562801"><ele>364.0</ele><time>2026-04-30T11:41:29Z</time></trkpt><trkpt lat="45.71269894504723" lon="9.803194077432893"><ele>364.0</ele><time>2026-04-30T11:41:30Z</time></trkpt><trkpt lat="45.712719962822376" lon="9.803309077702563"><ele>364.0</ele><time>2026-04-30T11:41:31Z</time></trkpt><trkpt lat="45.71273068336234" lon="9.803437484513601"><ele>364.0</ele><time>2026-04-30T11:41:32Z</time></trkpt><trkpt lat="45.712745294778635" lon="9.803570954480865"><ele>364.0</ele><time>2026-04-30T11:41:33Z</time></trkpt><trkpt lat="45.71275974056927" lon="9.803716501929157"><ele>364.0</ele><time>2026-04-30T11:41:34Z</time></trkpt><trkpt lat="45.712768486581524" lon="9.80386993967871"><ele>359.0</ele><time>2026-04-30T11:41:35Z</time></trkpt><trkpt lat="45.712779069966835" lon="9.804030077666374"><ele>354.0</ele><time>2026-04-30T11:41:36Z</time></trkpt><trkpt lat="45.71281140282144" lon="9.80418848082585"><ele>349.0</ele><time>2026-04-30T11:41:37Z</time></trkpt><trkpt lat="45.71284812193738" lon="9.804361334132889"><ele>344.0</ele><time>2026-04-30T11:41:38Z</time></trkpt><trkpt lat="45.71282876014973" lon="9.804551066158652"><ele>343.0</ele><time>2026-04-30T11:41:39Z</time></trkpt><trkpt lat="45.71283838634638" lon="9.804742343286172"><ele>342.0</ele><time>2026-04-30T11:41:40Z</time></trkpt><trkpt lat="45.71284753936351" lon="9.80493954333655"><ele>341.0</ele><time>2026-04-30T11:41:41Z</time></trkpt><trkpt lat="45.71285303072376" lon="9.805143776261879"><ele>340.0</ele><time>2026-04-30T11:41:42Z</time></trkpt><trkpt lat="45.712858332802476" lon="9.805355309671075"><ele>339.25</ele><time>2026-04-30T11:41:43Z</time></trkpt><trkpt lat="45.712862673753975" lon="9.805570068509923"><ele>338.5</ele><time>2026-04-30T11:41:44Z</time></trkpt><trkpt lat="45.71286531431958" lon="9.805774502995492"><ele>337.75</ele><time>2026-04-30T11:41:45Z</time></trkpt><trkpt lat="45.7128753684251" lon="9.805976467293908"><ele>337.0</ele><time>2026-04-30T11:41:46Z</time></trkpt><trkpt lat="45.71288497655925" lon="9.80617057997002"><ele>337.0</ele><time>2026-04-30T11:41:47Z</time></trkpt><trkpt lat="45.71289558251731" lon="9.806355497799627"><ele>337.0</ele><time>2026-04-30T11:41:48Z</time></trkpt><trkpt lat="45.712905119884795" lon="9.806542865263534"><ele>337.0</ele><time>2026-04-30T11:41:49Z</time></trkpt><trkpt lat="45.712917211637944" lon="9.806719266699544"><ele>337.0</ele><time>2026-04-30T11:41:50Z</time></trkpt><trkpt lat="45.7129209464668" lon="9.806897146211329"><ele>337.0</ele><time>2026-04-30T11:41:51Z</time></trkpt><trkpt lat="45.71293394845627" lon="9.807068497952153"><ele>337.0</ele><time>2026-04-30T11:41:52Z</time></trkpt><trkpt lat="45.71294452793513" lon="9.807236334899713"><ele>337.0</ele><time>2026-04-30T11:41:53Z</time></trkpt><trkpt lat="45.71295679999496" lon="9.807396982556188"><ele>337.0</ele><time>2026-04-30T11:41:54Z</time></trkpt><trkpt lat="45.71296921865054" lon="9.807554885614275"><ele>336.6</ele><time>2026-04-30T11:41:55Z</time></trkpt><trkpt lat="45.71297835245931" lon="9.807710650830321"><ele>336.20000000000005</ele><time>2026-04-30T11:41:56Z</time></trkpt><trkpt lat="45.712987977629005" lon="9.80786347998694"><ele>335.8</ele><time>2026-04-30T11:41:57Z</time></trkpt><trkpt lat="45.71299540117817" lon="9.80801316534595"><ele>335.4</ele><time>2026-04-30T11:41:58Z</time></trkpt><trkpt lat="45.713007010359874" lon="9.80815956017811"><ele>335.0</ele><time>2026-04-30T11:41:59Z</time></trkpt><trkpt lat="45.713016282010045" lon="9.80830482568517"><ele>335.0</ele><time>2026-04-30T11:42:00Z</time></trkpt><trkpt lat="45.71302171627584" lon="9.808449534015915"><ele>335.0</ele><time>2026-04-30T11:42:01Z</time></trkpt><trkpt lat="45.713026990915715" lon="9.808593398774704"><ele>335.0</ele><time>2026-04-30T11:42:02Z</time></trkpt><trkpt lat="45.713038080396316" lon="9.808734668214553"><ele>335.0</ele><time>2026-04-30T11:42:03Z</time></trkpt><trkpt lat="45.71304681959338" lon="9.808875329291086"><ele>335.0</ele><time>2026-04-30T11:42:04Z</time></trkpt><trkpt lat="45.71305595628621" lon="9.80901350053222"><ele>334.2</ele><time>2026-04-30T11:42:05Z</time></trkpt><trkpt lat="45.71306710721635" lon="9.809147794709885"><ele>333.4</ele><time>2026-04-30T11:42:06Z</time></trkpt><trkpt lat="45.71307338945208" lon="9.809281208624531"><ele>332.6</ele><time>2026-04-30T11:42:07Z</time></trkpt><trkpt lat="45.71307516947382" lon="9.809412642020433"><ele>331.8</ele><time>2026-04-30T11:42:08Z</time></trkpt><trkpt lat="45.71307152737385" lon="9.809542325814276"><ele>331.0</ele><time>2026-04-30T11:42:09Z</time></trkpt><trkpt lat="45.71305533768435" lon="9.809667387091588"><ele>330.8333333333333</ele><time>2026-04-30T11:42:10Z</time></trkpt><trkpt lat="45.713027056888876" lon="9.809786212172083"><ele>330.66666666666663</ele><time>2026-04-30T11:42:11Z</time></trkpt><trkpt lat="45.71298886021853" lon="9.809898327583104"><ele>330.5</ele><time>2026-04-30T11:42:12Z</time></trkpt><trkpt lat="45.71294240678488" lon="9.810004491820658"><ele>330.3333333333333</ele><time>2026-04-30T11:42:13Z</time></trkpt><trkpt lat="45.712890655786545" lon="9.810102277650069"><ele>330.1666666666667</ele><time>2026-04-30T11:42:14Z</time></trkpt><trkpt lat="45.71283316389954" lon="9.810193909394512"><ele>330.0</ele><time>2026-04-30T11:42:15Z</time></trkpt><trkpt lat="45.71277761476021" lon="9.810280286311736"><ele>329.5</ele><time>2026-04-30T11:42:16Z</time></trkpt><trkpt lat="45.7127234238989" lon="9.810366607273648"><ele>329.0</ele><time>2026-04-30T11:42:17Z</time></trkpt><trkpt lat="45.712663430354" lon="9.810444653690302"><ele>328.5</ele><time>2026-04-30T11:42:18Z</time></trkpt><trkpt lat="45.71260372600417" lon="9.810521499357025"><ele>328.0</ele><time>2026-04-30T11:42:19Z</time></trkpt><trkpt lat="45.712547051365476" lon="9.810601013862907"><ele>327.5</ele><time>2026-04-30T11:42:20Z</time></trkpt><trkpt lat="45.712490433521104" lon="9.810685876855397"><ele>327.0</ele><time>2026-04-30T11:42:21Z</time></trkpt><trkpt lat="45.71243370455253" lon="9.81076643964385"><ele>327.0</ele><time>2026-04-30T11:42:22Z</time></trkpt><trkpt lat="45.71237554887541" lon="9.81084579845776"><ele>327.0</ele><time>2026-04-30T11:42:23Z</time></trkpt><trkpt lat="45.712317841200594" lon="9.810928358827429"><ele>327.0</ele><time>2026-04-30T11:42:24Z</time></trkpt><trkpt lat="45.712263895541405" lon="9.811013687447089"><ele>327.0</ele><time>2026-04-30T11:42:25Z</time></trkpt><trkpt lat="45.71221028767066" lon="9.81109780034076"><ele>327.0</ele><time>2026-04-30T11:42:26Z</time></trkpt><trkpt lat="45.712150670883084" lon="9.811178340618477"><ele>327.0</ele><time>2026-04-30T11:42:27Z</time></trkpt><trkpt lat="45.71209309705924" lon="9.811259565899414"><ele>327.0</ele><time>2026-04-30T11:42:28Z</time></trkpt><trkpt lat="45.712035992780876" lon="9.811344121069004"><ele>327.0</ele><time>2026-04-30T11:42:29Z</time></trkpt><trkpt lat="45.711979014706685" lon="9.811428088395498"><ele>327.0</ele><time>2026-04-30T11:42:30Z</time></trkpt><trkpt lat="45.711921470030475" lon="9.811512712994881"><ele>327.0</ele><time>2026-04-30T11:42:31Z</time></trkpt><trkpt lat="45.71186379825002" lon="9.811596299862234"><ele>327.0</ele><time>2026-04-30T11:42:32Z</time></trkpt><trkpt lat="45.71180577086445" lon="9.811682869301388"><ele>327.0</ele><time>2026-04-30T11:42:33Z</time></trkpt><trkpt lat="45.71174837792493" lon="9.811769574375683"><ele>326.3333333333333</ele><time>2026-04-30T11:42:34Z</time></trkpt><trkpt lat="45.711693819802036" lon="9.811861379128953"><ele>325.6666666666667</ele><time>2026-04-30T11:42:35Z</time></trkpt><trkpt lat="45.71163938706402" lon="9.811957558727352"><ele>325.0</ele><time>2026-04-30T11:42:36Z</time></trkpt><trkpt lat="45.71158183046952" lon="9.812053200347533"><ele>324.33333333333337</ele><time>2026-04-30T11:42:37Z</time></trkpt><trkpt lat="45.71152337868756" lon="9.812151795183627"><ele>323.6666666666667</ele><time>2026-04-30T11:42:38Z</time></trkpt><trkpt lat="45.71147125548585" lon="9.812256299687508"><ele>323.0</ele><time>2026-04-30T11:42:39Z</time></trkpt><trkpt lat="45.71141842933175" lon="9.812363840263288"><ele>323.0</ele><time>2026-04-30T11:42:40Z</time></trkpt><trkpt lat="45.711364477683155" lon="9.812477502277705"><ele>323.0</ele><time>2026-04-30T11:42:41Z</time></trkpt><trkpt lat="45.71131454398636" lon="9.812593300814742"><ele>323.0</ele><time>2026-04-30T11:42:42Z</time></trkpt><trkpt lat="45.711261375476" lon="9.812709526244609"><ele>323.0</ele><time>2026-04-30T11:42:43Z</time></trkpt><trkpt lat="45.71120810790142" lon="9.812831126246204"><ele>323.0</ele><time>2026-04-30T11:42:44Z</time></trkpt><trkpt lat="45.71115625854556" lon="9.812952992842051"><ele>323.2</ele><time>2026-04-30T11:42:45Z</time></trkpt><trkpt lat="45.71110322192313" lon="9.813071576576512"><ele>323.4</ele><time>2026-04-30T11:42:46Z</time></trkpt><trkpt lat="45.71104718840456" lon="9.81319274665324"><ele>323.59999999999997</ele><time>2026-04-30T11:42:47Z</time></trkpt><trkpt lat="45.710996048719224" lon="9.813311278763095"><ele>323.79999999999995</ele><time>2026-04-30T11:42:48Z</time></trkpt><trkpt lat="45.710948377237834" lon="9.813434502806029"><ele>324.0</ele><time>2026-04-30T11:42:49Z</time></trkpt><trkpt lat="45.71089711752543" lon="9.81355309227341"><ele>322.8</ele><time>2026-04-30T11:42:50Z</time></trkpt><trkpt lat="45.710848009680866" lon="9.813670048399977"><ele>321.59999999999997</ele><time>2026-04-30T11:42:51Z</time></trkpt><trkpt lat="45.710796055231235" lon="9.813784900627718"><ele>320.4</ele><time>2026-04-30T11:42:52Z</time></trkpt><trkpt lat="45.71074653858126" lon="9.813897085371398"><ele>319.2</ele><time>2026-04-30T11:42:53Z</time></trkpt><trkpt lat="45.71069575625592" lon="9.814008024366098"><ele>318.0</ele><time>2026-04-30T11:42:54Z</time></trkpt><trkpt lat="45.71064802542949" lon="9.814118771726653"><ele>318.0</ele><time>2026-04-30T11:42:55Z</time></trkpt><trkpt lat="45.71060152657436" lon="9.814228892528433"><ele>318.0</ele><time>2026-04-30T11:42:56Z</time></trkpt><trkpt lat="45.71055718892808" lon="9.814337391477373"><ele>318.0</ele><time>2026-04-30T11:42:57Z</time></trkpt><trkpt lat="45.71051048535026" lon="9.81444533445415"><ele>318.0</ele><time>2026-04-30T11:42:58Z</time></trkpt><trkpt lat="45.71046834032045" lon="9.814556768540413"><ele>318.0</ele><time>2026-04-30T11:42:59Z</time></trkpt><trkpt lat="45.71043177726107" lon="9.814669534715021"><ele>318.0</ele><time>2026-04-30T11:43:00Z</time></trkpt><trkpt lat="45.710396943487346" lon="9.814784231244293"><ele>318.0</ele><time>2026-04-30T11:43:01Z</time></trkpt><trkpt lat="45.71036740380364" lon="9.814899130323335"><ele>318.0</ele><time>2026-04-30T11:43:02Z</time></trkpt><trkpt lat="45.71034138968483" lon="9.815014604262789"><ele>318.0</ele><time>2026-04-30T11:43:03Z</time></trkpt><trkpt lat="45.710323401549424" lon="9.815133031313731"><ele>318.0</ele><time>2026-04-30T11:43:04Z</time></trkpt><trkpt lat="45.710307048279724" lon="9.815252458773543"><ele>318.0</ele><time>2026-04-30T11:43:05Z</time></trkpt><trkpt lat="45.710285321794444" lon="9.815369350398463"><ele>318.0</ele><time>2026-04-30T11:43:06Z</time></trkpt><trkpt lat="45.710263751908975" lon="9.815484928011168"><ele>318.1666666666667</ele><time>2026-04-30T11:43:07Z</time></trkpt><trkpt lat="45.71024386756632" lon="9.815599647749925"><ele>318.3333333333333</ele><time>2026-04-30T11:43:08Z</time></trkpt><trkpt lat="45.71022495684343" lon="9.815714277040854"><ele>318.5</ele><time>2026-04-30T11:43:09Z</time></trkpt><trkpt lat="45.71020482466845" lon="9.815828364898074"><ele>318.66666666666663</ele><time>2026-04-30T11:43:10Z</time></trkpt><trkpt lat="45.71018754778677" lon="9.81594380056055"><ele>318.8333333333333</ele><time>2026-04-30T11:43:11Z</time></trkpt><trkpt lat="45.71017325613391" lon="9.816059351124702"><ele>319.0</ele><time>2026-04-30T11:43:12Z</time></trkpt><trkpt lat="45.71016138327224" lon="9.816173358200297"><ele>318.14285714285717</ele><time>2026-04-30T11:43:13Z</time></trkpt><trkpt lat="45.71015088587831" lon="9.816282101417407"><ele>317.2857142857143</ele><time>2026-04-30T11:43:14Z</time></trkpt><trkpt lat="45.71014321141683" lon="9.816388437745152"><ele>316.42857142857144</ele><time>2026-04-30T11:43:15Z</time></trkpt><trkpt lat="45.710138783114076" lon="9.816493056533943"><ele>315.57142857142856</ele><time>2026-04-30T11:43:16Z</time></trkpt><trkpt lat="45.71013288697243" lon="9.816597290917143"><ele>314.7142857142857</ele><time>2026-04-30T11:43:17Z</time></trkpt><trkpt lat="45.710133999824464" lon="9.816701414600091"><ele>313.85714285714283</ele><time>2026-04-30T11:43:18Z</time></trkpt><trkpt lat="45.71013636292567" lon="9.816805729926916"><ele>313.0</ele><time>2026-04-30T11:43:19Z</time></trkpt><trkpt lat="45.71013927280668" lon="9.816907474931089"><ele>313.0</ele><time>2026-04-30T11:43:20Z</time></trkpt><trkpt lat="45.710141051443095" lon="9.817010282019368"><ele>313.0</ele><time>2026-04-30T11:43:21Z</time></trkpt><trkpt lat="45.71014300800597" lon="9.817112990980965"><ele>313.0</ele><time>2026-04-30T11:43:22Z</time></trkpt><trkpt lat="45.710144360169224" lon="9.817215794027808"><ele>313.0</ele><time>2026-04-30T11:43:23Z</time></trkpt><trkpt lat="45.71014643301712" lon="9.817315050676836"><ele>313.0</ele><time>2026-04-30T11:43:24Z</time></trkpt><trkpt lat="45.710147650023025" lon="9.817414560820097"><ele>313.0</ele><time>2026-04-30T11:43:25Z</time></trkpt><trkpt lat="45.71014922881694" lon="9.817515758857098"><ele>313.0</ele><time>2026-04-30T11:43:26Z</time></trkpt><trkpt lat="45.71015092239112" lon="9.817615029561484"><ele>313.0</ele><time>2026-04-30T11:43:27Z</time></trkpt><trkpt lat="45.71015300360793" lon="9.817713767524667"><ele>313.0</ele><time>2026-04-30T11:43:28Z</time></trkpt><trkpt lat="45.71015506764927" lon="9.817812571447059"><ele>313.0</ele><time>2026-04-30T11:43:29Z</time></trkpt><trkpt lat="45.710157191210875" lon="9.817910737496957"><ele>313.0</ele><time>2026-04-30T11:43:30Z</time></trkpt><trkpt lat="45.71016008239584" lon="9.818009822891621"><ele>313.0</ele><time>2026-04-30T11:43:31Z</time></trkpt><trkpt lat="45.71016338985127" lon="9.818105936325352"><ele>313.0</ele><time>2026-04-30T11:43:32Z</time></trkpt><trkpt lat="45.71016681879953" lon="9.818201966218398"><ele>313.0</ele><time>2026-04-30T11:43:33Z</time></trkpt><trkpt lat="45.71016990178195" lon="9.818296617951678"><ele>313.0</ele><time>2026-04-30T11:43:34Z</time></trkpt><trkpt lat="45.710174351592194" lon="9.818390025787012"><ele>313.0</ele><time>2026-04-30T11:43:35Z</time></trkpt><trkpt lat="45.71017667537938" lon="9.818484284112934"><ele>313.0</ele><time>2026-04-30T11:43:36Z</time></trkpt><trkpt lat="45.710178600779415" lon="9.818577643485604"><ele>313.0</ele><time>2026-04-30T11:43:37Z</time></trkpt><trkpt lat="45.71018055243408" lon="9.818668572540549"><ele>313.0</ele><time>2026-04-30T11:43:38Z</time></trkpt><trkpt lat="45.710181031602374" lon="9.818759707151303"><ele>313.0</ele><time>2026-04-30T11:43:39Z</time></trkpt><trkpt lat="45.710185422487356" lon="9.818939985392552"><ele>313.0</ele><time>2026-04-30T11:43:41Z</time></trkpt><trkpt lat="45.710186622215595" lon="9.819030680299331"><ele>313.0</ele><time>2026-04-30T11:43:42Z</time></trkpt><trkpt lat="45.710187939196345" lon="9.819121045345161"><ele>313.0</ele><time>2026-04-30T11:43:43Z</time></trkpt><trkpt lat="45.71019207271248" lon="9.819304155194652"><ele>313.0</ele><time>2026-04-30T11:43:45Z</time></trkpt><trkpt lat="45.71019985524388" lon="9.819483004483073"><ele>313.0</ele><time>2026-04-30T11:43:47Z</time></trkpt><trkpt lat="45.71020334900567" lon="9.819659295158285"><ele>313.2</ele><time>2026-04-30T11:43:49Z</time></trkpt><trkpt lat="45.71021412758066" lon="9.819832147352159"><ele>313.4</ele><time>2026-04-30T11:43:51Z</time></trkpt><trkpt lat="45.710218333478444" lon="9.819922447431216"><ele>313.59999999999997</ele><time>2026-04-30T11:43:52Z</time></trkpt><trkpt lat="45.71022281093277" lon="9.8201003167944"><ele>313.8</ele><time>2026-04-30T11:43:54Z</time></trkpt><trkpt lat="45.71022936235926" lon="9.82027694822744"><ele>314.0</ele><time>2026-04-30T11:43:56Z</time></trkpt><trkpt lat="45.71023532890816" lon="9.82045097623618"><ele>314.5</ele><time>2026-04-30T11:43:58Z</time></trkpt><trkpt lat="45.71023873522518" lon="9.820629976937987"><ele>315.0</ele><time>2026-04-30T11:44:00Z</time></trkpt><trkpt lat="45.71024418803842" lon="9.820809688902765"><ele>315.5</ele><time>2026-04-30T11:44:02Z</time></trkpt><trkpt lat="45.71024828527221" lon="9.820983573017426"><ele>316.0</ele><time>2026-04-30T11:44:04Z</time></trkpt><trkpt lat="45.71024876520711" lon="9.821153332002899"><ele>317.0</ele><time>2026-04-30T11:44:06Z</time></trkpt><trkpt lat="45.710241253603975" lon="9.821329114298525"><ele>318.0</ele><time>2026-04-30T11:44:08Z</time></trkpt><trkpt lat="45.71023355030499" lon="9.821502239432228"><ele>319.0</ele><time>2026-04-30T11:44:10Z</time></trkpt><trkpt lat="45.710217152682375" lon="9.82167511047756"><ele>320.0</ele><time>2026-04-30T11:44:12Z</time></trkpt><trkpt lat="45.710196092892566" lon="9.821828687215907"><ele>320.4</ele><time>2026-04-30T11:44:14Z</time></trkpt><trkpt lat="45.71017649576727" lon="9.821962617541663"><ele>320.8</ele><time>2026-04-30T11:44:16Z</time></trkpt><trkpt lat="45.710163807089934" lon="9.822083592954726"><ele>321.20000000000005</ele><time>2026-04-30T11:44:18Z</time></trkpt><trkpt lat="45.710137588678826" lon="9.822231324596956"><ele>321.6</ele><time>2026-04-30T11:44:20Z</time></trkpt><trkpt lat="45.71011311493382" lon="9.822388850245364"><ele>322.0</ele><time>2026-04-30T11:44:22Z</time></trkpt><trkpt lat="45.71009818742302" lon="9.822538886123334"><ele>322.0</ele><time>2026-04-30T11:44:24Z</time></trkpt><trkpt lat="45.71007670448007" lon="9.822681003280485"><ele>322.0</ele><time>2026-04-30T11:44:26Z</time></trkpt><trkpt lat="45.71005530321249" lon="9.822821085023879"><ele>322.0</ele><time>2026-04-30T11:44:28Z</time></trkpt><trkpt lat="45.71003319481294" lon="9.822956164201791"><ele>322.0</ele><time>2026-04-30T11:44:30Z</time></trkpt><trkpt lat="45.71001334869023" lon="9.823088299432097"><ele>322.0</ele><time>2026-04-30T11:44:32Z</time></trkpt><trkpt lat="45.70998385651458" lon="9.823255661438424"><ele>322.0</ele><time>2026-04-30T11:44:34Z</time></trkpt><trkpt lat="45.709960848309166" lon="9.823349799786708"><ele>322.0</ele><time>2026-04-30T11:44:35Z</time></trkpt><trkpt lat="45.709938454144684" lon="9.823436597408199"><ele>322.0</ele><time>2026-04-30T11:44:36Z</time></trkpt><trkpt lat="45.70991652425217" lon="9.823525530120012"><ele>322.0</ele><time>2026-04-30T11:44:37Z</time></trkpt><trkpt lat="45.70989642109844" lon="9.823616451842874"><ele>322.0</ele><time>2026-04-30T11:44:38Z</time></trkpt><trkpt lat="45.70987827775189" lon="9.823707364290474"><ele>322.0</ele><time>2026-04-30T11:44:39Z</time></trkpt><trkpt lat="45.709862668293034" lon="9.823800009933167"><ele>322.0</ele><time>2026-04-30T11:44:40Z</time></trkpt><trkpt lat="45.70984759593073" lon="9.823891383314809"><ele>321.85714285714283</ele><time>2026-04-30T11:44:41Z</time></trkpt><trkpt lat="45.70983463754254" lon="9.823986109610194"><ele>321.7142857142857</ele><time>2026-04-30T11:44:42Z</time></trkpt><trkpt lat="45.70981771402283" lon="9.824078870447737"><ele>321.57142857142856</ele><time>2026-04-30T11:44:43Z</time></trkpt><trkpt lat="45.70980480209626" lon="9.824177640935014"><ele>321.42857142857144</ele><time>2026-04-30T11:44:44Z</time></trkpt><trkpt lat="45.709784947927176" lon="9.824274596775092"><ele>321.2857142857143</ele><time>2026-04-30T11:44:45Z</time></trkpt><trkpt lat="45.70975789300658" lon="9.824371955693467"><ele>321.1428571428571</ele><time>2026-04-30T11:44:46Z</time></trkpt><trkpt lat="45.70972662775093" lon="9.824468094474973"><ele>321.0</ele><time>2026-04-30T11:44:47Z</time></trkpt><trkpt lat="45.70968774620639" lon="9.824563335870632"><ele>320.8333333333333</ele><time>2026-04-30T11:44:48Z</time></trkpt><trkpt lat="45.70964871122864" lon="9.824663184940436"><ele>320.6666666666667</ele><time>2026-04-30T11:44:49Z</time></trkpt><trkpt lat="45.709608169999264" lon="9.824763435101884"><ele>320.5</ele><time>2026-04-30T11:44:50Z</time></trkpt><trkpt lat="45.709570532820244" lon="9.824870994065048"><ele>320.33333333333337</ele><time>2026-04-30T11:44:51Z</time></trkpt><trkpt lat="45.709532349631274" lon="9.824977003416857"><ele>320.1666666666667</ele><time>2026-04-30T11:44:52Z</time></trkpt><trkpt lat="45.70948892443157" lon="9.825084055043366"><ele>320.0</ele><time>2026-04-30T11:44:53Z</time></trkpt><trkpt lat="45.70944749409822" lon="9.825197484619682"><ele>319.0</ele><time>2026-04-30T11:44:54Z</time></trkpt><trkpt lat="45.709404136042494" lon="9.82530568215739"><ele>318.0</ele><time>2026-04-30T11:44:55Z</time></trkpt><trkpt lat="45.7093627855988" lon="9.825423591591626"><ele>317.0</ele><time>2026-04-30T11:44:56Z</time></trkpt><trkpt lat="45.70930951693654" lon="9.825529857107545"><ele>316.0</ele><time>2026-04-30T11:44:57Z</time></trkpt><trkpt lat="45.709263122331215" lon="9.825647987852584"><ele>315.0</ele><time>2026-04-30T11:44:58Z</time></trkpt><trkpt lat="45.70921724397182" lon="9.825758976515436"><ele>315.0</ele><time>2026-04-30T11:44:59Z</time></trkpt><trkpt lat="45.709164916216935" lon="9.825874724554609"><ele>315.0</ele><time>2026-04-30T11:45:00Z</time></trkpt><trkpt lat="45.709109273979564" lon="9.82598796722801"><ele>315.0</ele><time>2026-04-30T11:45:01Z</time></trkpt><trkpt lat="45.70905245384446" lon="9.826096240115184"><ele>315.0</ele><time>2026-04-30T11:45:02Z</time></trkpt><trkpt lat="45.70898990940674" lon="9.826203440334403"><ele>315.0</ele><time>2026-04-30T11:45:03Z</time></trkpt><trkpt lat="45.7089318666352" lon="9.826310080952489"><ele>314.4</ele><time>2026-04-30T11:45:04Z</time></trkpt><trkpt lat="45.708872738800146" lon="9.826414562123064"><ele>313.8</ele><time>2026-04-30T11:45:05Z</time></trkpt><trkpt lat="45.7088123303912" lon="9.82652022971247"><ele>313.2</ele><time>2026-04-30T11:45:06Z</time></trkpt><trkpt lat="45.70875458504528" lon="9.82662605321525"><ele>312.6</ele><time>2026-04-30T11:45:07Z</time></trkpt><trkpt lat="45.708696121384" lon="9.826729956104415"><ele>312.0</ele><time>2026-04-30T11:45:08Z</time></trkpt><trkpt lat="45.70863473322955" lon="9.826833693355292"><ele>311.0</ele><time>2026-04-30T11:45:09Z</time></trkpt><trkpt lat="45.70857486320046" lon="9.82694038190259"><ele>310.0</ele><time>2026-04-30T11:45:10Z</time></trkpt><trkpt lat="45.708516642453674" lon="9.827048341474635"><ele>309.0</ele><time>2026-04-30T11:45:11Z</time></trkpt><trkpt lat="45.708457856052036" lon="9.82714941456108"><ele>308.0</ele><time>2026-04-30T11:45:12Z</time></trkpt><trkpt lat="45.708401132123726" lon="9.82724798589076"><ele>307.0</ele><time>2026-04-30T11:45:13Z</time></trkpt><trkpt lat="45.70834667115602" lon="9.827348732815214"><ele>307.0</ele><time>2026-04-30T11:45:14Z</time></trkpt><trkpt lat="45.708292229162915" lon="9.827448136817353"><ele>307.0</ele><time>2026-04-30T11:45:15Z</time></trkpt><trkpt lat="45.70823418198849" lon="9.827542155486695"><ele>307.0</ele><time>2026-04-30T11:45:16Z</time></trkpt><trkpt lat="45.708172243175376" lon="9.827633163064501"><ele>307.0</ele><time>2026-04-30T11:45:17Z</time></trkpt><trkpt lat="45.70810378145647" lon="9.827719792436978"><ele>307.0</ele><time>2026-04-30T11:45:18Z</time></trkpt><trkpt lat="45.70803162448564" lon="9.827805038904053"><ele>307.0</ele><time>2026-04-30T11:45:19Z</time></trkpt><trkpt lat="45.7079575730288" lon="9.827888579372617"><ele>306.4</ele><time>2026-04-30T11:45:20Z</time></trkpt><trkpt lat="45.7078818656611" lon="9.827966416074153"><ele>305.79999999999995</ele><time>2026-04-30T11:45:21Z</time></trkpt><trkpt lat="45.70780717320448" lon="9.828047841926965"><ele>305.2</ele><time>2026-04-30T11:45:22Z</time></trkpt><trkpt lat="45.70772980129466" lon="9.828126770839242"><ele>304.59999999999997</ele><time>2026-04-30T11:45:23Z</time></trkpt><trkpt lat="45.70765185781318" lon="9.82820276611196"><ele>304.0</ele><time>2026-04-30T11:45:24Z</time></trkpt><trkpt lat="45.707571312595796" lon="9.828277004123633"><ele>304.0</ele><time>2026-04-30T11:45:25Z</time></trkpt><trkpt lat="45.70740904945335" lon="9.828437280610645"><ele>304.0</ele><time>2026-04-30T11:45:27Z</time></trkpt><trkpt lat="45.70732298117207" lon="9.828517147491997"><ele>304.0</ele><time>2026-04-30T11:45:28Z</time></trkpt><trkpt lat="45.70723938824844" lon="9.828598517843062"><ele>304.0</ele><time>2026-04-30T11:45:29Z</time></trkpt><trkpt lat="45.70715310039829" lon="9.828676229971453"><ele>303.59999999999997</ele><time>2026-04-30T11:45:30Z</time></trkpt><trkpt lat="45.70706851532464" lon="9.828764990295243"><ele>303.2</ele><time>2026-04-30T11:45:31Z</time></trkpt><trkpt lat="45.70698401971387" lon="9.828855469098977"><ele>302.79999999999995</ele><time>2026-04-30T11:45:32Z</time></trkpt><trkpt lat="45.706898209886305" lon="9.828943066445168"><ele>302.4</ele><time>2026-04-30T11:45:33Z</time></trkpt><trkpt lat="45.70680880309809" lon="9.829023554687625"><ele>302.0</ele><time>2026-04-30T11:45:34Z</time></trkpt><trkpt lat="45.706719782594135" lon="9.82910550875669"><ele>301.4</ele><time>2026-04-30T11:45:35Z</time></trkpt><trkpt lat="45.70663224217827" lon="9.829190990303566"><ele>300.79999999999995</ele><time>2026-04-30T11:45:36Z</time></trkpt><trkpt lat="45.706545524665586" lon="9.82927786854706"><ele>300.2</ele><time>2026-04-30T11:45:37Z</time></trkpt><trkpt lat="45.70645944940614" lon="9.829365410756221"><ele>299.59999999999997</ele><time>2026-04-30T11:45:38Z</time></trkpt><trkpt lat="45.706373000476795" lon="9.829457570498812"><ele>299.0</ele><time>2026-04-30T11:45:39Z</time></trkpt><trkpt lat="45.70628346900345" lon="9.829543442370257"><ele>298.59999999999997</ele><time>2026-04-30T11:45:40Z</time></trkpt><trkpt lat="45.70619312140835" lon="9.829629768438"><ele>298.2</ele><time>2026-04-30T11:45:41Z</time></trkpt><trkpt lat="45.70610192321786" lon="9.829716262908253"><ele>297.79999999999995</ele><time>2026-04-30T11:45:42Z</time></trkpt><trkpt lat="45.70600922072856" lon="9.829801926833918"><ele>297.4</ele><time>2026-04-30T11:45:43Z</time></trkpt><trkpt lat="45.70591957529424" lon="9.829887264408546"><ele>297.0</ele><time>2026-04-30T11:45:44Z</time></trkpt><trkpt lat="45.70582920173944" lon="9.829973353310605"><ele>296.4</ele><time>2026-04-30T11:45:45Z</time></trkpt><trkpt lat="45.70574608504769" lon="9.830061937259089"><ele>295.79999999999995</ele><time>2026-04-30T11:45:46Z</time></trkpt><trkpt lat="45.705663191725215" lon="9.830150528859393"><ele>295.2</ele><time>2026-04-30T11:45:47Z</time></trkpt><trkpt lat="45.70558808683067" lon="9.830245878429615"><ele>294.59999999999997</ele><time>2026-04-30T11:45:48Z</time></trkpt><trkpt lat="45.705528819437916" lon="9.830358674400305"><ele>294.0</ele><time>2026-04-30T11:45:49Z</time></trkpt><trkpt lat="45.705480210433024" lon="9.83047494021086"><ele>294.0</ele><time>2026-04-30T11:45:50Z</time></trkpt><trkpt lat="45.70544074157849" lon="9.830592871823411"><ele>294.0</ele><time>2026-04-30T11:45:51Z</time></trkpt><trkpt lat="45.70540510029699" lon="9.83070782338245"><ele>294.0</ele><time>2026-04-30T11:45:52Z</time></trkpt><trkpt lat="45.70537170998165" lon="9.830822964322076"><ele>294.0</ele><time>2026-04-30T11:45:53Z</time></trkpt><trkpt lat="45.70533390035217" lon="9.830927638421956"><ele>294.0</ele><time>2026-04-30T11:45:54Z</time></trkpt><trkpt lat="45.70529540511778" lon="9.831028861510715"><ele>294.0</ele><time>2026-04-30T11:45:55Z</time></trkpt><trkpt lat="45.70526392687423" lon="9.831129642717633"><ele>293.7142857142857</ele><time>2026-04-30T11:45:56Z</time></trkpt><trkpt lat="45.7052372606501" lon="9.831229596006352"><ele>293.42857142857144</ele><time>2026-04-30T11:45:57Z</time></trkpt><trkpt lat="45.70521428451829" lon="9.831327724495962"><ele>293.1428571428571</ele><time>2026-04-30T11:45:58Z</time></trkpt><trkpt lat="45.70519230136783" lon="9.831423153153906"><ele>292.8571428571429</ele><time>2026-04-30T11:45:59Z</time></trkpt><trkpt lat="45.705168576424775" lon="9.831514224666362"><ele>292.57142857142856</ele><time>2026-04-30T11:46:00Z</time></trkpt><trkpt lat="45.70514733366631" lon="9.831604451830296"><ele>292.2857142857143</ele><time>2026-04-30T11:46:01Z</time></trkpt><trkpt lat="45.705123406074215" lon="9.831691967735543"><ele>292.0</ele><time>2026-04-30T11:46:02Z</time></trkpt><trkpt lat="45.70509858725257" lon="9.83177645489713"><ele>292.2857142857143</ele><time>2026-04-30T11:46:03Z</time></trkpt><trkpt lat="45.7050750558227" lon="9.831862714962263"><ele>292.57142857142856</ele><time>2026-04-30T11:46:04Z</time></trkpt><trkpt lat="45.70505572596386" lon="9.831951187379246"><ele>292.8571428571429</ele><time>2026-04-30T11:46:05Z</time></trkpt><trkpt lat="45.70502753312153" lon="9.832035498364679"><ele>293.1428571428571</ele><time>2026-04-30T11:46:06Z</time></trkpt><trkpt lat="45.70500075232245" lon="9.832122986651303"><ele>293.42857142857144</ele><time>2026-04-30T11:46:07Z</time></trkpt><trkpt lat="45.70497158956773" lon="9.83220652918456"><ele>293.7142857142857</ele><time>2026-04-30T11:46:08Z</time></trkpt><trkpt lat="45.70493947093158" lon="9.83228889205251"><ele>294.0</ele><time>2026-04-30T11:46:09Z</time></trkpt><trkpt lat="45.704906230787664" lon="9.832369884187385"><ele>294.0</ele><time>2026-04-30T11:46:10Z</time></trkpt><trkpt lat="45.704873121460196" lon="9.83245235840435"><ele>294.0</ele><time>2026-04-30T11:46:11Z</time></trkpt><trkpt lat="45.704843238472336" lon="9.832536066250748"><ele>294.0</ele><time>2026-04-30T11:46:12Z</time></trkpt><trkpt lat="45.70481054212363" lon="9.832619689234063"><ele>294.0</ele><time>2026-04-30T11:46:13Z</time></trkpt><trkpt lat="45.704777589893425" lon="9.832703360150472"><ele>294.0</ele><time>2026-04-30T11:46:14Z</time></trkpt><trkpt lat="45.7047446981095" lon="9.832791321082592"><ele>294.0</ele><time>2026-04-30T11:46:15Z</time></trkpt><trkpt lat="45.70471184227779" lon="9.832877549788853"><ele>294.0</ele><time>2026-04-30T11:46:16Z</time></trkpt><trkpt lat="45.70467730379239" lon="9.83296343194473"><ele>293.85714285714283</ele><time>2026-04-30T11:46:17Z</time></trkpt><trkpt lat="45.70464291703873" lon="9.833048295424247"><ele>293.7142857142857</ele><time>2026-04-30T11:46:18Z</time></trkpt><trkpt lat="45.7046132497302" lon="9.83313932608654"><ele>293.57142857142856</ele><time>2026-04-30T11:46:19Z</time></trkpt><trkpt lat="45.704579077383684" lon="9.833225902984719"><ele>293.42857142857144</ele><time>2026-04-30T11:46:20Z</time></trkpt><trkpt lat="45.70454306711137" lon="9.833313484165668"><ele>293.2857142857143</ele><time>2026-04-30T11:46:21Z</time></trkpt><trkpt lat="45.70450816854674" lon="9.833403699771331"><ele>293.1428571428571</ele><time>2026-04-30T11:46:22Z</time></trkpt><trkpt lat="45.70447178192405" lon="9.833490324327672"><ele>293.0</ele><time>2026-04-30T11:46:23Z</time></trkpt><trkpt lat="45.7044369066336" lon="9.833574374313601"><ele>292.57142857142856</ele><time>2026-04-30T11:46:24Z</time></trkpt><trkpt lat="45.70440359874541" lon="9.833666333901267"><ele>292.1428571428571</ele><time>2026-04-30T11:46:25Z</time></trkpt><trkpt lat="45.70436934410508" lon="9.83375444372266"><ele>291.7142857142857</ele><time>2026-04-30T11:46:26Z</time></trkpt><trkpt lat="45.70433380691567" lon="9.833845102494838"><ele>291.2857142857143</ele><time>2026-04-30T11:46:27Z</time></trkpt><trkpt lat="45.70429819657435" lon="9.833937578269097"><ele>290.8571428571429</ele><time>2026-04-30T11:46:28Z</time></trkpt><trkpt lat="45.7042614883891" lon="9.834029173967057"><ele>290.42857142857144</ele><time>2026-04-30T11:46:29Z</time></trkpt><trkpt lat="45.70422579339092" lon="9.834121482953437"><ele>290.0</ele><time>2026-04-30T11:46:30Z</time></trkpt><trkpt lat="45.70418790574148" lon="9.834216330631683"><ele>289.6666666666667</ele><time>2026-04-30T11:46:31Z</time></trkpt><trkpt lat="45.704151038854675" lon="9.8343106189192"><ele>289.33333333333337</ele><time>2026-04-30T11:46:32Z</time></trkpt><trkpt lat="45.70411482771687" lon="9.834405064298101"><ele>289.0</ele><time>2026-04-30T11:46:33Z</time></trkpt><trkpt lat="45.7040796303646" lon="9.83450106243623"><ele>288.6666666666667</ele><time>2026-04-30T11:46:34Z</time></trkpt><trkpt lat="45.704043238870405" lon="9.834599686693874"><ele>288.3333333333333</ele><time>2026-04-30T11:46:35Z</time></trkpt><trkpt lat="45.70400767336931" lon="9.834697026518604"><ele>288.0</ele><time>2026-04-30T11:46:36Z</time></trkpt><trkpt lat="45.70397053598718" lon="9.834791532628117"><ele>288.0</ele><time>2026-04-30T11:46:37Z</time></trkpt><trkpt lat="45.703929423841295" lon="9.834886207133447"><ele>288.0</ele><time>2026-04-30T11:46:38Z</time></trkpt><trkpt lat="45.703890846600544" lon="9.834985053404186"><ele>288.0</ele><time>2026-04-30T11:46:39Z</time></trkpt><trkpt lat="45.70385330530385" lon="9.835085595700408"><ele>288.0</ele><time>2026-04-30T11:46:40Z</time></trkpt><trkpt lat="45.703817102841086" lon="9.835182054792774"><ele>288.0</ele><time>2026-04-30T11:46:41Z</time></trkpt><trkpt lat="45.703778276585545" lon="9.835281530174205"><ele>288.0</ele><time>2026-04-30T11:46:42Z</time></trkpt><trkpt lat="45.703737174440754" lon="9.835372665508007"><ele>288.0</ele><time>2026-04-30T11:46:43Z</time></trkpt><trkpt lat="45.703697588931185" lon="9.835467289815321"><ele>288.0</ele><time>2026-04-30T11:46:44Z</time></trkpt><trkpt lat="45.703661020834694" lon="9.835563103016078"><ele>288.0</ele><time>2026-04-30T11:46:45Z</time></trkpt><trkpt lat="45.70362345707593" lon="9.835658507027608"><ele>288.0</ele><time>2026-04-30T11:46:46Z</time></trkpt><trkpt lat="45.7035854437861" lon="9.83575555237696"><ele>288.0</ele><time>2026-04-30T11:46:47Z</time></trkpt><trkpt lat="45.70354986634402" lon="9.835853071288799"><ele>288.0</ele><time>2026-04-30T11:46:48Z</time></trkpt><trkpt lat="45.70351605172904" lon="9.835946708222274"><ele>287.8333333333333</ele><time>2026-04-30T11:46:49Z</time></trkpt><trkpt lat="45.70347735751176" lon="9.836042540294702"><ele>287.6666666666667</ele><time>2026-04-30T11:46:50Z</time></trkpt><trkpt lat="45.703440536314176" lon="9.836135428739858"><ele>287.5</ele><time>2026-04-30T11:46:51Z</time></trkpt><trkpt lat="45.70340350805635" lon="9.836230173503898"><ele>287.33333333333337</ele><time>2026-04-30T11:46:52Z</time></trkpt><trkpt lat="45.70336558157788" lon="9.83632627516808"><ele>287.1666666666667</ele><time>2026-04-30T11:46:53Z</time></trkpt><trkpt lat="45.703329349422944" lon="9.83642232404646"><ele>287.0</ele><time>2026-04-30T11:46:54Z</time></trkpt><trkpt lat="45.70329333126771" lon="9.836521009786855"><ele>287.0</ele><time>2026-04-30T11:46:55Z</time></trkpt><trkpt lat="45.703256078548385" lon="9.836615586302626"><ele>287.0</ele><time>2026-04-30T11:46:56Z</time></trkpt><trkpt lat="45.7032175384" lon="9.836712329786156"><ele>287.0</ele><time>2026-04-30T11:46:57Z</time></trkpt><trkpt lat="45.703183090009155" lon="9.83680871257334"><ele>287.0</ele><time>2026-04-30T11:46:58Z</time></trkpt><trkpt lat="45.70314510839975" lon="9.83690309413393"><ele>287.0</ele><time>2026-04-30T11:46:59Z</time></trkpt><trkpt lat="45.703107223158376" lon="9.836997797931563"><ele>287.0</ele><time>2026-04-30T11:47:00Z</time></trkpt><trkpt lat="45.70306942750008" lon="9.837094795984129"><ele>286.85714285714283</ele><time>2026-04-30T11:47:01Z</time></trkpt><trkpt lat="45.70303425235468" lon="9.837191119750143"><ele>286.7142857142857</ele><time>2026-04-30T11:47:02Z</time></trkpt><trkpt lat="45.702997744233315" lon="9.837287185127227"><ele>286.57142857142856</ele><time>2026-04-30T11:47:03Z</time></trkpt><trkpt lat="45.7029627696816" lon="9.837380297741888"><ele>286.42857142857144</ele><time>2026-04-30T11:47:04Z</time></trkpt><trkpt lat="45.70292662365083" lon="9.837473245367836"><ele>286.2857142857143</ele><time>2026-04-30T11:47:05Z</time></trkpt><trkpt lat="45.70289255511246" lon="9.837564362698743"><ele>286.1428571428571</ele><time>2026-04-30T11:47:06Z</time></trkpt><trkpt lat="45.70285876291952" lon="9.837657659727636"><ele>286.0</ele><time>2026-04-30T11:47:07Z</time></trkpt><trkpt lat="45.70282325825843" lon="9.837747721830967"><ele>285.99999999999994</ele><time>2026-04-30T11:47:08Z</time></trkpt><trkpt lat="45.70278704050101" lon="9.837837833140041"><ele>286.0</ele><time>2026-04-30T11:47:09Z</time></trkpt><trkpt lat="45.70275315329196" lon="9.837926871358077"><ele>286.0</ele><time>2026-04-30T11:47:10Z</time></trkpt><trkpt lat="45.70271814421641" lon="9.838015813776918"><ele>286.0</ele><time>2026-04-30T11:47:11Z</time></trkpt><trkpt lat="45.702683998472594" lon="9.838101938683279"><ele>286.0</ele><time>2026-04-30T11:47:12Z</time></trkpt><trkpt lat="45.70265099514808" lon="9.83819051892499"><ele>285.99999999999994</ele><time>2026-04-30T11:47:13Z</time></trkpt><trkpt lat="45.70261821718819" lon="9.838282843950456"><ele>286.0</ele><time>2026-04-30T11:47:14Z</time></trkpt><trkpt lat="45.70258166107416" lon="9.838370773582076"><ele>285.57142857142856</ele><time>2026-04-30T11:47:15Z</time></trkpt><trkpt lat="45.702546487259994" lon="9.83845866254576"><ele>285.1428571428571</ele><time>2026-04-30T11:47:16Z</time></trkpt><trkpt lat="45.70251615097972" lon="9.838547151946099"><ele>284.7142857142857</ele><time>2026-04-30T11:47:17Z</time></trkpt><trkpt lat="45.702481323901516" lon="9.838634097244155"><ele>284.2857142857143</ele><time>2026-04-30T11:47:18Z</time></trkpt><trkpt lat="45.70244529268564" lon="9.838720378001856"><ele>283.8571428571429</ele><time>2026-04-30T11:47:19Z</time></trkpt><trkpt lat="45.70241168754148" lon="9.838807547529402"><ele>283.42857142857144</ele><time>2026-04-30T11:47:20Z</time></trkpt><trkpt lat="45.70237432148843" lon="9.838890310340235"><ele>283.0</ele><time>2026-04-30T11:47:21Z</time></trkpt><trkpt lat="45.70233560122848" lon="9.838971897128948"><ele>282.8333333333333</ele><time>2026-04-30T11:47:22Z</time></trkpt><trkpt lat="45.70229677132734" lon="9.839048841570136"><ele>282.66666666666663</ele><time>2026-04-30T11:47:23Z</time></trkpt><trkpt lat="45.70225450816011" lon="9.839123215899862"><ele>282.5</ele><time>2026-04-30T11:47:24Z</time></trkpt><trkpt lat="45.70220469212107" lon="9.839190612873583"><ele>282.3333333333333</ele><time>2026-04-30T11:47:25Z</time></trkpt><trkpt lat="45.70216201838647" lon="9.839260449610203"><ele>282.1666666666667</ele><time>2026-04-30T11:47:26Z</time></trkpt><trkpt lat="45.70211586958505" lon="9.839329517324652"><ele>282.0</ele><time>2026-04-30T11:47:27Z</time></trkpt><trkpt lat="45.702023113811656" lon="9.839453998975674"><ele>282.2857142857143</ele><time>2026-04-30T11:47:29Z</time></trkpt><trkpt lat="45.701969488205116" lon="9.839509949165466"><ele>282.57142857142856</ele><time>2026-04-30T11:47:30Z</time></trkpt><trkpt lat="45.70191041939404" lon="9.839552966493066"><ele>282.85714285714283</ele><time>2026-04-30T11:47:31Z</time></trkpt><trkpt lat="45.701848301585876" lon="9.839584833629715"><ele>283.1428571428571</ele><time>2026-04-30T11:47:32Z</time></trkpt><trkpt lat="45.7017846283452" lon="9.839601781500118"><ele>283.4285714285714</ele><time>2026-04-30T11:47:33Z</time></trkpt><trkpt lat="45.70171903571788" lon="9.839593652870006"><ele>283.7142857142857</ele><time>2026-04-30T11:47:34Z</time></trkpt><trkpt lat="45.70165294054244" lon="9.839584766342671"><ele>284.0</ele><time>2026-04-30T11:47:35Z</time></trkpt><trkpt lat="45.70158805437212" lon="9.839582774961762"><ele>284.0</ele><time>2026-04-30T11:47:36Z</time></trkpt><trkpt lat="45.7015220172897" lon="9.83957880158746"><ele>284.0</ele><time>2026-04-30T11:47:37Z</time></trkpt><trkpt lat="45.701405564644816" lon="9.839581267317781"><ele>284.0</ele><time>2026-04-30T11:47:39Z</time></trkpt><trkpt lat="45.70127904479773" lon="9.839571591844363"><ele>284.0</ele><time>2026-04-30T11:47:41Z</time></trkpt><trkpt lat="45.70121197699016" lon="9.839568285224301"><ele>284.0</ele><time>2026-04-30T11:47:42Z</time></trkpt><trkpt lat="45.701145695330176" lon="9.839572005822246"><ele>284.0</ele><time>2026-04-30T11:47:43Z</time></trkpt><trkpt lat="45.701078656027434" lon="9.8395628143659"><ele>284.0</ele><time>2026-04-30T11:47:44Z</time></trkpt><trkpt lat="45.701008929605884" lon="9.839554835693491"><ele>284.0</ele><time>2026-04-30T11:47:45Z</time></trkpt><trkpt lat="45.70094051373047" lon="9.839558386478103"><ele>284.0</ele><time>2026-04-30T11:47:46Z</time></trkpt><trkpt lat="45.700871961075876" lon="9.839555008387805"><ele>284.0</ele><time>2026-04-30T11:47:47Z</time></trkpt><trkpt lat="45.70080210423455" lon="9.839558917190516"><ele>284.0</ele><time>2026-04-30T11:47:48Z</time></trkpt><trkpt lat="45.70072998926451" lon="9.839553956787864"><ele>284.0</ele><time>2026-04-30T11:47:49Z</time></trkpt><trkpt lat="45.70065869313765" lon="9.839547881273026"><ele>284.0</ele><time>2026-04-30T11:47:50Z</time></trkpt><trkpt lat="45.70058692611648" lon="9.839542839977414"><ele>284.0</ele><time>2026-04-30T11:47:51Z</time></trkpt><trkpt lat="45.70051249292704" lon="9.839542308682006"><ele>284.0</ele><time>2026-04-30T11:47:52Z</time></trkpt><trkpt lat="45.70044163100488" lon="9.839543759646855"><ele>284.0</ele><time>2026-04-30T11:47:53Z</time></trkpt><trkpt lat="45.70036817507098" lon="9.839537142336761"><ele>284.0</ele><time>2026-04-30T11:47:54Z</time></trkpt><trkpt lat="45.700295265480975" lon="9.839530183342125"><ele>284.0</ele><time>2026-04-30T11:47:55Z</time></trkpt><trkpt lat="45.700221041937255" lon="9.839527670592254"><ele>284.0</ele><time>2026-04-30T11:47:56Z</time></trkpt><trkpt lat="45.700146862112035" lon="9.839521845255232"><ele>284.0</ele><time>2026-04-30T11:47:57Z</time></trkpt><trkpt lat="45.70007223091522" lon="9.839522075698754"><ele>283.85714285714283</ele><time>2026-04-30T11:47:58Z</time></trkpt><trkpt lat="45.69999803138182" lon="9.8395208246738"><ele>283.71428571428567</ele><time>2026-04-30T11:47:59Z</time></trkpt><trkpt lat="45.699925356434335" lon="9.839531419342697"><ele>283.57142857142856</ele><time>2026-04-30T11:48:00Z</time></trkpt><trkpt lat="45.699858482706034" lon="9.839562752827327"><ele>283.42857142857144</ele><time>2026-04-30T11:48:01Z</time></trkpt><trkpt lat="45.6997947341322" lon="9.839610616272267"><ele>283.28571428571433</ele><time>2026-04-30T11:48:02Z</time></trkpt><trkpt lat="45.699742783458966" lon="9.839680436740407"><ele>283.14285714285717</ele><time>2026-04-30T11:48:03Z</time></trkpt><trkpt lat="45.69970709451115" lon="9.839764035188391"><ele>283.0</ele><time>2026-04-30T11:48:04Z</time></trkpt><trkpt lat="45.699677528165836" lon="9.839851286571912"><ele>283.0</ele><time>2026-04-30T11:48:05Z</time></trkpt><trkpt lat="45.699644523073395" lon="9.83993018509444"><ele>283.0</ele><time>2026-04-30T11:48:06Z</time></trkpt><trkpt lat="45.699609912618854" lon="9.840006627759548"><ele>283.0</ele><time>2026-04-30T11:48:07Z</time></trkpt><trkpt lat="45.699574568204326" lon="9.840084675221222"><ele>283.0</ele><time>2026-04-30T11:48:08Z</time></trkpt><trkpt lat="45.69953837101401" lon="9.840165179975473"><ele>283.0</ele><time>2026-04-30T11:48:09Z</time></trkpt><trkpt lat="45.69950289744203" lon="9.84024497663834"><ele>283.0</ele><time>2026-04-30T11:48:10Z</time></trkpt><trkpt lat="45.69946697810142" lon="9.840324901446303"><ele>283.0</ele><time>2026-04-30T11:48:11Z</time></trkpt><trkpt lat="45.69943141996776" lon="9.840403831056943"><ele>283.14285714285717</ele><time>2026-04-30T11:48:12Z</time></trkpt><trkpt lat="45.699397341214976" lon="9.840485227024812"><ele>283.28571428571433</ele><time>2026-04-30T11:48:13Z</time></trkpt><trkpt lat="45.69936382228982" lon="9.840565415472268"><ele>283.42857142857144</ele><time>2026-04-30T11:48:14Z</time></trkpt><trkpt lat="45.69933177936475" lon="9.840649225816097"><ele>283.57142857142856</ele><time>2026-04-30T11:48:15Z</time></trkpt><trkpt lat="45.699295483926456" lon="9.840724785832386"><ele>283.71428571428567</ele><time>2026-04-30T11:48:16Z</time></trkpt><trkpt lat="45.69926030326938" lon="9.840811614068592"><ele>283.85714285714283</ele><time>2026-04-30T11:48:17Z</time></trkpt><trkpt lat="45.6992258864039" lon="9.840891402130913"><ele>284.0</ele><time>2026-04-30T11:48:18Z</time></trkpt><trkpt lat="45.69919290898823" lon="9.840976726893912"><ele>284.0</ele><time>2026-04-30T11:48:19Z</time></trkpt><trkpt lat="45.699157337616654" lon="9.841058922146082"><ele>284.0</ele><time>2026-04-30T11:48:20Z</time></trkpt><trkpt lat="45.69912313560693" lon="9.841146818048596"><ele>284.0</ele><time>2026-04-30T11:48:21Z</time></trkpt><trkpt lat="45.69909587413605" lon="9.841239409645292"><ele>284.0</ele><time>2026-04-30T11:48:22Z</time></trkpt><trkpt lat="45.69907390965358" lon="9.841334762799008"><ele>284.0</ele><time>2026-04-30T11:48:23Z</time></trkpt><trkpt lat="45.699062003050535" lon="9.841429760493286"><ele>284.0</ele><time>2026-04-30T11:48:24Z</time></trkpt><trkpt lat="45.699053559538456" lon="9.841522874954205"><ele>284.0</ele><time>2026-04-30T11:48:25Z</time></trkpt><trkpt lat="45.699050045779416" lon="9.841614342173472"><ele>284.0</ele><time>2026-04-30T11:48:26Z</time></trkpt><trkpt lat="45.69905071551219" lon="9.841709237918932"><ele>284.0</ele><time>2026-04-30T11:48:27Z</time></trkpt><trkpt lat="45.69903921139529" lon="9.841799529874484"><ele>284.0</ele><time>2026-04-30T11:48:28Z</time></trkpt><trkpt lat="45.69901673552153" lon="9.841889654884136"><ele>284.0</ele><time>2026-04-30T11:48:29Z</time></trkpt><trkpt lat="45.698991297619656" lon="9.841978262953285"><ele>284.0</ele><time>2026-04-30T11:48:30Z</time></trkpt><trkpt lat="45.69895684846279" lon="9.842058718840484"><ele>284.0</ele><time>2026-04-30T11:48:31Z</time></trkpt><trkpt lat="45.69891804071276" lon="9.8421381765453"><ele>284.0</ele><time>2026-04-30T11:48:32Z</time></trkpt><trkpt lat="45.698885148258256" lon="9.842220638375284"><ele>284.57142857142856</ele><time>2026-04-30T11:48:33Z</time></trkpt><trkpt lat="45.698849423342025" lon="9.842302105228576"><ele>285.1428571428571</ele><time>2026-04-30T11:48:34Z</time></trkpt><trkpt lat="45.69881470948449" lon="9.842387137524613"><ele>285.7142857142857</ele><time>2026-04-30T11:48:35Z</time></trkpt><trkpt lat="45.69878133905548" lon="9.842469198693603"><ele>286.2857142857143</ele><time>2026-04-30T11:48:36Z</time></trkpt><trkpt lat="45.698753210457" lon="9.842557166100596"><ele>286.8571428571429</ele><time>2026-04-30T11:48:37Z</time></trkpt><trkpt lat="45.698718785956466" lon="9.842636590166228"><ele>287.42857142857144</ele><time>2026-04-30T11:48:38Z</time></trkpt><trkpt lat="45.69869010913414" lon="9.842724422329184"><ele>288.0</ele><time>2026-04-30T11:48:39Z</time></trkpt><trkpt lat="45.69865869145364" lon="9.842812675907577"><ele>286.8571428571429</ele><time>2026-04-30T11:48:40Z</time></trkpt><trkpt lat="45.698637017518344" lon="9.842902422600218"><ele>285.7142857142857</ele><time>2026-04-30T11:48:41Z</time></trkpt><trkpt lat="45.69861376705242" lon="9.842997481128647"><ele>284.57142857142856</ele><time>2026-04-30T11:48:42Z</time></trkpt><trkpt lat="45.69859597013438" lon="9.843088184081196"><ele>283.42857142857144</ele><time>2026-04-30T11:48:43Z</time></trkpt><trkpt lat="45.69858126583293" lon="9.843183907826893"><ele>282.2857142857143</ele><time>2026-04-30T11:48:44Z</time></trkpt><trkpt lat="45.698562550264135" lon="9.843275006279429"><ele>281.14285714285717</ele><time>2026-04-30T11:48:45Z</time></trkpt><trkpt lat="45.69854037383915" lon="9.843360054561284"><ele>280.0</ele><time>2026-04-30T11:48:46Z</time></trkpt><trkpt lat="45.698529606151574" lon="9.843452896497908"><ele>280.2857142857143</ele><time>2026-04-30T11:48:47Z</time></trkpt><trkpt lat="45.69850961305233" lon="9.843544100253663"><ele>280.57142857142856</ele><time>2026-04-30T11:48:48Z</time></trkpt><trkpt lat="45.69849536216281" lon="9.843634140811421"><ele>280.8571428571429</ele><time>2026-04-30T11:48:49Z</time></trkpt><trkpt lat="45.69847602148759" lon="9.843727580763932"><ele>281.1428571428571</ele><time>2026-04-30T11:48:50Z</time></trkpt><trkpt lat="45.69845891322415" lon="9.843816052731231"><ele>281.42857142857144</ele><time>2026-04-30T11:48:51Z</time></trkpt><trkpt lat="45.69844620013617" lon="9.843912451334505"><ele>281.7142857142857</ele><time>2026-04-30T11:48:52Z</time></trkpt><trkpt lat="45.69842834366909" lon="9.844000113399456"><ele>282.0</ele><time>2026-04-30T11:48:53Z</time></trkpt><trkpt lat="45.69841079015554" lon="9.844092969636415"><ele>282.0</ele><time>2026-04-30T11:48:54Z</time></trkpt><trkpt lat="45.69839142172089" lon="9.844183726258203"><ele>282.0</ele><time>2026-04-30T11:48:55Z</time></trkpt><trkpt lat="45.6983779093244" lon="9.844275437424471"><ele>282.0</ele><time>2026-04-30T11:48:56Z</time></trkpt><trkpt lat="45.698359674998116" lon="9.84436332460111"><ele>282.0</ele><time>2026-04-30T11:48:57Z</time></trkpt><trkpt lat="45.69834283272308" lon="9.844457795531477"><ele>282.0</ele><time>2026-04-30T11:48:58Z</time></trkpt><trkpt lat="45.69832386927382" lon="9.844546407573523"><ele>282.0</ele><time>2026-04-30T11:48:59Z</time></trkpt><trkpt lat="45.69830975501112" lon="9.844638988943114"><ele>282.0</ele><time>2026-04-30T11:49:00Z</time></trkpt><trkpt lat="45.69828793204818" lon="9.844726219775906"><ele>282.3333333333333</ele><time>2026-04-30T11:49:01Z</time></trkpt><trkpt lat="45.698274457551136" lon="9.844820595310086"><ele>282.6666666666667</ele><time>2026-04-30T11:49:02Z</time></trkpt><trkpt lat="45.698253974221274" lon="9.844908043157355"><ele>283.0</ele><time>2026-04-30T11:49:03Z</time></trkpt><trkpt lat="45.69823873964537" lon="9.845002664153956"><ele>283.33333333333337</ele><time>2026-04-30T11:49:04Z</time></trkpt><trkpt lat="45.69820230217438" lon="9.845180623308984"><ele>283.6666666666667</ele><time>2026-04-30T11:49:06Z</time></trkpt><trkpt lat="45.69818645525547" lon="9.845270162949696"><ele>284.0</ele><time>2026-04-30T11:49:07Z</time></trkpt><trkpt lat="45.69816730727348" lon="9.845361290851327"><ele>284.0</ele><time>2026-04-30T11:49:08Z</time></trkpt><trkpt lat="45.69814488791222" lon="9.845450669562561"><ele>284.0</ele><time>2026-04-30T11:49:09Z</time></trkpt><trkpt lat="45.69812672844212" lon="9.845537952176247"><ele>284.0</ele><time>2026-04-30T11:49:10Z</time></trkpt><trkpt lat="45.69810859981032" lon="9.845627931402907"><ele>284.0</ele><time>2026-04-30T11:49:11Z</time></trkpt><trkpt lat="45.69809075272779" lon="9.845719507491062"><ele>284.0</ele><time>2026-04-30T11:49:12Z</time></trkpt><trkpt lat="45.698068613663054" lon="9.845808146355674"><ele>284.0</ele><time>2026-04-30T11:49:13Z</time></trkpt><trkpt lat="45.6980497157014" lon="9.84590051250444"><ele>284.0</ele><time>2026-04-30T11:49:14Z</time></trkpt><trkpt lat="45.69803283798577" lon="9.845991295078461"><ele>283.83333333333337</ele><time>2026-04-30T11:49:15Z</time></trkpt><trkpt lat="45.697999730723865" lon="9.84616339834431"><ele>283.6666666666667</ele><time>2026-04-30T11:49:17Z</time></trkpt><trkpt lat="45.697947563643375" lon="9.846325536586347"><ele>283.5</ele><time>2026-04-30T11:49:19Z</time></trkpt><trkpt lat="45.69790386264732" lon="9.846391816323523"><ele>283.3333333333333</ele><time>2026-04-30T11:49:20Z</time></trkpt><trkpt lat="45.697845148098395" lon="9.846432556727601"><ele>283.16666666666663</ele><time>2026-04-30T11:49:21Z</time></trkpt><trkpt lat="45.69778683740407" lon="9.846468952361777"><ele>283.0</ele><time>2026-04-30T11:49:22Z</time></trkpt><trkpt lat="45.69764546186193" lon="9.846463376539532"><ele>282.0</ele><time>2026-04-30T11:49:24Z</time></trkpt><trkpt lat="45.697573747098176" lon="9.846438386883282"><ele>281.0</ele><time>2026-04-30T11:49:25Z</time></trkpt><trkpt lat="45.69750610785106" lon="9.84641063120876"><ele>280.0</ele><time>2026-04-30T11:49:26Z</time></trkpt><trkpt lat="45.69744833781357" lon="9.84637250636947"><ele>279.0</ele><time>2026-04-30T11:49:27Z</time></trkpt><trkpt lat="45.697368372000426" lon="9.84627471741098"><ele>278.0</ele><time>2026-04-30T11:49:29Z</time></trkpt><trkpt lat="45.697301296831355" lon="9.846282271767006"><ele>277.0</ele><time>2026-04-30T11:49:31Z</time></trkpt><trkpt lat="45.69726228673931" lon="9.846434531792125"><ele>277.0</ele><time>2026-04-30T11:49:33Z</time></trkpt><trkpt lat="45.69728016378437" lon="9.846529773914432"><ele>277.0</ele><time>2026-04-30T11:49:34Z</time></trkpt><trkpt lat="45.69729805307061" lon="9.84662244959928"><ele>277.0</ele><time>2026-04-30T11:49:35Z</time></trkpt><trkpt lat="45.697304932018525" lon="9.846719364308452"><ele>277.0</ele><time>2026-04-30T11:49:36Z</time></trkpt><trkpt lat="45.6973079711911" lon="9.846813891249601"><ele>277.0</ele><time>2026-04-30T11:49:37Z</time></trkpt><trkpt lat="45.697316343250456" lon="9.846906607187215"><ele>277.0</ele><time>2026-04-30T11:49:38Z</time></trkpt><trkpt lat="45.69731979728664" lon="9.847000112930179"><ele>277.0</ele><time>2026-04-30T11:49:39Z</time></trkpt><trkpt lat="45.69732259943704" lon="9.847094819554826"><ele>277.0</ele><time>2026-04-30T11:49:40Z</time></trkpt><trkpt lat="45.69732331155489" lon="9.847186546228306"><ele>277.0</ele><time>2026-04-30T11:49:41Z</time></trkpt><trkpt lat="45.69732336973274" lon="9.847282706209262"><ele>277.0</ele><time>2026-04-30T11:49:42Z</time></trkpt><trkpt lat="45.69731309856501" lon="9.847375814760927"><ele>277.0</ele><time>2026-04-30T11:49:43Z</time></trkpt><trkpt lat="45.697305921163306" lon="9.847472079221962"><ele>277.0</ele><time>2026-04-30T11:49:44Z</time></trkpt><trkpt lat="45.69729747280249" lon="9.847566760915717"><ele>277.0</ele><time>2026-04-30T11:49:45Z</time></trkpt><trkpt lat="45.69728763569375" lon="9.847661635582941"><ele>277.0</ele><time>2026-04-30T11:49:46Z</time></trkpt><trkpt lat="45.697296222213375" lon="9.847756425746363"><ele>277.0</ele><time>2026-04-30T11:49:47Z</time></trkpt><trkpt lat="45.69732775762999" lon="9.847848623308625"><ele>277.0</ele><time>2026-04-30T11:49:48Z</time></trkpt><trkpt lat="45.69737624827201" lon="9.847937332944442"><ele>277.0</ele><time>2026-04-30T11:49:49Z</time></trkpt><trkpt lat="45.69733436795639" lon="9.848044891452588"><ele>277.0</ele><time>2026-04-30T11:49:50Z</time></trkpt><trkpt lat="45.69733964549179" lon="9.848144551266335"><ele>277.0</ele><time>2026-04-30T11:49:51Z</time></trkpt><trkpt lat="45.69734504618293" lon="9.848247630930036"><ele>277.0</ele><time>2026-04-30T11:49:52Z</time></trkpt><trkpt lat="45.69734652064213" lon="9.848349966212048"><ele>277.0</ele><time>2026-04-30T11:49:53Z</time></trkpt><trkpt lat="45.69735019663243" lon="9.848451199707512"><ele>277.0</ele><time>2026-04-30T11:49:54Z</time></trkpt><trkpt lat="45.69735339294538" lon="9.848553633213736"><ele>277.0</ele><time>2026-04-30T11:49:55Z</time></trkpt><trkpt lat="45.69735773491824" lon="9.848655975912362"><ele>277.0</ele><time>2026-04-30T11:49:56Z</time></trkpt><trkpt lat="45.697367764272116" lon="9.84875568645201"><ele>277.0</ele><time>2026-04-30T11:49:57Z</time></trkpt><trkpt lat="45.69737609524603" lon="9.848853049548303"><ele>277.0</ele><time>2026-04-30T11:49:58Z</time></trkpt><trkpt lat="45.697392405352026" lon="9.848950084182672"><ele>277.0</ele><time>2026-04-30T11:49:59Z</time></trkpt><trkpt lat="45.69740593653378" lon="9.849042958465013"><ele>276.3333333333333</ele><time>2026-04-30T11:50:00Z</time></trkpt><trkpt lat="45.697426309917326" lon="9.84913231317495"><ele>275.66666666666663</ele><time>2026-04-30T11:50:01Z</time></trkpt><trkpt lat="45.69745259706896" lon="9.849216215052458"><ele>275.0</ele><time>2026-04-30T11:50:02Z</time></trkpt><trkpt lat="45.6974774630644" lon="9.849306828402854"><ele>274.3333333333333</ele><time>2026-04-30T11:50:03Z</time></trkpt><trkpt lat="45.69752730633581" lon="9.849476614951685"><ele>273.6666666666667</ele><time>2026-04-30T11:50:05Z</time></trkpt><trkpt lat="45.697557344819195" lon="9.849563727970175"><ele>273.0</ele><time>2026-04-30T11:50:06Z</time></trkpt><trkpt lat="45.697587889800715" lon="9.849647377186663"><ele>272.57142857142856</ele><time>2026-04-30T11:50:07Z</time></trkpt><trkpt lat="45.69761770494498" lon="9.849732838778353"><ele>272.1428571428571</ele><time>2026-04-30T11:50:08Z</time></trkpt><trkpt lat="45.69765042276473" lon="9.849816081793232"><ele>271.7142857142857</ele><time>2026-04-30T11:50:09Z</time></trkpt><trkpt lat="45.697680768896056" lon="9.849899850178554"><ele>271.2857142857143</ele><time>2026-04-30T11:50:10Z</time></trkpt><trkpt lat="45.69771212034164" lon="9.849984721791252"><ele>270.85714285714283</ele><time>2026-04-30T11:50:11Z</time></trkpt><trkpt lat="45.69774276732282" lon="9.850068379529485"><ele>270.42857142857144</ele><time>2026-04-30T11:50:12Z</time></trkpt><trkpt lat="45.69777309903639" lon="9.850151570728737"><ele>270.0</ele><time>2026-04-30T11:50:13Z</time></trkpt><trkpt lat="45.69780371933114" lon="9.850235592806772"><ele>272.57142857142856</ele><time>2026-04-30T11:50:14Z</time></trkpt><trkpt lat="45.69783393187496" lon="9.850317814143311"><ele>275.1428571428571</ele><time>2026-04-30T11:50:15Z</time></trkpt><trkpt lat="45.697867550201565" lon="9.850398306300896"><ele>277.7142857142857</ele><time>2026-04-30T11:50:16Z</time></trkpt><trkpt lat="45.69789797203756" lon="9.850482066275681"><ele>280.2857142857143</ele><time>2026-04-30T11:50:17Z</time></trkpt><trkpt lat="45.69793329107546" lon="9.850558418180032"><ele>282.8571428571429</ele><time>2026-04-30T11:50:18Z</time></trkpt><trkpt lat="45.69796855578327" lon="9.850635983171244"><ele>285.42857142857144</ele><time>2026-04-30T11:50:19Z</time></trkpt><trkpt lat="45.698007029071846" lon="9.850713402466155"><ele>288.0</ele><time>2026-04-30T11:50:20Z</time></trkpt><trkpt lat="45.69804392627005" lon="9.850792075192384"><ele>288.00000000000006</ele><time>2026-04-30T11:50:21Z</time></trkpt><trkpt lat="45.69808186427434" lon="9.850868042756543"><ele>288.0</ele><time>2026-04-30T11:50:22Z</time></trkpt><trkpt lat="45.69812187577963" lon="9.850943776710393"><ele>288.0</ele><time>2026-04-30T11:50:23Z</time></trkpt><trkpt lat="45.698163426999045" lon="9.85101641560057"><ele>288.0</ele><time>2026-04-30T11:50:24Z</time></trkpt><trkpt lat="45.69820619595161" lon="9.851088834715437"><ele>288.0</ele><time>2026-04-30T11:50:25Z</time></trkpt><trkpt lat="45.69824867180771" lon="9.851161741767553"><ele>288.00000000000006</ele><time>2026-04-30T11:50:26Z</time></trkpt><trkpt lat="45.69829300131934" lon="9.851234742889954"><ele>288.0</ele><time>2026-04-30T11:50:27Z</time></trkpt><trkpt lat="45.69833471011235" lon="9.851305197413827"><ele>287.00000000000006</ele><time>2026-04-30T11:50:28Z</time></trkpt><trkpt lat="45.698380058817676" lon="9.851378027395157"><ele>286.0</ele><time>2026-04-30T11:50:29Z</time></trkpt><trkpt lat="45.69842240098723" lon="9.851448536945759"><ele>285.0</ele><time>2026-04-30T11:50:30Z</time></trkpt><trkpt lat="45.698469406463914" lon="9.851521324543207"><ele>284.0</ele><time>2026-04-30T11:50:31Z</time></trkpt><trkpt lat="45.69851297206741" lon="9.851592607775736"><ele>283.0</ele><time>2026-04-30T11:50:32Z</time></trkpt><trkpt lat="45.69855454331089" lon="9.851663943644697"><ele>282.00000000000006</ele><time>2026-04-30T11:50:33Z</time></trkpt><trkpt lat="45.69859904688849" lon="9.851734059595561"><ele>281.0</ele><time>2026-04-30T11:50:34Z</time></trkpt><trkpt lat="45.698643421092896" lon="9.851806721788858"><ele>281.00000000000006</ele><time>2026-04-30T11:50:35Z</time></trkpt><trkpt lat="45.69868364379828" lon="9.851877512605126"><ele>281.0</ele><time>2026-04-30T11:50:36Z</time></trkpt><trkpt lat="45.698726727998256" lon="9.851952955605185"><ele>281.0</ele><time>2026-04-30T11:50:37Z</time></trkpt><trkpt lat="45.698768898458994" lon="9.85202299782554"><ele>281.0</ele><time>2026-04-30T11:50:38Z</time></trkpt><trkpt lat="45.69881373188468" lon="9.852093806599525"><ele>281.0</ele><time>2026-04-30T11:50:39Z</time></trkpt><trkpt lat="45.69885563794124" lon="9.852166337542103"><ele>281.00000000000006</ele><time>2026-04-30T11:50:40Z</time></trkpt><trkpt lat="45.698901050793054" lon="9.852235081886525"><ele>281.0</ele><time>2026-04-30T11:50:41Z</time></trkpt><trkpt lat="45.69894293630511" lon="9.852310153498982"><ele>281.00000000000006</ele><time>2026-04-30T11:50:42Z</time></trkpt><trkpt lat="45.698985787973584" lon="9.852381472704554"><ele>281.0</ele><time>2026-04-30T11:50:43Z</time></trkpt><trkpt lat="45.69902838219728" lon="9.852457223847562"><ele>281.0</ele><time>2026-04-30T11:50:44Z</time></trkpt><trkpt lat="45.69906737415473" lon="9.85253077281981"><ele>281.0</ele><time>2026-04-30T11:50:45Z</time></trkpt><trkpt lat="45.699108687482436" lon="9.852606708657735"><ele>281.0</ele><time>2026-04-30T11:50:46Z</time></trkpt><trkpt lat="45.69914778227611" lon="9.852682264825274"><ele>281.00000000000006</ele><time>2026-04-30T11:50:47Z</time></trkpt><trkpt lat="45.699191945683545" lon="9.852756721762667"><ele>281.0</ele><time>2026-04-30T11:50:48Z</time></trkpt><trkpt lat="45.69922312690277" lon="9.852835184991642"><ele>279.5714285714286</ele><time>2026-04-30T11:50:49Z</time></trkpt><trkpt lat="45.69926000729941" lon="9.852914157945634"><ele>278.14285714285717</ele><time>2026-04-30T11:50:50Z</time></trkpt><trkpt lat="45.69929498682324" lon="9.852992400505501"><ele>276.7142857142857</ele><time>2026-04-30T11:50:51Z</time></trkpt><trkpt lat="45.69933016028512" lon="9.85307121639493"><ele>275.28571428571433</ele><time>2026-04-30T11:50:52Z</time></trkpt><trkpt lat="45.69936559719593" lon="9.853147646484986"><ele>273.8571428571429</ele><time>2026-04-30T11:50:53Z</time></trkpt><trkpt lat="45.699398499668746" lon="9.853226446439365"><ele>272.42857142857144</ele><time>2026-04-30T11:50:54Z</time></trkpt><trkpt lat="45.6994310145072" lon="9.85330683476809"><ele>271.0</ele><time>2026-04-30T11:50:55Z</time></trkpt><trkpt lat="45.699468050055" lon="9.853384347235345"><ele>273.42857142857144</ele><time>2026-04-30T11:50:56Z</time></trkpt><trkpt lat="45.6995029498601" lon="9.85346564626167"><ele>275.8571428571429</ele><time>2026-04-30T11:50:57Z</time></trkpt><trkpt lat="45.69953668001244" lon="9.853543900027265"><ele>278.28571428571433</ele><time>2026-04-30T11:50:58Z</time></trkpt><trkpt lat="45.69957567720044" lon="9.853624384927889"><ele>280.7142857142857</ele><time>2026-04-30T11:50:59Z</time></trkpt><trkpt lat="45.69961123159646" lon="9.853707602371719"><ele>283.14285714285717</ele><time>2026-04-30T11:51:00Z</time></trkpt><trkpt lat="45.6996457186135" lon="9.853787670638877"><ele>285.5714285714286</ele><time>2026-04-30T11:51:01Z</time></trkpt><trkpt lat="45.69968244671195" lon="9.853874731466512"><ele>288.0</ele><time>2026-04-30T11:51:02Z</time></trkpt><trkpt lat="45.69971989103279" lon="9.853958334015829"><ele>288.00000000000006</ele><time>2026-04-30T11:51:03Z</time></trkpt><trkpt lat="45.69975569412221" lon="9.854037635098148"><ele>288.0</ele><time>2026-04-30T11:51:04Z</time></trkpt><trkpt lat="45.69979354880635" lon="9.854124706943384"><ele>288.0</ele><time>2026-04-30T11:51:05Z</time></trkpt><trkpt lat="45.699830513157046" lon="9.854209266970916"><ele>288.0</ele><time>2026-04-30T11:51:06Z</time></trkpt><trkpt lat="45.69986408950571" lon="9.854291310956652"><ele>288.0</ele><time>2026-04-30T11:51:07Z</time></trkpt><trkpt lat="45.6999022788458" lon="9.854376169285883"><ele>288.00000000000006</ele><time>2026-04-30T11:51:08Z</time></trkpt><trkpt lat="45.69993855824484" lon="9.854459537144917"><ele>288.0</ele><time>2026-04-30T11:51:09Z</time></trkpt><trkpt lat="45.69997425234588" lon="9.854544116398985"><ele>285.5714285714286</ele><time>2026-04-30T11:51:10Z</time></trkpt><trkpt lat="45.70001059123782" lon="9.854628727996186"><ele>283.14285714285717</ele><time>2026-04-30T11:51:11Z</time></trkpt><trkpt lat="45.70005047732797" lon="9.854713329049105"><ele>280.7142857142857</ele><time>2026-04-30T11:51:12Z</time></trkpt><trkpt lat="45.70008470097783" lon="9.854798053603025"><ele>278.28571428571433</ele><time>2026-04-30T11:51:13Z</time></trkpt><trkpt lat="45.7001237290681" lon="9.85488447484049"><ele>275.8571428571429</ele><time>2026-04-30T11:51:14Z</time></trkpt><trkpt lat="45.70016231791139" lon="9.854969476216352"><ele>273.42857142857144</ele><time>2026-04-30T11:51:15Z</time></trkpt><trkpt lat="45.700202234349014" lon="9.85505698297484"><ele>271.0</ele><time>2026-04-30T11:51:16Z</time></trkpt><trkpt lat="45.70023833836456" lon="9.855148290600852"><ele>273.2857142857143</ele><time>2026-04-30T11:51:17Z</time></trkpt><trkpt lat="45.7002790230066" lon="9.855231781122775"><ele>275.57142857142856</ele><time>2026-04-30T11:51:18Z</time></trkpt><trkpt lat="45.70031656306656" lon="9.855322621726437"><ele>277.8571428571429</ele><time>2026-04-30T11:51:19Z</time></trkpt><trkpt lat="45.70035092509117" lon="9.855411319342021"><ele>280.1428571428571</ele><time>2026-04-30T11:51:20Z</time></trkpt><trkpt lat="45.70038939540801" lon="9.855501217256256"><ele>282.42857142857144</ele><time>2026-04-30T11:51:21Z</time></trkpt><trkpt lat="45.70042534971561" lon="9.855594394524365"><ele>284.7142857142857</ele><time>2026-04-30T11:51:22Z</time></trkpt><trkpt lat="45.70046196696937" lon="9.855684061622135"><ele>287.0</ele><time>2026-04-30T11:51:23Z</time></trkpt><trkpt lat="45.70049891659984" lon="9.855779416153364"><ele>287.0</ele><time>2026-04-30T11:51:24Z</time></trkpt><trkpt lat="45.700538821480244" lon="9.855872004586752"><ele>287.0</ele><time>2026-04-30T11:51:25Z</time></trkpt><trkpt lat="45.700578264281944" lon="9.855962771116637"><ele>287.0</ele><time>2026-04-30T11:51:26Z</time></trkpt><trkpt lat="45.70061762639911" lon="9.856055864165032"><ele>287.0</ele><time>2026-04-30T11:51:27Z</time></trkpt><trkpt lat="45.70065951584442" lon="9.85614504880642"><ele>287.0</ele><time>2026-04-30T11:51:28Z</time></trkpt><trkpt lat="45.700699675699425" lon="9.8562338916719"><ele>287.0</ele><time>2026-04-30T11:51:29Z</time></trkpt><trkpt lat="45.70074754012592" lon="9.856318461752316"><ele>284.42857142857144</ele><time>2026-04-30T11:51:30Z</time></trkpt><trkpt lat="45.700779575646806" lon="9.856407319130877"><ele>281.8571428571429</ele><time>2026-04-30T11:51:31Z</time></trkpt><trkpt lat="45.70081845251551" lon="9.85649069133692"><ele>279.2857142857143</ele><time>2026-04-30T11:51:32Z</time></trkpt><trkpt lat="45.700859801841666" lon="9.856572943072221"><ele>276.7142857142857</ele><time>2026-04-30T11:51:33Z</time></trkpt><trkpt lat="45.7008976346312" lon="9.856658366019774"><ele>274.14285714285717</ele><time>2026-04-30T11:51:34Z</time></trkpt><trkpt lat="45.7009393875054" lon="9.856737218493853"><ele>271.57142857142856</ele><time>2026-04-30T11:51:35Z</time></trkpt><trkpt lat="45.70098007332779" lon="9.856817447528273"><ele>269.0</ele><time>2026-04-30T11:51:36Z</time></trkpt><trkpt lat="45.70102368988709" lon="9.856894223876965"><ele>268.57142857142856</ele><time>2026-04-30T11:51:37Z</time></trkpt><trkpt lat="45.70106986135336" lon="9.856971090610616"><ele>268.14285714285717</ele><time>2026-04-30T11:51:38Z</time></trkpt><trkpt lat="45.70111461876468" lon="9.857042195195937"><ele>267.7142857142857</ele><time>2026-04-30T11:51:39Z</time></trkpt><trkpt lat="45.7011639760968" lon="9.857115131876343"><ele>267.2857142857143</ele><time>2026-04-30T11:51:40Z</time></trkpt><trkpt lat="45.70121051926859" lon="9.857182529997234"><ele>266.8571428571429</ele><time>2026-04-30T11:51:41Z</time></trkpt><trkpt lat="45.701256852955034" lon="9.857253492532536"><ele>266.42857142857144</ele><time>2026-04-30T11:51:42Z</time></trkpt><trkpt lat="45.70131129220202" lon="9.857321749989724"><ele>266.0</ele><time>2026-04-30T11:51:43Z</time></trkpt><trkpt lat="45.70135933222067" lon="9.857383193487044"><ele>266.0</ele><time>2026-04-30T11:51:44Z</time></trkpt><trkpt lat="45.70140985774092" lon="9.857446352084928"><ele>266.0</ele><time>2026-04-30T11:51:45Z</time></trkpt><trkpt lat="45.70146229887249" lon="9.857506821065899"><ele>266.0</ele><time>2026-04-30T11:51:46Z</time></trkpt><trkpt lat="45.70151519271162" lon="9.857565418776355"><ele>266.0</ele><time>2026-04-30T11:51:47Z</time></trkpt><trkpt lat="45.70156867811943" lon="9.857621483507709"><ele>266.0</ele><time>2026-04-30T11:51:48Z</time></trkpt><trkpt lat="45.70161905665037" lon="9.857677292326157"><ele>266.0</ele><time>2026-04-30T11:51:49Z</time></trkpt><trkpt lat="45.701676039549675" lon="9.857727800023863"><ele>266.0</ele><time>2026-04-30T11:51:50Z</time></trkpt><trkpt lat="45.701729451571495" lon="9.857779495441577"><ele>265.6666666666667</ele><time>2026-04-30T11:51:51Z</time></trkpt><trkpt lat="45.70178689055195" lon="9.857830886365697"><ele>265.33333333333337</ele><time>2026-04-30T11:51:52Z</time></trkpt><trkpt lat="45.701842559650416" lon="9.857876480800055"><ele>265.0</ele><time>2026-04-30T11:51:53Z</time></trkpt><trkpt lat="45.70189867242061" lon="9.85791920192868"><ele>264.6666666666667</ele><time>2026-04-30T11:51:54Z</time></trkpt><trkpt lat="45.702007237038806" lon="9.857999242203807"><ele>264.3333333333333</ele><time>2026-04-30T11:51:56Z</time></trkpt><trkpt lat="45.70212072796521" lon="9.858084521368514"><ele>264.0</ele><time>2026-04-30T11:51:58Z</time></trkpt><trkpt lat="45.70217909684354" lon="9.858127922535541"><ele>264.0</ele><time>2026-04-30T11:51:59Z</time></trkpt><trkpt lat="45.7022378109465" lon="9.858177691312697"><ele>264.0</ele><time>2026-04-30T11:52:00Z</time></trkpt><trkpt lat="45.7022940527315" lon="9.85821956944818"><ele>264.0</ele><time>2026-04-30T11:52:01Z</time></trkpt><trkpt lat="45.702355114056736" lon="9.85826110681575"><ele>264.0</ele><time>2026-04-30T11:52:02Z</time></trkpt><trkpt lat="45.70241257232896" lon="9.858304512307159"><ele>264.0</ele><time>2026-04-30T11:52:03Z</time></trkpt><trkpt lat="45.70247086095966" lon="9.85835018627875"><ele>264.0</ele><time>2026-04-30T11:52:04Z</time></trkpt><trkpt lat="45.70252540171745" lon="9.858397880134833"><ele>264.0</ele><time>2026-04-30T11:52:05Z</time></trkpt><trkpt lat="45.702575011616574" lon="9.858458563819115"><ele>263.42857142857144</ele><time>2026-04-30T11:52:06Z</time></trkpt><trkpt lat="45.70261340703589" lon="9.858531745110891"><ele>262.8571428571429</ele><time>2026-04-30T11:52:07Z</time></trkpt><trkpt lat="45.70264548988522" lon="9.858614860175289"><ele>262.28571428571433</ele><time>2026-04-30T11:52:08Z</time></trkpt><trkpt lat="45.702682450995376" lon="9.858692721185417"><ele>261.7142857142857</ele><time>2026-04-30T11:52:09Z</time></trkpt><trkpt lat="45.70273249358849" lon="9.858753645719862"><ele>261.14285714285717</ele><time>2026-04-30T11:52:10Z</time></trkpt><trkpt lat="45.70279708450026" lon="9.858791119796708"><ele>260.5714285714286</ele><time>2026-04-30T11:52:11Z</time></trkpt><trkpt lat="45.702866107274836" lon="9.858794279883664"><ele>260.0</ele><time>2026-04-30T11:52:12Z</time></trkpt><trkpt lat="45.70293284470165" lon="9.858765219684841"><ele>260.00000000000006</ele><time>2026-04-30T11:52:13Z</time></trkpt><trkpt lat="45.70298643958967" lon="9.858706823388886"><ele>260.0</ele><time>2026-04-30T11:52:14Z</time></trkpt><trkpt lat="45.70303512167958" lon="9.858636631661696"><ele>260.0</ele><time>2026-04-30T11:52:15Z</time></trkpt><trkpt lat="45.703074926330274" lon="9.858561330264452"><ele>260.0</ele><time>2026-04-30T11:52:16Z</time></trkpt><trkpt lat="45.7031223696549" lon="9.858496210962006"><ele>260.0</ele><time>2026-04-30T11:52:17Z</time></trkpt><trkpt lat="45.70317972076721" lon="9.858447148071797"><ele>260.00000000000006</ele><time>2026-04-30T11:52:18Z</time></trkpt><trkpt lat="45.7032411989827" lon="9.858409228013377"><ele>260.0</ele><time>2026-04-30T11:52:19Z</time></trkpt><trkpt lat="45.70330784698288" lon="9.858391649598852"><ele>260.0</ele><time>2026-04-30T11:52:20Z</time></trkpt><trkpt lat="45.70337416506301" lon="9.858386426319967"><ele>260.0</ele><time>2026-04-30T11:52:21Z</time></trkpt><trkpt lat="45.703441144511004" lon="9.858392937289349"><ele>260.0</ele><time>2026-04-30T11:52:22Z</time></trkpt><trkpt lat="45.70350627241603" lon="9.858409253816152"><ele>260.0</ele><time>2026-04-30T11:52:23Z</time></trkpt><trkpt lat="45.703599047940244" lon="9.858466709861542"><ele>260.0</ele><time>2026-04-30T11:52:25Z</time></trkpt><trkpt lat="45.703580132289474" lon="9.85863670596284"><ele>260.0</ele><time>2026-04-30T11:52:27Z</time></trkpt><trkpt lat="45.703552633013125" lon="9.858720268662823"><ele>260.0</ele><time>2026-04-30T11:52:28Z</time></trkpt><trkpt lat="45.70351207135369" lon="9.858894158700382"><ele>260.0</ele><time>2026-04-30T11:52:30Z</time></trkpt><trkpt lat="45.70349166847885" lon="9.85898254817987"><ele>260.0</ele><time>2026-04-30T11:52:31Z</time></trkpt><trkpt lat="45.70346047233212" lon="9.859152250654144"><ele>260.0</ele><time>2026-04-30T11:52:33Z</time></trkpt><trkpt lat="45.70345618803004" lon="9.859245819023245"><ele>260.0</ele><time>2026-04-30T11:52:34Z</time></trkpt><trkpt lat="45.70347241604755" lon="9.859340649241688"><ele>260.0</ele><time>2026-04-30T11:52:35Z</time></trkpt><trkpt lat="45.703526908026596" lon="9.859423511699832"><ele>260.42857142857144</ele><time>2026-04-30T11:52:36Z</time></trkpt><trkpt lat="45.70359380517414" lon="9.859479759229185"><ele>260.8571428571429</ele><time>2026-04-30T11:52:37Z</time></trkpt><trkpt lat="45.70365723784436" lon="9.859528472637344"><ele>261.2857142857143</ele><time>2026-04-30T11:52:38Z</time></trkpt><trkpt lat="45.703708901844635" lon="9.859584356999134"><ele>261.7142857142857</ele><time>2026-04-30T11:52:39Z</time></trkpt><trkpt lat="45.70375312886426" lon="9.859654689710661"><ele>262.1428571428571</ele><time>2026-04-30T11:52:40Z</time></trkpt><trkpt lat="45.703791822102794" lon="9.859730740823414"><ele>262.57142857142856</ele><time>2026-04-30T11:52:41Z</time></trkpt><trkpt lat="45.70382906235243" lon="9.85980443301404"><ele>263.0</ele><time>2026-04-30T11:52:42Z</time></trkpt><trkpt lat="45.703868542478716" lon="9.859879300241849"><ele>263.0</ele><time>2026-04-30T11:52:43Z</time></trkpt><trkpt lat="45.70390807783784" lon="9.859952049405026"><ele>263.0</ele><time>2026-04-30T11:52:44Z</time></trkpt><trkpt lat="45.70394517046287" lon="9.860030245746058"><ele>263.0</ele><time>2026-04-30T11:52:45Z</time></trkpt><trkpt lat="45.704025164405984" lon="9.860168255378708"><ele>263.0</ele><time>2026-04-30T11:52:47Z</time></trkpt><trkpt lat="45.704066819408645" lon="9.860239433764157"><ele>263.0</ele><time>2026-04-30T11:52:48Z</time></trkpt><trkpt lat="45.70414503225828" lon="9.860381394776057"><ele>263.0</ele><time>2026-04-30T11:52:50Z</time></trkpt><trkpt lat="45.70422415208675" lon="9.860523641518292"><ele>263.0</ele><time>2026-04-30T11:52:52Z</time></trkpt><trkpt lat="45.70426608178142" lon="9.860593188928839"><ele>263.0</ele><time>2026-04-30T11:52:53Z</time></trkpt><trkpt lat="45.704305735093506" lon="9.860665631807029"><ele>263.0</ele><time>2026-04-30T11:52:54Z</time></trkpt><trkpt lat="45.70434636670264" lon="9.860735938799483"><ele>263.0</ele><time>2026-04-30T11:52:55Z</time></trkpt><trkpt lat="45.704387673828144" lon="9.860804994773435"><ele>263.0</ele><time>2026-04-30T11:52:56Z</time></trkpt><trkpt lat="45.704430266121236" lon="9.860872491486857"><ele>263.0</ele><time>2026-04-30T11:52:57Z</time></trkpt><trkpt lat="45.70446600280134" lon="9.860948799859841"><ele>263.0</ele><time>2026-04-30T11:52:58Z</time></trkpt><trkpt lat="45.70453894434589" lon="9.861094365619627"><ele>263.2</ele><time>2026-04-30T11:53:00Z</time></trkpt><trkpt lat="45.70455506889271" lon="9.861184420617523"><ele>263.4</ele><time>2026-04-30T11:53:01Z</time></trkpt><trkpt lat="45.70454853535454" lon="9.86136270510319"><ele>263.59999999999997</ele><time>2026-04-30T11:53:03Z</time></trkpt><trkpt lat="45.70447208910223" lon="9.86150668084755"><ele>263.8</ele><time>2026-04-30T11:53:05Z</time></trkpt><trkpt lat="45.70438271118607" lon="9.861631973508484"><ele>264.0</ele><time>2026-04-30T11:53:07Z</time></trkpt><trkpt lat="45.70428694660747" lon="9.861749069374438"><ele>264.1428571428571</ele><time>2026-04-30T11:53:09Z</time></trkpt><trkpt lat="45.70424304214559" lon="9.861814608093871"><ele>264.2857142857143</ele><time>2026-04-30T11:53:10Z</time></trkpt><trkpt lat="45.70419327098408" lon="9.86187428510925"><ele>264.42857142857144</ele><time>2026-04-30T11:53:11Z</time></trkpt><trkpt lat="45.70415154529953" lon="9.861942905251444"><ele>264.57142857142856</ele><time>2026-04-30T11:53:12Z</time></trkpt><trkpt lat="45.70411611738986" lon="9.862019783890071"><ele>264.7142857142857</ele><time>2026-04-30T11:53:13Z</time></trkpt><trkpt lat="45.7040918828684" lon="9.862105100377335"><ele>264.85714285714283</ele><time>2026-04-30T11:53:14Z</time></trkpt><trkpt lat="45.7040887569871" lon="9.862202523603312"><ele>265.0</ele><time>2026-04-30T11:53:15Z</time></trkpt><trkpt lat="45.70412880777533" lon="9.862375514880002"><ele>265.0</ele><time>2026-04-30T11:53:17Z</time></trkpt><trkpt lat="45.704157320625036" lon="9.862464019587884"><ele>265.0</ele><time>2026-04-30T11:53:18Z</time></trkpt><trkpt lat="45.70420111213307" lon="9.862637791346723"><ele>265.0</ele><time>2026-04-30T11:53:20Z</time></trkpt><trkpt lat="45.70422348171929" lon="9.862723478210114"><ele>265.0</ele><time>2026-04-30T11:53:21Z</time></trkpt><trkpt lat="45.704247473606536" lon="9.862813476758372"><ele>265.0</ele><time>2026-04-30T11:53:22Z</time></trkpt><trkpt lat="45.70426977012664" lon="9.862900812837"><ele>265.0</ele><time>2026-04-30T11:53:23Z</time></trkpt><trkpt lat="45.704289800253115" lon="9.86298783594503"><ele>265.1428571428571</ele><time>2026-04-30T11:53:24Z</time></trkpt><trkpt lat="45.704312818725725" lon="9.863073996014302"><ele>265.2857142857143</ele><time>2026-04-30T11:53:25Z</time></trkpt><trkpt lat="45.70433432017146" lon="9.863159660831203"><ele>265.42857142857144</ele><time>2026-04-30T11:53:26Z</time></trkpt><trkpt lat="45.704358707521656" lon="9.863244572350757"><ele>265.57142857142856</ele><time>2026-04-30T11:53:27Z</time></trkpt><trkpt lat="45.70437759169718" lon="9.86333304270218"><ele>265.7142857142857</ele><time>2026-04-30T11:53:28Z</time></trkpt><trkpt lat="45.704423202004364" lon="9.863502149835472"><ele>265.85714285714283</ele><time>2026-04-30T11:53:30Z</time></trkpt><trkpt lat="45.7044474290927" lon="9.86358536389793"><ele>266.0</ele><time>2026-04-30T11:53:31Z</time></trkpt><trkpt lat="45.70446946956268" lon="9.863670765429264"><ele>266.0</ele><time>2026-04-30T11:53:32Z</time></trkpt><trkpt lat="45.70449180515795" lon="9.863758405607138"><ele>266.0</ele><time>2026-04-30T11:53:33Z</time></trkpt><trkpt lat="45.70453886653592" lon="9.86392539469613"><ele>266.0</ele><time>2026-04-30T11:53:35Z</time></trkpt><trkpt lat="45.70456072722855" lon="9.864011499065892"><ele>266.0</ele><time>2026-04-30T11:53:36Z</time></trkpt><trkpt lat="45.70458613411975" lon="9.86409717481712"><ele>266.0</ele><time>2026-04-30T11:53:37Z</time></trkpt><trkpt lat="45.70460602879757" lon="9.864184970361423"><ele>266.0</ele><time>2026-04-30T11:53:38Z</time></trkpt><trkpt lat="45.70462463804787" lon="9.864272976879864"><ele>266.0</ele><time>2026-04-30T11:53:39Z</time></trkpt><trkpt lat="45.70464404683213" lon="9.864359970482344"><ele>266.0</ele><time>2026-04-30T11:53:40Z</time></trkpt><trkpt lat="45.70468445181719" lon="9.864525532339568"><ele>266.0</ele><time>2026-04-30T11:53:42Z</time></trkpt><trkpt lat="45.7047158473949" lon="9.86469409512539"><ele>266.0</ele><time>2026-04-30T11:53:44Z</time></trkpt><trkpt lat="45.70473058854346" lon="9.864789050382772"><ele>266.0</ele><time>2026-04-30T11:53:45Z</time></trkpt><trkpt lat="45.70474376389588" lon="9.864880737141725"><ele>266.0</ele><time>2026-04-30T11:53:46Z</time></trkpt><trkpt lat="45.70475591826609" lon="9.86497269632176"><ele>266.0</ele><time>2026-04-30T11:53:47Z</time></trkpt><trkpt lat="45.70477259304597" lon="9.86506329809499"><ele>265.85714285714283</ele><time>2026-04-30T11:53:48Z</time></trkpt><trkpt lat="45.70478691020879" lon="9.865154632785757"><ele>265.7142857142857</ele><time>2026-04-30T11:53:49Z</time></trkpt><trkpt lat="45.70479952645451" lon="9.86524351776124"><ele>265.57142857142856</ele><time>2026-04-30T11:53:50Z</time></trkpt><trkpt lat="45.704812852944364" lon="9.865333211093038"><ele>265.42857142857144</ele><time>2026-04-30T11:53:51Z</time></trkpt><trkpt lat="45.70482195203796" lon="9.86542296886529"><ele>265.2857142857143</ele><time>2026-04-30T11:53:52Z</time></trkpt><trkpt lat="45.704829329541916" lon="9.86551567760479"><ele>265.1428571428571</ele><time>2026-04-30T11:53:53Z</time></trkpt><trkpt lat="45.704839625620046" lon="9.865607502971892"><ele>265.0</ele><time>2026-04-30T11:53:54Z</time></trkpt><trkpt lat="45.70484746600259" lon="9.865699641798786"><ele>265.0</ele><time>2026-04-30T11:53:55Z</time></trkpt><trkpt lat="45.70486597363038" lon="9.865791874147718"><ele>265.0</ele><time>2026-04-30T11:53:56Z</time></trkpt><trkpt lat="45.70487316061238" lon="9.865975587840364"><ele>265.0</ele><time>2026-04-30T11:53:58Z</time></trkpt><trkpt lat="45.704881453222214" lon="9.8660691965181"><ele>265.0</ele><time>2026-04-30T11:53:59Z</time></trkpt><trkpt lat="45.704882833315686" lon="9.866163826476633"><ele>265.0</ele><time>2026-04-30T11:54:00Z</time></trkpt><trkpt lat="45.704901658937096" lon="9.866345987932384"><ele>265.6</ele><time>2026-04-30T11:54:02Z</time></trkpt><trkpt lat="45.704916086263594" lon="9.866525770171306"><ele>266.2</ele><time>2026-04-30T11:54:04Z</time></trkpt><trkpt lat="45.70493307746868" lon="9.866708306914614"><ele>266.8</ele><time>2026-04-30T11:54:06Z</time></trkpt><trkpt lat="45.70494521700016" lon="9.866798788532014"><ele>267.4</ele><time>2026-04-30T11:54:07Z</time></trkpt><trkpt lat="45.70495067379067" lon="9.866892334918745"><ele>268.0</ele><time>2026-04-30T11:54:08Z</time></trkpt><trkpt lat="45.704956002995054" lon="9.866985625312685"><ele>268.16666666666663</ele><time>2026-04-30T11:54:09Z</time></trkpt><trkpt lat="45.70496293352226" lon="9.86707758679635"><ele>268.3333333333333</ele><time>2026-04-30T11:54:10Z</time></trkpt><trkpt lat="45.704968863700444" lon="9.86716895944631"><ele>268.5</ele><time>2026-04-30T11:54:11Z</time></trkpt><trkpt lat="45.70497618537643" lon="9.867259521415216"><ele>268.6666666666667</ele><time>2026-04-30T11:54:12Z</time></trkpt><trkpt lat="45.704992843547195" lon="9.867438533556935"><ele>268.83333333333337</ele><time>2026-04-30T11:54:14Z</time></trkpt><trkpt lat="45.705001384999946" lon="9.867529373622348"><ele>269.0</ele><time>2026-04-30T11:54:15Z</time></trkpt><trkpt lat="45.70501698269592" lon="9.867707018942662"><ele>269.0</ele><time>2026-04-30T11:54:17Z</time></trkpt><trkpt lat="45.705026015189574" lon="9.867799270780452"><ele>269.0</ele><time>2026-04-30T11:54:18Z</time></trkpt><trkpt lat="45.70503296345575" lon="9.867889330899155"><ele>269.0</ele><time>2026-04-30T11:54:19Z</time></trkpt><trkpt lat="45.70504906434644" lon="9.868070400315387"><ele>269.0</ele><time>2026-04-30T11:54:21Z</time></trkpt><trkpt lat="45.70507155140846" lon="9.868247990299523"><ele>269.0</ele><time>2026-04-30T11:54:23Z</time></trkpt><trkpt lat="45.70508864555393" lon="9.868335920538533"><ele>269.0</ele><time>2026-04-30T11:54:24Z</time></trkpt><trkpt lat="45.705097467464185" lon="9.86842538528206"><ele>269.33333333333337</ele><time>2026-04-30T11:54:25Z</time></trkpt><trkpt lat="45.70506858265686" lon="9.8686009476049"><ele>269.6666666666667</ele><time>2026-04-30T11:54:27Z</time></trkpt><trkpt lat="45.705019919058955" lon="9.868667857140032"><ele>270.0</ele><time>2026-04-30T11:54:28Z</time></trkpt><trkpt lat="45.70496542511956" lon="9.868723296286658"><ele>270.3333333333333</ele><time>2026-04-30T11:54:29Z</time></trkpt><trkpt lat="45.70490623389384" lon="9.868767388309827"><ele>270.66666666666663</ele><time>2026-04-30T11:54:30Z</time></trkpt><trkpt lat="45.7048435928769" lon="9.868799294115226"><ele>271.0</ele><time>2026-04-30T11:54:31Z</time></trkpt><trkpt lat="45.70478791933539" lon="9.868843218484207"><ele>271.0</ele><time>2026-04-30T11:54:32Z</time></trkpt><trkpt lat="45.704746384463796" lon="9.868912343649116"><ele>271.0</ele><time>2026-04-30T11:54:33Z</time></trkpt><trkpt lat="45.704724602913046" lon="9.86900104565294"><ele>271.0</ele><time>2026-04-30T11:54:34Z</time></trkpt><trkpt lat="45.704716782086166" lon="9.869094823288492"><ele>271.0</ele><time>2026-04-30T11:54:35Z</time></trkpt><trkpt lat="45.70471759389365" lon="9.869188444088964"><ele>271.0</ele><time>2026-04-30T11:54:36Z</time></trkpt><trkpt lat="45.70472444272527" lon="9.869282616378413"><ele>271.0</ele><time>2026-04-30T11:54:37Z</time></trkpt><trkpt lat="45.70473286842411" lon="9.869372806464105"><ele>271.0</ele><time>2026-04-30T11:54:38Z</time></trkpt><trkpt lat="45.70473940247182" lon="9.869462987900697"><ele>271.0</ele><time>2026-04-30T11:54:39Z</time></trkpt><trkpt lat="45.704744904359366" lon="9.869552922208685"><ele>271.0</ele><time>2026-04-30T11:54:40Z</time></trkpt><trkpt lat="45.70476019440864" lon="9.869731367517147"><ele>271.0</ele><time>2026-04-30T11:54:42Z</time></trkpt><trkpt lat="45.704775985206325" lon="9.86991095672581"><ele>271.0</ele><time>2026-04-30T11:54:44Z</time></trkpt><trkpt lat="45.70479166934238" lon="9.870087033129984"><ele>271.0</ele><time>2026-04-30T11:54:46Z</time></trkpt><trkpt lat="45.704787150533534" lon="9.870264797853725"><ele>271.0</ele><time>2026-04-30T11:54:48Z</time></trkpt><trkpt lat="45.70477348695902" lon="9.870439317868202"><ele>271.0</ele><time>2026-04-30T11:54:50Z</time></trkpt><trkpt lat="45.70473371900272" lon="9.870608987633114"><ele>271.0</ele><time>2026-04-30T11:54:52Z</time></trkpt><trkpt lat="45.70463404868248" lon="9.870693738954067"><ele>271.0</ele><time>2026-04-30T11:54:54Z</time></trkpt><trkpt lat="45.70457058366416" lon="9.87065249305954"><ele>271.0</ele><time>2026-04-30T11:54:55Z</time></trkpt><trkpt lat="45.70453918583432" lon="9.870564985668375"><ele>271.0</ele><time>2026-04-30T11:54:56Z</time></trkpt><trkpt lat="45.70452795390929" lon="9.870471235193625"><ele>271.0</ele><time>2026-04-30T11:54:57Z</time></trkpt><trkpt lat="45.704522541363175" lon="9.870298823815821"><ele>271.0</ele><time>2026-04-30T11:54:59Z</time></trkpt><trkpt lat="45.704515797552794" lon="9.87013643503933"><ele>271.0</ele><time>2026-04-30T11:55:01Z</time></trkpt><trkpt lat="45.704484697873625" lon="9.869990143805422"><ele>271.0</ele><time>2026-04-30T11:55:03Z</time></trkpt><trkpt lat="45.704426063038454" lon="9.869861982944487"><ele>273.40000000000003</ele><time>2026-04-30T11:55:05Z</time></trkpt><trkpt lat="45.70432917051261" lon="9.869807903673093"><ele>275.8</ele><time>2026-04-30T11:55:07Z</time></trkpt><trkpt lat="45.70426451076357" lon="9.869794352321827"><ele>278.20000000000005</ele><time>2026-04-30T11:55:08Z</time></trkpt><trkpt lat="45.70415529260904" lon="9.869753015779906"><ele>280.6</ele><time>2026-04-30T11:55:10Z</time></trkpt><trkpt lat="45.70408241762456" lon="9.869627449805618"><ele>283.0</ele><time>2026-04-30T11:55:12Z</time></trkpt><trkpt lat="45.70407858192124" lon="9.869536595947674"><ele>283.0</ele><time>2026-04-30T11:55:13Z</time></trkpt><trkpt lat="45.70408798447555" lon="9.869369832962061"><ele>283.0</ele><time>2026-04-30T11:55:15Z</time></trkpt><trkpt lat="45.70408571582204" lon="9.869207751373457"><ele>283.0</ele><time>2026-04-30T11:55:17Z</time></trkpt><trkpt lat="45.7040627289029" lon="9.869048055616481"><ele>283.0</ele><time>2026-04-30T11:55:19Z</time></trkpt><trkpt lat="45.704053781475665" lon="9.868889462878165"><ele>284.0</ele><time>2026-04-30T11:55:21Z</time></trkpt><trkpt lat="45.70403900242435" lon="9.868730703863969"><ele>285.0</ele><time>2026-04-30T11:55:23Z</time></trkpt><trkpt lat="45.704022493086924" lon="9.86857199354352"><ele>286.0</ele><time>2026-04-30T11:55:25Z</time></trkpt><trkpt lat="45.70401586330443" lon="9.868415745108198"><ele>287.0</ele><time>2026-04-30T11:55:27Z</time></trkpt><trkpt lat="45.704008325199624" lon="9.868254399873557"><ele>288.0</ele><time>2026-04-30T11:55:29Z</time></trkpt><trkpt lat="45.703999472882835" lon="9.86809378313537"><ele>289.0</ele><time>2026-04-30T11:55:31Z</time></trkpt><trkpt lat="45.703982848792805" lon="9.867930396392786"><ele>290.0</ele><time>2026-04-30T11:55:33Z</time></trkpt><trkpt lat="45.70397035346862" lon="9.867768059014479"><ele>291.0</ele><time>2026-04-30T11:55:35Z</time></trkpt><trkpt lat="45.703957400826404" lon="9.867607137621995"><ele>292.0</ele><time>2026-04-30T11:55:37Z</time></trkpt><trkpt lat="45.70394847138048" lon="9.867444425070342"><ele>292.2</ele><time>2026-04-30T11:55:39Z</time></trkpt><trkpt lat="45.703937799645196" lon="9.867282839547135"><ele>292.4</ele><time>2026-04-30T11:55:41Z</time></trkpt><trkpt lat="45.70392382708484" lon="9.867122874157022"><ele>292.6</ele><time>2026-04-30T11:55:43Z</time></trkpt><trkpt lat="45.7039011344249" lon="9.86696767447629"><ele>292.8</ele><time>2026-04-30T11:55:45Z</time></trkpt><trkpt lat="45.70387591833844" lon="9.866815684635654"><ele>293.0</ele><time>2026-04-30T11:55:47Z</time></trkpt><trkpt lat="45.7038310859973" lon="9.866672032230214"><ele>293.0</ele><time>2026-04-30T11:55:49Z</time></trkpt><trkpt lat="45.70378684165386" lon="9.866538743331393"><ele>293.0</ele><time>2026-04-30T11:55:51Z</time></trkpt><trkpt lat="45.703722033852515" lon="9.86643411812384"><ele>293.0</ele><time>2026-04-30T11:55:53Z</time></trkpt><trkpt lat="45.70361906198478" lon="9.866509376873553"><ele>293.0</ele><time>2026-04-30T11:55:55Z</time></trkpt><trkpt lat="45.70363355656962" lon="9.866674368078028"><ele>293.0</ele><time>2026-04-30T11:55:57Z</time></trkpt><trkpt lat="45.70365044547743" lon="9.866811590609254"><ele>293.0</ele><time>2026-04-30T11:55:59Z</time></trkpt><trkpt lat="45.703638615720784" lon="9.866963397378385"><ele>293.0</ele><time>2026-04-30T11:56:01Z</time></trkpt><trkpt lat="45.70363005368092" lon="9.867109791141312"><ele>293.0</ele><time>2026-04-30T11:56:03Z</time></trkpt><trkpt lat="45.70361441593352" lon="9.867244176882096"><ele>293.0</ele><time>2026-04-30T11:56:05Z</time></trkpt><trkpt lat="45.703556072011274" lon="9.867323664821184"><ele>293.0</ele><time>2026-04-30T11:56:07Z</time></trkpt><trkpt lat="45.70349162529687" lon="9.867197749586532"><ele>299.4</ele><time>2026-04-30T11:56:09Z</time></trkpt><trkpt lat="45.70347302852901" lon="9.867066703121905"><ele>305.8</ele><time>2026-04-30T11:56:11Z</time></trkpt><trkpt lat="45.703384119903234" lon="9.86716476342327"><ele>312.2</ele><time>2026-04-30T11:56:13Z</time></trkpt><trkpt lat="45.70339361468728" lon="9.867318310321252"><ele>318.6</ele><time>2026-04-30T11:56:15Z</time></trkpt><trkpt lat="45.70336764206428" lon="9.867443647230031"><ele>325.0</ele><time>2026-04-30T11:56:17Z</time></trkpt><trkpt lat="45.703324999492736" lon="9.86756181668309"><ele>326.0</ele><time>2026-04-30T11:56:19Z</time></trkpt><trkpt lat="45.70328506594929" lon="9.86767628399755"><ele>327.0</ele><time>2026-04-30T11:56:21Z</time></trkpt><trkpt lat="45.703241296672104" lon="9.867796613992365"><ele>328.0</ele><time>2026-04-30T11:56:23Z</time></trkpt><trkpt lat="45.70319247337749" lon="9.867910436918336"><ele>329.0</ele><time>2026-04-30T11:56:25Z</time></trkpt><trkpt lat="45.70314642734995" lon="9.868014305114603"><ele>330.0</ele><time>2026-04-30T11:56:27Z</time></trkpt><trkpt lat="45.70309919677779" lon="9.868108059793018"><ele>331.0</ele><time>2026-04-30T11:56:29Z</time></trkpt><trkpt lat="45.7030567471823" lon="9.868194342089943"><ele>331.0</ele><time>2026-04-30T11:56:31Z</time></trkpt><trkpt lat="45.70301749839019" lon="9.86828419324775"><ele>331.0</ele><time>2026-04-30T11:56:33Z</time></trkpt><trkpt lat="45.70298568407271" lon="9.8683767210242"><ele>331.0</ele><time>2026-04-30T11:56:35Z</time></trkpt><trkpt lat="45.70295818913176" lon="9.868487857004922"><ele>331.0</ele><time>2026-04-30T11:56:37Z</time></trkpt><trkpt lat="45.70292007130799" lon="9.86859719355601"><ele>331.0</ele><time>2026-04-30T11:56:39Z</time></trkpt><trkpt lat="45.702886234450894" lon="9.86870318506815"><ele>331.0</ele><time>2026-04-30T11:56:41Z</time></trkpt><trkpt lat="45.702843882411294" lon="9.868806229917167"><ele>331.0</ele><time>2026-04-30T11:56:43Z</time></trkpt><trkpt lat="45.70278482967715" lon="9.868884208842854"><ele>331.0</ele><time>2026-04-30T11:56:45Z</time></trkpt><trkpt lat="45.7027209642726" lon="9.868952956459987"><ele>331.0</ele><time>2026-04-30T11:56:47Z</time></trkpt><trkpt lat="45.70265608579459" lon="9.86901596094384"><ele>331.0</ele><time>2026-04-30T11:56:49Z</time></trkpt><trkpt lat="45.70259027529109" lon="9.869079571939695"><ele>331.0</ele><time>2026-04-30T11:56:51Z</time></trkpt><trkpt lat="45.7025252909939" lon="9.869138098775384"><ele>331.0</ele><time>2026-04-30T11:56:53Z</time></trkpt><trkpt lat="45.702457668021346" lon="9.86920065573335"><ele>335.0</ele><time>2026-04-30T11:56:55Z</time></trkpt><trkpt lat="45.702385290439025" lon="9.869255005028082"><ele>339.0</ele><time>2026-04-30T11:56:57Z</time></trkpt><trkpt lat="45.70231676451387" lon="9.869313036438998"><ele>343.0</ele><time>2026-04-30T11:56:59Z</time></trkpt><trkpt lat="45.70224776690689" lon="9.869379029825122"><ele>347.0</ele><time>2026-04-30T11:57:01Z</time></trkpt><trkpt lat="45.702186265461584" lon="9.869459181191752"><ele>351.0</ele><time>2026-04-30T11:57:03Z</time></trkpt><trkpt lat="45.70212619202203" lon="9.869546419400592"><ele>355.0</ele><time>2026-04-30T11:57:05Z</time></trkpt><trkpt lat="45.70207262111051" lon="9.86963915952269"><ele>355.0</ele><time>2026-04-30T11:57:07Z</time></trkpt><trkpt lat="45.70201551037664" lon="9.869735045252886"><ele>355.0</ele><time>2026-04-30T11:57:09Z</time></trkpt><trkpt lat="45.70196473916635" lon="9.869831137423452"><ele>355.0</ele><time>2026-04-30T11:57:11Z</time></trkpt><trkpt lat="45.70190627327118" lon="9.869909752562453"><ele>355.0</ele><time>2026-04-30T11:57:13Z</time></trkpt><trkpt lat="45.70184731427219" lon="9.86998911089362"><ele>355.0</ele><time>2026-04-30T11:57:15Z</time></trkpt><trkpt lat="45.70179025676066" lon="9.870075783343456"><ele>355.0</ele><time>2026-04-30T11:57:17Z</time></trkpt><trkpt lat="45.70172318994167" lon="9.870145035737707"><ele>359.0</ele><time>2026-04-30T11:57:19Z</time></trkpt><trkpt lat="45.70166771301778" lon="9.870224786346178"><ele>363.0</ele><time>2026-04-30T11:57:21Z</time></trkpt><trkpt lat="45.70160371947266" lon="9.87029709911665"><ele>367.0</ele><time>2026-04-30T11:57:23Z</time></trkpt><trkpt lat="45.7015499632269" lon="9.870372662671969"><ele>371.0</ele><time>2026-04-30T11:57:25Z</time></trkpt><trkpt lat="45.701490239040915" lon="9.870444758007404"><ele>375.0</ele><time>2026-04-30T11:57:27Z</time></trkpt><trkpt lat="45.70142897133669" lon="9.870518710084367"><ele>379.0</ele><time>2026-04-30T11:57:29Z</time></trkpt><trkpt lat="45.70136878077524" lon="9.870586186457224"><ele>379.0</ele><time>2026-04-30T11:57:31Z</time></trkpt><trkpt lat="45.701306285850514" lon="9.870658687902754"><ele>379.0</ele><time>2026-04-30T11:57:33Z</time></trkpt><trkpt lat="45.70124669266238" lon="9.870731108896994"><ele>379.0</ele><time>2026-04-30T11:57:35Z</time></trkpt><trkpt lat="45.70119164360551" lon="9.87080730148898"><ele>379.0</ele><time>2026-04-30T11:57:37Z</time></trkpt><trkpt lat="45.70113070249102" lon="9.870877105848717"><ele>379.0</ele><time>2026-04-30T11:57:39Z</time></trkpt><trkpt lat="45.70107174129285" lon="9.870948022266385"><ele>379.0</ele><time>2026-04-30T11:57:41Z</time></trkpt><trkpt lat="45.700999159101535" lon="9.8710125145806"><ele>382.5</ele><time>2026-04-30T11:57:43Z</time></trkpt><trkpt lat="45.70095951831887" lon="9.871093026298782"><ele>386.0</ele><time>2026-04-30T11:57:45Z</time></trkpt><trkpt lat="45.70089628768988" lon="9.871171080377364"><ele>389.5</ele><time>2026-04-30T11:57:47Z</time></trkpt><trkpt lat="45.70083593453669" lon="9.8712399984177"><ele>393.0</ele><time>2026-04-30T11:57:49Z</time></trkpt><trkpt lat="45.70077556435645" lon="9.871322041824866"><ele>396.50000000000006</ele><time>2026-04-30T11:57:51Z</time></trkpt><trkpt lat="45.700709663783066" lon="9.871392639025947"><ele>400.0</ele><time>2026-04-30T11:57:53Z</time></trkpt><trkpt lat="45.700642048804745" lon="9.871459293110533"><ele>400.00000000000006</ele><time>2026-04-30T11:57:55Z</time></trkpt><trkpt lat="45.70056899016218" lon="9.871522307614473"><ele>400.0</ele><time>2026-04-30T11:57:57Z</time></trkpt><trkpt lat="45.700501553847396" lon="9.871584937280717"><ele>400.0</ele><time>2026-04-30T11:57:59Z</time></trkpt><trkpt lat="45.70042758226608" lon="9.871631426307047"><ele>400.0</ele><time>2026-04-30T11:58:01Z</time></trkpt><trkpt lat="45.700363478072184" lon="9.871664331451397"><ele>400.00000000000006</ele><time>2026-04-30T11:58:03Z</time></trkpt><trkpt lat="45.700287941885634" lon="9.871701454883567"><ele>400.0</ele><time>2026-04-30T11:58:06Z</time></trkpt><trkpt lat="45.700207958818716" lon="9.87173589100695"><ele>400.8</ele><time>2026-04-30T11:58:08Z</time></trkpt><trkpt lat="45.70012662777364" lon="9.871760388565688"><ele>401.6</ele><time>2026-04-30T11:58:10Z</time></trkpt><trkpt lat="45.70003880585282" lon="9.871785522232804"><ele>402.4</ele><time>2026-04-30T11:58:12Z</time></trkpt><trkpt lat="45.69995096892047" lon="9.87181563156903"><ele>403.2</ele><time>2026-04-30T11:58:14Z</time></trkpt><trkpt lat="45.699853697641345" lon="9.871833524099358"><ele>404.0</ele><time>2026-04-30T11:58:16Z</time></trkpt><trkpt lat="45.699755985611255" lon="9.8718587343827"><ele>404.79999999999995</ele><time>2026-04-30T11:58:18Z</time></trkpt><trkpt lat="45.6996555227025" lon="9.871903647850033"><ele>405.59999999999997</ele><time>2026-04-30T11:58:20Z</time></trkpt><trkpt lat="45.69955956807233" lon="9.871951369043966"><ele>406.4</ele><time>2026-04-30T11:58:22Z</time></trkpt><trkpt lat="45.69947135713909" lon="9.872012108836067"><ele>407.2</ele><time>2026-04-30T11:58:24Z</time></trkpt><trkpt lat="45.69938770084616" lon="9.872065036809303"><ele>408.0</ele><time>2026-04-30T11:58:26Z</time></trkpt><trkpt lat="45.69930477322604" lon="9.872103733021053"><ele>410.4</ele><time>2026-04-30T11:58:28Z</time></trkpt><trkpt lat="45.69921008890567" lon="9.872150686344815"><ele>412.79999999999995</ele><time>2026-04-30T11:58:30Z</time></trkpt><trkpt lat="45.69911796091761" lon="9.872154970985832"><ele>415.2</ele><time>2026-04-30T11:58:32Z</time></trkpt><trkpt lat="45.69902536330102" lon="9.872151117395138"><ele>417.6</ele><time>2026-04-30T11:58:34Z</time></trkpt><trkpt lat="45.69892785607565" lon="9.872142768665517"><ele>420.0</ele><time>2026-04-30T11:58:36Z</time></trkpt><trkpt lat="45.69883342095611" lon="9.872142237885834"><ele>420.0</ele><time>2026-04-30T11:58:38Z</time></trkpt><trkpt lat="45.698739401653405" lon="9.872144852109452"><ele>420.0</ele><time>2026-04-30T11:58:40Z</time></trkpt><trkpt lat="45.69865111551011" lon="9.872153281671684"><ele>420.0</ele><time>2026-04-30T11:58:42Z</time></trkpt><trkpt lat="45.69856729382074" lon="9.872186203690804"><ele>420.0</ele><time>2026-04-30T11:58:44Z</time></trkpt><trkpt lat="45.69849592990591" lon="9.872257427792437"><ele>420.0</ele><time>2026-04-30T11:58:46Z</time></trkpt><trkpt lat="45.69841741922693" lon="9.872331668638038"><ele>422.5</ele><time>2026-04-30T11:58:48Z</time></trkpt><trkpt lat="45.69835389653202" lon="9.872418415594922"><ele>425.0</ele><time>2026-04-30T11:58:50Z</time></trkpt><trkpt lat="45.69829379399069" lon="9.872507661984306"><ele>427.5</ele><time>2026-04-30T11:58:52Z</time></trkpt><trkpt lat="45.69824752487914" lon="9.872600220457498"><ele>430.0</ele><time>2026-04-30T11:58:54Z</time></trkpt><trkpt lat="45.698188821445356" lon="9.872690070740079"><ele>432.5</ele><time>2026-04-30T11:58:56Z</time></trkpt><trkpt lat="45.69814057916639" lon="9.872785667624436"><ele>435.0</ele><time>2026-04-30T11:58:58Z</time></trkpt><trkpt lat="45.69808334563637" lon="9.872864199686894"><ele>435.3333333333333</ele><time>2026-04-30T11:59:00Z</time></trkpt><trkpt lat="45.69802866782491" lon="9.872940734706308"><ele>435.66666666666663</ele><time>2026-04-30T11:59:02Z</time></trkpt><trkpt lat="45.69797260844037" lon="9.873023821323565"><ele>436.0</ele><time>2026-04-30T11:59:04Z</time></trkpt><trkpt lat="45.697931487316104" lon="9.873104464485193"><ele>436.3333333333333</ele><time>2026-04-30T11:59:06Z</time></trkpt><trkpt lat="45.69785849437127" lon="9.873177797284713"><ele>436.66666666666663</ele><time>2026-04-30T11:59:08Z</time></trkpt><trkpt lat="45.697807870312566" lon="9.873255664791097"><ele>437.0</ele><time>2026-04-30T11:59:10Z</time></trkpt><trkpt lat="45.697735766883" lon="9.873320415272161"><ele>438.16666666666663</ele><time>2026-04-30T11:59:12Z</time></trkpt><trkpt lat="45.697690439071856" lon="9.873427459981807"><ele>439.3333333333333</ele><time>2026-04-30T11:59:14Z</time></trkpt><trkpt lat="45.69763247529254" lon="9.873506426168772"><ele>440.5</ele><time>2026-04-30T11:59:16Z</time></trkpt><trkpt lat="45.697581381383955" lon="9.873587328044449"><ele>441.66666666666663</ele><time>2026-04-30T11:59:18Z</time></trkpt><trkpt lat="45.697533347792415" lon="9.873653352054673"><ele>442.8333333333333</ele><time>2026-04-30T11:59:20Z</time></trkpt><trkpt lat="45.69745976320096" lon="9.873720627001061"><ele>444.0</ele><time>2026-04-30T11:59:22Z</time></trkpt><trkpt lat="45.69739375669467" lon="9.873777613125922"><ele>444.0</ele><time>2026-04-30T11:59:24Z</time></trkpt><trkpt lat="45.697327604733246" lon="9.873839346539967"><ele>444.0</ele><time>2026-04-30T11:59:26Z</time></trkpt><trkpt lat="45.69725873541325" lon="9.873892947729649"><ele>444.0</ele><time>2026-04-30T11:59:28Z</time></trkpt><trkpt lat="45.69720167530924" lon="9.873954232457098"><ele>444.0</ele><time>2026-04-30T11:59:30Z</time></trkpt><trkpt lat="45.697129687774925" lon="9.874002662201907"><ele>444.0</ele><time>2026-04-30T11:59:32Z</time></trkpt><trkpt lat="45.69706025847498" lon="9.874065803785244"><ele>444.0</ele><time>2026-04-30T11:59:34Z</time></trkpt><trkpt lat="45.696994600585725" lon="9.874139044786661"><ele>444.0</ele><time>2026-04-30T11:59:36Z</time></trkpt><trkpt lat="45.69692939165352" lon="9.874208208122377"><ele>444.0</ele><time>2026-04-30T11:59:38Z</time></trkpt><trkpt lat="45.696865929614574" lon="9.874282830289095"><ele>444.0</ele><time>2026-04-30T11:59:40Z</time></trkpt><trkpt lat="45.696797856532406" lon="9.874347900508788"><ele>444.0</ele><time>2026-04-30T11:59:42Z</time></trkpt><trkpt lat="45.69672603553944" lon="9.874402680097434"><ele>444.0</ele><time>2026-04-30T11:59:44Z</time></trkpt><trkpt lat="45.69665839527702" lon="9.874456946870158"><ele>444.0</ele><time>2026-04-30T11:59:46Z</time></trkpt><trkpt lat="45.69659276489033" lon="9.874507055385298"><ele>446.0</ele><time>2026-04-30T11:59:48Z</time></trkpt><trkpt lat="45.69652102339093" lon="9.874541514373991"><ele>448.0</ele><time>2026-04-30T11:59:50Z</time></trkpt><trkpt lat="45.696450538842996" lon="9.874568704346501"><ele>450.0</ele><time>2026-04-30T11:59:52Z</time></trkpt><trkpt lat="45.69638057133772" lon="9.87460503421095"><ele>452.0</ele><time>2026-04-30T11:59:54Z</time></trkpt><trkpt lat="45.69631596689963" lon="9.87464446085815"><ele>454.0</ele><time>2026-04-30T11:59:56Z</time></trkpt><trkpt lat="45.69625032934293" lon="9.874694999052627"><ele>456.0</ele><time>2026-04-30T11:59:58Z</time></trkpt><trkpt lat="45.69617404319321" lon="9.87473205546937"><ele>458.0</ele><time>2026-04-30T12:00:00Z</time></trkpt><trkpt lat="45.696087519079185" lon="9.874757220747709"><ele>461.79999999999995</ele><time>2026-04-30T12:00:02Z</time></trkpt><trkpt lat="45.69599673625782" lon="9.874752422237828"><ele>465.59999999999997</ele><time>2026-04-30T12:00:04Z</time></trkpt><trkpt lat="45.695908094017035" lon="9.874718060229892"><ele>469.40000000000003</ele><time>2026-04-30T12:00:06Z</time></trkpt><trkpt lat="45.69582774759576" lon="9.874649815686853"><ele>473.20000000000005</ele><time>2026-04-30T12:00:08Z</time></trkpt><trkpt lat="45.69575300577752" lon="9.874545145055398"><ele>477.0</ele><time>2026-04-30T12:00:10Z</time></trkpt><trkpt lat="45.695702601152036" lon="9.874412630364569"><ele>476.40000000000003</ele><time>2026-04-30T12:00:12Z</time></trkpt><trkpt lat="45.69567581525402" lon="9.874268066012567"><ele>475.80000000000007</ele><time>2026-04-30T12:00:14Z</time></trkpt><trkpt lat="45.69564665391291" lon="9.87412376234824"><ele>475.2</ele><time>2026-04-30T12:00:16Z</time></trkpt><trkpt lat="45.695612664946964" lon="9.873980268151014"><ele>474.6</ele><time>2026-04-30T12:00:18Z</time></trkpt><trkpt lat="45.695581834753604" lon="9.873837052652583"><ele>474.0</ele><time>2026-04-30T12:00:20Z</time></trkpt><trkpt lat="45.69555019947164" lon="9.873691436675125"><ele>474.0</ele><time>2026-04-30T12:00:22Z</time></trkpt><trkpt lat="45.69551053984581" lon="9.873554321950056"><ele>474.0</ele><time>2026-04-30T12:00:24Z</time></trkpt><trkpt lat="45.69547469917937" lon="9.873417299809695"><ele>474.0</ele><time>2026-04-30T12:00:26Z</time></trkpt><trkpt lat="45.69542294663172" lon="9.873297773227417"><ele>474.0</ele><time>2026-04-30T12:00:28Z</time></trkpt><trkpt lat="45.695335937206686" lon="9.873231217117487"><ele>474.0</ele><time>2026-04-30T12:00:30Z</time></trkpt><trkpt lat="45.69523613465421" lon="9.873242333819427"><ele>476.0</ele><time>2026-04-30T12:00:32Z</time></trkpt><trkpt lat="45.69514524594662" lon="9.873289126782135"><ele>478.0</ele><time>2026-04-30T12:00:34Z</time></trkpt><trkpt lat="45.695051142900915" lon="9.873335738690637"><ele>480.0</ele><time>2026-04-30T12:00:36Z</time></trkpt><trkpt lat="45.694950044773194" lon="9.873389161831843"><ele>482.0</ele><time>2026-04-30T12:00:38Z</time></trkpt><trkpt lat="45.69484765469549" lon="9.873433375602607"><ele>484.0</ele><time>2026-04-30T12:00:40Z</time></trkpt><trkpt lat="45.69474820000314" lon="9.8734759050596"><ele>484.79999999999995</ele><time>2026-04-30T12:00:42Z</time></trkpt><trkpt lat="45.694656183242955" lon="9.87353412968522"><ele>485.59999999999997</ele><time>2026-04-30T12:00:44Z</time></trkpt><trkpt lat="45.69456551783274" lon="9.873595868485905"><ele>486.4</ele><time>2026-04-30T12:00:46Z</time></trkpt><trkpt lat="45.69447235649338" lon="9.87365869644956"><ele>487.2</ele><time>2026-04-30T12:00:48Z</time></trkpt><trkpt lat="45.69438506735358" lon="9.873737967999542"><ele>488.0</ele><time>2026-04-30T12:00:50Z</time></trkpt><trkpt lat="45.694326338817746" lon="9.873843764911562"><ele>491.66666666666663</ele><time>2026-04-30T12:00:52Z</time></trkpt><trkpt lat="45.69424424393159" lon="9.873945934045922"><ele>495.3333333333333</ele><time>2026-04-30T12:00:54Z</time></trkpt><trkpt lat="45.69421746396094" lon="9.874063345311882"><ele>499.0</ele><time>2026-04-30T12:00:56Z</time></trkpt><trkpt lat="45.69419565543785" lon="9.874159169378624"><ele>502.66666666666663</ele><time>2026-04-30T12:00:58Z</time></trkpt><trkpt lat="45.69416521221824" lon="9.8742618769263"><ele>506.3333333333333</ele><time>2026-04-30T12:01:00Z</time></trkpt><trkpt lat="45.694143722001975" lon="9.874370126282084"><ele>510.0</ele><time>2026-04-30T12:01:02Z</time></trkpt><trkpt lat="45.69415589634472" lon="9.874479695670445"><ele>510.0</ele><time>2026-04-30T12:01:04Z</time></trkpt><trkpt lat="45.69411428159681" lon="9.874576876329188"><ele>510.0</ele><time>2026-04-30T12:01:06Z</time></trkpt><trkpt lat="45.69407048050313" lon="9.87466973743973"><ele>510.0</ele><time>2026-04-30T12:01:08Z</time></trkpt><trkpt lat="45.69402640110661" lon="9.874761591742645"><ele>510.0</ele><time>2026-04-30T12:01:10Z</time></trkpt><trkpt lat="45.69399017152947" lon="9.874849176834005"><ele>510.0</ele><time>2026-04-30T12:01:12Z</time></trkpt><trkpt lat="45.693959525451234" lon="9.874945555855914"><ele>510.0</ele><time>2026-04-30T12:01:14Z</time></trkpt><trkpt lat="45.69391594224829" lon="9.875031108030273"><ele>509.5</ele><time>2026-04-30T12:01:16Z</time></trkpt><trkpt lat="45.693867239938896" lon="9.875116037553456"><ele>509.0</ele><time>2026-04-30T12:01:18Z</time></trkpt><trkpt lat="45.69381026908018" lon="9.875184930826029"><ele>508.5</ele><time>2026-04-30T12:01:20Z</time></trkpt><trkpt lat="45.693747411772335" lon="9.875251895150484"><ele>508.0</ele><time>2026-04-30T12:01:22Z</time></trkpt><trkpt lat="45.69368286284216" lon="9.875311828848297"><ele>507.5</ele><time>2026-04-30T12:01:24Z</time></trkpt><trkpt lat="45.693611891320465" lon="9.87537382559685"><ele>507.0</ele><time>2026-04-30T12:01:26Z</time></trkpt><trkpt lat="45.693542071509036" lon="9.875444869626705"><ele>509.6</ele><time>2026-04-30T12:01:28Z</time></trkpt><trkpt lat="45.69345586469219" lon="9.87553008245938"><ele>512.2</ele><time>2026-04-30T12:01:30Z</time></trkpt><trkpt lat="45.693370663616314" lon="9.875620464580477"><ele>514.8</ele><time>2026-04-30T12:01:32Z</time></trkpt><trkpt lat="45.693288797334375" lon="9.875735432800246"><ele>517.4</ele><time>2026-04-30T12:01:34Z</time></trkpt><trkpt lat="45.693215913030016" lon="9.875862493575807"><ele>520.0</ele><time>2026-04-30T12:01:36Z</time></trkpt><trkpt lat="45.69315530329644" lon="9.875986383113977"><ele>520.6</ele><time>2026-04-30T12:01:38Z</time></trkpt><trkpt lat="45.69310742029399" lon="9.876092088854255"><ele>521.2</ele><time>2026-04-30T12:01:40Z</time></trkpt><trkpt lat="45.69306326372106" lon="9.87617268931724"><ele>521.8</ele><time>2026-04-30T12:01:42Z</time></trkpt><trkpt lat="45.69300764039327" lon="9.876289005394183"><ele>522.4</ele><time>2026-04-30T12:01:44Z</time></trkpt><trkpt lat="45.69294783084947" lon="9.87642765293692"><ele>523.0</ele><time>2026-04-30T12:01:46Z</time></trkpt><trkpt lat="45.692892133253174" lon="9.876575214043381"><ele>523.0</ele><time>2026-04-30T12:01:48Z</time></trkpt><trkpt lat="45.692843692573646" lon="9.87672742153884"><ele>523.0</ele><time>2026-04-30T12:01:50Z</time></trkpt><trkpt lat="45.69279330321099" lon="9.876877143729622"><ele>523.0</ele><time>2026-04-30T12:01:52Z</time></trkpt><trkpt lat="45.6927745028878" lon="9.876963388620236"><ele>523.0</ele><time>2026-04-30T12:01:53Z</time></trkpt><trkpt lat="45.69272379579869" lon="9.87711328043518"><ele>523.0</ele><time>2026-04-30T12:01:55Z</time></trkpt><trkpt lat="45.69268602570943" lon="9.877270830667962"><ele>522.8333333333334</ele><time>2026-04-30T12:01:57Z</time></trkpt><trkpt lat="45.692645605725" lon="9.877436371909829"><ele>522.6666666666667</ele><time>2026-04-30T12:01:59Z</time></trkpt><trkpt lat="45.69264363545728" lon="9.877531399610486"><ele>522.5</ele><time>2026-04-30T12:02:00Z</time></trkpt><trkpt lat="45.692625365876665" lon="9.87763461437786"><ele>522.3333333333334</ele><time>2026-04-30T12:02:01Z</time></trkpt><trkpt lat="45.69261089782454" lon="9.877733436904737"><ele>522.1666666666666</ele><time>2026-04-30T12:02:02Z</time></trkpt><trkpt lat="45.69261360370533" lon="9.877839893317276"><ele>522.0</ele><time>2026-04-30T12:02:03Z</time></trkpt><trkpt lat="45.69261772867738" lon="9.87794524297211"><ele>521.8571428571429</ele><time>2026-04-30T12:02:04Z</time></trkpt><trkpt lat="45.692626155950066" lon="9.878051189392721"><ele>521.7142857142857</ele><time>2026-04-30T12:02:05Z</time></trkpt><trkpt lat="45.69263650450145" lon="9.878162271501777"><ele>521.5714285714286</ele><time>2026-04-30T12:02:06Z</time></trkpt><trkpt lat="45.69264190757568" lon="9.878267741840602"><ele>521.4285714285714</ele><time>2026-04-30T12:02:07Z</time></trkpt><trkpt lat="45.69265432262157" lon="9.878384699421648"><ele>521.2857142857143</ele><time>2026-04-30T12:02:08Z</time></trkpt><trkpt lat="45.69262247957235" lon="9.878477196618634"><ele>521.1428571428571</ele><time>2026-04-30T12:02:09Z</time></trkpt><trkpt lat="45.69260030997258" lon="9.878569496164827"><ele>521.0</ele><time>2026-04-30T12:02:10Z</time></trkpt><trkpt lat="45.69253126370129" lon="9.878727283356836"><ele>520.8</ele><time>2026-04-30T12:02:12Z</time></trkpt><trkpt lat="45.69246435956473" lon="9.878874468849025"><ele>520.6</ele><time>2026-04-30T12:02:14Z</time></trkpt><trkpt lat="45.69239938654373" lon="9.878997719891538"><ele>520.4</ele><time>2026-04-30T12:02:16Z</time></trkpt><trkpt lat="45.692333082814486" lon="9.879141098308494"><ele>520.2</ele><time>2026-04-30T12:02:18Z</time></trkpt><trkpt lat="45.692299231587" lon="9.879221424176864"><ele>520.0</ele><time>2026-04-30T12:02:19Z</time></trkpt><trkpt lat="45.69223046494421" lon="9.879352379811676"><ele>520.0</ele><time>2026-04-30T12:02:21Z</time></trkpt><trkpt lat="45.692161396537905" lon="9.879492576743582"><ele>520.0</ele><time>2026-04-30T12:02:23Z</time></trkpt><trkpt lat="45.69208762326207" lon="9.879617699223918"><ele>520.0</ele><time>2026-04-30T12:02:25Z</time></trkpt><trkpt lat="45.69203609282065" lon="9.879693877344025"><ele>520.0</ele><time>2026-04-30T12:02:26Z</time></trkpt><trkpt lat="45.691973496295184" lon="9.879676761976999"><ele>520.0</ele><time>2026-04-30T12:02:27Z</time></trkpt><trkpt lat="45.691847118754495" lon="9.879654291767995"><ele>522.0</ele><time>2026-04-30T12:02:29Z</time></trkpt><trkpt lat="45.691723856571386" lon="9.879647206128231"><ele>524.0</ele><time>2026-04-30T12:02:31Z</time></trkpt><trkpt lat="45.6916120879659" lon="9.879650107447237"><ele>526.0</ele><time>2026-04-30T12:02:33Z</time></trkpt><trkpt lat="45.69149478551032" lon="9.879665021957372"><ele>528.0</ele><time>2026-04-30T12:02:35Z</time></trkpt><trkpt lat="45.69137279264945" lon="9.879676759521885"><ele>528.0</ele><time>2026-04-30T12:02:37Z</time></trkpt><trkpt lat="45.691257676330196" lon="9.879631783644193"><ele>528.0</ele><time>2026-04-30T12:02:39Z</time></trkpt><trkpt lat="45.691158935567834" lon="9.879572718091872"><ele>528.0</ele><time>2026-04-30T12:02:41Z</time></trkpt><trkpt lat="45.69106053011485" lon="9.879473799834573"><ele>528.0</ele><time>2026-04-30T12:02:43Z</time></trkpt><trkpt lat="45.6909661274202" lon="9.87938229895581"><ele>529.7142857142857</ele><time>2026-04-30T12:02:45Z</time></trkpt><trkpt lat="45.690924787024414" lon="9.879307609173862"><ele>531.4285714285714</ele><time>2026-04-30T12:02:47Z</time></trkpt><trkpt lat="45.69086520050059" lon="9.879249090584343"><ele>533.1428571428571</ele><time>2026-04-30T12:03:30Z</time></trkpt><trkpt lat="45.69081705188994" lon="9.879152976210905"><ele>534.8571428571429</ele><time>2026-04-30T12:03:33Z</time></trkpt><trkpt lat="45.690771373710454" lon="9.879079599375356"><ele>536.5714285714286</ele><time>2026-04-30T12:03:35Z</time></trkpt><trkpt lat="45.690721037756205" lon="9.879000982435322"><ele>538.2857142857142</ele><time>2026-04-30T12:03:37Z</time></trkpt><trkpt lat="45.69065926764416" lon="9.878934500629526"><ele>540.0</ele><time>2026-04-30T12:03:39Z</time></trkpt><trkpt lat="45.69057151405539" lon="9.87888976592382"><ele>540.0</ele><time>2026-04-30T12:03:41Z</time></trkpt><trkpt lat="45.690496916903655" lon="9.878841588452136"><ele>540.0</ele><time>2026-04-30T12:03:43Z</time></trkpt><trkpt lat="45.690424135388206" lon="9.878792363203512"><ele>540.0</ele><time>2026-04-30T12:03:45Z</time></trkpt><trkpt lat="45.690366290729564" lon="9.878727595566103"><ele>540.0</ele><time>2026-04-30T12:03:47Z</time></trkpt><trkpt lat="45.690315202279436" lon="9.878671910962957"><ele>540.0</ele><time>2026-04-30T12:03:49Z</time></trkpt><trkpt lat="45.690238759442444" lon="9.878628094487185"><ele>540.0</ele><time>2026-04-30T12:03:51Z</time></trkpt><trkpt lat="45.69014992848695" lon="9.878674049294442"><ele>541.0</ele><time>2026-04-30T12:03:53Z</time></trkpt><trkpt lat="45.69013720912817" lon="9.878830078591083"><ele>542.0</ele><time>2026-04-30T12:03:55Z</time></trkpt><trkpt lat="45.69016427255366" lon="9.878960244707907"><ele>543.0</ele><time>2026-04-30T12:03:57Z</time></trkpt><trkpt lat="45.69017948654062" lon="9.879079173366355"><ele>544.0</ele><time>2026-04-30T12:03:59Z</time></trkpt><trkpt lat="45.690177684326265" lon="9.879192400842134"><ele>545.0</ele><time>2026-04-30T12:04:01Z</time></trkpt><trkpt lat="45.6901487392439" lon="9.879310242478272"><ele>547.4</ele><time>2026-04-30T12:04:03Z</time></trkpt><trkpt lat="45.69012737167193" lon="9.879433899796725"><ele>549.8</ele><time>2026-04-30T12:04:05Z</time></trkpt><trkpt lat="45.69006585767199" lon="9.879545668761082"><ele>552.2</ele><time>2026-04-30T12:04:07Z</time></trkpt><trkpt lat="45.69002176956192" lon="9.879697702587297"><ele>554.6</ele><time>2026-04-30T12:04:09Z</time></trkpt><trkpt lat="45.68995415270816" lon="9.879826925963668"><ele>557.0</ele><time>2026-04-30T12:04:11Z</time></trkpt><trkpt lat="45.68987443076908" lon="9.879947777165356"><ele>557.0</ele><time>2026-04-30T12:04:13Z</time></trkpt><trkpt lat="45.689802199269884" lon="9.880063973439144"><ele>557.0</ele><time>2026-04-30T12:04:15Z</time></trkpt><trkpt lat="45.68973147538611" lon="9.880159231715613"><ele>557.0</ele><time>2026-04-30T12:04:17Z</time></trkpt><trkpt lat="45.68967568116164" lon="9.88029081848251"><ele>557.0</ele><time>2026-04-30T12:04:19Z</time></trkpt><trkpt lat="45.68967092059215" lon="9.880443214191779"><ele>557.0</ele><time>2026-04-30T12:04:21Z</time></trkpt><trkpt lat="45.68968619720661" lon="9.880537292947757"><ele>557.2</ele><time>2026-04-30T12:04:22Z</time></trkpt><trkpt lat="45.6896983148783" lon="9.880701624553799"><ele>557.4000000000001</ele><time>2026-04-30T12:04:24Z</time></trkpt><trkpt lat="45.68974034183045" lon="9.880864952317157"><ele>557.5999999999999</ele><time>2026-04-30T12:04:26Z</time></trkpt><trkpt lat="45.68979222028528" lon="9.881025252557011"><ele>557.8</ele><time>2026-04-30T12:04:28Z</time></trkpt><trkpt lat="45.68982394876743" lon="9.881111664398071"><ele>558.0</ele><time>2026-04-30T12:04:29Z</time></trkpt><trkpt lat="45.689891409246954" lon="9.881251410382058"><ele>558.0</ele><time>2026-04-30T12:04:31Z</time></trkpt><trkpt lat="45.68987569205834" lon="9.881436899911828"><ele>558.0</ele><time>2026-04-30T12:04:33Z</time></trkpt><trkpt lat="45.68982067019721" lon="9.881529291507038"><ele>558.0</ele><time>2026-04-30T12:04:34Z</time></trkpt><trkpt lat="45.68974316612208" lon="9.8815833890293"><ele>558.0</ele><time>2026-04-30T12:04:35Z</time></trkpt><trkpt lat="45.68964552262456" lon="9.881605924700837"><ele>558.0</ele><time>2026-04-30T12:04:36Z</time></trkpt><trkpt lat="45.6895157548443" lon="9.881598595235367"><ele>558.0</ele><time>2026-04-30T12:04:37Z</time></trkpt><trkpt lat="45.689439523234135" lon="9.881577608210298"><ele>558.0</ele><time>2026-04-30T12:04:38Z</time></trkpt><trkpt lat="45.68933650647923" lon="9.881555798064426"><ele>558.0</ele><time>2026-04-30T12:04:39Z</time></trkpt><trkpt lat="45.6892360098942" lon="9.88154772575578"><ele>558.0</ele><time>2026-04-30T12:04:40Z</time></trkpt><trkpt lat="45.68914484961374" lon="9.881520663819238"><ele>558.0</ele><time>2026-04-30T12:04:41Z</time></trkpt><trkpt lat="45.689074231522355" lon="9.881522386828822"><ele>558.0</ele><time>2026-04-30T12:04:42Z</time></trkpt><trkpt lat="45.68901776846462" lon="9.881587075055007"><ele>555.8</ele><time>2026-04-30T12:04:43Z</time></trkpt><trkpt lat="45.68897466964119" lon="9.8817014906752"><ele>553.5999999999999</ele><time>2026-04-30T12:04:44Z</time></trkpt><trkpt lat="45.688952498702214" lon="9.881843409970786"><ele>551.4000000000001</ele><time>2026-04-30T12:04:45Z</time></trkpt><trkpt lat="45.688951711464895" lon="9.882001992694274"><ele>549.2</ele><time>2026-04-30T12:04:46Z</time></trkpt><trkpt lat="45.688958719475586" lon="9.882153648449721"><ele>547.0</ele><time>2026-04-30T12:04:47Z</time></trkpt><trkpt lat="45.68896844537917" lon="9.88230763436961"><ele>545.6</ele><time>2026-04-30T12:04:48Z</time></trkpt><trkpt lat="45.688966072666744" lon="9.882462107273787"><ele>544.2</ele><time>2026-04-30T12:04:49Z</time></trkpt><trkpt lat="45.68890356136951" lon="9.882573496605314"><ele>542.8</ele><time>2026-04-30T12:04:50Z</time></trkpt><trkpt lat="45.6888531221925" lon="9.882693218282942"><ele>541.4</ele><time>2026-04-30T12:04:51Z</time></trkpt><trkpt lat="45.68877722440483" lon="9.882797202418171"><ele>540.0</ele><time>2026-04-30T12:04:52Z</time></trkpt><trkpt lat="45.68868818001575" lon="9.882880967206962"><ele>535.75</ele><time>2026-04-30T12:04:53Z</time></trkpt><trkpt lat="45.6885897900786" lon="9.882938582177056"><ele>531.5</ele><time>2026-04-30T12:04:54Z</time></trkpt><trkpt lat="45.688470421965" lon="9.882954492366538"><ele>527.25</ele><time>2026-04-30T12:04:55Z</time></trkpt><trkpt lat="45.688351162687525" lon="9.882958536754842"><ele>523.0</ele><time>2026-04-30T12:04:56Z</time></trkpt><trkpt lat="45.68823173974558" lon="9.882962676328571"><ele>523.0</ele><time>2026-04-30T12:04:57Z</time></trkpt><trkpt lat="45.688127372930666" lon="9.882961346153445"><ele>523.0</ele><time>2026-04-30T12:04:58Z</time></trkpt><trkpt lat="45.68802931920817" lon="9.882885382173525"><ele>523.0</ele><time>2026-04-30T12:04:59Z</time></trkpt><trkpt lat="45.68796232510158" lon="9.882885365818444"><ele>523.0</ele><time>2026-04-30T12:05:00Z</time></trkpt><trkpt lat="45.68791137603666" lon="9.883057401624377"><ele>523.0</ele><time>2026-04-30T12:05:02Z</time></trkpt><trkpt lat="45.68796860135154" lon="9.883191345161034"><ele>523.0</ele><time>2026-04-30T12:05:03Z</time></trkpt><trkpt lat="45.688011810793725" lon="9.883310201270714"><ele>523.0</ele><time>2026-04-30T12:05:04Z</time></trkpt><trkpt lat="45.68802916842776" lon="9.88342683150419"><ele>523.0</ele><time>2026-04-30T12:05:05Z</time></trkpt><trkpt lat="45.68799734067322" lon="9.883525780184408"><ele>523.0</ele><time>2026-04-30T12:05:06Z</time></trkpt><trkpt lat="45.687923701985085" lon="9.883598569445287"><ele>523.0</ele><time>2026-04-30T12:05:07Z</time></trkpt><trkpt lat="45.687838453555976" lon="9.883607510970478"><ele>523.0</ele><time>2026-04-30T12:05:08Z</time></trkpt><trkpt lat="45.687752114196975" lon="9.88356740541508"><ele>522.8333333333334</ele><time>2026-04-30T12:05:09Z</time></trkpt><trkpt lat="45.687676713174454" lon="9.883525806909814"><ele>522.6666666666667</ele><time>2026-04-30T12:05:10Z</time></trkpt><trkpt lat="45.68760331788431" lon="9.88348879897733"><ele>522.5</ele><time>2026-04-30T12:05:11Z</time></trkpt><trkpt lat="45.687532608655395" lon="9.883439073758806"><ele>522.3333333333334</ele><time>2026-04-30T12:05:12Z</time></trkpt><trkpt lat="45.687466413303014" lon="9.883401399037615"><ele>522.1666666666666</ele><time>2026-04-30T12:05:13Z</time></trkpt><trkpt lat="45.68735304018476" lon="9.8833530809199"><ele>522.0</ele><time>2026-04-30T12:05:15Z</time></trkpt><trkpt lat="45.68728323835928" lon="9.883350498117741"><ele>521.2</ele><time>2026-04-30T12:05:16Z</time></trkpt><trkpt lat="45.68721929937986" lon="9.88335471442388"><ele>520.4000000000001</ele><time>2026-04-30T12:05:17Z</time></trkpt><trkpt lat="45.68709290837193" lon="9.883383477520901"><ele>519.5999999999999</ele><time>2026-04-30T12:05:19Z</time></trkpt><trkpt lat="45.687027662077014" lon="9.883404702392868"><ele>518.8</ele><time>2026-04-30T12:05:20Z</time></trkpt><trkpt lat="45.68691692651611" lon="9.88348191813731"><ele>518.0</ele><time>2026-04-30T12:05:22Z</time></trkpt><trkpt lat="45.686846345196706" lon="9.883521157617059"><ele>517.1666666666666</ele><time>2026-04-30T12:05:23Z</time></trkpt><trkpt lat="45.68678512374189" lon="9.883549812456145"><ele>516.3333333333333</ele><time>2026-04-30T12:05:24Z</time></trkpt><trkpt lat="45.68670784421239" lon="9.883585990141345"><ele>515.5</ele><time>2026-04-30T12:05:25Z</time></trkpt><trkpt lat="45.686631083117994" lon="9.883621221013172"><ele>514.6666666666666</ele><time>2026-04-30T12:05:26Z</time></trkpt><trkpt lat="45.68654675588542" lon="9.883649116713269"><ele>513.8333333333334</ele><time>2026-04-30T12:05:27Z</time></trkpt><trkpt lat="45.68647240116884" lon="9.88367913797869"><ele>513.0</ele><time>2026-04-30T12:05:28Z</time></trkpt><trkpt lat="45.68638112619905" lon="9.883712679552643"><ele>513.0</ele><time>2026-04-30T12:05:29Z</time></trkpt><trkpt lat="45.68628862017255" lon="9.883733572174592"><ele>513.0</ele><time>2026-04-30T12:05:30Z</time></trkpt><trkpt lat="45.68618848264847" lon="9.883777205288403"><ele>513.0</ele><time>2026-04-30T12:05:31Z</time></trkpt><trkpt lat="45.68609436934147" lon="9.883823931936131"><ele>513.0</ele><time>2026-04-30T12:05:32Z</time></trkpt><trkpt lat="45.68600709693757" lon="9.883850695531423"><ele>513.0</ele><time>2026-04-30T12:05:33Z</time></trkpt><trkpt lat="45.685928928871895" lon="9.8838586026894"><ele>513.0</ele><time>2026-04-30T12:05:34Z</time></trkpt><trkpt lat="45.6858661801221" lon="9.883883686654391"><ele>513.0</ele><time>2026-04-30T12:05:35Z</time></trkpt><trkpt lat="45.68581970201819" lon="9.883968028960686"><ele>513.0</ele><time>2026-04-30T12:05:36Z</time></trkpt><trkpt lat="45.68580249224872" lon="9.884089247512007"><ele>513.0</ele><time>2026-04-30T12:05:37Z</time></trkpt><trkpt lat="45.6857872617421" lon="9.88420896480876"><ele>513.0</ele><time>2026-04-30T12:05:38Z</time></trkpt><trkpt lat="45.68577732602956" lon="9.88432483189453"><ele>513.0</ele><time>2026-04-30T12:05:39Z</time></trkpt><trkpt lat="45.68575473737561" lon="9.884429126419818"><ele>513.0</ele><time>2026-04-30T12:05:40Z</time></trkpt><trkpt lat="45.68573678651399" lon="9.884543126051257"><ele>513.0</ele><time>2026-04-30T12:05:41Z</time></trkpt><trkpt lat="45.68571775937182" lon="9.884646997053228"><ele>513.0</ele><time>2026-04-30T12:05:42Z</time></trkpt><trkpt lat="45.68565416744692" lon="9.884756000972194"><ele>513.0</ele><time>2026-04-30T12:05:43Z</time></trkpt><trkpt lat="45.685596479717155" lon="9.884859001701473"><ele>513.0</ele><time>2026-04-30T12:05:44Z</time></trkpt><trkpt lat="45.68555035380666" lon="9.884924262274708"><ele>513.0</ele><time>2026-04-30T12:05:45Z</time></trkpt><trkpt lat="45.68546839057213" lon="9.884973521711107"><ele>513.0</ele><time>2026-04-30T12:05:46Z</time></trkpt><trkpt lat="45.68540720746303" lon="9.885046453006481"><ele>513.0</ele><time>2026-04-30T12:05:47Z</time></trkpt><trkpt lat="45.68533439033337" lon="9.885104597247803"><ele>513.0</ele><time>2026-04-30T12:05:48Z</time></trkpt><trkpt lat="45.6852739723622" lon="9.885166140337166"><ele>513.0</ele><time>2026-04-30T12:05:49Z</time></trkpt><trkpt lat="45.685225214631636" lon="9.885250320096166"><ele>513.0</ele><time>2026-04-30T12:05:50Z</time></trkpt><trkpt lat="45.68515986996382" lon="9.885312306419749"><ele>513.0</ele><time>2026-04-30T12:05:51Z</time></trkpt><trkpt lat="45.68510128630937" lon="9.885381482256104"><ele>511.8333333333333</ele><time>2026-04-30T12:05:52Z</time></trkpt><trkpt lat="45.685037319075114" lon="9.885440156085979"><ele>510.66666666666663</ele><time>2026-04-30T12:05:53Z</time></trkpt><trkpt lat="45.68498658362584" lon="9.885517851174653"><ele>509.5</ele><time>2026-04-30T12:05:54Z</time></trkpt><trkpt lat="45.6849288536983" lon="9.885601430616495"><ele>508.3333333333333</ele><time>2026-04-30T12:05:55Z</time></trkpt><trkpt lat="45.684874282580395" lon="9.885684736431038"><ele>507.16666666666663</ele><time>2026-04-30T12:05:56Z</time></trkpt><trkpt lat="45.68482687691494" lon="9.885782624625444"><ele>506.0</ele><time>2026-04-30T12:05:57Z</time></trkpt><trkpt lat="45.68481148046711" lon="9.885928315531212"><ele>505.20000000000005</ele><time>2026-04-30T12:05:58Z</time></trkpt><trkpt lat="45.684804123388766" lon="9.886067999939018"><ele>504.40000000000003</ele><time>2026-04-30T12:05:59Z</time></trkpt><trkpt lat="45.6848064442251" lon="9.886216080495613"><ele>503.6</ele><time>2026-04-30T12:06:00Z</time></trkpt><trkpt lat="45.68481307184695" lon="9.886360751995866"><ele>502.8</ele><time>2026-04-30T12:06:01Z</time></trkpt><trkpt lat="45.68483642360153" lon="9.886502943269937"><ele>502.0</ele><time>2026-04-30T12:06:02Z</time></trkpt><trkpt lat="45.68485470907781" lon="9.8866319024363"><ele>500.8</ele><time>2026-04-30T12:06:03Z</time></trkpt><trkpt lat="45.68488743131877" lon="9.886761179787465"><ele>499.6</ele><time>2026-04-30T12:06:04Z</time></trkpt><trkpt lat="45.684919339623555" lon="9.886896887385992"><ele>498.40000000000003</ele><time>2026-04-30T12:06:05Z</time></trkpt><trkpt lat="45.684979746733745" lon="9.887002428432677"><ele>497.20000000000005</ele><time>2026-04-30T12:06:06Z</time></trkpt><trkpt lat="45.68505466803603" lon="9.887112066201198"><ele>496.0</ele><time>2026-04-30T12:06:07Z</time></trkpt><trkpt lat="45.685123877765946" lon="9.887209164733399"><ele>496.0</ele><time>2026-04-30T12:06:08Z</time></trkpt><trkpt lat="45.68519195630534" lon="9.887314347452879"><ele>496.0</ele><time>2026-04-30T12:06:09Z</time></trkpt><trkpt lat="45.68526357102183" lon="9.887413232158224"><ele>496.0</ele><time>2026-04-30T12:06:10Z</time></trkpt><trkpt lat="45.68533573540458" lon="9.88754290628486"><ele>496.0</ele><time>2026-04-30T12:06:11Z</time></trkpt><trkpt lat="45.685385380885315" lon="9.887637455483372"><ele>496.0</ele><time>2026-04-30T12:06:12Z</time></trkpt><trkpt lat="45.685441464508656" lon="9.887773898411323"><ele>496.20000000000005</ele><time>2026-04-30T12:06:13Z</time></trkpt><trkpt lat="45.68548200887733" lon="9.8878964181017"><ele>496.40000000000003</ele><time>2026-04-30T12:06:14Z</time></trkpt><trkpt lat="45.68550199939771" lon="9.888065335858052"><ele>496.6</ele><time>2026-04-30T12:06:15Z</time></trkpt><trkpt lat="45.68552416943302" lon="9.888216072223422"><ele>496.8</ele><time>2026-04-30T12:06:16Z</time></trkpt><trkpt lat="45.68554453887536" lon="9.888360100713836"><ele>497.0</ele><time>2026-04-30T12:06:17Z</time></trkpt><trkpt lat="45.685559406649276" lon="9.888514461095125"><ele>496.0</ele><time>2026-04-30T12:06:18Z</time></trkpt><trkpt lat="45.685573388537804" lon="9.888675560416464"><ele>495.00000000000006</ele><time>2026-04-30T12:06:19Z</time></trkpt><trkpt lat="45.68558849242712" lon="9.888820664731712"><ele>494.00000000000006</ele><time>2026-04-30T12:06:20Z</time></trkpt><trkpt lat="45.685616581196506" lon="9.888984819817821"><ele>493.0</ele><time>2026-04-30T12:06:21Z</time></trkpt><trkpt lat="45.6856367018376" lon="9.889133826992287"><ele>492.0</ele><time>2026-04-30T12:06:22Z</time></trkpt><trkpt lat="45.68565913488212" lon="9.889276033397941"><ele>491.6</ele><time>2026-04-30T12:06:23Z</time></trkpt><trkpt lat="45.685675439052154" lon="9.889427798872694"><ele>491.20000000000005</ele><time>2026-04-30T12:06:24Z</time></trkpt><trkpt lat="45.685689465390915" lon="9.889576425846762"><ele>490.8</ele><time>2026-04-30T12:06:25Z</time></trkpt><trkpt lat="45.68570321277063" lon="9.889715630717355"><ele>490.4</ele><time>2026-04-30T12:06:26Z</time></trkpt><trkpt lat="45.68570416530542" lon="9.889859805189742"><ele>490.0</ele><time>2026-04-30T12:06:27Z</time></trkpt><trkpt lat="45.685697322090306" lon="9.890006885796684"><ele>490.00000000000006</ele><time>2026-04-30T12:06:28Z</time></trkpt><trkpt lat="45.68568099256911" lon="9.89012866398011"><ele>490.0</ele><time>2026-04-30T12:06:29Z</time></trkpt><trkpt lat="45.68565439048105" lon="9.890265055555139"><ele>490.0</ele><time>2026-04-30T12:06:30Z</time></trkpt><trkpt lat="45.6856289523137" lon="9.890370657309305"><ele>490.0</ele><time>2026-04-30T12:06:31Z</time></trkpt><trkpt lat="45.68560901522687" lon="9.890477021787584"><ele>490.00000000000006</ele><time>2026-04-30T12:06:32Z</time></trkpt><trkpt lat="45.68559360759672" lon="9.89058445535611"><ele>490.0</ele><time>2026-04-30T12:06:33Z</time></trkpt><trkpt lat="45.68557550116431" lon="9.890700416493388"><ele>490.00000000000006</ele><time>2026-04-30T12:06:34Z</time></trkpt><trkpt lat="45.685558822536066" lon="9.890809827658689"><ele>490.0</ele><time>2026-04-30T12:06:35Z</time></trkpt><trkpt lat="45.685555638748276" lon="9.890919567954201"><ele>490.0</ele><time>2026-04-30T12:06:36Z</time></trkpt><trkpt lat="45.68554276916573" lon="9.891030672505526"><ele>490.0</ele><time>2026-04-30T12:06:37Z</time></trkpt><trkpt lat="45.68553820351618" lon="9.89114538887352"><ele>490.00000000000006</ele><time>2026-04-30T12:06:38Z</time></trkpt><trkpt lat="45.68553368847052" lon="9.891262228682312"><ele>490.0</ele><time>2026-04-30T12:06:39Z</time></trkpt><trkpt lat="45.685533066317824" lon="9.891375123674985"><ele>490.00000000000006</ele><time>2026-04-30T12:06:40Z</time></trkpt><trkpt lat="45.68553608737066" lon="9.891492868507472"><ele>490.0</ele><time>2026-04-30T12:06:41Z</time></trkpt><trkpt lat="45.68553738924109" lon="9.891611960236553"><ele>490.0</ele><time>2026-04-30T12:06:42Z</time></trkpt><trkpt lat="45.685539506082876" lon="9.891730085187872"><ele>490.0</ele><time>2026-04-30T12:06:43Z</time></trkpt><trkpt lat="45.68553949397398" lon="9.89184257968959"><ele>490.00000000000006</ele><time>2026-04-30T12:06:44Z</time></trkpt><trkpt lat="45.685544025058704" lon="9.891949859736581"><ele>490.0</ele><time>2026-04-30T12:06:45Z</time></trkpt><trkpt lat="45.6855412421682" lon="9.892068731779773"><ele>490.00000000000006</ele><time>2026-04-30T12:06:46Z</time></trkpt><trkpt lat="45.68553512651463" lon="9.892174390004772"><ele>490.0</ele><time>2026-04-30T12:06:47Z</time></trkpt><trkpt lat="45.685537364404844" lon="9.892275982786906"><ele>490.0</ele><time>2026-04-30T12:06:48Z</time></trkpt><trkpt lat="45.685532011994056" lon="9.89237733241206"><ele>490.0</ele><time>2026-04-30T12:06:49Z</time></trkpt><trkpt lat="45.685500620364024" lon="9.892479243854064"><ele>490.00000000000006</ele><time>2026-04-30T12:06:50Z</time></trkpt><trkpt lat="45.68547739057688" lon="9.892571007520418"><ele>490.0</ele><time>2026-04-30T12:06:51Z</time></trkpt><trkpt lat="45.6855334353031" lon="9.892707261736764"><ele>491.6</ele><time>2026-04-30T12:06:53Z</time></trkpt><trkpt lat="45.68550903163241" lon="9.89280444513057"><ele>493.2</ele><time>2026-04-30T12:06:54Z</time></trkpt><trkpt lat="45.68547220099385" lon="9.892893619980471"><ele>494.79999999999995</ele><time>2026-04-30T12:06:55Z</time></trkpt><trkpt lat="45.68545105067965" lon="9.89305827258414"><ele>496.4</ele><time>2026-04-30T12:06:57Z</time></trkpt><trkpt lat="45.685411269969634" lon="9.893213664458782"><ele>498.0</ele><time>2026-04-30T12:06:59Z</time></trkpt><trkpt lat="45.685391090583686" lon="9.893380608868245"><ele>498.4</ele><time>2026-04-30T12:07:01Z</time></trkpt><trkpt lat="45.68536208756355" lon="9.893527649983225"><ele>498.79999999999995</ele><time>2026-04-30T12:07:03Z</time></trkpt><trkpt lat="45.68537052742985" lon="9.893618841340997"><ele>499.2</ele><time>2026-04-30T12:07:04Z</time></trkpt><trkpt lat="45.68538473819893" lon="9.893785752926075"><ele>499.6</ele><time>2026-04-30T12:07:06Z</time></trkpt><trkpt lat="45.68543849741228" lon="9.893929123830947"><ele>500.0</ele><time>2026-04-30T12:07:08Z</time></trkpt><trkpt lat="45.68550297197007" lon="9.894079842014387"><ele>500.0</ele><time>2026-04-30T12:07:10Z</time></trkpt><trkpt lat="45.68554979034711" lon="9.894239269453902"><ele>500.0</ele><time>2026-04-30T12:07:12Z</time></trkpt><trkpt lat="45.68558908952637" lon="9.894406559010504"><ele>500.0</ele><time>2026-04-30T12:07:14Z</time></trkpt><trkpt lat="45.68558598483983" lon="9.894587759375694"><ele>500.0</ele><time>2026-04-30T12:07:16Z</time></trkpt><trkpt lat="45.68562578780427" lon="9.89475266238642"><ele>499.6</ele><time>2026-04-30T12:07:18Z</time></trkpt><trkpt lat="45.6856342540297" lon="9.894844149045312"><ele>499.2</ele><time>2026-04-30T12:07:19Z</time></trkpt><trkpt lat="45.685656979941434" lon="9.895018184245888"><ele>498.79999999999995</ele><time>2026-04-30T12:07:21Z</time></trkpt><trkpt lat="45.6856578224712" lon="9.895185972523072"><ele>498.4</ele><time>2026-04-30T12:07:23Z</time></trkpt><trkpt lat="45.685660694471736" lon="9.895346549436521"><ele>498.0</ele><time>2026-04-30T12:07:25Z</time></trkpt><trkpt lat="45.68566059083689" lon="9.895503286672996"><ele>498.0</ele><time>2026-04-30T12:07:27Z</time></trkpt><trkpt lat="45.68566271381497" lon="9.89566921722648"><ele>497.99999999999994</ele><time>2026-04-30T12:07:29Z</time></trkpt><trkpt lat="45.68565218081916" lon="9.895830798975643"><ele>497.99999999999994</ele><time>2026-04-30T12:07:31Z</time></trkpt><trkpt lat="45.685634527984774" lon="9.895986669578305"><ele>498.0</ele><time>2026-04-30T12:07:33Z</time></trkpt><trkpt lat="45.685635771562" lon="9.896134436115203"><ele>498.0</ele><time>2026-04-30T12:07:35Z</time></trkpt><trkpt lat="45.68561897339135" lon="9.896225035237459"><ele>501.4</ele><time>2026-04-30T12:07:37Z</time></trkpt><trkpt lat="45.685548309392416" lon="9.89626239519804"><ele>504.79999999999995</ele><time>2026-04-30T12:07:39Z</time></trkpt><trkpt lat="45.685469260788686" lon="9.896332274079999"><ele>508.2</ele><time>2026-04-30T12:07:41Z</time></trkpt><trkpt lat="45.68540951877478" lon="9.89644910436505"><ele>511.6</ele><time>2026-04-30T12:07:43Z</time></trkpt><trkpt lat="45.68538090130814" lon="9.896606092688238"><ele>515.0</ele><time>2026-04-30T12:07:45Z</time></trkpt><trkpt lat="45.68536176368586" lon="9.89677103860843"><ele>517.2</ele><time>2026-04-30T12:07:47Z</time></trkpt><trkpt lat="45.685353170346986" lon="9.896935684846454"><ele>519.4</ele><time>2026-04-30T12:07:49Z</time></trkpt><trkpt lat="45.68530267127932" lon="9.897073770104903"><ele>521.6</ele><time>2026-04-30T12:07:51Z</time></trkpt><trkpt lat="45.68522764646133" lon="9.897189508433115"><ele>523.8</ele><time>2026-04-30T12:07:53Z</time></trkpt><trkpt lat="45.68517896830151" lon="9.89732027525506"><ele>526.0</ele><time>2026-04-30T12:07:55Z</time></trkpt><trkpt lat="45.68517835853387" lon="9.89748428672726"><ele>526.8</ele><time>2026-04-30T12:07:57Z</time></trkpt><trkpt lat="45.6851930097416" lon="9.897574811164823"><ele>527.6</ele><time>2026-04-30T12:07:58Z</time></trkpt><trkpt lat="45.68524156324348" lon="9.897735518183408"><ele>528.4</ele><time>2026-04-30T12:08:00Z</time></trkpt><trkpt lat="45.68528796220228" lon="9.897888230090654"><ele>529.2</ele><time>2026-04-30T12:08:02Z</time></trkpt><trkpt lat="45.68531177657952" lon="9.898030182781829"><ele>530.0</ele><time>2026-04-30T12:08:04Z</time></trkpt><trkpt lat="45.68529538479779" lon="9.898161235101545"><ele>526.5714285714286</ele><time>2026-04-30T12:08:06Z</time></trkpt><trkpt lat="45.68523154487848" lon="9.89824688610679"><ele>523.1428571428571</ele><time>2026-04-30T12:08:08Z</time></trkpt><trkpt lat="45.685186606906804" lon="9.898324577972849"><ele>519.7142857142858</ele><time>2026-04-30T12:08:10Z</time></trkpt><trkpt lat="45.685165768321355" lon="9.898412043101166"><ele>516.2857142857142</ele><time>2026-04-30T12:08:12Z</time></trkpt><trkpt lat="45.68515574366977" lon="9.89850720991363"><ele>512.8571428571429</ele><time>2026-04-30T12:08:14Z</time></trkpt><trkpt lat="45.685155349638315" lon="9.898612663961837"><ele>509.4285714285715</ele><time>2026-04-30T12:08:16Z</time></trkpt><trkpt lat="45.68513436519469" lon="9.898710882342693"><ele>506.00000000000006</ele><time>2026-04-30T12:08:24Z</time></trkpt><trkpt lat="45.685090151434004" lon="9.898785344736725"><ele>505.99999999999994</ele><time>2026-04-30T12:08:26Z</time></trkpt><trkpt lat="45.68502535449945" lon="9.898829586770992"><ele>506.0</ele><time>2026-04-30T12:08:28Z</time></trkpt><trkpt lat="45.68495683175374" lon="9.898849622284006"><ele>506.0</ele><time>2026-04-30T12:08:30Z</time></trkpt><trkpt lat="45.68487250799411" lon="9.89888375725253"><ele>506.0</ele><time>2026-04-30T12:08:32Z</time></trkpt><trkpt lat="45.68480496349941" lon="9.898956390204084"><ele>505.99999999999994</ele><time>2026-04-30T12:08:34Z</time></trkpt><trkpt lat="45.68477936765559" lon="9.899041823265708"><ele>506.0</ele><time>2026-04-30T12:08:39Z</time></trkpt><trkpt lat="45.68471932983013" lon="9.899150533725892"><ele>508.8333333333333</ele><time>2026-04-30T12:08:42Z</time></trkpt><trkpt lat="45.68466819626649" lon="9.899307183977502"><ele>511.66666666666663</ele><time>2026-04-30T12:08:44Z</time></trkpt><trkpt lat="45.684638865716764" lon="9.89939803647043"><ele>514.5</ele><time>2026-04-30T12:08:45Z</time></trkpt><trkpt lat="45.68460535312492" lon="9.899484311427088"><ele>517.3333333333334</ele><time>2026-04-30T12:08:46Z</time></trkpt><trkpt lat="45.684571930002754" lon="9.899564865116389"><ele>520.1666666666667</ele><time>2026-04-30T12:08:47Z</time></trkpt><trkpt lat="45.684535492221904" lon="9.899640728041415"><ele>523.0</ele><time>2026-04-30T12:08:48Z</time></trkpt><trkpt lat="45.68446219029392" lon="9.899762074385391"><ele>517.5</ele><time>2026-04-30T12:08:50Z</time></trkpt><trkpt lat="45.684365882434975" lon="9.899843998445602"><ele>512.0</ele><time>2026-04-30T12:08:52Z</time></trkpt><trkpt lat="45.6842768531644" lon="9.899960834648246"><ele>506.5</ele><time>2026-04-30T12:08:54Z</time></trkpt><trkpt lat="45.6842081133332" lon="9.900102615245272"><ele>501.0</ele><time>2026-04-30T12:08:56Z</time></trkpt><trkpt lat="45.68415172719653" lon="9.900253452087847"><ele>501.0</ele><time>2026-04-30T12:08:58Z</time></trkpt><trkpt lat="45.68410860367978" lon="9.900420736323122"><ele>501.0</ele><time>2026-04-30T12:09:00Z</time></trkpt><trkpt lat="45.68406135233822" lon="9.900576487581668"><ele>501.0</ele><time>2026-04-30T12:09:02Z</time></trkpt><trkpt lat="45.684010039523834" lon="9.900726715604959"><ele>501.0</ele><time>2026-04-30T12:09:04Z</time></trkpt><trkpt lat="45.68395481068459" lon="9.900955937304618"><ele>501.5</ele><time>2026-04-30T12:09:07Z</time></trkpt><trkpt lat="45.68392323998135" lon="9.901100840492173"><ele>502.0</ele><time>2026-04-30T12:09:09Z</time></trkpt><trkpt lat="45.68389613387945" lon="9.901209154677932"><ele>502.5</ele><time>2026-04-30T12:09:11Z</time></trkpt><trkpt lat="45.683851135573505" lon="9.901290374310314"><ele>503.0</ele><time>2026-04-30T12:09:14Z</time></trkpt><trkpt lat="45.68380559299691" lon="9.901361103229757"><ele>503.5</ele><time>2026-04-30T12:09:19Z</time></trkpt><trkpt lat="45.683771365535286" lon="9.901459394845661"><ele>504.0</ele><time>2026-04-30T12:09:21Z</time></trkpt><trkpt lat="45.68371574468019" lon="9.90155943408908"><ele>504.0</ele><time>2026-04-30T12:09:23Z</time></trkpt><trkpt lat="45.68366062288135" lon="9.901662433682208"><ele>504.0</ele><time>2026-04-30T12:09:25Z</time></trkpt><trkpt lat="45.68367241846149" lon="9.90178202530892"><ele>504.0</ele><time>2026-04-30T12:09:27Z</time></trkpt><trkpt lat="45.683767840500266" lon="9.901817212899825"><ele>504.0</ele><time>2026-04-30T12:09:29Z</time></trkpt><trkpt lat="45.68387475951731" lon="9.90183895078795"><ele>504.0</ele><time>2026-04-30T12:09:31Z</time></trkpt><trkpt lat="45.68399491586035" lon="9.901896679463041"><ele>501.3333333333333</ele><time>2026-04-30T12:09:33Z</time></trkpt><trkpt lat="45.684066251385666" lon="9.901915647810332"><ele>498.66666666666663</ele><time>2026-04-30T12:09:34Z</time></trkpt><trkpt lat="45.68415008010631" lon="9.901939019784928"><ele>496.0</ele><time>2026-04-30T12:09:35Z</time></trkpt><trkpt lat="45.684224766585366" lon="9.901960984605033"><ele>493.3333333333333</ele><time>2026-04-30T12:09:36Z</time></trkpt><trkpt lat="45.684302617522256" lon="9.901979403682068"><ele>490.66666666666663</ele><time>2026-04-30T12:09:37Z</time></trkpt><trkpt lat="45.68438679529167" lon="9.90199221970271"><ele>488.0</ele><time>2026-04-30T12:09:38Z</time></trkpt><trkpt lat="45.68445853881745" lon="9.902006125976554"><ele>487.2</ele><time>2026-04-30T12:09:39Z</time></trkpt><trkpt lat="45.68453025976799" lon="9.901987031021612"><ele>486.4</ele><time>2026-04-30T12:09:40Z</time></trkpt><trkpt lat="45.6846044854031" lon="9.901935285098753"><ele>485.59999999999997</ele><time>2026-04-30T12:09:41Z</time></trkpt><trkpt lat="45.68467220528881" lon="9.901858505331246"><ele>484.79999999999995</ele><time>2026-04-30T12:09:42Z</time></trkpt><trkpt lat="45.684735965605086" lon="9.901806036290388"><ele>484.0</ele><time>2026-04-30T12:09:43Z</time></trkpt><trkpt lat="45.68487324907083" lon="9.901818372274281"><ele>484.0</ele><time>2026-04-30T12:09:45Z</time></trkpt><trkpt lat="45.68495256413283" lon="9.901917030249537"><ele>484.0</ele><time>2026-04-30T12:09:46Z</time></trkpt><trkpt lat="45.68502740056622" lon="9.90201167604561"><ele>484.0</ele><time>2026-04-30T12:09:47Z</time></trkpt><trkpt lat="45.68510559832935" lon="9.902109488857315"><ele>484.0</ele><time>2026-04-30T12:09:48Z</time></trkpt><trkpt lat="45.685186260086404" lon="9.90220782726436"><ele>484.0</ele><time>2026-04-30T12:09:49Z</time></trkpt><trkpt lat="45.68526833738946" lon="9.902308858359687"><ele>482.5</ele><time>2026-04-30T12:09:50Z</time></trkpt><trkpt lat="45.685354114905984" lon="9.90240745586377"><ele>481.0</ele><time>2026-04-30T12:09:51Z</time></trkpt><trkpt lat="45.68544523055334" lon="9.902507417307275"><ele>479.5</ele><time>2026-04-30T12:09:52Z</time></trkpt><trkpt lat="45.685545708509125" lon="9.902606078170656"><ele>478.0</ele><time>2026-04-30T12:09:53Z</time></trkpt><trkpt lat="45.68564212860299" lon="9.902698661064715"><ele>478.0</ele><time>2026-04-30T12:09:54Z</time></trkpt><trkpt lat="45.68572502610443" lon="9.902807722966138"><ele>477.99999999999994</ele><time>2026-04-30T12:09:55Z</time></trkpt><trkpt lat="45.685776169468674" lon="9.902923067968498"><ele>477.99999999999994</ele><time>2026-04-30T12:09:56Z</time></trkpt><trkpt lat="45.68580725358668" lon="9.903040009733067"><ele>478.0</ele><time>2026-04-30T12:09:57Z</time></trkpt><trkpt lat="45.68591407058428" lon="9.903142835937166"><ele>478.0</ele><time>2026-04-30T12:09:59Z</time></trkpt><trkpt lat="45.68597768127509" lon="9.903179054942017"><ele>478.0</ele><time>2026-04-30T12:10:00Z</time></trkpt><trkpt lat="45.68603860278146" lon="9.903214148506306"><ele>477.99999999999994</ele><time>2026-04-30T12:10:01Z</time></trkpt><trkpt lat="45.68615657362379" lon="9.903268737195843"><ele>477.99999999999994</ele><time>2026-04-30T12:10:03Z</time></trkpt><trkpt lat="45.68627990540225" lon="9.90330884778919"><ele>478.0</ele><time>2026-04-30T12:10:05Z</time></trkpt><trkpt lat="45.686392397370724" lon="9.903379177967892"><ele>478.0</ele><time>2026-04-30T12:10:07Z</time></trkpt><trkpt lat="45.68650108742744" lon="9.903458316380013"><ele>479.83333333333337</ele><time>2026-04-30T12:10:09Z</time></trkpt><trkpt lat="45.68656479341512" lon="9.903481201178472"><ele>481.6666666666667</ele><time>2026-04-30T12:10:10Z</time></trkpt><trkpt lat="45.68663847297312" lon="9.903471088832227"><ele>483.5</ele><time>2026-04-30T12:10:11Z</time></trkpt><trkpt lat="45.68671271436745" lon="9.903425406183409"><ele>485.33333333333337</ele><time>2026-04-30T12:10:12Z</time></trkpt><trkpt lat="45.68679503327151" lon="9.903381746416981"><ele>487.1666666666667</ele><time>2026-04-30T12:10:13Z</time></trkpt><trkpt lat="45.68688445085228" lon="9.903337030219303"><ele>489.0</ele><time>2026-04-30T12:10:14Z</time></trkpt><trkpt lat="45.68698196069982" lon="9.903298375067733"><ele>484.0</ele><time>2026-04-30T12:10:15Z</time></trkpt><trkpt lat="45.68706971904278" lon="9.903255419384433"><ele>479.0</ele><time>2026-04-30T12:10:16Z</time></trkpt><trkpt lat="45.68715866886278" lon="9.903207388238254"><ele>474.0</ele><time>2026-04-30T12:10:17Z</time></trkpt><trkpt lat="45.687251278568134" lon="9.903131284106754"><ele>469.0</ele><time>2026-04-30T12:10:18Z</time></trkpt><trkpt lat="45.68733676380038" lon="9.903028064775432"><ele>464.0</ele><time>2026-04-30T12:10:19Z</time></trkpt><trkpt lat="45.68742492333474" lon="9.902918638429036"><ele>464.0</ele><time>2026-04-30T12:10:20Z</time></trkpt><trkpt lat="45.68751607631004" lon="9.902807780265059"><ele>464.0</ele><time>2026-04-30T12:10:21Z</time></trkpt><trkpt lat="45.68760282314644" lon="9.902683869550373"><ele>464.0</ele><time>2026-04-30T12:10:22Z</time></trkpt><trkpt lat="45.68768829565315" lon="9.90256729194048"><ele>464.0</ele><time>2026-04-30T12:10:23Z</time></trkpt><trkpt lat="45.68777165472059" lon="9.902447425591852"><ele>460.6</ele><time>2026-04-30T12:10:24Z</time></trkpt><trkpt lat="45.6878456438944" lon="9.902322797663127"><ele>457.2</ele><time>2026-04-30T12:10:25Z</time></trkpt><trkpt lat="45.687906283252545" lon="9.902200964315071"><ele>453.80000000000007</ele><time>2026-04-30T12:10:26Z</time></trkpt><trkpt lat="45.68795817818819" lon="9.902075197599476"><ele>450.40000000000003</ele><time>2026-04-30T12:10:27Z</time></trkpt><trkpt lat="45.688001119424285" lon="9.901962070149036"><ele>447.0</ele><time>2026-04-30T12:10:28Z</time></trkpt><trkpt lat="45.68802966758035" lon="9.901867895647301"><ele>447.0</ele><time>2026-04-30T12:10:29Z</time></trkpt><trkpt lat="45.68810931975032" lon="9.901778095903722"><ele>447.0</ele><time>2026-04-30T12:10:31Z</time></trkpt><trkpt lat="45.688167220468245" lon="9.901862495564055"><ele>447.0</ele><time>2026-04-30T12:10:33Z</time></trkpt><trkpt lat="45.68813511203628" lon="9.9019431013666"><ele>447.0</ele><time>2026-04-30T12:10:34Z</time></trkpt><trkpt lat="45.688090878130446" lon="9.902021014402138"><ele>447.0</ele><time>2026-04-30T12:10:35Z</time></trkpt><trkpt lat="45.68806908237024" lon="9.902114346443042"><ele>447.0</ele><time>2026-04-30T12:10:36Z</time></trkpt><trkpt lat="45.688062788074646" lon="9.902227041522977"><ele>447.0</ele><time>2026-04-30T12:10:37Z</time></trkpt><trkpt lat="45.68806240722317" lon="9.902358680022603"><ele>447.0</ele><time>2026-04-30T12:10:38Z</time></trkpt><trkpt lat="45.68805395868201" lon="9.902479182749772"><ele>447.0</ele><time>2026-04-30T12:10:39Z</time></trkpt><trkpt lat="45.68803646861917" lon="9.90259601635874"><ele>447.0</ele><time>2026-04-30T12:10:40Z</time></trkpt><trkpt lat="45.68800604198069" lon="9.902709004838492"><ele>447.0</ele><time>2026-04-30T12:10:41Z</time></trkpt><trkpt lat="45.68795562678452" lon="9.90282098823231"><ele>447.0</ele><time>2026-04-30T12:10:42Z</time></trkpt><trkpt lat="45.687901534366276" lon="9.902936182215889"><ele>444.20000000000005</ele><time>2026-04-30T12:10:43Z</time></trkpt><trkpt lat="45.68785380032728" lon="9.903065632849458"><ele>441.40000000000003</ele><time>2026-04-30T12:10:44Z</time></trkpt><trkpt lat="45.68782808461581" lon="9.90317529903091"><ele>438.59999999999997</ele><time>2026-04-30T12:10:45Z</time></trkpt><trkpt lat="45.68781158273591" lon="9.903331744455386"><ele>435.79999999999995</ele><time>2026-04-30T12:10:46Z</time></trkpt><trkpt lat="45.68779197689413" lon="9.903500039775377"><ele>433.0</ele><time>2026-04-30T12:10:47Z</time></trkpt><trkpt lat="45.68776993876941" lon="9.903653990046708"><ele>433.50000000000006</ele><time>2026-04-30T12:10:48Z</time></trkpt><trkpt lat="45.68772668874703" lon="9.903780959888834"><ele>434.0</ele><time>2026-04-30T12:10:49Z</time></trkpt><trkpt lat="45.68769339620547" lon="9.903892160295612"><ele>434.5</ele><time>2026-04-30T12:10:50Z</time></trkpt><trkpt lat="45.68764495053575" lon="9.903955643011782"><ele>435.0</ele><time>2026-04-30T12:10:51Z</time></trkpt><trkpt lat="45.68766137471061" lon="9.904050287129877"><ele>435.50000000000006</ele><time>2026-04-30T12:10:53Z</time></trkpt><trkpt lat="45.68775651133928" lon="9.903969279715842"><ele>436.0</ele><time>2026-04-30T12:10:55Z</time></trkpt><trkpt lat="45.68778821656849" lon="9.90386831508213"><ele>435.4</ele><time>2026-04-30T12:10:56Z</time></trkpt><trkpt lat="45.68783704366491" lon="9.903768377409959"><ele>434.8</ele><time>2026-04-30T12:10:57Z</time></trkpt><trkpt lat="45.687890963028444" lon="9.90366565116891"><ele>434.19999999999993</ele><time>2026-04-30T12:10:58Z</time></trkpt><trkpt lat="45.687947155675005" lon="9.903560230808875"><ele>433.59999999999997</ele><time>2026-04-30T12:10:59Z</time></trkpt><trkpt lat="45.688008411580135" lon="9.903450430486558"><ele>433.0</ele><time>2026-04-30T12:11:00Z</time></trkpt><trkpt lat="45.68808036731644" lon="9.903341473689412"><ele>433.0</ele><time>2026-04-30T12:11:01Z</time></trkpt><trkpt lat="45.68815181234894" lon="9.903257106499042"><ele>432.99999999999994</ele><time>2026-04-30T12:11:02Z</time></trkpt><trkpt lat="45.68822302081481" lon="9.903198489632823"><ele>432.99999999999994</ele><time>2026-04-30T12:11:03Z</time></trkpt><trkpt lat="45.6883128064816" lon="9.903174561913652"><ele>433.0</ele><time>2026-04-30T12:11:04Z</time></trkpt><trkpt lat="45.68840721595429" lon="9.903184007730362"><ele>433.0</ele><time>2026-04-30T12:11:05Z</time></trkpt><trkpt lat="45.688503686316295" lon="9.903157372019091"><ele>427.0</ele><time>2026-04-30T12:11:06Z</time></trkpt><trkpt lat="45.68860087993386" lon="9.903103278651631"><ele>420.99999999999994</ele><time>2026-04-30T12:11:07Z</time></trkpt><trkpt lat="45.688696138175274" lon="9.903051328005558"><ele>415.0</ele><time>2026-04-30T12:11:08Z</time></trkpt><trkpt lat="45.68877806777021" lon="9.90301718408461"><ele>409.0</ele><time>2026-04-30T12:11:09Z</time></trkpt><trkpt lat="45.68885386391162" lon="9.902961989216557"><ele>403.0</ele><time>2026-04-30T12:11:10Z</time></trkpt><trkpt lat="45.68891240811681" lon="9.902855415627048"><ele>403.0</ele><time>2026-04-30T12:11:11Z</time></trkpt><trkpt lat="45.688964058763204" lon="9.902723174498906"><ele>403.0</ele><time>2026-04-30T12:11:12Z</time></trkpt><trkpt lat="45.68901646419328" lon="9.902587383325438"><ele>403.0</ele><time>2026-04-30T12:11:13Z</time></trkpt><trkpt lat="45.689061664393705" lon="9.90243518159513"><ele>403.0</ele><time>2026-04-30T12:11:14Z</time></trkpt><trkpt lat="45.6891096881197" lon="9.90229151519933"><ele>403.0</ele><time>2026-04-30T12:11:15Z</time></trkpt><trkpt lat="45.68916228199048" lon="9.90214843445504"><ele>404.6666666666667</ele><time>2026-04-30T12:11:16Z</time></trkpt><trkpt lat="45.689204703729764" lon="9.902034407284686"><ele>406.33333333333337</ele><time>2026-04-30T12:11:17Z</time></trkpt><trkpt lat="45.689251757985645" lon="9.901946423171172"><ele>408.0</ele><time>2026-04-30T12:11:18Z</time></trkpt><trkpt lat="45.68933815023405" lon="9.901882533847903"><ele>409.66666666666663</ele><time>2026-04-30T12:11:20Z</time></trkpt><trkpt lat="45.68939927804423" lon="9.901926670212418"><ele>411.3333333333333</ele><time>2026-04-30T12:11:21Z</time></trkpt><trkpt lat="45.68945929175176" lon="9.902034503975608"><ele>413.0</ele><time>2026-04-30T12:11:22Z</time></trkpt><trkpt lat="45.68949816809343" lon="9.902133360473652"><ele>412.99999999999994</ele><time>2026-04-30T12:11:23Z</time></trkpt><trkpt lat="45.68953935506129" lon="9.902219066172078"><ele>413.0</ele><time>2026-04-30T12:11:24Z</time></trkpt><trkpt lat="45.689587989216996" lon="9.902298841031454"><ele>413.0</ele><time>2026-04-30T12:11:25Z</time></trkpt><trkpt lat="45.68964048872968" lon="9.90237492603907"><ele>413.0</ele><time>2026-04-30T12:11:26Z</time></trkpt><trkpt lat="45.68969309402159" lon="9.902453180933506"><ele>412.99999999999994</ele><time>2026-04-30T12:11:27Z</time></trkpt><trkpt lat="45.689744288031314" lon="9.902532404615371"><ele>413.0</ele><time>2026-04-30T12:11:28Z</time></trkpt><trkpt lat="45.68980003639744" lon="9.90260883699876"><ele>410.8333333333333</ele><time>2026-04-30T12:11:29Z</time></trkpt><trkpt lat="45.68985203484136" lon="9.902681961908598"><ele>408.66666666666663</ele><time>2026-04-30T12:11:30Z</time></trkpt><trkpt lat="45.68990185145579" lon="9.902752783382002"><ele>406.5</ele><time>2026-04-30T12:11:31Z</time></trkpt><trkpt lat="45.68994886206838" lon="9.902817760826196"><ele>404.33333333333337</ele><time>2026-04-30T12:11:32Z</time></trkpt><trkpt lat="45.69003740273275" lon="9.90292221922148"><ele>402.1666666666667</ele><time>2026-04-30T12:11:34Z</time></trkpt><trkpt lat="45.69012674965567" lon="9.903006287031252"><ele>400.0</ele><time>2026-04-30T12:11:36Z</time></trkpt><trkpt lat="45.69022724586879" lon="9.903001931283823"><ele>398.75</ele><time>2026-04-30T12:11:38Z</time></trkpt><trkpt lat="45.69032102119735" lon="9.902912593008171"><ele>397.5</ele><time>2026-04-30T12:11:40Z</time></trkpt><trkpt lat="45.69039592340043" lon="9.902777855100934"><ele>396.25</ele><time>2026-04-30T12:11:42Z</time></trkpt><trkpt lat="45.69044522641175" lon="9.902629408583337"><ele>395.0</ele><time>2026-04-30T12:11:44Z</time></trkpt><trkpt lat="45.69047432180326" lon="9.902476609677203"><ele>398.0</ele><time>2026-04-30T12:11:46Z</time></trkpt><trkpt lat="45.6905168547777" lon="9.902333121263514"><ele>401.0</ele><time>2026-04-30T12:11:48Z</time></trkpt><trkpt lat="45.69055566165132" lon="9.902189250104655"><ele>404.0</ele><time>2026-04-30T12:11:50Z</time></trkpt><trkpt lat="45.69059100354882" lon="9.902046308992555"><ele>407.0</ele><time>2026-04-30T12:11:52Z</time></trkpt><trkpt lat="45.69062473843891" lon="9.901910742383093"><ele>410.0</ele><time>2026-04-30T12:11:54Z</time></trkpt><trkpt lat="45.69065963675373" lon="9.901782721540991"><ele>412.8</ele><time>2026-04-30T12:11:56Z</time></trkpt><trkpt lat="45.69070461681173" lon="9.90165673385689"><ele>415.6</ele><time>2026-04-30T12:11:58Z</time></trkpt><trkpt lat="45.690754906817425" lon="9.901531947064113"><ele>418.4</ele><time>2026-04-30T12:12:00Z</time></trkpt><trkpt lat="45.69081494673909" lon="9.901423387274477"><ele>421.2</ele><time>2026-04-30T12:12:02Z</time></trkpt><trkpt lat="45.69086898593424" lon="9.901318072142379"><ele>424.0</ele><time>2026-04-30T12:12:04Z</time></trkpt><trkpt lat="45.69091022854408" lon="9.901207338002614"><ele>424.00000000000006</ele><time>2026-04-30T12:12:06Z</time></trkpt><trkpt lat="45.69095580877979" lon="9.90109253504438"><ele>424.0</ele><time>2026-04-30T12:12:08Z</time></trkpt><trkpt lat="45.69100786647065" lon="9.900999956726098"><ele>424.0</ele><time>2026-04-30T12:12:10Z</time></trkpt><trkpt lat="45.691051244876355" lon="9.900913309150933"><ele>424.0</ele><time>2026-04-30T12:12:12Z</time></trkpt><trkpt lat="45.69111334482956" lon="9.900864533773877"><ele>424.00000000000006</ele><time>2026-04-30T12:13:39Z</time></trkpt><trkpt lat="45.69115448358058" lon="9.900737907932822"><ele>424.0</ele><time>2026-04-30T12:13:42Z</time></trkpt><trkpt lat="45.691205155478215" lon="9.900658008347563"><ele>424.4</ele><time>2026-04-30T12:13:44Z</time></trkpt><trkpt lat="45.69126541025257" lon="9.900565534517206"><ele>424.79999999999995</ele><time>2026-04-30T12:13:46Z</time></trkpt><trkpt lat="45.691338496395026" lon="9.900445788207277"><ele>425.20000000000005</ele><time>2026-04-30T12:13:48Z</time></trkpt><trkpt lat="45.691395564582095" lon="9.900311462928375"><ele>425.6</ele><time>2026-04-30T12:13:50Z</time></trkpt><trkpt lat="45.69142420353146" lon="9.90015043659133"><ele>426.0</ele><time>2026-04-30T12:13:52Z</time></trkpt><trkpt lat="45.69144210093088" lon="9.899985693648459"><ele>426.0</ele><time>2026-04-30T12:13:54Z</time></trkpt><trkpt lat="45.69147343667006" lon="9.899820659669686"><ele>426.0</ele><time>2026-04-30T12:13:56Z</time></trkpt><trkpt lat="45.691514510561554" lon="9.899745788952496"><ele>426.0</ele><time>2026-04-30T12:13:57Z</time></trkpt><trkpt lat="45.69157079676778" lon="9.899691178551937"><ele>426.0</ele><time>2026-04-30T12:13:58Z</time></trkpt><trkpt lat="45.69162265715699" lon="9.899637200488183"><ele>426.0</ele><time>2026-04-30T12:13:59Z</time></trkpt><trkpt lat="45.69165167197699" lon="9.899556794982642"><ele>426.0</ele><time>2026-04-30T12:14:00Z</time></trkpt><trkpt lat="45.691665472424965" lon="9.899454321698839"><ele>425.99999999999994</ele><time>2026-04-30T12:14:01Z</time></trkpt><trkpt lat="45.691679872061385" lon="9.899335327285206"><ele>426.0</ele><time>2026-04-30T12:14:02Z</time></trkpt><trkpt lat="45.69170152794999" lon="9.899221494240255"><ele>426.0</ele><time>2026-04-30T12:14:03Z</time></trkpt><trkpt lat="45.691725617874596" lon="9.899116126227076"><ele>426.0</ele><time>2026-04-30T12:14:04Z</time></trkpt><trkpt lat="45.69176029422576" lon="9.899030702723826"><ele>426.0</ele><time>2026-04-30T12:14:05Z</time></trkpt><trkpt lat="45.69180508433331" lon="9.898963541911177"><ele>425.99999999999994</ele><time>2026-04-30T12:14:06Z</time></trkpt><trkpt lat="45.69186042118966" lon="9.89892031778272"><ele>426.0</ele><time>2026-04-30T12:14:07Z</time></trkpt><trkpt lat="45.69195299176161" lon="9.898839759203634"><ele>426.6</ele><time>2026-04-30T12:14:09Z</time></trkpt><trkpt lat="45.69201828434594" lon="9.898714852116205"><ele>427.20000000000005</ele><time>2026-04-30T12:14:11Z</time></trkpt><trkpt lat="45.69208767165362" lon="9.898596158581729"><ele>427.79999999999995</ele><time>2026-04-30T12:14:13Z</time></trkpt><trkpt lat="45.69216223977819" lon="9.89847676038985"><ele>428.4</ele><time>2026-04-30T12:14:15Z</time></trkpt><trkpt lat="45.69225416347768" lon="9.89836974020653"><ele>429.0</ele><time>2026-04-30T12:14:17Z</time></trkpt><trkpt lat="45.69235880759073" lon="9.89827153179397"><ele>429.0</ele><time>2026-04-30T12:14:19Z</time></trkpt><trkpt lat="45.69241359118992" lon="9.898216486343866"><ele>429.0</ele><time>2026-04-30T12:14:20Z</time></trkpt><trkpt lat="45.692467780530144" lon="9.898153723428473"><ele>429.0</ele><time>2026-04-30T12:14:21Z</time></trkpt><trkpt lat="45.69252167152719" lon="9.898090187688878"><ele>429.0</ele><time>2026-04-30T12:14:22Z</time></trkpt><trkpt lat="45.69257789382933" lon="9.898025557759897"><ele>429.0</ele><time>2026-04-30T12:14:23Z</time></trkpt><trkpt lat="45.69263521270511" lon="9.897956775955251"><ele>429.0</ele><time>2026-04-30T12:14:24Z</time></trkpt><trkpt lat="45.69269602408449" lon="9.897886922122105"><ele>429.0</ele><time>2026-04-30T12:14:25Z</time></trkpt><trkpt lat="45.69275856182966" lon="9.897821750861223"><ele>429.2857142857143</ele><time>2026-04-30T12:14:26Z</time></trkpt><trkpt lat="45.69282379448712" lon="9.897762834992067"><ele>429.57142857142856</ele><time>2026-04-30T12:14:27Z</time></trkpt><trkpt lat="45.69288530390386" lon="9.89770776535873"><ele>429.8571428571429</ele><time>2026-04-30T12:14:28Z</time></trkpt><trkpt lat="45.69295096492842" lon="9.897658620621"><ele>430.1428571428571</ele><time>2026-04-30T12:14:29Z</time></trkpt><trkpt lat="45.69301512936357" lon="9.897615967382501"><ele>430.4285714285714</ele><time>2026-04-30T12:14:30Z</time></trkpt><trkpt lat="45.6930765775874" lon="9.897571360633377"><ele>430.7142857142857</ele><time>2026-04-30T12:14:31Z</time></trkpt><trkpt lat="45.69313486922774" lon="9.897508511196646"><ele>431.0</ele><time>2026-04-30T12:14:32Z</time></trkpt><trkpt lat="45.69318979569406" lon="9.897439683658378"><ele>431.0</ele><time>2026-04-30T12:14:33Z</time></trkpt><trkpt lat="45.693247835137704" lon="9.89737805981131"><ele>431.0</ele><time>2026-04-30T12:14:34Z</time></trkpt><trkpt lat="45.69330128297504" lon="9.89729441316057"><ele>431.0</ele><time>2026-04-30T12:14:35Z</time></trkpt><trkpt lat="45.69334335044982" lon="9.897217551874602"><ele>431.0</ele><time>2026-04-30T12:14:36Z</time></trkpt><trkpt lat="45.69339945796589" lon="9.897152902917147"><ele>431.0</ele><time>2026-04-30T12:14:37Z</time></trkpt><trkpt lat="45.693446958373215" lon="9.897079047568676"><ele>431.0</ele><time>2026-04-30T12:14:38Z</time></trkpt><trkpt lat="45.69349639249675" lon="9.897022125935928"><ele>431.0</ele><time>2026-04-30T12:14:39Z</time></trkpt><trkpt lat="45.6935466221262" lon="9.89696304416418"><ele>431.16666666666663</ele><time>2026-04-30T12:14:40Z</time></trkpt><trkpt lat="45.69359971287795" lon="9.896911167964527"><ele>431.3333333333333</ele><time>2026-04-30T12:14:41Z</time></trkpt><trkpt lat="45.69365532739246" lon="9.896866787951156"><ele>431.5</ele><time>2026-04-30T12:14:42Z</time></trkpt><trkpt lat="45.693763959697044" lon="9.896786664433908"><ele>431.66666666666663</ele><time>2026-04-30T12:14:44Z</time></trkpt><trkpt lat="45.6938711533835" lon="9.896739247262174"><ele>431.8333333333333</ele><time>2026-04-30T12:14:46Z</time></trkpt><trkpt lat="45.69392823962345" lon="9.896699440357374"><ele>432.0</ele><time>2026-04-30T12:14:47Z</time></trkpt><trkpt lat="45.69403823087724" lon="9.896611555816499"><ele>432.0</ele><time>2026-04-30T12:14:49Z</time></trkpt><trkpt lat="45.694149385374686" lon="9.896530599088942"><ele>432.00000000000006</ele><time>2026-04-30T12:14:51Z</time></trkpt><trkpt lat="45.69426174012542" lon="9.896457444555748"><ele>432.00000000000006</ele><time>2026-04-30T12:14:53Z</time></trkpt><trkpt lat="45.69432705797834" lon="9.896432789416286"><ele>432.0</ele><time>2026-04-30T12:14:54Z</time></trkpt><trkpt lat="45.694436118058846" lon="9.896435859182631"><ele>432.0</ele><time>2026-04-30T12:14:56Z</time></trkpt><trkpt lat="45.69454137951092" lon="9.896410441040297"><ele>432.20000000000005</ele><time>2026-04-30T12:14:58Z</time></trkpt><trkpt lat="45.69464994118335" lon="9.896405667732921"><ele>432.40000000000003</ele><time>2026-04-30T12:15:00Z</time></trkpt><trkpt lat="45.69474435319759" lon="9.896390757007435"><ele>432.59999999999997</ele><time>2026-04-30T12:15:02Z</time></trkpt><trkpt lat="45.69481766570853" lon="9.896391603055282"><ele>432.79999999999995</ele><time>2026-04-30T12:15:03Z</time></trkpt><trkpt lat="45.69490468120055" lon="9.896345699519095"><ele>433.0</ele><time>2026-04-30T12:15:05Z</time></trkpt><trkpt lat="45.695012382987834" lon="9.896340973407595"><ele>433.0</ele><time>2026-04-30T12:15:07Z</time></trkpt><trkpt lat="45.6951206863575" lon="9.896320944184733"><ele>432.99999999999994</ele><time>2026-04-30T12:15:09Z</time></trkpt><trkpt lat="45.69522770993983" lon="9.896310515200597"><ele>432.99999999999994</ele><time>2026-04-30T12:15:11Z</time></trkpt><trkpt lat="45.69530606732714" lon="9.896330670846467"><ele>433.0</ele><time>2026-04-30T12:15:13Z</time></trkpt><trkpt lat="45.69540431729307" lon="9.896333838605859"><ele>433.0</ele><time>2026-04-30T12:15:15Z</time></trkpt><trkpt lat="45.695522032443435" lon="9.896296700725147"><ele>434.00000000000006</ele><time>2026-04-30T12:15:17Z</time></trkpt><trkpt lat="45.69564547709164" lon="9.896362722812704"><ele>435.0</ele><time>2026-04-30T12:15:19Z</time></trkpt><trkpt lat="45.69571784399932" lon="9.896408191697267"><ele>436.0</ele><time>2026-04-30T12:15:20Z</time></trkpt><trkpt lat="45.69578263338835" lon="9.896468964403008"><ele>437.0</ele><time>2026-04-30T12:15:21Z</time></trkpt><trkpt lat="45.69584380380239" lon="9.896538139614261"><ele>438.00000000000006</ele><time>2026-04-30T12:15:22Z</time></trkpt><trkpt lat="45.695905284840244" lon="9.896603762277334"><ele>439.0</ele><time>2026-04-30T12:15:23Z</time></trkpt><trkpt lat="45.69597100213792" lon="9.896661872826222"><ele>439.0</ele><time>2026-04-30T12:15:24Z</time></trkpt><trkpt lat="45.69603137216298" lon="9.896721753949485"><ele>439.0</ele><time>2026-04-30T12:15:25Z</time></trkpt><trkpt lat="45.69608780407138" lon="9.896772389975562"><ele>439.0</ele><time>2026-04-30T12:15:26Z</time></trkpt><trkpt lat="45.6961920788683" lon="9.896813887869843"><ele>439.0</ele><time>2026-04-30T12:15:28Z</time></trkpt><trkpt lat="45.69630735351" lon="9.896762986446413"><ele>439.0</ele><time>2026-04-30T12:15:30Z</time></trkpt><trkpt lat="45.696418883827334" lon="9.896801841816384"><ele>438.25</ele><time>2026-04-30T12:15:32Z</time></trkpt><trkpt lat="45.696520525120214" lon="9.896877207770553"><ele>437.5</ele><time>2026-04-30T12:15:34Z</time></trkpt><trkpt lat="45.696620514121726" lon="9.896947047115809"><ele>436.75</ele><time>2026-04-30T12:15:36Z</time></trkpt><trkpt lat="45.696726891544806" lon="9.89701106754061"><ele>436.0</ele><time>2026-04-30T12:15:38Z</time></trkpt><trkpt lat="45.69683319287688" lon="9.897068169397034"><ele>438.8</ele><time>2026-04-30T12:15:40Z</time></trkpt><trkpt lat="45.69693539176433" lon="9.89712965674441"><ele>441.6</ele><time>2026-04-30T12:15:42Z</time></trkpt><trkpt lat="45.69703879797127" lon="9.897188720062264"><ele>444.4</ele><time>2026-04-30T12:15:44Z</time></trkpt><trkpt lat="45.69714553838758" lon="9.897244557918569"><ele>447.2</ele><time>2026-04-30T12:15:46Z</time></trkpt><trkpt lat="45.69725007166131" lon="9.897305413145883"><ele>450.0</ele><time>2026-04-30T12:15:48Z</time></trkpt><trkpt lat="45.697348169305435" lon="9.897367182786702"><ele>450.0</ele><time>2026-04-30T12:15:50Z</time></trkpt><trkpt lat="45.69746274841798" lon="9.897423279896017"><ele>450.0</ele><time>2026-04-30T12:15:52Z</time></trkpt><trkpt lat="45.69756454975823" lon="9.897483758623002"><ele>450.0</ele><time>2026-04-30T12:15:54Z</time></trkpt><trkpt lat="45.69766765386884" lon="9.897543016640041"><ele>450.0</ele><time>2026-04-30T12:15:56Z</time></trkpt><trkpt lat="45.697770497629584" lon="9.897601202475071"><ele>451.6</ele><time>2026-04-30T12:15:58Z</time></trkpt><trkpt lat="45.69786557836066" lon="9.897661450189636"><ele>453.2</ele><time>2026-04-30T12:16:00Z</time></trkpt><trkpt lat="45.69795282725588" lon="9.897735353791637"><ele>454.79999999999995</ele><time>2026-04-30T12:16:02Z</time></trkpt><trkpt lat="45.69804814633425" lon="9.89779232989896"><ele>456.4</ele><time>2026-04-30T12:16:04Z</time></trkpt><trkpt lat="45.698117689209546" lon="9.897837492784904"><ele>458.0</ele><time>2026-04-30T12:16:06Z</time></trkpt><trkpt lat="45.69819218535822" lon="9.897887725464852"><ele>457.99999999999994</ele><time>2026-04-30T12:16:08Z</time></trkpt><trkpt lat="45.69826232687351" lon="9.897934824726056"><ele>458.0</ele><time>2026-04-30T12:16:10Z</time></trkpt><trkpt lat="45.698345202302065" lon="9.89797037861384"><ele>458.0</ele><time>2026-04-30T12:16:13Z</time></trkpt><trkpt lat="45.698386504885775" lon="9.898072172426701"><ele>458.0</ele><time>2026-04-30T12:16:16Z</time></trkpt><trkpt lat="45.69836963031763" lon="9.898170255479021"><ele>457.99999999999994</ele><time>2026-04-30T12:16:18Z</time></trkpt><trkpt lat="45.69836171659667" lon="9.898292678457853"><ele>458.0</ele><time>2026-04-30T12:16:20Z</time></trkpt><trkpt lat="45.69838194501493" lon="9.898423268928907"><ele>458.0</ele><time>2026-04-30T12:16:22Z</time></trkpt><trkpt lat="45.69840121695568" lon="9.898521875768877"><ele>457.99999999999994</ele><time>2026-04-30T12:16:24Z</time></trkpt><trkpt lat="45.69842371314819" lon="9.89841429843933"><ele>457.99999999999994</ele><time>2026-04-30T12:16:28Z</time></trkpt><trkpt lat="45.69837272218132" lon="9.898281888226276"><ele>458.0</ele><time>2026-04-30T12:16:30Z</time></trkpt><trkpt lat="45.69837509959978" lon="9.898124322297964"><ele>458.0</ele><time>2026-04-30T12:16:32Z</time></trkpt><trkpt lat="45.69839140200313" lon="9.897996087066284"><ele>458.0</ele><time>2026-04-30T12:16:34Z</time></trkpt><trkpt lat="45.69846094932099" lon="9.897941720752229"><ele>458.0</ele><time>2026-04-30T12:16:36Z</time></trkpt><trkpt lat="45.69853879054817" lon="9.897938779042196"><ele>458.0</ele><time>2026-04-30T12:16:38Z</time></trkpt><trkpt lat="45.69859116554273" lon="9.897862682331112"><ele>458.0</ele><time>2026-04-30T12:16:40Z</time></trkpt><trkpt lat="45.698600188703075" lon="9.897759231968713"><ele>458.0</ele><time>2026-04-30T12:16:42Z</time></trkpt><trkpt lat="45.698591551834895" lon="9.897659366528442"><ele>458.0</ele><time>2026-04-30T12:16:44Z</time></trkpt><trkpt lat="45.69859380504989" lon="9.897567805980136"><ele>458.0</ele><time>2026-04-30T12:16:46Z</time></trkpt><trkpt lat="45.69856344123266" lon="9.897487058837918"><ele>458.0</ele><time>2026-04-30T12:16:49Z</time></trkpt><trkpt lat="45.69855957593536" lon="9.897589425088254"><ele>458.0</ele><time>2026-04-30T12:16:52Z</time></trkpt><trkpt lat="45.69858185032403" lon="9.897676395156223"><ele>458.0</ele><time>2026-04-30T12:16:55Z</time></trkpt><trkpt lat="45.69862295292213" lon="9.897775231220677"><ele>458.0</ele><time>2026-04-30T12:16:59Z</time></trkpt><trkpt lat="45.69868773701082" lon="9.8977711300936"><ele>458.0</ele><time>2026-04-30T12:17:01Z</time></trkpt><trkpt lat="45.69874766244254" lon="9.897718142202168"><ele>458.0</ele><time>2026-04-30T12:17:06Z</time></trkpt><trkpt lat="45.698820063682646" lon="9.897750201326355"><ele>458.0</ele><time>2026-04-30T12:17:10Z</time></trkpt><trkpt lat="45.698875710162" lon="9.897806108212615"><ele>462.66666666666663</ele><time>2026-04-30T12:17:13Z</time></trkpt><trkpt lat="45.69892856781855" lon="9.897857820376467"><ele>467.3333333333333</ele><time>2026-04-30T12:17:16Z</time></trkpt><trkpt lat="45.698985031537845" lon="9.89791297345042"><ele>472.0</ele><time>2026-04-30T12:17:19Z</time></trkpt><trkpt lat="45.6990642826819" lon="9.897915883130537"><ele>476.66666666666663</ele><time>2026-04-30T12:17:22Z</time></trkpt><trkpt lat="45.699137553044416" lon="9.897887206925944"><ele>481.3333333333333</ele><time>2026-04-30T12:17:25Z</time></trkpt><trkpt lat="45.69922059467541" lon="9.89785582004664"><ele>486.0</ele><time>2026-04-30T12:17:28Z</time></trkpt><trkpt lat="45.69930221130621" lon="9.8978273910906"><ele>486.0</ele><time>2026-04-30T12:17:31Z</time></trkpt><trkpt lat="45.69937453099241" lon="9.897791883424075"><ele>486.0</ele><time>2026-04-30T12:17:34Z</time></trkpt><trkpt lat="45.69944478974038" lon="9.897764576343173"><ele>486.0</ele><time>2026-04-30T12:17:37Z</time></trkpt><trkpt lat="45.69950669458948" lon="9.89774582806834"><ele>486.0</ele><time>2026-04-30T12:17:40Z</time></trkpt><trkpt lat="45.699583082207745" lon="9.897698792122902"><ele>486.0</ele><time>2026-04-30T12:17:44Z</time></trkpt><trkpt lat="45.699660205395645" lon="9.897698647946974"><ele>486.0</ele><time>2026-04-30T12:17:48Z</time></trkpt><trkpt lat="45.699665180429335" lon="9.897808872551028"><ele>491.71428571428567</ele><time>2026-04-30T12:17:51Z</time></trkpt><trkpt lat="45.69963666756157" lon="9.897894665020972"><ele>497.42857142857144</ele><time>2026-04-30T12:17:54Z</time></trkpt><trkpt lat="45.6996186440575" lon="9.898009141425003"><ele>503.1428571428571</ele><time>2026-04-30T12:17:58Z</time></trkpt><trkpt lat="45.69964394004525" lon="9.89812078452093"><ele>508.85714285714283</ele><time>2026-04-30T12:18:02Z</time></trkpt><trkpt lat="45.699668568001115" lon="9.89821403340139"><ele>514.5714285714286</ele><time>2026-04-30T12:18:05Z</time></trkpt><trkpt lat="45.69968787750102" lon="9.898306141851382"><ele>520.2857142857142</ele><time>2026-04-30T12:18:08Z</time></trkpt><trkpt lat="45.69970593149174" lon="9.89840824412451"><ele>526.0</ele><time>2026-04-30T12:18:11Z</time></trkpt><trkpt lat="45.69971556519614" lon="9.898507784894225"><ele>526.2857142857142</ele><time>2026-04-30T12:18:14Z</time></trkpt><trkpt lat="45.69972399003404" lon="9.898598616905756"><ele>526.5714285714286</ele><time>2026-04-30T12:18:17Z</time></trkpt><trkpt lat="45.69974428385921" lon="9.89869818310166"><ele>526.8571428571429</ele><time>2026-04-30T12:18:20Z</time></trkpt><trkpt lat="45.699761702145594" lon="9.898814143420248"><ele>527.1428571428571</ele><time>2026-04-30T12:18:23Z</time></trkpt><trkpt lat="45.699764333652574" lon="9.898920991695459"><ele>527.4285714285714</ele><time>2026-04-30T12:18:26Z</time></trkpt><trkpt lat="45.69978725396497" lon="9.899029368083362"><ele>527.7142857142857</ele><time>2026-04-30T12:18:29Z</time></trkpt><trkpt lat="45.699796479524075" lon="9.899129456298756"><ele>528.0</ele><time>2026-04-30T12:18:32Z</time></trkpt><trkpt lat="45.69981447201762" lon="9.899231232527942"><ele>526.3333333333334</ele><time>2026-04-30T12:18:35Z</time></trkpt><trkpt lat="45.699846013611484" lon="9.899321579970772"><ele>524.6666666666666</ele><time>2026-04-30T12:18:38Z</time></trkpt><trkpt lat="45.69989364446165" lon="9.899411253927193"><ele>523.0</ele><time>2026-04-30T12:18:41Z</time></trkpt><trkpt lat="45.69994303937606" lon="9.899508936691698"><ele>521.3333333333333</ele><time>2026-04-30T12:18:44Z</time></trkpt><trkpt lat="45.7000096667043" lon="9.899600820187839"><ele>519.6666666666666</ele><time>2026-04-30T12:18:47Z</time></trkpt><trkpt lat="45.70005541972217" lon="9.89966466870963"><ele>518.0</ele><time>2026-04-30T12:18:49Z</time></trkpt><trkpt lat="45.70010029047952" lon="9.899748256518011"><ele>518.0</ele><time>2026-04-30T12:18:51Z</time></trkpt><trkpt lat="45.70013570150594" lon="9.899826351045071"><ele>518.0</ele><time>2026-04-30T12:18:53Z</time></trkpt><trkpt lat="45.70016067801901" lon="9.899909117678932"><ele>518.0</ele><time>2026-04-30T12:18:56Z</time></trkpt><trkpt lat="45.70021227853703" lon="9.900015608807944"><ele>518.0</ele><time>2026-04-30T12:18:59Z</time></trkpt><trkpt lat="45.700264036370406" lon="9.900073762155735"><ele>518.0</ele><time>2026-04-30T12:19:01Z</time></trkpt><trkpt lat="45.70032974875232" lon="9.900112975854876"><ele>518.0</ele><time>2026-04-30T12:19:03Z</time></trkpt><trkpt lat="45.700415534777434" lon="9.900128487715758"><ele>518.0</ele><time>2026-04-30T12:19:05Z</time></trkpt><trkpt lat="45.700454772571014" lon="9.900234648827158"><ele>522.3333333333333</ele><time>2026-04-30T12:19:07Z</time></trkpt><trkpt lat="45.700454069228925" lon="9.900338184011037"><ele>526.6666666666666</ele><time>2026-04-30T12:19:09Z</time></trkpt><trkpt lat="45.700486512177434" lon="9.900437424982757"><ele>531.0</ele><time>2026-04-30T12:19:11Z</time></trkpt><trkpt lat="45.70050722548671" lon="9.900548304525698"><ele>535.3333333333334</ele><time>2026-04-30T12:19:13Z</time></trkpt><trkpt lat="45.70051190712639" lon="9.900660639047183"><ele>539.6666666666667</ele><time>2026-04-30T12:19:15Z</time></trkpt><trkpt lat="45.7005168667411" lon="9.900778942221821"><ele>544.0</ele><time>2026-04-30T12:19:18Z</time></trkpt><trkpt lat="45.70053276427861" lon="9.900874137135878"><ele>543.0</ele><time>2026-04-30T12:19:20Z</time></trkpt><trkpt lat="45.70054547186412" lon="9.900983332930073"><ele>542.0</ele><time>2026-04-30T12:19:22Z</time></trkpt><trkpt lat="45.70058225049334" lon="9.901069929551522"><ele>541.0</ele><time>2026-04-30T12:19:24Z</time></trkpt><trkpt lat="45.70063201361274" lon="9.901152030523582"><ele>540.0</ele><time>2026-04-30T12:19:26Z</time></trkpt><trkpt lat="45.700681064230366" lon="9.90124193252575"><ele>539.0</ele><time>2026-04-30T12:19:28Z</time></trkpt><trkpt lat="45.700737658206705" lon="9.901334352650725"><ele>538.0</ele><time>2026-04-30T12:19:30Z</time></trkpt><trkpt lat="45.70080686635036" lon="9.901462161815102"><ele>538.0</ele><time>2026-04-30T12:19:32Z</time></trkpt><trkpt lat="45.70083693912391" lon="9.901612180299958"><ele>538.0</ele><time>2026-04-30T12:19:34Z</time></trkpt><trkpt lat="45.70085847620423" lon="9.901732826618911"><ele>538.0</ele><time>2026-04-30T12:19:36Z</time></trkpt><trkpt lat="45.700873974407706" lon="9.901841486957496"><ele>538.0</ele><time>2026-04-30T12:19:38Z</time></trkpt><trkpt lat="45.70090228863668" lon="9.901940721830746"><ele>538.0</ele><time>2026-04-30T12:19:41Z</time></trkpt><trkpt lat="45.70093148457559" lon="9.902043355585663"><ele>538.0</ele><time>2026-04-30T12:19:43Z</time></trkpt><trkpt lat="45.700947248662835" lon="9.902165214113792"><ele>537.6</ele><time>2026-04-30T12:19:45Z</time></trkpt><trkpt lat="45.700939609346484" lon="9.902301616635265"><ele>537.1999999999999</ele><time>2026-04-30T12:19:47Z</time></trkpt><trkpt lat="45.70092175829182" lon="9.902453456598497"><ele>536.8</ele><time>2026-04-30T12:19:49Z</time></trkpt><trkpt lat="45.70091275856557" lon="9.902544948711162"><ele>536.4</ele><time>2026-04-30T12:19:50Z</time></trkpt><trkpt lat="45.700883361409424" lon="9.902709057055665"><ele>536.0</ele><time>2026-04-30T12:19:52Z</time></trkpt><trkpt lat="45.70085990758891" lon="9.902853968775927"><ele>536.6666666666666</ele><time>2026-04-30T12:19:54Z</time></trkpt><trkpt lat="45.70083010397502" lon="9.902967048969177"><ele>537.3333333333333</ele><time>2026-04-30T12:19:56Z</time></trkpt><trkpt lat="45.70081235142399" lon="9.90307909610462"><ele>538.0</ele><time>2026-04-30T12:19:58Z</time></trkpt><trkpt lat="45.700801784518674" lon="9.903183981674976"><ele>538.6666666666666</ele><time>2026-04-30T12:20:00Z</time></trkpt><trkpt lat="45.7007957717273" lon="9.903288793089494"><ele>539.3333333333334</ele><time>2026-04-30T12:20:02Z</time></trkpt><trkpt lat="45.700790304914" lon="9.903419148989792"><ele>540.0</ele><time>2026-04-30T12:20:04Z</time></trkpt><trkpt lat="45.700759492016125" lon="9.903528552310398"><ele>540.0</ele><time>2026-04-30T12:20:06Z</time></trkpt><trkpt lat="45.700733622606926" lon="9.903630824658643"><ele>540.0</ele><time>2026-04-30T12:20:08Z</time></trkpt><trkpt lat="45.70068990076542" lon="9.903710238762928"><ele>540.0</ele><time>2026-04-30T12:20:10Z</time></trkpt><trkpt lat="45.70070351445676" lon="9.903812100838486"><ele>540.0</ele><time>2026-04-30T12:20:12Z</time></trkpt><trkpt lat="45.70074006434068" lon="9.903902400171807"><ele>540.0</ele><time>2026-04-30T12:20:14Z</time></trkpt><trkpt lat="45.70078605368543" lon="9.903989210997642"><ele>540.0</ele><time>2026-04-30T12:20:16Z</time></trkpt><trkpt lat="45.700835776944935" lon="9.904085510541591"><ele>540.0</ele><time>2026-04-30T12:20:18Z</time></trkpt><trkpt lat="45.70087699381415" lon="9.904188347621906"><ele>540.0</ele><time>2026-04-30T12:20:20Z</time></trkpt><trkpt lat="45.70091472703365" lon="9.904279061044864"><ele>540.0</ele><time>2026-04-30T12:20:22Z</time></trkpt><trkpt lat="45.70097409398519" lon="9.904342919269345"><ele>540.0</ele><time>2026-04-30T12:20:24Z</time></trkpt><trkpt lat="45.70104013563686" lon="9.904347689847269"><ele>540.0</ele><time>2026-04-30T12:20:26Z</time></trkpt><trkpt lat="45.701120668517625" lon="9.904324317945695"><ele>540.0</ele><time>2026-04-30T12:20:29Z</time></trkpt><trkpt lat="45.70119289751333" lon="9.904303687798663"><ele>543.5</ele><time>2026-04-30T12:20:31Z</time></trkpt><trkpt lat="45.70125731482977" lon="9.90429297179011"><ele>547.0</ele><time>2026-04-30T12:20:33Z</time></trkpt><trkpt lat="45.701328521347094" lon="9.904319709579015"><ele>550.5</ele><time>2026-04-30T12:20:36Z</time></trkpt><trkpt lat="45.70140776227673" lon="9.904364216369316"><ele>554.0</ele><time>2026-04-30T12:20:39Z</time></trkpt><trkpt lat="45.70150073416766" lon="9.904380136688404"><ele>557.5</ele><time>2026-04-30T12:20:42Z</time></trkpt><trkpt lat="45.70158178402596" lon="9.90443194148704"><ele>561.0</ele><time>2026-04-30T12:20:45Z</time></trkpt><trkpt lat="45.70160756901131" lon="9.904548961208988"><ele>561.0</ele><time>2026-04-30T12:20:48Z</time></trkpt><trkpt lat="45.7016513985777" lon="9.904614020338375"><ele>561.0</ele><time>2026-04-30T12:20:51Z</time></trkpt><trkpt lat="45.701713679994846" lon="9.904680892684201"><ele>561.0</ele><time>2026-04-30T12:20:54Z</time></trkpt><trkpt lat="45.701741757941946" lon="9.904790941394943"><ele>561.0</ele><time>2026-04-30T12:20:57Z</time></trkpt><trkpt lat="45.70179053228438" lon="9.904877578600328"><ele>561.0</ele><time>2026-04-30T12:21:00Z</time></trkpt><trkpt lat="45.70174974882102" lon="9.904759365118672"><ele>561.0</ele><time>2026-04-30T12:21:48Z</time></trkpt><trkpt lat="45.7017125292024" lon="9.904673471836832"><ele>561.0</ele><time>2026-04-30T12:21:50Z</time></trkpt><trkpt lat="45.701675548470476" lon="9.90458458189497"><ele>561.0</ele><time>2026-04-30T12:21:53Z</time></trkpt><trkpt lat="45.70162266168505" lon="9.904510330428002"><ele>561.0</ele><time>2026-04-30T12:21:55Z</time></trkpt><trkpt lat="45.70159068701641" lon="9.904404227914528"><ele>561.0</ele><time>2026-04-30T12:21:57Z</time></trkpt><trkpt lat="45.70152695198578" lon="9.904340454614042"><ele>561.0</ele><time>2026-04-30T12:21:59Z</time></trkpt><trkpt lat="45.70142329522066" lon="9.904340764816965"><ele>561.0</ele><time>2026-04-30T12:22:01Z</time></trkpt><trkpt lat="45.701338630434904" lon="9.904295607269678"><ele>561.0</ele><time>2026-04-30T12:22:03Z</time></trkpt><trkpt lat="45.7012308806865" lon="9.90429037756244"><ele>561.0</ele><time>2026-04-30T12:22:05Z</time></trkpt><trkpt lat="45.70116767248076" lon="9.904307228941198"><ele>561.0</ele><time>2026-04-30T12:22:06Z</time></trkpt><trkpt lat="45.70109839559987" lon="9.904332879015797"><ele>561.0</ele><time>2026-04-30T12:22:07Z</time></trkpt><trkpt lat="45.700998359523496" lon="9.904346447798053"><ele>561.0</ele><time>2026-04-30T12:22:09Z</time></trkpt><trkpt lat="45.70090260533239" lon="9.904315482486911"><ele>561.0</ele><time>2026-04-30T12:22:11Z</time></trkpt><trkpt lat="45.70086218118541" lon="9.904231259603312"><ele>557.5</ele><time>2026-04-30T12:22:12Z</time></trkpt><trkpt lat="45.70082855872659" lon="9.904125345285504"><ele>554.0</ele><time>2026-04-30T12:22:13Z</time></trkpt><trkpt lat="45.700798644181916" lon="9.904032777127805"><ele>550.5</ele><time>2026-04-30T12:22:14Z</time></trkpt><trkpt lat="45.70075446451578" lon="9.903942659731435"><ele>547.0</ele><time>2026-04-30T12:22:15Z</time></trkpt><trkpt lat="45.700719322275646" lon="9.903826546485426"><ele>543.5</ele><time>2026-04-30T12:22:17Z</time></trkpt><trkpt lat="45.700733582902316" lon="9.903675742195164"><ele>540.0</ele><time>2026-04-30T12:22:19Z</time></trkpt><trkpt lat="45.70079445830898" lon="9.903545263677955"><ele>540.0</ele><time>2026-04-30T12:22:21Z</time></trkpt><trkpt lat="45.700799923050624" lon="9.903417605499747"><ele>540.0</ele><time>2026-04-30T12:22:23Z</time></trkpt><trkpt lat="45.700803664225745" lon="9.903284785110465"><ele>540.0</ele><time>2026-04-30T12:22:25Z</time></trkpt><trkpt lat="45.7008162385595" lon="9.903135036424267"><ele>540.0</ele><time>2026-04-30T12:22:27Z</time></trkpt><trkpt lat="45.70085261443422" lon="9.9029909265972"><ele>540.0</ele><time>2026-04-30T12:22:29Z</time></trkpt><trkpt lat="45.70087813527228" lon="9.902903913010018"><ele>540.3333333333334</ele><time>2026-04-30T12:22:30Z</time></trkpt><trkpt lat="45.70089484916687" lon="9.902814883401142"><ele>540.6666666666666</ele><time>2026-04-30T12:22:31Z</time></trkpt><trkpt lat="45.70090983979903" lon="9.902699657689798"><ele>541.0</ele><time>2026-04-30T12:22:32Z</time></trkpt><trkpt lat="45.700928144956904" lon="9.902593547865344"><ele>541.3333333333333</ele><time>2026-04-30T12:22:33Z</time></trkpt><trkpt lat="45.70093497808752" lon="9.902501672086244"><ele>541.6666666666666</ele><time>2026-04-30T12:22:34Z</time></trkpt><trkpt lat="45.70094718080145" lon="9.902374919483337"><ele>542.0</ele><time>2026-04-30T12:22:36Z</time></trkpt><trkpt lat="45.700957739529805" lon="9.902262988328646"><ele>541.3333333333333</ele><time>2026-04-30T12:22:38Z</time></trkpt><trkpt lat="45.70095780311418" lon="9.902155796896876"><ele>540.6666666666666</ele><time>2026-04-30T12:22:40Z</time></trkpt><trkpt lat="45.70094319796094" lon="9.902054980279578"><ele>540.0</ele><time>2026-04-30T12:22:42Z</time></trkpt><trkpt lat="45.700899022709095" lon="9.901967132962938"><ele>539.3333333333334</ele><time>2026-04-30T12:22:44Z</time></trkpt><trkpt lat="45.700875014389396" lon="9.90183390609437"><ele>538.6666666666667</ele><time>2026-04-30T12:22:46Z</time></trkpt><trkpt lat="45.70085551385035" lon="9.901745911723584"><ele>538.0</ele><time>2026-04-30T12:22:47Z</time></trkpt><trkpt lat="45.70082636997825" lon="9.901568184730781"><ele>538.0</ele><time>2026-04-30T12:22:49Z</time></trkpt><trkpt lat="45.70079385483135" lon="9.901474018180712"><ele>538.0</ele><time>2026-04-30T12:22:50Z</time></trkpt><trkpt lat="45.70070829651397" lon="9.90129953080827"><ele>538.0</ele><time>2026-04-30T12:22:52Z</time></trkpt><trkpt lat="45.70066485052783" lon="9.901227183284199"><ele>538.0</ele><time>2026-04-30T12:22:53Z</time></trkpt><trkpt lat="45.70061610585201" lon="9.901164481235046"><ele>538.0</ele><time>2026-04-30T12:22:55Z</time></trkpt><trkpt lat="45.70056462220416" lon="9.901048983587197"><ele>538.0</ele><time>2026-04-30T12:22:58Z</time></trkpt><trkpt lat="45.70054245638245" lon="9.900956245589523"><ele>538.0</ele><time>2026-04-30T12:23:00Z</time></trkpt><trkpt lat="45.70052977404673" lon="9.900861052648258"><ele>538.0</ele><time>2026-04-30T12:23:02Z</time></trkpt><trkpt lat="45.70053539005526" lon="9.90072952389154"><ele>538.0</ele><time>2026-04-30T12:23:05Z</time></trkpt><trkpt lat="45.70052784821334" lon="9.900584388156066"><ele>538.0</ele><time>2026-04-30T12:23:07Z</time></trkpt><trkpt lat="45.70051637293408" lon="9.900481058770339"><ele>538.0</ele><time>2026-04-30T12:23:08Z</time></trkpt><trkpt lat="45.70049222319306" lon="9.900366135677482"><ele>539.1999999999999</ele><time>2026-04-30T12:23:09Z</time></trkpt><trkpt lat="45.700474370634275" lon="9.900277499222799"><ele>540.4</ele><time>2026-04-30T12:23:10Z</time></trkpt><trkpt lat="45.700444285109796" lon="9.900146531562692"><ele>541.5999999999999</ele><time>2026-04-30T12:23:12Z</time></trkpt><trkpt lat="45.70036347870518" lon="9.900107945482569"><ele>542.8</ele><time>2026-04-30T12:23:14Z</time></trkpt><trkpt lat="45.700259380183056" lon="9.900089275253443"><ele>544.0</ele><time>2026-04-30T12:23:16Z</time></trkpt><trkpt lat="45.700176170383536" lon="9.900006521734127"><ele>539.6666666666667</ele><time>2026-04-30T12:23:18Z</time></trkpt><trkpt lat="45.70016795877921" lon="9.899872286776194"><ele>535.3333333333334</ele><time>2026-04-30T12:23:20Z</time></trkpt><trkpt lat="45.70013711903361" lon="9.899783481132994"><ele>531.0</ele><time>2026-04-30T12:23:21Z</time></trkpt><trkpt lat="45.70007747400592" lon="9.899708042375243"><ele>526.6666666666666</ele><time>2026-04-30T12:23:22Z</time></trkpt><trkpt lat="45.700023421710455" lon="9.899638768142111"><ele>522.3333333333333</ele><time>2026-04-30T12:23:23Z</time></trkpt><trkpt lat="45.699933987727114" lon="9.899516563757766"><ele>518.0</ele><time>2026-04-30T12:23:25Z</time></trkpt><trkpt lat="45.699894912793916" lon="9.899444689731645"><ele>518.0</ele><time>2026-04-30T12:23:26Z</time></trkpt><trkpt lat="45.699835277643984" lon="9.899308748918434"><ele>518.0</ele><time>2026-04-30T12:23:28Z</time></trkpt><trkpt lat="45.69979418172937" lon="9.899133307782003"><ele>518.0</ele><time>2026-04-30T12:23:30Z</time></trkpt><trkpt lat="45.69978084200721" lon="9.89901908597861"><ele>518.0</ele><time>2026-04-30T12:23:31Z</time></trkpt><trkpt lat="45.69976702549388" lon="9.898892549792157"><ele>518.0</ele><time>2026-04-30T12:23:32Z</time></trkpt><trkpt lat="45.69975218995785" lon="9.898760098688193"><ele>519.3333333333333</ele><time>2026-04-30T12:23:33Z</time></trkpt><trkpt lat="45.69973715237581" lon="9.898631623354396"><ele>520.6666666666666</ele><time>2026-04-30T12:23:34Z</time></trkpt><trkpt lat="45.69972209591176" lon="9.898508864147141"><ele>522.0</ele><time>2026-04-30T12:23:35Z</time></trkpt><trkpt lat="45.69971088465214" lon="9.898389268088273"><ele>523.3333333333334</ele><time>2026-04-30T12:23:36Z</time></trkpt><trkpt lat="45.6996924208612" lon="9.89827544570143"><ele>524.6666666666667</ele><time>2026-04-30T12:23:37Z</time></trkpt><trkpt lat="45.699670194750084" lon="9.89817139715506"><ele>526.0</ele><time>2026-04-30T12:23:38Z</time></trkpt><trkpt lat="45.699647637856415" lon="9.898081937760656"><ele>526.0</ele><time>2026-04-30T12:23:39Z</time></trkpt><trkpt lat="45.69962833011788" lon="9.89795697134035"><ele>526.0</ele><time>2026-04-30T12:23:41Z</time></trkpt><trkpt lat="45.69967574966694" lon="9.897820954513008"><ele>526.0</ele><time>2026-04-30T12:23:43Z</time></trkpt><trkpt lat="45.69968269361313" lon="9.897701934510955"><ele>526.0</ele><time>2026-04-30T12:23:45Z</time></trkpt><trkpt lat="45.69957912375293" lon="9.89768997693456"><ele>526.0</ele><time>2026-04-30T12:23:47Z</time></trkpt><trkpt lat="45.69951855887128" lon="9.897734724632532"><ele>526.0</ele><time>2026-04-30T12:23:48Z</time></trkpt><trkpt lat="45.699458416600535" lon="9.897773758944776"><ele>526.0</ele><time>2026-04-30T12:23:49Z</time></trkpt><trkpt lat="45.69938840795619" lon="9.89780484817705"><ele>526.0</ele><time>2026-04-30T12:23:50Z</time></trkpt><trkpt lat="45.69932592241874" lon="9.897824671094558"><ele>526.0</ele><time>2026-04-30T12:23:51Z</time></trkpt><trkpt lat="45.6992223642686" lon="9.897840424287386"><ele>526.0</ele><time>2026-04-30T12:23:53Z</time></trkpt><trkpt lat="45.69914624907533" lon="9.897882803846732"><ele>526.0</ele><time>2026-04-30T12:23:55Z</time></trkpt><trkpt lat="45.69907267471534" lon="9.897926112065438"><ele>518.0</ele><time>2026-04-30T12:23:57Z</time></trkpt><trkpt lat="45.69899842165755" lon="9.897930946760622"><ele>510.0</ele><time>2026-04-30T12:23:59Z</time></trkpt><trkpt lat="45.69889707317688" lon="9.897827337775418"><ele>502.0</ele><time>2026-04-30T12:24:01Z</time></trkpt><trkpt lat="45.698812176752874" lon="9.8977311941635"><ele>494.0</ele><time>2026-04-30T12:24:03Z</time></trkpt><trkpt lat="45.69871792470236" lon="9.897712817245619"><ele>486.0</ele><time>2026-04-30T12:24:05Z</time></trkpt><trkpt lat="45.69861504736691" lon="9.897782832695768"><ele>481.3333333333333</ele><time>2026-04-30T12:24:07Z</time></trkpt><trkpt lat="45.69851493127085" lon="9.897893650247644"><ele>476.66666666666663</ele><time>2026-04-30T12:24:09Z</time></trkpt><trkpt lat="45.69845888215112" lon="9.89794758943176"><ele>472.0</ele><time>2026-04-30T12:24:10Z</time></trkpt><trkpt lat="45.69839352680877" lon="9.897974887008319"><ele>467.3333333333333</ele><time>2026-04-30T12:24:11Z</time></trkpt><trkpt lat="45.698306935686325" lon="9.897951704548806"><ele>462.66666666666663</ele><time>2026-04-30T12:24:12Z</time></trkpt><trkpt lat="45.69821516667379" lon="9.897900189465041"><ele>458.0</ele><time>2026-04-30T12:24:13Z</time></trkpt><trkpt lat="45.69812571914062" lon="9.897827015273386"><ele>458.0</ele><time>2026-04-30T12:24:14Z</time></trkpt><trkpt lat="45.698030593943884" lon="9.897755761750869"><ele>457.99999999999994</ele><time>2026-04-30T12:24:15Z</time></trkpt><trkpt lat="45.69792998426088" lon="9.89768528966335"><ele>457.99999999999994</ele><time>2026-04-30T12:24:16Z</time></trkpt><trkpt lat="45.69782536199368" lon="9.897621184854419"><ele>458.0</ele><time>2026-04-30T12:24:17Z</time></trkpt><trkpt lat="45.6977182084251" lon="9.897561200613772"><ele>458.0</ele><time>2026-04-30T12:24:18Z</time></trkpt><trkpt lat="45.697608657468315" lon="9.897489690994043"><ele>456.0</ele><time>2026-04-30T12:24:19Z</time></trkpt><trkpt lat="45.697496764969266" lon="9.897418925928106"><ele>454.0</ele><time>2026-04-30T12:24:20Z</time></trkpt><trkpt lat="45.69738413714316" lon="9.897351720311143"><ele>452.0</ele><time>2026-04-30T12:24:21Z</time></trkpt><trkpt lat="45.697270328559135" lon="9.897288183699795"><ele>450.0</ele><time>2026-04-30T12:24:22Z</time></trkpt><trkpt lat="45.69715919731685" lon="9.897222614451746"><ele>450.0</ele><time>2026-04-30T12:24:23Z</time></trkpt><trkpt lat="45.69704851235902" lon="9.897155327419568"><ele>450.0</ele><time>2026-04-30T12:24:24Z</time></trkpt><trkpt lat="45.69693647266094" lon="9.897088831889848"><ele>450.0</ele><time>2026-04-30T12:24:25Z</time></trkpt><trkpt lat="45.696824432470486" lon="9.897023875145122"><ele>450.0</ele><time>2026-04-30T12:24:26Z</time></trkpt><trkpt lat="45.6967120769864" lon="9.896959591718247"><ele>449.6</ele><time>2026-04-30T12:24:27Z</time></trkpt><trkpt lat="45.69660115283695" lon="9.896897335679567"><ele>449.2</ele><time>2026-04-30T12:24:28Z</time></trkpt><trkpt lat="45.69649157781596" lon="9.896833613679247"><ele>448.79999999999995</ele><time>2026-04-30T12:24:29Z</time></trkpt><trkpt lat="45.69639431320729" lon="9.896776257135551"><ele>448.4</ele><time>2026-04-30T12:24:30Z</time></trkpt><trkpt lat="45.69631352843969" lon="9.896731310398941"><ele>448.0</ele><time>2026-04-30T12:24:31Z</time></trkpt><trkpt lat="45.69624814373318" lon="9.89670834756334"><ele>445.59999999999997</ele><time>2026-04-30T12:24:32Z</time></trkpt><trkpt lat="45.696158771994966" lon="9.896808954012362"><ele>443.19999999999993</ele><time>2026-04-30T12:24:34Z</time></trkpt><trkpt lat="45.69615438371284" lon="9.896922253162003"><ele>440.8</ele><time>2026-04-30T12:24:35Z</time></trkpt><trkpt lat="45.6961642626977" lon="9.897043231668746"><ele>438.4</ele><time>2026-04-30T12:24:36Z</time></trkpt><trkpt lat="45.696164553338924" lon="9.897179621466156"><ele>436.0</ele><time>2026-04-30T12:24:37Z</time></trkpt><trkpt lat="45.69615506937157" lon="9.897328232754093"><ele>436.0</ele><time>2026-04-30T12:24:38Z</time></trkpt><trkpt lat="45.69614900750884" lon="9.897480643046615"><ele>436.0</ele><time>2026-04-30T12:24:39Z</time></trkpt><trkpt lat="45.69615487179512" lon="9.89761902369844"><ele>436.0</ele><time>2026-04-30T12:24:40Z</time></trkpt><trkpt lat="45.69618652251329" lon="9.897755513656948"><ele>436.0</ele><time>2026-04-30T12:24:41Z</time></trkpt><trkpt lat="45.696251930406724" lon="9.897883069185408"><ele>436.0</ele><time>2026-04-30T12:24:42Z</time></trkpt><trkpt lat="45.69633147349801" lon="9.898001848018534"><ele>433.25</ele><time>2026-04-30T12:24:43Z</time></trkpt><trkpt lat="45.696412021400924" lon="9.898127406689348"><ele>430.5</ele><time>2026-04-30T12:24:44Z</time></trkpt><trkpt lat="45.696487114390756" lon="9.898258592539634"><ele>427.75</ele><time>2026-04-30T12:24:45Z</time></trkpt><trkpt lat="45.696560279125876" lon="9.898387922262248"><ele>425.0</ele><time>2026-04-30T12:24:46Z</time></trkpt><trkpt lat="45.696628915962194" lon="9.898518284994527"><ele>424.8</ele><time>2026-04-30T12:24:47Z</time></trkpt><trkpt lat="45.696711467451706" lon="9.898633321231733"><ele>424.6</ele><time>2026-04-30T12:24:48Z</time></trkpt><trkpt lat="45.69680913487267" lon="9.898711960119607"><ele>424.4</ele><time>2026-04-30T12:24:49Z</time></trkpt><trkpt lat="45.69691551568095" lon="9.898764384239072"><ele>424.2</ele><time>2026-04-30T12:24:50Z</time></trkpt><trkpt lat="45.69702254626189" lon="9.898795012941303"><ele>424.0</ele><time>2026-04-30T12:24:51Z</time></trkpt><trkpt lat="45.69713508470001" lon="9.89881213559868"><ele>424.00000000000006</ele><time>2026-04-30T12:24:52Z</time></trkpt><trkpt lat="45.69723152891367" lon="9.898836595110737"><ele>424.0</ele><time>2026-04-30T12:24:53Z</time></trkpt><trkpt lat="45.697325581499484" lon="9.898852310505537"><ele>424.0</ele><time>2026-04-30T12:24:54Z</time></trkpt><trkpt lat="45.69740433141639" lon="9.898867623687076"><ele>424.0</ele><time>2026-04-30T12:24:55Z</time></trkpt><trkpt lat="45.6974729904676" lon="9.898892166615575"><ele>424.00000000000006</ele><time>2026-04-30T12:24:56Z</time></trkpt><trkpt lat="45.697523180252155" lon="9.898965716599946"><ele>424.0</ele><time>2026-04-30T12:24:57Z</time></trkpt><trkpt lat="45.69753660305449" lon="9.899090295364733"><ele>424.0</ele><time>2026-04-30T12:24:58Z</time></trkpt><trkpt lat="45.69752444069367" lon="9.899218583635951"><ele>424.0</ele><time>2026-04-30T12:24:59Z</time></trkpt><trkpt lat="45.69749310079552" lon="9.899334575215205"><ele>424.0</ele><time>2026-04-30T12:25:00Z</time></trkpt><trkpt lat="45.697454634103835" lon="9.899453201765862"><ele>424.0</ele><time>2026-04-30T12:25:01Z</time></trkpt><trkpt lat="45.69741484320008" lon="9.899580781671592"><ele>424.0</ele><time>2026-04-30T12:25:02Z</time></trkpt><trkpt lat="45.69737540271322" lon="9.899705783458979"><ele>422.6</ele><time>2026-04-30T12:25:03Z</time></trkpt><trkpt lat="45.69735293427629" lon="9.899845571313106"><ele>421.2</ele><time>2026-04-30T12:25:04Z</time></trkpt><trkpt lat="45.69735807621989" lon="9.900000755016412"><ele>419.8</ele><time>2026-04-30T12:25:05Z</time></trkpt><trkpt lat="45.697365538308745" lon="9.900157066160745"><ele>418.40000000000003</ele><time>2026-04-30T12:25:06Z</time></trkpt><trkpt lat="45.69736370506377" lon="9.900314068898904"><ele>417.0</ele><time>2026-04-30T12:25:07Z</time></trkpt><trkpt lat="45.69736296148431" lon="9.900471213038184"><ele>415.6</ele><time>2026-04-30T12:25:08Z</time></trkpt><trkpt lat="45.69736060297881" lon="9.900616617985"><ele>414.20000000000005</ele><time>2026-04-30T12:25:09Z</time></trkpt><trkpt lat="45.69735249966621" lon="9.900760571680035"><ele>412.8</ele><time>2026-04-30T12:25:10Z</time></trkpt><trkpt lat="45.697328667619665" lon="9.900902941405553"><ele>411.4</ele><time>2026-04-30T12:25:11Z</time></trkpt><trkpt lat="45.69730068188867" lon="9.901025627427847"><ele>410.0</ele><time>2026-04-30T12:25:12Z</time></trkpt><trkpt lat="45.697278679226855" lon="9.90112898091517"><ele>408.66666666666663</ele><time>2026-04-30T12:25:13Z</time></trkpt><trkpt lat="45.69727478214017" lon="9.901240116929738"><ele>407.3333333333333</ele><time>2026-04-30T12:25:14Z</time></trkpt><trkpt lat="45.69730545603414" lon="9.90136863876129"><ele>406.0</ele><time>2026-04-30T12:25:15Z</time></trkpt><trkpt lat="45.69735727262265" lon="9.9014802600907"><ele>404.66666666666663</ele><time>2026-04-30T12:25:16Z</time></trkpt><trkpt lat="45.69737867079454" lon="9.901615429152256"><ele>403.3333333333333</ele><time>2026-04-30T12:25:18Z</time></trkpt><trkpt lat="45.69730855720687" lon="9.901621129716203"><ele>402.0</ele><time>2026-04-30T12:25:19Z</time></trkpt><trkpt lat="45.69723916078564" lon="9.901534850397368"><ele>402.0</ele><time>2026-04-30T12:25:20Z</time></trkpt><trkpt lat="45.697194152932134" lon="9.901440455169153"><ele>402.0</ele><time>2026-04-30T12:25:21Z</time></trkpt><trkpt lat="45.69714412950079" lon="9.901366249389401"><ele>402.0</ele><time>2026-04-30T12:25:22Z</time></trkpt><trkpt lat="45.697087884018124" lon="9.901276729889858"><ele>402.0</ele><time>2026-04-30T12:25:23Z</time></trkpt><trkpt lat="45.697037661054445" lon="9.901177835317913"><ele>402.0</ele><time>2026-04-30T12:25:24Z</time></trkpt><trkpt lat="45.69698308263514" lon="9.901071922641865"><ele>402.0</ele><time>2026-04-30T12:25:25Z</time></trkpt><trkpt lat="45.69692903354859" lon="9.900956236155245"><ele>399.20000000000005</ele><time>2026-04-30T12:25:26Z</time></trkpt><trkpt lat="45.69687395010543" lon="9.900831106076996"><ele>396.4</ele><time>2026-04-30T12:25:27Z</time></trkpt><trkpt lat="45.69681971150315" lon="9.900698469218382"><ele>393.6</ele><time>2026-04-30T12:25:28Z</time></trkpt><trkpt lat="45.69676490542758" lon="9.900571597791776"><ele>390.79999999999995</ele><time>2026-04-30T12:25:29Z</time></trkpt><trkpt lat="45.696721457244614" lon="9.900476647668363"><ele>388.0</ele><time>2026-04-30T12:25:30Z</time></trkpt><trkpt lat="45.69665527247839" lon="9.90034484433472"><ele>388.00000000000006</ele><time>2026-04-30T12:25:32Z</time></trkpt><trkpt lat="45.696573064528046" lon="9.90039490298412"><ele>388.0</ele><time>2026-04-30T12:25:34Z</time></trkpt><trkpt lat="45.696570390977804" lon="9.900493147664815"><ele>388.0</ele><time>2026-04-30T12:25:35Z</time></trkpt><trkpt lat="45.69659874620908" lon="9.900592309942565"><ele>388.0</ele><time>2026-04-30T12:25:36Z</time></trkpt><trkpt lat="45.696624090461974" lon="9.900687638049273"><ele>388.00000000000006</ele><time>2026-04-30T12:25:37Z</time></trkpt><trkpt lat="45.69663777169976" lon="9.900780954363887"><ele>388.0</ele><time>2026-04-30T12:25:38Z</time></trkpt><trkpt lat="45.69666431643885" lon="9.9009607849973"><ele>387.0</ele><time>2026-04-30T12:25:40Z</time></trkpt><trkpt lat="45.696679945339156" lon="9.901059090208538"><ele>386.0</ele><time>2026-04-30T12:25:41Z</time></trkpt><trkpt lat="45.69669879248938" lon="9.901157469075235"><ele>385.0</ele><time>2026-04-30T12:25:42Z</time></trkpt><trkpt lat="45.69672747083057" lon="9.901254487444097"><ele>384.0</ele><time>2026-04-30T12:25:43Z</time></trkpt><trkpt lat="45.6967603751658" lon="9.901349899687458"><ele>383.0</ele><time>2026-04-30T12:25:44Z</time></trkpt><trkpt lat="45.69679591770277" lon="9.901447099946331"><ele>382.0</ele><time>2026-04-30T12:25:45Z</time></trkpt><trkpt lat="45.696835863807074" lon="9.901546285812802"><ele>381.0</ele><time>2026-04-30T12:25:46Z</time></trkpt><trkpt lat="45.69687638381943" lon="9.90164365070777"><ele>381.0</ele><time>2026-04-30T12:25:47Z</time></trkpt><trkpt lat="45.69691319720371" lon="9.901746003515942"><ele>381.0</ele><time>2026-04-30T12:25:48Z</time></trkpt><trkpt lat="45.696946587190105" lon="9.901854328552176"><ele>381.0</ele><time>2026-04-30T12:25:49Z</time></trkpt><trkpt lat="45.69698094742939" lon="9.901962888955344"><ele>381.0</ele><time>2026-04-30T12:25:50Z</time></trkpt><trkpt lat="45.697018756399814" lon="9.902073102871752"><ele>381.0</ele><time>2026-04-30T12:25:51Z</time></trkpt><trkpt lat="45.69705431020802" lon="9.902186402771072"><ele>381.0</ele><time>2026-04-30T12:25:52Z</time></trkpt><trkpt lat="45.697092065645705" lon="9.902292428124232"><ele>382.3333333333333</ele><time>2026-04-30T12:25:53Z</time></trkpt><trkpt lat="45.69712788038141" lon="9.902397872442126"><ele>383.66666666666663</ele><time>2026-04-30T12:25:54Z</time></trkpt><trkpt lat="45.697148227864446" lon="9.902501451869618"><ele>385.0</ele><time>2026-04-30T12:25:55Z</time></trkpt><trkpt lat="45.6971775068555" lon="9.902605255197885"><ele>386.3333333333333</ele><time>2026-04-30T12:25:56Z</time></trkpt><trkpt lat="45.697199437501865" lon="9.902710668065637"><ele>387.66666666666663</ele><time>2026-04-30T12:25:57Z</time></trkpt><trkpt lat="45.69721349838984" lon="9.902812646876354"><ele>389.0</ele><time>2026-04-30T12:25:58Z</time></trkpt><trkpt lat="45.69722741851232" lon="9.902908480512426"><ele>388.99999999999994</ele><time>2026-04-30T12:25:59Z</time></trkpt><trkpt lat="45.697242077565235" lon="9.902999415397954"><ele>389.0</ele><time>2026-04-30T12:26:00Z</time></trkpt><trkpt lat="45.69725386646076" lon="9.903089765358892"><ele>389.0</ele><time>2026-04-30T12:26:01Z</time></trkpt><trkpt lat="45.69724223152348" lon="9.903270203851822"><ele>389.0</ele><time>2026-04-30T12:26:03Z</time></trkpt><trkpt lat="45.69722503892032" lon="9.903362095041945"><ele>388.99999999999994</ele><time>2026-04-30T12:26:04Z</time></trkpt><trkpt lat="45.69721254218648" lon="9.903459605015334"><ele>389.0</ele><time>2026-04-30T12:26:05Z</time></trkpt><trkpt lat="45.6972007303224" lon="9.903557592052483"><ele>389.42857142857144</ele><time>2026-04-30T12:26:06Z</time></trkpt><trkpt lat="45.69718059751024" lon="9.903658553652333"><ele>389.85714285714283</ele><time>2026-04-30T12:26:07Z</time></trkpt><trkpt lat="45.69715615564107" lon="9.90375746110325"><ele>390.2857142857143</ele><time>2026-04-30T12:26:08Z</time></trkpt><trkpt lat="45.69714136929462" lon="9.90385987668358"><ele>390.7142857142857</ele><time>2026-04-30T12:26:09Z</time></trkpt><trkpt lat="45.697124396841375" lon="9.903963955740608"><ele>391.1428571428571</ele><time>2026-04-30T12:26:10Z</time></trkpt><trkpt lat="45.69711698076061" lon="9.904067212370958"><ele>391.57142857142856</ele><time>2026-04-30T12:26:11Z</time></trkpt><trkpt lat="45.69710303962516" lon="9.904168320260764"><ele>392.0</ele><time>2026-04-30T12:26:12Z</time></trkpt><trkpt lat="45.69708974080829" lon="9.90426950344531"><ele>392.7142857142857</ele><time>2026-04-30T12:26:13Z</time></trkpt><trkpt lat="45.69707508450663" lon="9.904363829290892"><ele>393.42857142857144</ele><time>2026-04-30T12:26:14Z</time></trkpt><trkpt lat="45.69706580788897" lon="9.904463008053858"><ele>394.1428571428571</ele><time>2026-04-30T12:26:15Z</time></trkpt><trkpt lat="45.697058954020136" lon="9.90455547455353"><ele>394.8571428571429</ele><time>2026-04-30T12:26:16Z</time></trkpt><trkpt lat="45.69705278413186" lon="9.90464730992858"><ele>395.57142857142856</ele><time>2026-04-30T12:26:17Z</time></trkpt><trkpt lat="45.697048408187214" lon="9.904743606536835"><ele>396.2857142857143</ele><time>2026-04-30T12:26:18Z</time></trkpt><trkpt lat="45.69704037281658" lon="9.904834004231475"><ele>397.0</ele><time>2026-04-30T12:26:19Z</time></trkpt><trkpt lat="45.697027024768275" lon="9.904926439812954"><ele>396.5</ele><time>2026-04-30T12:26:20Z</time></trkpt><trkpt lat="45.69698131856569" lon="9.905092718627706"><ele>396.0</ele><time>2026-04-30T12:26:22Z</time></trkpt><trkpt lat="45.6969215103436" lon="9.905239640201357"><ele>395.5</ele><time>2026-04-30T12:26:24Z</time></trkpt><trkpt lat="45.69683240422562" lon="9.90535200638841"><ele>395.0</ele><time>2026-04-30T12:26:26Z</time></trkpt><trkpt lat="45.69671945496676" lon="9.905433833962855"><ele>392.7142857142857</ele><time>2026-04-30T12:26:28Z</time></trkpt><trkpt lat="45.69666108358275" lon="9.90547465000096"><ele>390.42857142857144</ele><time>2026-04-30T12:26:29Z</time></trkpt><trkpt lat="45.6966016225762" lon="9.905513939819425"><ele>388.14285714285717</ele><time>2026-04-30T12:26:30Z</time></trkpt><trkpt lat="45.69653884168154" lon="9.905556850122805"><ele>385.8571428571429</ele><time>2026-04-30T12:26:31Z</time></trkpt><trkpt lat="45.69647895302839" lon="9.905598199573065"><ele>383.57142857142856</ele><time>2026-04-30T12:26:32Z</time></trkpt><trkpt lat="45.69641519484887" lon="9.905643883286961"><ele>381.28571428571433</ele><time>2026-04-30T12:26:33Z</time></trkpt><trkpt lat="45.696361538143435" lon="9.905711787411922"><ele>379.0</ele><time>2026-04-30T12:26:34Z</time></trkpt><trkpt lat="45.69630567017607" lon="9.90577320030009"><ele>379.0</ele><time>2026-04-30T12:26:35Z</time></trkpt><trkpt lat="45.69624667261459" lon="9.905848903509092"><ele>379.0</ele><time>2026-04-30T12:26:36Z</time></trkpt><trkpt lat="45.69620512869032" lon="9.905947818664798"><ele>379.0</ele><time>2026-04-30T12:26:37Z</time></trkpt><trkpt lat="45.69619427575834" lon="9.906062914718852"><ele>379.0</ele><time>2026-04-30T12:26:38Z</time></trkpt><trkpt lat="45.69622344139864" lon="9.906185919776144"><ele>379.0</ele><time>2026-04-30T12:26:39Z</time></trkpt><trkpt lat="45.69627432033769" lon="9.906298748683515"><ele>379.0</ele><time>2026-04-30T12:26:40Z</time></trkpt><trkpt lat="45.696332422682865" lon="9.906386986609414"><ele>376.79999999999995</ele><time>2026-04-30T12:26:41Z</time></trkpt><trkpt lat="45.69640532451751" lon="9.906453446583686"><ele>374.59999999999997</ele><time>2026-04-30T12:26:42Z</time></trkpt><trkpt lat="45.696500762034105" lon="9.906498136936243"><ele>372.4</ele><time>2026-04-30T12:26:43Z</time></trkpt><trkpt lat="45.69660388972684" lon="9.90654493790094"><ele>370.2</ele><time>2026-04-30T12:26:44Z</time></trkpt><trkpt lat="45.696701697918634" lon="9.906606429981611"><ele>368.0</ele><time>2026-04-30T12:26:45Z</time></trkpt><trkpt lat="45.69678509455566" lon="9.906687127999001"><ele>367.4</ele><time>2026-04-30T12:26:46Z</time></trkpt><trkpt lat="45.69685377031984" lon="9.906763739672666"><ele>366.79999999999995</ele><time>2026-04-30T12:26:47Z</time></trkpt><trkpt lat="45.69690723869835" lon="9.906909320632895"><ele>366.2</ele><time>2026-04-30T12:26:49Z</time></trkpt><trkpt lat="45.696925088513986" lon="9.907086881509535"><ele>365.6</ele><time>2026-04-30T12:26:51Z</time></trkpt><trkpt lat="45.69694590640653" lon="9.907181228907557"><ele>365.0</ele><time>2026-04-30T12:26:52Z</time></trkpt><trkpt lat="45.6969696538264" lon="9.90727238494102"><ele>365.00000000000006</ele><time>2026-04-30T12:26:53Z</time></trkpt><trkpt lat="45.69701893526006" lon="9.907331805473765"><ele>365.0</ele><time>2026-04-30T12:26:54Z</time></trkpt><trkpt lat="45.697086605689556" lon="9.907363837346692"><ele>365.0</ele><time>2026-04-30T12:26:55Z</time></trkpt><trkpt lat="45.697160681943174" lon="9.90736004117099"><ele>365.0</ele><time>2026-04-30T12:26:56Z</time></trkpt><trkpt lat="45.6972306467728" lon="9.907345365733814"><ele>365.0</ele><time>2026-04-30T12:26:57Z</time></trkpt><trkpt lat="45.69729627567738" lon="9.907343134022781"><ele>365.00000000000006</ele><time>2026-04-30T12:26:58Z</time></trkpt><trkpt lat="45.6973612860294" lon="9.90736290460157"><ele>365.0</ele><time>2026-04-30T12:26:59Z</time></trkpt><trkpt lat="45.69741949765864" lon="9.907431718169546"><ele>365.00000000000006</ele><time>2026-04-30T12:27:00Z</time></trkpt><trkpt lat="45.69746358585911" lon="9.907522202739658"><ele>365.0</ele><time>2026-04-30T12:27:01Z</time></trkpt><trkpt lat="45.69749005772115" lon="9.907622829808414"><ele>365.0</ele><time>2026-04-30T12:27:02Z</time></trkpt><trkpt lat="45.69749490302675" lon="9.907727258459534"><ele>365.0</ele><time>2026-04-30T12:27:03Z</time></trkpt><trkpt lat="45.69750212804068" lon="9.90782154628963"><ele>365.0</ele><time>2026-04-30T12:27:04Z</time></trkpt><trkpt lat="45.697514691694096" lon="9.907912392486255"><ele>365.00000000000006</ele><time>2026-04-30T12:27:05Z</time></trkpt><trkpt lat="45.69753413094201" lon="9.907998853048808"><ele>365.0</ele><time>2026-04-30T12:27:06Z</time></trkpt><trkpt lat="45.69755490472906" lon="9.908089982770518"><ele>365.5</ele><time>2026-04-30T12:27:07Z</time></trkpt><trkpt lat="45.69757969844054" lon="9.908173308479919"><ele>366.0</ele><time>2026-04-30T12:27:08Z</time></trkpt><trkpt lat="45.697604325548504" lon="9.90826229720147"><ele>366.5</ele><time>2026-04-30T12:27:09Z</time></trkpt><trkpt lat="45.69762487950247" lon="9.908350011778706"><ele>367.0</ele><time>2026-04-30T12:27:10Z</time></trkpt><trkpt lat="45.69761102846881" lon="9.908534161621525"><ele>367.5</ele><time>2026-04-30T12:27:12Z</time></trkpt><trkpt lat="45.69757113195148" lon="9.90861101788232"><ele>368.0</ele><time>2026-04-30T12:27:13Z</time></trkpt><trkpt lat="45.69749859094988" lon="9.908645788003007"><ele>368.0</ele><time>2026-04-30T12:27:14Z</time></trkpt><trkpt lat="45.69737713108528" lon="9.90870303847681"><ele>368.0</ele><time>2026-04-30T12:27:16Z</time></trkpt><trkpt lat="45.697319043602626" lon="9.908751347073418"><ele>368.0</ele><time>2026-04-30T12:27:17Z</time></trkpt><trkpt lat="45.69726439083449" lon="9.908811365573047"><ele>368.0</ele><time>2026-04-30T12:27:18Z</time></trkpt><trkpt lat="45.6972143909396" lon="9.90888196450037"><ele>368.0</ele><time>2026-04-30T12:27:19Z</time></trkpt><trkpt lat="45.69715955992393" lon="9.908951566802875"><ele>368.0</ele><time>2026-04-30T12:27:20Z</time></trkpt><trkpt lat="45.697105131086644" lon="9.909025187507366"><ele>368.0</ele><time>2026-04-30T12:27:21Z</time></trkpt><trkpt lat="45.697053211708074" lon="9.909106559010407"><ele>368.0</ele><time>2026-04-30T12:27:22Z</time></trkpt><trkpt lat="45.69701718269721" lon="9.909211778657001"><ele>368.0</ele><time>2026-04-30T12:27:23Z</time></trkpt><trkpt lat="45.69700214147775" lon="9.909333990667092"><ele>368.0</ele><time>2026-04-30T12:27:24Z</time></trkpt><trkpt lat="45.69698644729705" lon="9.909451897463738"><ele>368.0</ele><time>2026-04-30T12:27:25Z</time></trkpt><trkpt lat="45.69697072976507" lon="9.909575601495629"><ele>368.0</ele><time>2026-04-30T12:27:26Z</time></trkpt><trkpt lat="45.69695295176111" lon="9.909699286656865"><ele>367.79999999999995</ele><time>2026-04-30T12:27:27Z</time></trkpt><trkpt lat="45.69693312976063" lon="9.909825218921275"><ele>367.6</ele><time>2026-04-30T12:27:28Z</time></trkpt><trkpt lat="45.69690909712283" lon="9.909954461597557"><ele>367.4</ele><time>2026-04-30T12:27:29Z</time></trkpt><trkpt lat="45.69689139251013" lon="9.91009031703635"><ele>367.20000000000005</ele><time>2026-04-30T12:27:30Z</time></trkpt><trkpt lat="45.6968893363808" lon="9.910230819931042"><ele>367.0</ele><time>2026-04-30T12:27:31Z</time></trkpt><trkpt lat="45.696914701815665" lon="9.910372583147861"><ele>366.20000000000005</ele><time>2026-04-30T12:27:32Z</time></trkpt><trkpt lat="45.69696616248055" lon="9.910502274701521"><ele>365.4</ele><time>2026-04-30T12:27:33Z</time></trkpt><trkpt lat="45.69702866204554" lon="9.910620342640353"><ele>364.6</ele><time>2026-04-30T12:27:34Z</time></trkpt><trkpt lat="45.69708411632558" lon="9.910750181703925"><ele>363.79999999999995</ele><time>2026-04-30T12:27:35Z</time></trkpt><trkpt lat="45.69713064267511" lon="9.910885608648103"><ele>363.0</ele><time>2026-04-30T12:27:36Z</time></trkpt><trkpt lat="45.69715788867833" lon="9.911016903479831"><ele>363.0</ele><time>2026-04-30T12:27:37Z</time></trkpt><trkpt lat="45.69714761036988" lon="9.911149326558718"><ele>363.0</ele><time>2026-04-30T12:27:38Z</time></trkpt><trkpt lat="45.697106523692824" lon="9.911272336685167"><ele>363.0</ele><time>2026-04-30T12:27:39Z</time></trkpt><trkpt lat="45.69705169258939" lon="9.911379326069282"><ele>363.0</ele><time>2026-04-30T12:27:40Z</time></trkpt><trkpt lat="45.69697836879468" lon="9.911453749334422"><ele>363.0</ele><time>2026-04-30T12:27:41Z</time></trkpt><trkpt lat="45.69690244106196" lon="9.911507467373452"><ele>359.6666666666667</ele><time>2026-04-30T12:27:42Z</time></trkpt><trkpt lat="45.696832645862514" lon="9.9115600789765"><ele>356.3333333333333</ele><time>2026-04-30T12:27:43Z</time></trkpt><trkpt lat="45.69677262412531" lon="9.911626715676077"><ele>353.0</ele><time>2026-04-30T12:27:44Z</time></trkpt><trkpt lat="45.69672804518679" lon="9.911714492854179"><ele>349.66666666666663</ele><time>2026-04-30T12:27:45Z</time></trkpt><trkpt lat="45.69669144054575" lon="9.911811713395208"><ele>346.3333333333333</ele><time>2026-04-30T12:27:46Z</time></trkpt><trkpt lat="45.69665826104834" lon="9.911905896660272"><ele>343.0</ele><time>2026-04-30T12:27:47Z</time></trkpt><trkpt lat="45.6966294935181" lon="9.91199533512631"><ele>343.0</ele><time>2026-04-30T12:27:48Z</time></trkpt><trkpt lat="45.6966059972667" lon="9.912085917029062"><ele>343.0</ele><time>2026-04-30T12:27:49Z</time></trkpt><trkpt lat="45.696595780437185" lon="9.91218046224673"><ele>343.0</ele><time>2026-04-30T12:27:50Z</time></trkpt><trkpt lat="45.69659565134145" lon="9.912359508317312"><ele>343.0</ele><time>2026-04-30T12:27:52Z</time></trkpt><trkpt lat="45.69661076439082" lon="9.912450946629704"><ele>343.0</ele><time>2026-04-30T12:27:53Z</time></trkpt><trkpt lat="45.69663895165635" lon="9.912540371053243"><ele>343.0</ele><time>2026-04-30T12:27:54Z</time></trkpt><trkpt lat="45.69667769520189" lon="9.912625939386942"><ele>344.3333333333333</ele><time>2026-04-30T12:27:55Z</time></trkpt><trkpt lat="45.69671611240466" lon="9.912718010174492"><ele>345.66666666666663</ele><time>2026-04-30T12:27:56Z</time></trkpt><trkpt lat="45.69675713357922" lon="9.912813469194234"><ele>347.0</ele><time>2026-04-30T12:27:57Z</time></trkpt><trkpt lat="45.696820425890834" lon="9.912885846240293"><ele>348.3333333333333</ele><time>2026-04-30T12:27:58Z</time></trkpt><trkpt lat="45.69689579423508" lon="9.912938736312588"><ele>349.6666666666667</ele><time>2026-04-30T12:27:59Z</time></trkpt><trkpt lat="45.69698176866426" lon="9.912969668148326"><ele>351.0</ele><time>2026-04-30T12:28:00Z</time></trkpt><trkpt lat="45.69705999214761" lon="9.913024185961277"><ele>351.0</ele><time>2026-04-30T12:28:01Z</time></trkpt><trkpt lat="45.69712826649055" lon="9.91311485983597"><ele>351.0</ele><time>2026-04-30T12:28:02Z</time></trkpt><trkpt lat="45.69717597677631" lon="9.913227598636238"><ele>351.0</ele><time>2026-04-30T12:28:03Z</time></trkpt><trkpt lat="45.69721502716724" lon="9.913340417588753"><ele>351.0</ele><time>2026-04-30T12:28:04Z</time></trkpt><trkpt lat="45.697237893141555" lon="9.91346176790836"><ele>351.0</ele><time>2026-04-30T12:28:05Z</time></trkpt><trkpt lat="45.69724946141574" lon="9.91358324543162"><ele>351.0</ele><time>2026-04-30T12:28:06Z</time></trkpt><trkpt lat="45.69724020910595" lon="9.913703037020573"><ele>351.1666666666667</ele><time>2026-04-30T12:28:07Z</time></trkpt><trkpt lat="45.69721375855417" lon="9.9138114444168"><ele>351.3333333333333</ele><time>2026-04-30T12:28:08Z</time></trkpt><trkpt lat="45.69716099767056" lon="9.913900237379654"><ele>351.5</ele><time>2026-04-30T12:28:09Z</time></trkpt><trkpt lat="45.69710537622985" lon="9.913971859600284"><ele>351.66666666666663</ele><time>2026-04-30T12:28:10Z</time></trkpt><trkpt lat="45.69703898960125" lon="9.91402093329232"><ele>351.8333333333333</ele><time>2026-04-30T12:28:11Z</time></trkpt><trkpt lat="45.69697345492405" lon="9.914054419406789"><ele>352.0</ele><time>2026-04-30T12:28:12Z</time></trkpt><trkpt lat="45.696864326570584" lon="9.91413016209074"><ele>349.5</ele><time>2026-04-30T12:28:14Z</time></trkpt><trkpt lat="45.69676723943224" lon="9.914229713016606"><ele>347.0</ele><time>2026-04-30T12:28:16Z</time></trkpt><trkpt lat="45.69670200056998" lon="9.914385847971422"><ele>344.5</ele><time>2026-04-30T12:28:18Z</time></trkpt><trkpt lat="45.696694188719555" lon="9.91448448953533"><ele>342.0</ele><time>2026-04-30T12:28:19Z</time></trkpt><trkpt lat="45.69669836046223" lon="9.91457890274725"><ele>339.5</ele><time>2026-04-30T12:28:20Z</time></trkpt><trkpt lat="45.69670163369213" lon="9.914673484220849"><ele>337.0</ele><time>2026-04-30T12:28:21Z</time></trkpt><trkpt lat="45.696705867345834" lon="9.914767097126553"><ele>337.00000000000006</ele><time>2026-04-30T12:28:22Z</time></trkpt><trkpt lat="45.69670996321834" lon="9.914863849620023"><ele>337.0</ele><time>2026-04-30T12:28:23Z</time></trkpt><trkpt lat="45.69670955798578" lon="9.914955716483732"><ele>337.0</ele><time>2026-04-30T12:28:24Z</time></trkpt><trkpt lat="45.696709413864546" lon="9.915048774164006"><ele>337.0</ele><time>2026-04-30T12:28:25Z</time></trkpt><trkpt lat="45.696709485555964" lon="9.915141068648184"><ele>337.0</ele><time>2026-04-30T12:28:26Z</time></trkpt><trkpt lat="45.69671047169241" lon="9.915235635656591"><ele>337.00000000000006</ele><time>2026-04-30T12:28:27Z</time></trkpt><trkpt lat="45.69671246700274" lon="9.915327822563524"><ele>337.0</ele><time>2026-04-30T12:28:28Z</time></trkpt><trkpt lat="45.69671591496353" lon="9.915423838167985"><ele>337.00000000000006</ele><time>2026-04-30T12:28:29Z</time></trkpt><trkpt lat="45.6967143075994" lon="9.915521407928827"><ele>337.0</ele><time>2026-04-30T12:28:30Z</time></trkpt><trkpt lat="45.69671044943153" lon="9.915625156172382"><ele>337.0</ele><time>2026-04-30T12:28:31Z</time></trkpt><trkpt lat="45.696708147808934" lon="9.915727625718727"><ele>337.0</ele><time>2026-04-30T12:28:32Z</time></trkpt><trkpt lat="45.69670648763664" lon="9.915833954339973"><ele>337.0</ele><time>2026-04-30T12:28:33Z</time></trkpt><trkpt lat="45.6966927700871" lon="9.915943056397255"><ele>337.00000000000006</ele><time>2026-04-30T12:28:34Z</time></trkpt><trkpt lat="45.69666009645051" lon="9.916050698432494"><ele>337.0</ele><time>2026-04-30T12:28:35Z</time></trkpt><trkpt lat="45.69661016810911" lon="9.916147274159583"><ele>337.8333333333333</ele><time>2026-04-30T12:28:36Z</time></trkpt><trkpt lat="45.69655919310253" lon="9.916239692788386"><ele>338.66666666666663</ele><time>2026-04-30T12:28:37Z</time></trkpt><trkpt lat="45.69649781623945" lon="9.916321054149725"><ele>339.5</ele><time>2026-04-30T12:28:38Z</time></trkpt><trkpt lat="45.69641168617023" lon="9.916365699361263"><ele>340.3333333333333</ele><time>2026-04-30T12:28:39Z</time></trkpt><trkpt lat="45.69633083251798" lon="9.916417973565068"><ele>341.1666666666667</ele><time>2026-04-30T12:28:40Z</time></trkpt><trkpt lat="45.69625159509724" lon="9.916472806214285"><ele>342.0</ele><time>2026-04-30T12:28:41Z</time></trkpt><trkpt lat="45.69617469110801" lon="9.916539138306499"><ele>342.0</ele><time>2026-04-30T12:28:42Z</time></trkpt><trkpt lat="45.696107680281244" lon="9.916618053014865"><ele>342.0</ele><time>2026-04-30T12:28:43Z</time></trkpt><trkpt lat="45.69605679072321" lon="9.916712019083507"><ele>342.0</ele><time>2026-04-30T12:28:44Z</time></trkpt><trkpt lat="45.696023348026515" lon="9.916829323297705"><ele>342.0</ele><time>2026-04-30T12:28:45Z</time></trkpt><trkpt lat="45.696021740012654" lon="9.916960359572634"><ele>342.0</ele><time>2026-04-30T12:28:46Z</time></trkpt><trkpt lat="45.696033009344156" lon="9.917089863303117"><ele>342.0</ele><time>2026-04-30T12:28:47Z</time></trkpt><trkpt lat="45.696039809949696" lon="9.917227145807658"><ele>337.6</ele><time>2026-04-30T12:28:48Z</time></trkpt><trkpt lat="45.69604751450514" lon="9.91737114805283"><ele>333.20000000000005</ele><time>2026-04-30T12:28:49Z</time></trkpt><trkpt lat="45.69604903509987" lon="9.917520116402587"><ele>328.8</ele><time>2026-04-30T12:28:50Z</time></trkpt><trkpt lat="45.69604183978236" lon="9.917667930240572"><ele>324.4</ele><time>2026-04-30T12:28:51Z</time></trkpt><trkpt lat="45.696028294315184" lon="9.91781441095209"><ele>320.0</ele><time>2026-04-30T12:28:52Z</time></trkpt><trkpt lat="45.69601623969612" lon="9.917966731416982"><ele>320.0</ele><time>2026-04-30T12:28:53Z</time></trkpt><trkpt lat="45.696000906021446" lon="9.918119490504981"><ele>320.0</ele><time>2026-04-30T12:28:54Z</time></trkpt><trkpt lat="45.695982235218445" lon="9.918272312367428"><ele>320.0</ele><time>2026-04-30T12:28:55Z</time></trkpt><trkpt lat="45.6959651465211" lon="9.918421243652453"><ele>320.0</ele><time>2026-04-30T12:28:56Z</time></trkpt><trkpt lat="45.69593746707443" lon="9.918554340480224"><ele>320.0</ele><time>2026-04-30T12:28:57Z</time></trkpt><trkpt lat="45.69590265395829" lon="9.91867927807554"><ele>321.0</ele><time>2026-04-30T12:28:58Z</time></trkpt><trkpt lat="45.69585846799952" lon="9.918786713339463"><ele>322.0</ele><time>2026-04-30T12:28:59Z</time></trkpt><trkpt lat="45.6957971450988" lon="9.918875643318138"><ele>323.0</ele><time>2026-04-30T12:29:00Z</time></trkpt><trkpt lat="45.69572161309224" lon="9.9189492227475"><ele>324.0</ele><time>2026-04-30T12:29:01Z</time></trkpt><trkpt lat="45.695646225419054" lon="9.919027772769734"><ele>325.0</ele><time>2026-04-30T12:29:02Z</time></trkpt><trkpt lat="45.69557370857755" lon="9.919115758458965"><ele>325.0</ele><time>2026-04-30T12:29:03Z</time></trkpt><trkpt lat="45.69550124125544" lon="9.919205248491842"><ele>325.0</ele><time>2026-04-30T12:29:04Z</time></trkpt><trkpt lat="45.69542462783395" lon="9.919294552728932"><ele>325.0</ele><time>2026-04-30T12:29:05Z</time></trkpt><trkpt lat="45.69534643947" lon="9.919383959164202"><ele>325.0</ele><time>2026-04-30T12:29:06Z</time></trkpt><trkpt lat="45.6952665628069" lon="9.919470990845458"><ele>325.0</ele><time>2026-04-30T12:29:07Z</time></trkpt><trkpt lat="45.69519309188097" lon="9.919566938794121"><ele>323.6</ele><time>2026-04-30T12:29:08Z</time></trkpt><trkpt lat="45.6951246956846" lon="9.91967081976403"><ele>322.2</ele><time>2026-04-30T12:29:09Z</time></trkpt><trkpt lat="45.69506346901807" lon="9.919779653473716"><ele>320.8</ele><time>2026-04-30T12:29:10Z</time></trkpt><trkpt lat="45.69500705991145" lon="9.919894055561489"><ele>319.4</ele><time>2026-04-30T12:29:11Z</time></trkpt><trkpt lat="45.69495230461281" lon="9.920009001080821"><ele>318.0</ele><time>2026-04-30T12:29:12Z</time></trkpt><trkpt lat="45.694899588749614" lon="9.920125272731918"><ele>317.1666666666667</ele><time>2026-04-30T12:29:13Z</time></trkpt><trkpt lat="45.694848705950925" lon="9.92024495961188"><ele>316.3333333333333</ele><time>2026-04-30T12:29:14Z</time></trkpt><trkpt lat="45.69479502037028" lon="9.920353453341326"><ele>315.5</ele><time>2026-04-30T12:29:15Z</time></trkpt><trkpt lat="45.69473618989667" lon="9.920441059409866"><ele>314.66666666666663</ele><time>2026-04-30T12:29:16Z</time></trkpt><trkpt lat="45.69466634679549" lon="9.920484286994872"><ele>313.8333333333333</ele><time>2026-04-30T12:29:17Z</time></trkpt><trkpt lat="45.69458545988565" lon="9.92048402826322"><ele>313.0</ele><time>2026-04-30T12:29:18Z</time></trkpt><trkpt lat="45.694505897640084" lon="9.920455035781268"><ele>313.0</ele><time>2026-04-30T12:29:19Z</time></trkpt><trkpt lat="45.69443380354854" lon="9.920392310071485"><ele>313.0</ele><time>2026-04-30T12:29:20Z</time></trkpt><trkpt lat="45.69437585768801" lon="9.920305815006886"><ele>313.0</ele><time>2026-04-30T12:29:21Z</time></trkpt><trkpt lat="45.694340782121614" lon="9.920193994936106"><ele>313.0</ele><time>2026-04-30T12:29:22Z</time></trkpt><trkpt lat="45.69433142847939" lon="9.920070783402437"><ele>313.0</ele><time>2026-04-30T12:29:23Z</time></trkpt><trkpt lat="45.69434559476772" lon="9.919955338419147"><ele>313.0</ele><time>2026-04-30T12:29:24Z</time></trkpt><trkpt lat="45.69438201862494" lon="9.919846393207044"><ele>314.0</ele><time>2026-04-30T12:29:25Z</time></trkpt><trkpt lat="45.694443900239634" lon="9.919755410800812"><ele>315.0</ele><time>2026-04-30T12:29:26Z</time></trkpt><trkpt lat="45.69451172344363" lon="9.919667723498646"><ele>316.0</ele><time>2026-04-30T12:29:27Z</time></trkpt><trkpt lat="45.694582648014986" lon="9.91957977924569"><ele>317.0</ele><time>2026-04-30T12:29:28Z</time></trkpt><trkpt lat="45.69466074518098" lon="9.919499809780467"><ele>318.0</ele><time>2026-04-30T12:29:29Z</time></trkpt><trkpt lat="45.69474002804434" lon="9.919418698535821"><ele>318.0</ele><time>2026-04-30T12:29:30Z</time></trkpt><trkpt lat="45.69481611331364" lon="9.919325775936322"><ele>318.0</ele><time>2026-04-30T12:29:31Z</time></trkpt><trkpt lat="45.6948834581766" lon="9.919220205038524"><ele>318.0</ele><time>2026-04-30T12:29:32Z</time></trkpt><trkpt lat="45.69494052037244" lon="9.919101489023317"><ele>318.0</ele><time>2026-04-30T12:29:33Z</time></trkpt><trkpt lat="45.694980180074786" lon="9.918965487050704"><ele>318.0</ele><time>2026-04-30T12:29:34Z</time></trkpt><trkpt lat="45.69501918095684" lon="9.918826816118793"><ele>315.8</ele><time>2026-04-30T12:29:35Z</time></trkpt><trkpt lat="45.69505332081703" lon="9.918687363856511"><ele>313.6</ele><time>2026-04-30T12:29:36Z</time></trkpt><trkpt lat="45.69506888308157" lon="9.918553800644037"><ele>311.4</ele><time>2026-04-30T12:29:37Z</time></trkpt><trkpt lat="45.69506703670816" lon="9.918419217682565"><ele>309.2</ele><time>2026-04-30T12:29:38Z</time></trkpt><trkpt lat="45.69503770020141" lon="9.918295095327474"><ele>307.0</ele><time>2026-04-30T12:29:39Z</time></trkpt><trkpt lat="45.69497858122003" lon="9.918196309438583"><ele>305.8</ele><time>2026-04-30T12:29:40Z</time></trkpt><trkpt lat="45.69489234326901" lon="9.91812542677242"><ele>304.6</ele><time>2026-04-30T12:29:41Z</time></trkpt><trkpt lat="45.69479951891217" lon="9.91807418798205"><ele>303.40000000000003</ele><time>2026-04-30T12:29:42Z</time></trkpt><trkpt lat="45.69470189318929" lon="9.918031637093257"><ele>302.2</ele><time>2026-04-30T12:29:43Z</time></trkpt><trkpt lat="45.694608202554456" lon="9.91797868512837"><ele>301.0</ele><time>2026-04-30T12:29:44Z</time></trkpt><trkpt lat="45.694513531748186" lon="9.917929732721978"><ele>301.0</ele><time>2026-04-30T12:29:45Z</time></trkpt><trkpt lat="45.69442725842676" lon="9.91789454901867"><ele>301.0</ele><time>2026-04-30T12:29:46Z</time></trkpt><trkpt lat="45.69433749302089" lon="9.917898126056034"><ele>301.0</ele><time>2026-04-30T12:29:47Z</time></trkpt><trkpt lat="45.69425086575392" lon="9.917929457664346"><ele>301.0</ele><time>2026-04-30T12:29:48Z</time></trkpt><trkpt lat="45.694174913845906" lon="9.918006675180429"><ele>301.0</ele><time>2026-04-30T12:29:49Z</time></trkpt><trkpt lat="45.694114226096325" lon="9.918128726089693"><ele>299.6</ele><time>2026-04-30T12:29:50Z</time></trkpt><trkpt lat="45.694066746341576" lon="9.91825593237074"><ele>298.20000000000005</ele><time>2026-04-30T12:29:51Z</time></trkpt><trkpt lat="45.694017240197276" lon="9.918382623972333"><ele>296.79999999999995</ele><time>2026-04-30T12:29:52Z</time></trkpt><trkpt lat="45.69396647790323" lon="9.91851548831344"><ele>295.4</ele><time>2026-04-30T12:29:53Z</time></trkpt><trkpt lat="45.69391407106042" lon="9.918648085208078"><ele>294.0</ele><time>2026-04-30T12:29:54Z</time></trkpt><trkpt lat="45.69386715987737" lon="9.918768493962649"><ele>294.0</ele><time>2026-04-30T12:29:55Z</time></trkpt><trkpt lat="45.69381664405917" lon="9.918861228312025"><ele>294.0</ele><time>2026-04-30T12:29:56Z</time></trkpt><trkpt lat="45.693751744977156" lon="9.918933356987026"><ele>294.0</ele><time>2026-04-30T12:29:57Z</time></trkpt><trkpt lat="45.69367055940265" lon="9.918963443683657"><ele>294.0</ele><time>2026-04-30T12:29:58Z</time></trkpt><trkpt lat="45.69358045147717" lon="9.91894713989203"><ele>294.0</ele><time>2026-04-30T12:29:59Z</time></trkpt><trkpt lat="45.69349208353448" lon="9.918903165173194"><ele>294.0</ele><time>2026-04-30T12:30:00Z</time></trkpt><trkpt lat="45.693411148122046" lon="9.918838354298936"><ele>292.59999999999997</ele><time>2026-04-30T12:30:01Z</time></trkpt><trkpt lat="45.69333216298254" lon="9.91877631082317"><ele>291.2</ele><time>2026-04-30T12:30:02Z</time></trkpt><trkpt lat="45.69323844199619" lon="9.918742993494131"><ele>289.79999999999995</ele><time>2026-04-30T12:30:03Z</time></trkpt><trkpt lat="45.69313748554285" lon="9.918744579332907"><ele>288.4</ele><time>2026-04-30T12:30:04Z</time></trkpt><trkpt lat="45.693035526634304" lon="9.918786739243089"><ele>287.0</ele><time>2026-04-30T12:30:05Z</time></trkpt><trkpt lat="45.69293946407625" lon="9.91885622946393"><ele>287.0</ele><time>2026-04-30T12:30:06Z</time></trkpt><trkpt lat="45.6928427404533" lon="9.918928122669922"><ele>287.0</ele><time>2026-04-30T12:30:07Z</time></trkpt><trkpt lat="45.69274278155086" lon="9.91898982908935"><ele>287.0</ele><time>2026-04-30T12:30:08Z</time></trkpt><trkpt lat="45.69263714979129" lon="9.91903723495287"><ele>287.0</ele><time>2026-04-30T12:30:09Z</time></trkpt><trkpt lat="45.69252961559749" lon="9.919080135802306"><ele>287.0</ele><time>2026-04-30T12:30:10Z</time></trkpt><trkpt lat="45.69242303963392" lon="9.919139687698289"><ele>285.75</ele><time>2026-04-30T12:30:11Z</time></trkpt><trkpt lat="45.69231471805275" lon="9.919195956679413"><ele>284.5</ele><time>2026-04-30T12:30:12Z</time></trkpt><trkpt lat="45.69220690485441" lon="9.919247860956421"><ele>283.25</ele><time>2026-04-30T12:30:13Z</time></trkpt><trkpt lat="45.69210380133197" lon="9.919301162273536"><ele>282.0</ele><time>2026-04-30T12:30:14Z</time></trkpt><trkpt lat="45.69199801138882" lon="9.919355144885573"><ele>279.8</ele><time>2026-04-30T12:30:15Z</time></trkpt><trkpt lat="45.69189785144321" lon="9.919413211322686"><ele>277.6</ele><time>2026-04-30T12:30:16Z</time></trkpt><trkpt lat="45.69180121986646" lon="9.919473539840897"><ele>275.40000000000003</ele><time>2026-04-30T12:30:17Z</time></trkpt><trkpt lat="45.69171957601051" lon="9.919523983430501"><ele>273.2</ele><time>2026-04-30T12:30:18Z</time></trkpt><trkpt lat="45.69163748582061" lon="9.919544050000994"><ele>271.0</ele><time>2026-04-30T12:30:19Z</time></trkpt><trkpt lat="45.6915525527008" lon="9.919528588742127"><ele>271.0</ele><time>2026-04-30T12:30:20Z</time></trkpt><trkpt lat="45.69147552656729" lon="9.919490126600802"><ele>271.0</ele><time>2026-04-30T12:30:21Z</time></trkpt><trkpt lat="45.69141174894687" lon="9.919422101767932"><ele>271.0</ele><time>2026-04-30T12:30:22Z</time></trkpt><trkpt lat="45.691370117018245" lon="9.919327108852409"><ele>271.0</ele><time>2026-04-30T12:30:23Z</time></trkpt><trkpt lat="45.69134125126372" lon="9.919213310881368"><ele>271.0</ele><time>2026-04-30T12:30:24Z</time></trkpt><trkpt lat="45.69134785500741" lon="9.919085012524791"><ele>271.0</ele><time>2026-04-30T12:30:25Z</time></trkpt><trkpt lat="45.69136799441384" lon="9.918971957259783"><ele>270.16666666666663</ele><time>2026-04-30T12:30:26Z</time></trkpt><trkpt lat="45.69139883252565" lon="9.918859976333941"><ele>269.3333333333333</ele><time>2026-04-30T12:30:27Z</time></trkpt><trkpt lat="45.69140788904091" lon="9.918744239186111"><ele>268.5</ele><time>2026-04-30T12:30:28Z</time></trkpt><trkpt lat="45.691391010174826" lon="9.918642414632602"><ele>267.6666666666667</ele><time>2026-04-30T12:30:29Z</time></trkpt><trkpt lat="45.6913605938364" lon="9.91856175992746"><ele>266.83333333333337</ele><time>2026-04-30T12:30:30Z</time></trkpt><trkpt lat="45.69128972879745" lon="9.918502906089683"><ele>266.0</ele><time>2026-04-30T12:30:32Z</time></trkpt><trkpt lat="45.69122302644877" lon="9.918561458571359"><ele>266.0</ele><time>2026-04-30T12:30:34Z</time></trkpt><trkpt lat="45.691192265346146" lon="9.918651562939415"><ele>266.0</ele><time>2026-04-30T12:30:35Z</time></trkpt><trkpt lat="45.69115979512482" lon="9.918735121690643"><ele>266.0</ele><time>2026-04-30T12:30:36Z</time></trkpt><trkpt lat="45.69112637964148" lon="9.918821816037866"><ele>266.0</ele><time>2026-04-30T12:30:37Z</time></trkpt><trkpt lat="45.69109417953265" lon="9.918904301168833"><ele>266.0</ele><time>2026-04-30T12:30:38Z</time></trkpt><trkpt lat="45.691061837885506" lon="9.918987531552002"><ele>266.0</ele><time>2026-04-30T12:30:39Z</time></trkpt><trkpt lat="45.69103252278883" lon="9.919072036882243"><ele>266.0</ele><time>2026-04-30T12:30:40Z</time></trkpt><trkpt lat="45.69100971013566" lon="9.91917055721495"><ele>265.42857142857144</ele><time>2026-04-30T12:30:41Z</time></trkpt><trkpt lat="45.69098351701423" lon="9.919265404430444"><ele>264.8571428571429</ele><time>2026-04-30T12:30:42Z</time></trkpt><trkpt lat="45.69095307404416" lon="9.919358233325049"><ele>264.2857142857143</ele><time>2026-04-30T12:30:43Z</time></trkpt><trkpt lat="45.690910272271225" lon="9.919442301263238"><ele>263.7142857142857</ele><time>2026-04-30T12:30:44Z</time></trkpt><trkpt lat="45.69086136690726" lon="9.919513314865796"><ele>263.14285714285717</ele><time>2026-04-30T12:30:45Z</time></trkpt><trkpt lat="45.69080829480215" lon="9.919577412830654"><ele>262.57142857142856</ele><time>2026-04-30T12:30:46Z</time></trkpt><trkpt lat="45.69075556916074" lon="9.919645176993123"><ele>262.0</ele><time>2026-04-30T12:30:47Z</time></trkpt><trkpt lat="45.69070303603632" lon="9.919706301473305"><ele>262.0</ele><time>2026-04-30T12:30:48Z</time></trkpt><trkpt lat="45.69064853067948" lon="9.919771411137262"><ele>262.0</ele><time>2026-04-30T12:30:49Z</time></trkpt><trkpt lat="45.69059632758881" lon="9.919836086639354"><ele>262.0</ele><time>2026-04-30T12:30:50Z</time></trkpt><trkpt lat="45.690549071467295" lon="9.919905123353951"><ele>262.0</ele><time>2026-04-30T12:30:51Z</time></trkpt><trkpt lat="45.690502964344766" lon="9.919972249415789"><ele>262.0</ele><time>2026-04-30T12:30:52Z</time></trkpt><trkpt lat="45.69045679723528" lon="9.920035989375375"><ele>262.0</ele><time>2026-04-30T12:30:53Z</time></trkpt><trkpt lat="45.69035498326212" lon="9.920139515620221"><ele>262.0</ele><time>2026-04-30T12:30:55Z</time></trkpt><trkpt lat="45.69030407725617" lon="9.920192615700854"><ele>262.0</ele><time>2026-04-30T12:30:56Z</time></trkpt><trkpt lat="45.690203587221" lon="9.920296622530822"><ele>262.0</ele><time>2026-04-30T12:30:58Z</time></trkpt><trkpt lat="45.690143789372016" lon="9.920326435754767"><ele>262.0</ele><time>2026-04-30T12:30:59Z</time></trkpt><trkpt lat="45.69001053455435" lon="9.920324537980113"><ele>262.0</ele><time>2026-04-30T12:31:01Z</time></trkpt><trkpt lat="45.68993722112536" lon="9.920314758538673"><ele>262.0</ele><time>2026-04-30T12:31:02Z</time></trkpt><trkpt lat="45.68986651714993" lon="9.920265839896445"><ele>262.0</ele><time>2026-04-30T12:31:03Z</time></trkpt><trkpt lat="45.68979620258427" lon="9.920256344290369"><ele>262.0</ele><time>2026-04-30T12:31:04Z</time></trkpt><trkpt lat="45.689726650764605" lon="9.920245328649706"><ele>262.0</ele><time>2026-04-30T12:31:05Z</time></trkpt><trkpt lat="45.6896558131131" lon="9.920235317023522"><ele>262.0</ele><time>2026-04-30T12:31:06Z</time></trkpt><trkpt lat="45.68958641134151" lon="9.920232922805356"><ele>262.0</ele><time>2026-04-30T12:31:07Z</time></trkpt><trkpt lat="45.68951589052415" lon="9.920236125824912"><ele>262.0</ele><time>2026-04-30T12:31:08Z</time></trkpt><trkpt lat="45.689447680862706" lon="9.920245261123695"><ele>262.14285714285717</ele><time>2026-04-30T12:31:09Z</time></trkpt><trkpt lat="45.689379081919206" lon="9.920245711618099"><ele>262.28571428571433</ele><time>2026-04-30T12:31:10Z</time></trkpt><trkpt lat="45.689311491171665" lon="9.920247201417007"><ele>262.42857142857144</ele><time>2026-04-30T12:31:11Z</time></trkpt><trkpt lat="45.68924518512935" lon="9.920244442381659"><ele>262.57142857142856</ele><time>2026-04-30T12:31:12Z</time></trkpt><trkpt lat="45.68917819782355" lon="9.920235245349549"><ele>262.71428571428567</ele><time>2026-04-30T12:31:13Z</time></trkpt><trkpt lat="45.68911352774707" lon="9.92021300569425"><ele>262.85714285714283</ele><time>2026-04-30T12:31:14Z</time></trkpt><trkpt lat="45.68905494809391" lon="9.920178197861869"><ele>263.0</ele><time>2026-04-30T12:31:15Z</time></trkpt><trkpt lat="45.68899146953349" lon="9.920139150741296"><ele>263.0</ele><time>2026-04-30T12:31:16Z</time></trkpt><trkpt lat="45.68893042459431" lon="9.92009811357984"><ele>263.0</ele><time>2026-04-30T12:31:17Z</time></trkpt><trkpt lat="45.68887042220838" lon="9.92004891073581"><ele>263.0</ele><time>2026-04-30T12:31:18Z</time></trkpt><trkpt lat="45.68881393005179" lon="9.919996992283387"><ele>263.0</ele><time>2026-04-30T12:31:19Z</time></trkpt><trkpt lat="45.68876201917983" lon="9.919931065537181"><ele>263.0</ele><time>2026-04-30T12:31:20Z</time></trkpt><trkpt lat="45.68871364565111" lon="9.919856540622275"><ele>263.0</ele><time>2026-04-30T12:31:21Z</time></trkpt><trkpt lat="45.68866535725249" lon="9.919787012689293"><ele>263.0</ele><time>2026-04-30T12:31:22Z</time></trkpt><trkpt lat="45.68861434316853" lon="9.919722927975968"><ele>262.2857142857143</ele><time>2026-04-30T12:31:23Z</time></trkpt><trkpt lat="45.68856052434819" lon="9.919662040187996"><ele>261.57142857142856</ele><time>2026-04-30T12:31:24Z</time></trkpt><trkpt lat="45.68850678843371" lon="9.9196049074605"><ele>260.85714285714283</ele><time>2026-04-30T12:31:25Z</time></trkpt><trkpt lat="45.68845182046007" lon="9.919552501893918"><ele>260.1428571428571</ele><time>2026-04-30T12:31:26Z</time></trkpt><trkpt lat="45.68839166687315" lon="9.919510069626243"><ele>259.42857142857144</ele><time>2026-04-30T12:31:27Z</time></trkpt><trkpt lat="45.68832799020089" lon="9.91947906814912"><ele>258.71428571428567</ele><time>2026-04-30T12:31:28Z</time></trkpt><trkpt lat="45.6882638728901" lon="9.919455047510805"><ele>258.0</ele><time>2026-04-30T12:31:29Z</time></trkpt><trkpt lat="45.68819591636529" lon="9.919437706098865"><ele>257.99999999999994</ele><time>2026-04-30T12:31:30Z</time></trkpt><trkpt lat="45.68812675156657" lon="9.919429201434015"><ele>258.0</ele><time>2026-04-30T12:31:31Z</time></trkpt><trkpt lat="45.6880551236489" lon="9.919429888450956"><ele>258.0</ele><time>2026-04-30T12:31:32Z</time></trkpt><trkpt lat="45.687984032329325" lon="9.919439274346583"><ele>258.0</ele><time>2026-04-30T12:31:33Z</time></trkpt><trkpt lat="45.68791319132305" lon="9.919448614751191"><ele>258.0</ele><time>2026-04-30T12:31:34Z</time></trkpt><trkpt lat="45.68784292610236" lon="9.9194535468994"><ele>257.99999999999994</ele><time>2026-04-30T12:31:35Z</time></trkpt><trkpt lat="45.68777424915166" lon="9.919454061813097"><ele>258.0</ele><time>2026-04-30T12:31:36Z</time></trkpt><trkpt lat="45.68770708518422" lon="9.919455108888473"><ele>258.1428571428571</ele><time>2026-04-30T12:31:37Z</time></trkpt><trkpt lat="45.68763856442569" lon="9.91946016147685"><ele>258.2857142857143</ele><time>2026-04-30T12:31:38Z</time></trkpt><trkpt lat="45.68757094538508" lon="9.919471270798548"><ele>258.42857142857144</ele><time>2026-04-30T12:31:39Z</time></trkpt><trkpt lat="45.6875018962836" lon="9.919480132127454"><ele>258.57142857142856</ele><time>2026-04-30T12:31:40Z</time></trkpt><trkpt lat="45.687431279727534" lon="9.919484958233511"><ele>258.7142857142857</ele><time>2026-04-30T12:31:41Z</time></trkpt><trkpt lat="45.68736250007332" lon="9.91949083222998"><ele>258.85714285714283</ele><time>2026-04-30T12:31:42Z</time></trkpt><trkpt lat="45.68729344560768" lon="9.919497191138568"><ele>259.0</ele><time>2026-04-30T12:31:43Z</time></trkpt><trkpt lat="45.68722485859629" lon="9.919507694546573"><ele>259.0</ele><time>2026-04-30T12:31:44Z</time></trkpt><trkpt lat="45.68715735481927" lon="9.919518702159216"><ele>259.0</ele><time>2026-04-30T12:31:45Z</time></trkpt><trkpt lat="45.687088101604864" lon="9.9195273089686"><ele>259.0</ele><time>2026-04-30T12:31:46Z</time></trkpt><trkpt lat="45.68702022422199" lon="9.919523028835934"><ele>259.0</ele><time>2026-04-30T12:31:47Z</time></trkpt><trkpt lat="45.68695344587723" lon="9.91949765286212"><ele>259.0</ele><time>2026-04-30T12:31:48Z</time></trkpt><trkpt lat="45.686891191293185" lon="9.919464095765354"><ele>259.0</ele><time>2026-04-30T12:31:49Z</time></trkpt><trkpt lat="45.68682844432419" lon="9.919436453255543"><ele>259.0</ele><time>2026-04-30T12:31:50Z</time></trkpt><trkpt lat="45.686766646290145" lon="9.919401087696002"><ele>259.0</ele><time>2026-04-30T12:31:51Z</time></trkpt><trkpt lat="45.686706781483146" lon="9.919365959311486"><ele>259.0</ele><time>2026-04-30T12:31:52Z</time></trkpt><trkpt lat="45.68664744742044" lon="9.919333221282173"><ele>259.0</ele><time>2026-04-30T12:31:53Z</time></trkpt><trkpt lat="45.68658386613944" lon="9.91930763383765"><ele>259.0</ele><time>2026-04-30T12:31:54Z</time></trkpt><trkpt lat="45.686523278906186" lon="9.919277587444451"><ele>259.0</ele><time>2026-04-30T12:31:55Z</time></trkpt><trkpt lat="45.686459825295195" lon="9.919250097040816"><ele>259.0</ele><time>2026-04-30T12:31:56Z</time></trkpt><trkpt lat="45.68639823181971" lon="9.91922238279974"><ele>259.0</ele><time>2026-04-30T12:31:57Z</time></trkpt><trkpt lat="45.68633704351034" lon="9.91919241413474"><ele>259.0</ele><time>2026-04-30T12:31:58Z</time></trkpt><trkpt lat="45.686274707435345" lon="9.919162161430828"><ele>259.0</ele><time>2026-04-30T12:31:59Z</time></trkpt><trkpt lat="45.68621229539587" lon="9.919135663603218"><ele>259.0</ele><time>2026-04-30T12:32:00Z</time></trkpt><trkpt lat="45.686151420823606" lon="9.9191085319171"><ele>259.0</ele><time>2026-04-30T12:32:01Z</time></trkpt><trkpt lat="45.686090045870095" lon="9.919088173967879"><ele>259.0</ele><time>2026-04-30T12:32:02Z</time></trkpt><trkpt lat="45.68602582078155" lon="9.919072897834594"><ele>259.0</ele><time>2026-04-30T12:32:03Z</time></trkpt><trkpt lat="45.6859601073005" lon="9.919057183231102"><ele>259.0</ele><time>2026-04-30T12:32:04Z</time></trkpt><trkpt lat="45.68589637625268" lon="9.919059335007374"><ele>258.85714285714283</ele><time>2026-04-30T12:32:05Z</time></trkpt><trkpt lat="45.68582919579643" lon="9.91905792245221"><ele>258.7142857142857</ele><time>2026-04-30T12:32:06Z</time></trkpt><trkpt lat="45.68576531170215" lon="9.91907215074612"><ele>258.57142857142856</ele><time>2026-04-30T12:32:07Z</time></trkpt><trkpt lat="45.68570144052097" lon="9.919092451381538"><ele>258.42857142857144</ele><time>2026-04-30T12:32:08Z</time></trkpt><trkpt lat="45.685639003197984" lon="9.919121357479234"><ele>258.2857142857143</ele><time>2026-04-30T12:32:09Z</time></trkpt><trkpt lat="45.685578701197166" lon="9.919160873150872"><ele>258.1428571428571</ele><time>2026-04-30T12:32:10Z</time></trkpt><trkpt lat="45.685520435298315" lon="9.91920323536102"><ele>258.0</ele><time>2026-04-30T12:32:11Z</time></trkpt><trkpt lat="45.685462027203975" lon="9.919249929380255"><ele>259.3333333333333</ele><time>2026-04-30T12:32:12Z</time></trkpt><trkpt lat="45.68540305547668" lon="9.919289812008815"><ele>260.6666666666667</ele><time>2026-04-30T12:32:13Z</time></trkpt><trkpt lat="45.6853456185045" lon="9.919333279039794"><ele>262.0</ele><time>2026-04-30T12:32:14Z</time></trkpt><trkpt lat="45.685289680224386" lon="9.919377532113714"><ele>263.33333333333337</ele><time>2026-04-30T12:32:15Z</time></trkpt><trkpt lat="45.68517428176007" lon="9.919449700266554"><ele>264.6666666666667</ele><time>2026-04-30T12:32:17Z</time></trkpt><trkpt lat="45.685114642438286" lon="9.919498744712474"><ele>266.0</ele><time>2026-04-30T12:32:18Z</time></trkpt><trkpt lat="45.68499879109591" lon="9.91957244363741"><ele>266.0</ele><time>2026-04-30T12:32:20Z</time></trkpt><trkpt lat="45.68493219317097" lon="9.919607224780636"><ele>266.0</ele><time>2026-04-30T12:32:21Z</time></trkpt><trkpt lat="45.684835017510544" lon="9.9196958528718"><ele>266.0</ele><time>2026-04-30T12:32:23Z</time></trkpt><trkpt lat="45.68476174044124" lon="9.919732089468802"><ele>266.0</ele><time>2026-04-30T12:32:24Z</time></trkpt><trkpt lat="45.68464425988249" lon="9.919815617367343"><ele>266.0</ele><time>2026-04-30T12:32:26Z</time></trkpt><trkpt lat="45.68458353444036" lon="9.91985616515491"><ele>266.0</ele><time>2026-04-30T12:32:27Z</time></trkpt><trkpt lat="45.68452289755507" lon="9.91990011269586"><ele>266.0</ele><time>2026-04-30T12:32:28Z</time></trkpt><trkpt lat="45.6844582046324" lon="9.91994299353998"><ele>266.0</ele><time>2026-04-30T12:32:29Z</time></trkpt><trkpt lat="45.68439602361741" lon="9.919977503420117"><ele>266.0</ele><time>2026-04-30T12:32:30Z</time></trkpt><trkpt lat="45.68433114445507" lon="9.920006594781299"><ele>266.0</ele><time>2026-04-30T12:32:31Z</time></trkpt><trkpt lat="45.684258575370464" lon="9.920043243176226"><ele>266.0</ele><time>2026-04-30T12:32:32Z</time></trkpt><trkpt lat="45.68412362065164" lon="9.920078961573244"><ele>266.7142857142857</ele><time>2026-04-30T12:32:34Z</time></trkpt><trkpt lat="45.684055068317946" lon="9.920097369974519"><ele>267.42857142857144</ele><time>2026-04-30T12:32:35Z</time></trkpt><trkpt lat="45.68398337144092" lon="9.920113361759979"><ele>268.1428571428571</ele><time>2026-04-30T12:32:36Z</time></trkpt><trkpt lat="45.68391257148475" lon="9.920124183686442"><ele>268.8571428571429</ele><time>2026-04-30T12:32:37Z</time></trkpt><trkpt lat="45.68384310605624" lon="9.920135458022845"><ele>269.57142857142856</ele><time>2026-04-30T12:32:38Z</time></trkpt><trkpt lat="45.683773442508524" lon="9.92014495603604"><ele>270.2857142857143</ele><time>2026-04-30T12:32:39Z</time></trkpt><trkpt lat="45.68370477718385" lon="9.920143972863627"><ele>271.0</ele><time>2026-04-30T12:32:40Z</time></trkpt><trkpt lat="45.683636944437495" lon="9.920136843446159"><ele>269.2857142857143</ele><time>2026-04-30T12:32:41Z</time></trkpt><trkpt lat="45.68356826965673" lon="9.92012778444053"><ele>267.57142857142856</ele><time>2026-04-30T12:32:42Z</time></trkpt><trkpt lat="45.683503556294795" lon="9.920116409428378"><ele>265.8571428571429</ele><time>2026-04-30T12:32:43Z</time></trkpt><trkpt lat="45.683438854006376" lon="9.920107607310088"><ele>264.1428571428571</ele><time>2026-04-30T12:32:44Z</time></trkpt><trkpt lat="45.683372782307174" lon="9.920098978808003"><ele>262.42857142857144</ele><time>2026-04-30T12:32:45Z</time></trkpt><trkpt lat="45.68330776406957" lon="9.920093802928825"><ele>260.7142857142857</ele><time>2026-04-30T12:32:46Z</time></trkpt><trkpt lat="45.68324233447991" lon="9.920084250309545"><ele>259.0</ele><time>2026-04-30T12:32:47Z</time></trkpt><trkpt lat="45.68317728157988" lon="9.920081160639368"><ele>259.0</ele><time>2026-04-30T12:32:48Z</time></trkpt><trkpt lat="45.683113938621005" lon="9.920075785807716"><ele>259.0</ele><time>2026-04-30T12:32:49Z</time></trkpt><trkpt lat="45.683047366813646" lon="9.920067323108494"><ele>259.0</ele><time>2026-04-30T12:32:50Z</time></trkpt><trkpt lat="45.682983159876734" lon="9.920062459055023"><ele>259.0</ele><time>2026-04-30T12:32:51Z</time></trkpt><trkpt lat="45.682918557496045" lon="9.92006390965659"><ele>259.0</ele><time>2026-04-30T12:32:52Z</time></trkpt><trkpt lat="45.68285466118741" lon="9.920073745079844"><ele>259.0</ele><time>2026-04-30T12:32:53Z</time></trkpt><trkpt lat="45.68279099597091" lon="9.920094965305438"><ele>259.0</ele><time>2026-04-30T12:32:54Z</time></trkpt><trkpt lat="45.682730119275625" lon="9.920122529733481"><ele>258.2857142857143</ele><time>2026-04-30T12:32:55Z</time></trkpt><trkpt lat="45.68266836220402" lon="9.920147883680054"><ele>257.57142857142856</ele><time>2026-04-30T12:32:56Z</time></trkpt><trkpt lat="45.68260496743082" lon="9.920174567792476"><ele>256.8571428571429</ele><time>2026-04-30T12:32:57Z</time></trkpt><trkpt lat="45.68254231009722" lon="9.920201542967531"><ele>256.1428571428571</ele><time>2026-04-30T12:32:58Z</time></trkpt><trkpt lat="45.68248063688591" lon="9.920233560513495"><ele>255.42857142857142</ele><time>2026-04-30T12:32:59Z</time></trkpt><trkpt lat="45.68242062661144" lon="9.92026281642014"><ele>254.71428571428572</ele><time>2026-04-30T12:33:00Z</time></trkpt><trkpt lat="45.682360709444545" lon="9.920297070589507"><ele>254.0</ele><time>2026-04-30T12:33:01Z</time></trkpt><trkpt lat="45.68230074480253" lon="9.92033417231595"><ele>254.0</ele><time>2026-04-30T12:33:02Z</time></trkpt><trkpt lat="45.6822404932449" lon="9.920374105845722"><ele>254.0</ele><time>2026-04-30T12:33:03Z</time></trkpt><trkpt lat="45.682183856390246" lon="9.92042009677798"><ele>254.0</ele><time>2026-04-30T12:33:04Z</time></trkpt><trkpt lat="45.68213026321829" lon="9.920473518823997"><ele>254.0</ele><time>2026-04-30T12:33:05Z</time></trkpt><trkpt lat="45.68207853330714" lon="9.920534004993522"><ele>254.0</ele><time>2026-04-30T12:33:06Z</time></trkpt><trkpt lat="45.68202877403283" lon="9.920592674334888"><ele>254.0</ele><time>2026-04-30T12:33:07Z</time></trkpt><trkpt lat="45.6819799480782" lon="9.920661476445256"><ele>254.0</ele><time>2026-04-30T12:33:08Z</time></trkpt><trkpt lat="45.68193316315535" lon="9.920725427290453"><ele>253.66666666666669</ele><time>2026-04-30T12:33:09Z</time></trkpt><trkpt lat="45.68188667406367" lon="9.920795202119795"><ele>253.33333333333334</ele><time>2026-04-30T12:33:10Z</time></trkpt><trkpt lat="45.681791435187094" lon="9.920920032088855"><ele>253.0</ele><time>2026-04-30T12:33:12Z</time></trkpt><trkpt lat="45.681742890297315" lon="9.92098205730373"><ele>252.66666666666669</ele><time>2026-04-30T12:33:13Z</time></trkpt><trkpt lat="45.68169559784195" lon="9.921046935780987"><ele>252.33333333333334</ele><time>2026-04-30T12:33:14Z</time></trkpt><trkpt lat="45.68164807083903" lon="9.921110238052863"><ele>252.0</ele><time>2026-04-30T12:33:15Z</time></trkpt><trkpt lat="45.68160077694846" lon="9.921174769002468"><ele>252.0</ele><time>2026-04-30T12:33:16Z</time></trkpt><trkpt lat="45.68155160824004" lon="9.921235840064577"><ele>252.0</ele><time>2026-04-30T12:33:17Z</time></trkpt><trkpt lat="45.68150487767792" lon="9.92130312544517"><ele>252.0</ele><time>2026-04-30T12:33:18Z</time></trkpt><trkpt lat="45.68145927389518" lon="9.92136713958627"><ele>252.0</ele><time>2026-04-30T12:33:19Z</time></trkpt><trkpt lat="45.681409391020495" lon="9.921431625707763"><ele>252.0</ele><time>2026-04-30T12:33:20Z</time></trkpt><trkpt lat="45.68131683624702" lon="9.921560329992536"><ele>252.0</ele><time>2026-04-30T12:33:22Z</time></trkpt><trkpt lat="45.68127123752543" lon="9.921625539244445"><ele>252.0</ele><time>2026-04-30T12:33:23Z</time></trkpt><trkpt lat="45.68122374337479" lon="9.921691479772733"><ele>252.0</ele><time>2026-04-30T12:33:24Z</time></trkpt><trkpt lat="45.68117631514418" lon="9.921753218876907"><ele>252.0</ele><time>2026-04-30T12:33:25Z</time></trkpt><trkpt lat="45.68112958439438" lon="9.921816925927697"><ele>252.0</ele><time>2026-04-30T12:33:26Z</time></trkpt><trkpt lat="45.68108222541058" lon="9.921880545176267"><ele>252.0</ele><time>2026-04-30T12:33:27Z</time></trkpt><trkpt lat="45.681027366571406" lon="9.921933652309814"><ele>252.0</ele><time>2026-04-30T12:33:28Z</time></trkpt><trkpt lat="45.68097831875159" lon="9.921990212071856"><ele>252.0</ele><time>2026-04-30T12:33:29Z</time></trkpt><trkpt lat="45.680923274901446" lon="9.922039086697403"><ele>251.2</ele><time>2026-04-30T12:33:30Z</time></trkpt><trkpt lat="45.68086719194804" lon="9.922085273882269"><ele>250.39999999999998</ele><time>2026-04-30T12:33:31Z</time></trkpt><trkpt lat="45.68081101293995" lon="9.92213123819617"><ele>249.60000000000002</ele><time>2026-04-30T12:33:32Z</time></trkpt><trkpt lat="45.68075418256988" lon="9.922176858968852"><ele>248.8</ele><time>2026-04-30T12:33:33Z</time></trkpt><trkpt lat="45.68063691380486" lon="9.922262422705288"><ele>248.0</ele><time>2026-04-30T12:33:35Z</time></trkpt><trkpt lat="45.680524049110886" lon="9.922336732452194"><ele>248.0</ele><time>2026-04-30T12:33:37Z</time></trkpt><trkpt lat="45.68040589717132" lon="9.922417963070712"><ele>248.0</ele><time>2026-04-30T12:33:39Z</time></trkpt><trkpt lat="45.68029642997217" lon="9.922494246618715"><ele>248.0</ele><time>2026-04-30T12:33:41Z</time></trkpt><trkpt lat="45.68018536986267" lon="9.92257177379163"><ele>248.0</ele><time>2026-04-30T12:33:43Z</time></trkpt><trkpt lat="45.68012454951644" lon="9.922610030938985"><ele>248.0</ele><time>2026-04-30T12:33:44Z</time></trkpt><trkpt lat="45.68000651722393" lon="9.922686673236347"><ele>248.4</ele><time>2026-04-30T12:33:46Z</time></trkpt><trkpt lat="45.679892473837825" lon="9.922764392311604"><ele>248.8</ele><time>2026-04-30T12:33:48Z</time></trkpt><trkpt lat="45.67983671917937" lon="9.92280801699009"><ele>249.2</ele><time>2026-04-30T12:33:49Z</time></trkpt><trkpt lat="45.67971424025718" lon="9.922878754245843"><ele>249.6</ele><time>2026-04-30T12:33:51Z</time></trkpt><trkpt lat="45.67961106440834" lon="9.922954186882828"><ele>250.0</ele><time>2026-04-30T12:33:53Z</time></trkpt><trkpt lat="45.67954898675534" lon="9.922993442756027"><ele>250.0</ele><time>2026-04-30T12:33:54Z</time></trkpt><trkpt lat="45.67949076434628" lon="9.923031138960509"><ele>250.0</ele><time>2026-04-30T12:33:55Z</time></trkpt><trkpt lat="45.67937401917188" lon="9.92310807915389"><ele>250.0</ele><time>2026-04-30T12:33:57Z</time></trkpt><trkpt lat="45.67925999120362" lon="9.923182435649938"><ele>250.0</ele><time>2026-04-30T12:33:59Z</time></trkpt><trkpt lat="45.679200642791024" lon="9.923219575325184"><ele>250.0</ele><time>2026-04-30T12:34:00Z</time></trkpt><trkpt lat="45.67908747404458" lon="9.923296620550412"><ele>250.4</ele><time>2026-04-30T12:34:02Z</time></trkpt><trkpt lat="45.67896209100919" lon="9.923372389064674"><ele>250.8</ele><time>2026-04-30T12:34:04Z</time></trkpt><trkpt lat="45.678850722155936" lon="9.923444665856465"><ele>251.2</ele><time>2026-04-30T12:34:06Z</time></trkpt><trkpt lat="45.67873968939125" lon="9.923527054022985"><ele>251.6</ele><time>2026-04-30T12:34:08Z</time></trkpt><trkpt lat="45.67867997347728" lon="9.923563895966165"><ele>252.0</ele><time>2026-04-30T12:34:09Z</time></trkpt><trkpt lat="45.67861960610689" lon="9.923600644363324"><ele>251.39999999999998</ele><time>2026-04-30T12:34:10Z</time></trkpt><trkpt lat="45.67850411437089" lon="9.923676699640641"><ele>250.79999999999998</ele><time>2026-04-30T12:34:12Z</time></trkpt><trkpt lat="45.67839054483305" lon="9.923757323131214"><ele>250.2</ele><time>2026-04-30T12:34:14Z</time></trkpt><trkpt lat="45.6783300678274" lon="9.923790496373433"><ele>249.6</ele><time>2026-04-30T12:34:15Z</time></trkpt><trkpt lat="45.678273917253264" lon="9.92383816074139"><ele>249.0</ele><time>2026-04-30T12:34:16Z</time></trkpt><trkpt lat="45.678161340284106" lon="9.923911137115889"><ele>249.0</ele><time>2026-04-30T12:34:18Z</time></trkpt><trkpt lat="45.678100431026564" lon="9.923942763615907"><ele>249.0</ele><time>2026-04-30T12:34:19Z</time></trkpt><trkpt lat="45.678043455132254" lon="9.923996648338788"><ele>249.0</ele><time>2026-04-30T12:34:20Z</time></trkpt><trkpt lat="45.67798316436877" lon="9.924027053070596"><ele>249.0</ele><time>2026-04-30T12:34:21Z</time></trkpt><trkpt lat="45.67788113619728" lon="9.924113116143133"><ele>249.0</ele><time>2026-04-30T12:34:23Z</time></trkpt><trkpt lat="45.67781515687158" lon="9.924153026929933"><ele>249.0</ele><time>2026-04-30T12:34:24Z</time></trkpt><trkpt lat="45.677704098835015" lon="9.924226958585034"><ele>249.5</ele><time>2026-04-30T12:34:26Z</time></trkpt><trkpt lat="45.67764590611998" lon="9.924265616305128"><ele>250.0</ele><time>2026-04-30T12:34:27Z</time></trkpt><trkpt lat="45.67752985089242" lon="9.924342049981309"><ele>250.5</ele><time>2026-04-30T12:34:29Z</time></trkpt><trkpt lat="45.67741591690779" lon="9.924415893137892"><ele>251.0</ele><time>2026-04-30T12:34:31Z</time></trkpt><trkpt lat="45.67735920744285" lon="9.924457678783597"><ele>251.5</ele><time>2026-04-30T12:34:32Z</time></trkpt><trkpt lat="45.67730161355298" lon="9.924495991518025"><ele>252.0</ele><time>2026-04-30T12:34:33Z</time></trkpt><trkpt lat="45.67718697572137" lon="9.924571447876298"><ele>252.0</ele><time>2026-04-30T12:34:35Z</time></trkpt><trkpt lat="45.67712869613231" lon="9.924609182905975"><ele>252.0</ele><time>2026-04-30T12:34:36Z</time></trkpt><trkpt lat="45.67701718743077" lon="9.924682730731643"><ele>252.0</ele><time>2026-04-30T12:34:38Z</time></trkpt><trkpt lat="45.67690704658751" lon="9.924762063304087"><ele>252.0</ele><time>2026-04-30T12:34:40Z</time></trkpt><trkpt lat="45.67679457363573" lon="9.924838485990872"><ele>252.0</ele><time>2026-04-30T12:34:42Z</time></trkpt><trkpt lat="45.676684859387734" lon="9.924909525089776"><ele>253.0</ele><time>2026-04-30T12:34:44Z</time></trkpt><trkpt lat="45.67657241646365" lon="9.92498229585608"><ele>254.0</ele><time>2026-04-30T12:34:46Z</time></trkpt><trkpt lat="45.67646053432587" lon="9.925063979761"><ele>255.0</ele><time>2026-04-30T12:34:48Z</time></trkpt><trkpt lat="45.676357157986786" lon="9.925137525678698"><ele>256.0</ele><time>2026-04-30T12:34:50Z</time></trkpt><trkpt lat="45.67629711155936" lon="9.925177672981782"><ele>257.0</ele><time>2026-04-30T12:34:51Z</time></trkpt><trkpt lat="45.67619172561486" lon="9.925263679399837"><ele>258.6</ele><time>2026-04-30T12:34:53Z</time></trkpt><trkpt lat="45.67608542528736" lon="9.925337909170816"><ele>260.2</ele><time>2026-04-30T12:34:55Z</time></trkpt><trkpt lat="45.676030270105805" lon="9.925383082086434"><ele>261.8</ele><time>2026-04-30T12:34:56Z</time></trkpt><trkpt lat="45.67592407734026" lon="9.925469159186182"><ele>263.4</ele><time>2026-04-30T12:34:58Z</time></trkpt><trkpt lat="45.67581766951868" lon="9.925554200808483"><ele>265.0</ele><time>2026-04-30T12:35:00Z</time></trkpt><trkpt lat="45.675707694066546" lon="9.925642432644107"><ele>265.0</ele><time>2026-04-30T12:35:02Z</time></trkpt><trkpt lat="45.67559947644754" lon="9.925736572453042"><ele>265.0</ele><time>2026-04-30T12:35:04Z</time></trkpt><trkpt lat="45.67554365652603" lon="9.925779487607683"><ele>265.0</ele><time>2026-04-30T12:35:05Z</time></trkpt><trkpt lat="45.675488394389106" lon="9.9258297875405"><ele>265.0</ele><time>2026-04-30T12:35:06Z</time></trkpt><trkpt lat="45.67543072473638" lon="9.925879024326122"><ele>265.0</ele><time>2026-04-30T12:35:07Z</time></trkpt><trkpt lat="45.67536762943997" lon="9.925921850156307"><ele>265.0</ele><time>2026-04-30T12:35:08Z</time></trkpt><trkpt lat="45.675302076855544" lon="9.925975932392971"><ele>264.16666666666663</ele><time>2026-04-30T12:35:09Z</time></trkpt><trkpt lat="45.67523906682847" lon="9.926025130995775"><ele>263.3333333333333</ele><time>2026-04-30T12:35:10Z</time></trkpt><trkpt lat="45.67516989975024" lon="9.92607771801894"><ele>262.5</ele><time>2026-04-30T12:35:11Z</time></trkpt><trkpt lat="45.675099090218104" lon="9.926130265762227"><ele>261.6666666666667</ele><time>2026-04-30T12:35:12Z</time></trkpt><trkpt lat="45.67502476628743" lon="9.926173176285928"><ele>260.83333333333337</ele><time>2026-04-30T12:35:13Z</time></trkpt><trkpt lat="45.67494606387646" lon="9.926206077894882"><ele>260.0</ele><time>2026-04-30T12:35:14Z</time></trkpt><trkpt lat="45.67486247795336" lon="9.92622516756722"><ele>260.0</ele><time>2026-04-30T12:35:15Z</time></trkpt><trkpt lat="45.674779882951576" lon="9.926241802008027"><ele>260.0</ele><time>2026-04-30T12:35:16Z</time></trkpt><trkpt lat="45.67470054862089" lon="9.926259128457392"><ele>260.0</ele><time>2026-04-30T12:35:17Z</time></trkpt><trkpt lat="45.6746150473494" lon="9.92627739169977"><ele>260.0</ele><time>2026-04-30T12:35:18Z</time></trkpt><trkpt lat="45.67453004362651" lon="9.926292442168789"><ele>260.0</ele><time>2026-04-30T12:35:19Z</time></trkpt><trkpt lat="45.674444209840004" lon="9.926310366436304"><ele>260.0</ele><time>2026-04-30T12:35:20Z</time></trkpt><trkpt lat="45.67435937276685" lon="9.926324862608661"><ele>259.5</ele><time>2026-04-30T12:35:21Z</time></trkpt><trkpt lat="45.6742714744495" lon="9.926342073980642"><ele>259.0</ele><time>2026-04-30T12:35:22Z</time></trkpt><trkpt lat="45.674184012385936" lon="9.926356555332331"><ele>258.5</ele><time>2026-04-30T12:35:23Z</time></trkpt><trkpt lat="45.67409564324488" lon="9.926375527086908"><ele>258.0</ele><time>2026-04-30T12:35:24Z</time></trkpt><trkpt lat="45.67400843971071" lon="9.926388124048039"><ele>257.5</ele><time>2026-04-30T12:35:25Z</time></trkpt><trkpt lat="45.67391985080892" lon="9.926407035122432"><ele>257.0</ele><time>2026-04-30T12:35:26Z</time></trkpt><trkpt lat="45.67382963075162" lon="9.926430898380563"><ele>257.0</ele><time>2026-04-30T12:35:27Z</time></trkpt><trkpt lat="45.673739882437744" lon="9.926461744469089"><ele>257.0</ele><time>2026-04-30T12:35:28Z</time></trkpt><trkpt lat="45.67365131529271" lon="9.926506087191868"><ele>257.0</ele><time>2026-04-30T12:35:29Z</time></trkpt><trkpt lat="45.67356864907611" lon="9.926572134236116"><ele>257.0</ele><time>2026-04-30T12:35:30Z</time></trkpt><trkpt lat="45.6734950552796" lon="9.926663218058692"><ele>257.0</ele><time>2026-04-30T12:35:31Z</time></trkpt><trkpt lat="45.67343484954068" lon="9.926778022450314"><ele>255.0</ele><time>2026-04-30T12:35:32Z</time></trkpt><trkpt lat="45.67339290267944" lon="9.926909291729586"><ele>253.0</ele><time>2026-04-30T12:35:33Z</time></trkpt><trkpt lat="45.67337144295982" lon="9.927047552199388"><ele>251.0</ele><time>2026-04-30T12:35:34Z</time></trkpt><trkpt lat="45.673370424457445" lon="9.927198306537683"><ele>249.0</ele><time>2026-04-30T12:35:35Z</time></trkpt><trkpt lat="45.67338013690791" lon="9.927344620173441"><ele>247.0</ele><time>2026-04-30T12:35:36Z</time></trkpt><trkpt lat="45.673388012896325" lon="9.927491858094863"><ele>246.6</ele><time>2026-04-30T12:35:37Z</time></trkpt><trkpt lat="45.673387900588175" lon="9.92763212551097"><ele>246.2</ele><time>2026-04-30T12:35:38Z</time></trkpt><trkpt lat="45.67336800920036" lon="9.927778149077861"><ele>245.8</ele><time>2026-04-30T12:35:39Z</time></trkpt><trkpt lat="45.67333169021521" lon="9.927900205216169"><ele>245.4</ele><time>2026-04-30T12:35:40Z</time></trkpt><trkpt lat="45.673279264388434" lon="9.928008116972986"><ele>245.0</ele><time>2026-04-30T12:35:41Z</time></trkpt><trkpt lat="45.67320929482886" lon="9.928094296153033"><ele>245.00000000000003</ele><time>2026-04-30T12:35:42Z</time></trkpt><trkpt lat="45.67312650668076" lon="9.92815471430672"><ele>245.0</ele><time>2026-04-30T12:35:43Z</time></trkpt><trkpt lat="45.673045387541585" lon="9.928210157250435"><ele>245.0</ele><time>2026-04-30T12:35:44Z</time></trkpt><trkpt lat="45.67296248274617" lon="9.928256365804712"><ele>245.0</ele><time>2026-04-30T12:35:45Z</time></trkpt><trkpt lat="45.67288485905502" lon="9.92829837056075"><ele>245.00000000000003</ele><time>2026-04-30T12:35:46Z</time></trkpt><trkpt lat="45.672806961505735" lon="9.928348207017072"><ele>245.0</ele><time>2026-04-30T12:35:47Z</time></trkpt><trkpt lat="45.67272961970328" lon="9.928395539390285"><ele>243.83333333333334</ele><time>2026-04-30T12:35:48Z</time></trkpt><trkpt lat="45.672649251512006" lon="9.928436849285042"><ele>242.66666666666669</ele><time>2026-04-30T12:35:49Z</time></trkpt><trkpt lat="45.67257250365087" lon="9.928470575205948"><ele>241.5</ele><time>2026-04-30T12:35:50Z</time></trkpt><trkpt lat="45.67250044735302" lon="9.92849308342802"><ele>240.33333333333331</ele><time>2026-04-30T12:35:51Z</time></trkpt><trkpt lat="45.67242835542151" lon="9.928526883310333"><ele>239.16666666666666</ele><time>2026-04-30T12:35:52Z</time></trkpt><trkpt lat="45.67236213452795" lon="9.928575221127625"><ele>238.0</ele><time>2026-04-30T12:35:53Z</time></trkpt><trkpt lat="45.67229827862579" lon="9.928630693347555"><ele>237.99999999999997</ele><time>2026-04-30T12:35:54Z</time></trkpt><trkpt lat="45.67223602040091" lon="9.928688782165494"><ele>238.0</ele><time>2026-04-30T12:35:55Z</time></trkpt><trkpt lat="45.67217253972481" lon="9.928750287296097"><ele>238.0</ele><time>2026-04-30T12:35:56Z</time></trkpt><trkpt lat="45.672105558900846" lon="9.928812274924232"><ele>238.0</ele><time>2026-04-30T12:35:57Z</time></trkpt><trkpt lat="45.67203569384715" lon="9.928871966123795"><ele>237.99999999999997</ele><time>2026-04-30T12:35:58Z</time></trkpt><trkpt lat="45.67196697513188" lon="9.928936201381251"><ele>238.0</ele><time>2026-04-30T12:35:59Z</time></trkpt><trkpt lat="45.67189400736319" lon="9.92899843262956"><ele>237.49999999999997</ele><time>2026-04-30T12:36:00Z</time></trkpt><trkpt lat="45.67181844214117" lon="9.929061972825405"><ele>237.0</ele><time>2026-04-30T12:36:01Z</time></trkpt><trkpt lat="45.671741754810796" lon="9.929127300540811"><ele>236.5</ele><time>2026-04-30T12:36:02Z</time></trkpt><trkpt lat="45.671665943317315" lon="9.929199691097466"><ele>236.0</ele><time>2026-04-30T12:36:03Z</time></trkpt><trkpt lat="45.67159168668284" lon="9.929269711752372"><ele>235.49999999999997</ele><time>2026-04-30T12:36:04Z</time></trkpt><trkpt lat="45.67151381989208" lon="9.929328514670278"><ele>235.0</ele><time>2026-04-30T12:36:05Z</time></trkpt><trkpt lat="45.671433733291266" lon="9.929381288997394"><ele>234.66666666666666</ele><time>2026-04-30T12:36:06Z</time></trkpt><trkpt lat="45.67135240711541" lon="9.929428893674933"><ele>234.33333333333331</ele><time>2026-04-30T12:36:07Z</time></trkpt><trkpt lat="45.671270114209115" lon="9.9294678422407"><ele>234.0</ele><time>2026-04-30T12:36:08Z</time></trkpt><trkpt lat="45.67118547144949" lon="9.929501082034816"><ele>233.66666666666669</ele><time>2026-04-30T12:36:09Z</time></trkpt><trkpt lat="45.67110166089485" lon="9.929532517545272"><ele>233.33333333333334</ele><time>2026-04-30T12:36:10Z</time></trkpt><trkpt lat="45.67101741232838" lon="9.929564495886934"><ele>233.0</ele><time>2026-04-30T12:36:11Z</time></trkpt><trkpt lat="45.67093277849764" lon="9.929598683513504"><ele>232.50000000000003</ele><time>2026-04-30T12:36:12Z</time></trkpt><trkpt lat="45.670849674176566" lon="9.929632436359606"><ele>232.0</ele><time>2026-04-30T12:36:13Z</time></trkpt><trkpt lat="45.67076546852625" lon="9.929666620269547"><ele>231.5</ele><time>2026-04-30T12:36:14Z</time></trkpt><trkpt lat="45.67068271389199" lon="9.929699890069138"><ele>231.0</ele><time>2026-04-30T12:36:15Z</time></trkpt><trkpt lat="45.67059939841567" lon="9.929732503186456"><ele>230.50000000000003</ele><time>2026-04-30T12:36:16Z</time></trkpt><trkpt lat="45.67051692378842" lon="9.929765864678476"><ele>230.0</ele><time>2026-04-30T12:36:17Z</time></trkpt><trkpt lat="45.67043301107044" lon="9.929792676106795"><ele>230.00000000000003</ele><time>2026-04-30T12:36:18Z</time></trkpt><trkpt lat="45.670352450065" lon="9.92982425589614"><ele>230.0</ele><time>2026-04-30T12:36:19Z</time></trkpt><trkpt lat="45.670269738896486" lon="9.929857325774124"><ele>230.0</ele><time>2026-04-30T12:36:20Z</time></trkpt><trkpt lat="45.67018902328079" lon="9.929887965865428"><ele>230.0</ele><time>2026-04-30T12:36:21Z</time></trkpt><trkpt lat="45.67010787832258" lon="9.929911939100187"><ele>230.00000000000003</ele><time>2026-04-30T12:36:22Z</time></trkpt><trkpt lat="45.67002667169217" lon="9.929910253706192"><ele>230.0</ele><time>2026-04-30T12:36:23Z</time></trkpt><trkpt lat="45.66994466513119" lon="9.929912097632142"><ele>229.83333333333334</ele><time>2026-04-30T12:36:24Z</time></trkpt><trkpt lat="45.66986302531816" lon="9.929916274961743"><ele>229.66666666666669</ele><time>2026-04-30T12:36:25Z</time></trkpt><trkpt lat="45.66978095452481" lon="9.929922263074058"><ele>229.5</ele><time>2026-04-30T12:36:26Z</time></trkpt><trkpt lat="45.66970115199104" lon="9.92992869077865"><ele>229.33333333333331</ele><time>2026-04-30T12:36:27Z</time></trkpt><trkpt lat="45.66962144323684" lon="9.929934053328676"><ele>229.16666666666666</ele><time>2026-04-30T12:36:28Z</time></trkpt><trkpt lat="45.66954207025508" lon="9.92993663546342"><ele>229.0</ele><time>2026-04-30T12:36:29Z</time></trkpt><trkpt lat="45.66946366600411" lon="9.929939367071489"><ele>229.0</ele><time>2026-04-30T12:36:30Z</time></trkpt><trkpt lat="45.669388458329465" lon="9.929940321792898"><ele>229.0</ele><time>2026-04-30T12:36:31Z</time></trkpt><trkpt lat="45.66931303378169" lon="9.929946128134588"><ele>229.0</ele><time>2026-04-30T12:36:32Z</time></trkpt><trkpt lat="45.669237677450106" lon="9.92994840067796"><ele>229.0</ele><time>2026-04-30T12:36:33Z</time></trkpt><trkpt lat="45.66916264636378" lon="9.929950354353286"><ele>229.0</ele><time>2026-04-30T12:36:34Z</time></trkpt><trkpt lat="45.66908894411478" lon="9.929955220602416"><ele>229.0</ele><time>2026-04-30T12:36:35Z</time></trkpt><trkpt lat="45.669015305180814" lon="9.929961547886224"><ele>229.0</ele><time>2026-04-30T12:36:36Z</time></trkpt><trkpt lat="45.66894376929207" lon="9.929967457485173"><ele>229.0</ele><time>2026-04-30T12:36:37Z</time></trkpt><trkpt lat="45.66887257656027" lon="9.929975176642237"><ele>229.0</ele><time>2026-04-30T12:36:38Z</time></trkpt><trkpt lat="45.668802674373005" lon="9.929978090632899"><ele>229.0</ele><time>2026-04-30T12:36:39Z</time></trkpt><trkpt lat="45.66873230192275" lon="9.92998231253323"><ele>229.0</ele><time>2026-04-30T12:36:40Z</time></trkpt><trkpt lat="45.668663891162005" lon="9.92998270668491"><ele>229.0</ele><time>2026-04-30T12:36:41Z</time></trkpt><trkpt lat="45.66859545892987" lon="9.929985563756246"><ele>229.0</ele><time>2026-04-30T12:36:42Z</time></trkpt><trkpt lat="45.66852907946497" lon="9.929989031779533"><ele>229.0</ele><time>2026-04-30T12:36:43Z</time></trkpt><trkpt lat="45.66846363099861" lon="9.929995246139061"><ele>228.71428571428572</ele><time>2026-04-30T12:36:44Z</time></trkpt><trkpt lat="45.66839854736629" lon="9.93000357430065"><ele>228.42857142857144</ele><time>2026-04-30T12:36:45Z</time></trkpt><trkpt lat="45.668333565665094" lon="9.930008692194818"><ele>228.14285714285717</ele><time>2026-04-30T12:36:46Z</time></trkpt><trkpt lat="45.66826742862287" lon="9.9300143909835"><ele>227.85714285714286</ele><time>2026-04-30T12:36:47Z</time></trkpt><trkpt lat="45.66820153520079" lon="9.93001521894011"><ele>227.5714285714286</ele><time>2026-04-30T12:36:48Z</time></trkpt><trkpt lat="45.6681379852386" lon="9.930021988983356"><ele>227.2857142857143</ele><time>2026-04-30T12:36:49Z</time></trkpt><trkpt lat="45.668073555685744" lon="9.930026144734773"><ele>227.0</ele><time>2026-04-30T12:36:50Z</time></trkpt><trkpt lat="45.66795253446856" lon="9.930001700110928"><ele>227.00000000000003</ele><time>2026-04-30T12:36:52Z</time></trkpt><trkpt lat="45.6678526992862" lon="9.929911989172817"><ele>227.0</ele><time>2026-04-30T12:36:54Z</time></trkpt><trkpt lat="45.66773056226277" lon="9.929895077353859"><ele>227.0</ele><time>2026-04-30T12:36:56Z</time></trkpt><trkpt lat="45.667669476674895" lon="9.929939904828597"><ele>227.0</ele><time>2026-04-30T12:36:57Z</time></trkpt><trkpt lat="45.667610510374" lon="9.92998335365022"><ele>227.00000000000003</ele><time>2026-04-30T12:36:58Z</time></trkpt><trkpt lat="45.66755071924501" lon="9.930027563555202"><ele>227.0</ele><time>2026-04-30T12:36:59Z</time></trkpt><trkpt lat="45.667487186546886" lon="9.930056194121828"><ele>227.0</ele><time>2026-04-30T12:37:00Z</time></trkpt><trkpt lat="45.66742393793881" lon="9.930072448344127"><ele>227.0</ele><time>2026-04-30T12:37:01Z</time></trkpt><trkpt lat="45.66729242565956" lon="9.930072677200753"><ele>227.0</ele><time>2026-04-30T12:37:03Z</time></trkpt><trkpt lat="45.66716917394405" lon="9.93008158432782"><ele>227.0</ele><time>2026-04-30T12:37:05Z</time></trkpt><trkpt lat="45.66704202823651" lon="9.930090320850185"><ele>227.0</ele><time>2026-04-30T12:37:07Z</time></trkpt><trkpt lat="45.66691558116635" lon="9.930090994684496"><ele>227.0</ele><time>2026-04-30T12:37:09Z</time></trkpt><trkpt lat="45.66685227549393" lon="9.930093590041208"><ele>227.0</ele><time>2026-04-30T12:37:10Z</time></trkpt><trkpt lat="45.66678780410065" lon="9.930104230299563"><ele>227.0</ele><time>2026-04-30T12:37:11Z</time></trkpt><trkpt lat="45.66672463995629" lon="9.930114771617644"><ele>227.0</ele><time>2026-04-30T12:37:12Z</time></trkpt><trkpt lat="45.666658464437525" lon="9.93011565729277"><ele>227.0</ele><time>2026-04-30T12:37:13Z</time></trkpt><trkpt lat="45.66659530531284" lon="9.930117821191176"><ele>227.0</ele><time>2026-04-30T12:37:14Z</time></trkpt><trkpt lat="45.66653114033739" lon="9.930123239007305"><ele>227.0</ele><time>2026-04-30T12:37:15Z</time></trkpt><trkpt lat="45.66646803731866" lon="9.930131320044604"><ele>227.0</ele><time>2026-04-30T12:37:16Z</time></trkpt><trkpt lat="45.666404558323414" lon="9.930140974472147"><ele>227.00000000000003</ele><time>2026-04-30T12:37:17Z</time></trkpt><trkpt lat="45.66634128514667" lon="9.930146487701986"><ele>227.0</ele><time>2026-04-30T12:37:18Z</time></trkpt><trkpt lat="45.66627807928077" lon="9.930156787164997"><ele>227.0</ele><time>2026-04-30T12:37:19Z</time></trkpt><trkpt lat="45.666214230131516" lon="9.93017027682166"><ele>227.0</ele><time>2026-04-30T12:37:20Z</time></trkpt><trkpt lat="45.66609267445709" lon="9.930211016078289"><ele>227.00000000000003</ele><time>2026-04-30T12:37:22Z</time></trkpt><trkpt lat="45.66597201964876" lon="9.930262962812195"><ele>227.0</ele><time>2026-04-30T12:37:24Z</time></trkpt><trkpt lat="45.66591217430686" lon="9.93029985813264"><ele>227.2857142857143</ele><time>2026-04-30T12:37:25Z</time></trkpt><trkpt lat="45.66579661579677" lon="9.930373995183912"><ele>227.5714285714286</ele><time>2026-04-30T12:37:27Z</time></trkpt><trkpt lat="45.66573971954834" lon="9.930414679414746"><ele>227.85714285714286</ele><time>2026-04-30T12:37:28Z</time></trkpt><trkpt lat="45.665685071161946" lon="9.930463244124464"><ele>228.14285714285717</ele><time>2026-04-30T12:37:29Z</time></trkpt><trkpt lat="45.6656313644716" lon="9.93051421307222"><ele>228.42857142857144</ele><time>2026-04-30T12:37:30Z</time></trkpt><trkpt lat="45.665578398273496" lon="9.930567099571586"><ele>228.71428571428572</ele><time>2026-04-30T12:37:31Z</time></trkpt><trkpt lat="45.6655253806243" lon="9.930619775268854"><ele>229.0</ele><time>2026-04-30T12:37:32Z</time></trkpt><trkpt lat="45.665469633955325" lon="9.930672607183055"><ele>229.0</ele><time>2026-04-30T12:37:33Z</time></trkpt><trkpt lat="45.665419011341655" lon="9.930728879779803"><ele>228.99999999999997</ele><time>2026-04-30T12:37:34Z</time></trkpt><trkpt lat="45.6653084580869" lon="9.930829449791155"><ele>228.99999999999997</ele><time>2026-04-30T12:37:36Z</time></trkpt><trkpt lat="45.66520936773778" lon="9.930935699154787"><ele>229.0</ele><time>2026-04-30T12:37:38Z</time></trkpt><trkpt lat="45.665099601804734" lon="9.931005940258325"><ele>229.0</ele><time>2026-04-30T12:37:40Z</time></trkpt><trkpt lat="45.66497659553983" lon="9.931016271782408"><ele>229.14285714285714</ele><time>2026-04-30T12:37:42Z</time></trkpt><trkpt lat="45.66491209149704" lon="9.931014747727422"><ele>229.28571428571428</ele><time>2026-04-30T12:37:43Z</time></trkpt><trkpt lat="45.66484751225935" lon="9.931025732855026"><ele>229.42857142857142</ele><time>2026-04-30T12:37:44Z</time></trkpt><trkpt lat="45.66478458475662" lon="9.931051136353954"><ele>229.57142857142856</ele><time>2026-04-30T12:37:45Z</time></trkpt><trkpt lat="45.664720917352206" lon="9.931081796739521"><ele>229.71428571428572</ele><time>2026-04-30T12:37:46Z</time></trkpt><trkpt lat="45.6646562857479" lon="9.93109701850468"><ele>229.85714285714283</ele><time>2026-04-30T12:37:47Z</time></trkpt><trkpt lat="45.664588880131525" lon="9.931088740255689"><ele>229.99999999999997</ele><time>2026-04-30T12:37:48Z</time></trkpt><trkpt lat="45.6645265633476" lon="9.93105967884092"><ele>229.99999999999997</ele><time>2026-04-30T12:37:49Z</time></trkpt><trkpt lat="45.66446319710209" lon="9.931026586444078"><ele>230.0</ele><time>2026-04-30T12:37:50Z</time></trkpt><trkpt lat="45.66440084979674" lon="9.930996273041472"><ele>229.99999999999997</ele><time>2026-04-30T12:37:51Z</time></trkpt><trkpt lat="45.66433530132171" lon="9.93096941188984"><ele>229.99999999999997</ele><time>2026-04-30T12:37:52Z</time></trkpt><trkpt lat="45.66427112961215" lon="9.93094644038799"><ele>230.0</ele><time>2026-04-30T12:37:53Z</time></trkpt><trkpt lat="45.664205033310495" lon="9.930925795669408"><ele>229.99999999999997</ele><time>2026-04-30T12:37:54Z</time></trkpt><trkpt lat="45.664139884283706" lon="9.930905032350205"><ele>229.99999999999997</ele><time>2026-04-30T12:37:55Z</time></trkpt><trkpt lat="45.66407281451999" lon="9.930886633339306"><ele>229.99999999999997</ele><time>2026-04-30T12:37:56Z</time></trkpt><trkpt lat="45.664006690302344" lon="9.930866930643237"><ele>230.0</ele><time>2026-04-30T12:37:57Z</time></trkpt><trkpt lat="45.66394136025672" lon="9.930846966938134"><ele>229.99999999999997</ele><time>2026-04-30T12:37:58Z</time></trkpt><trkpt lat="45.66387562555588" lon="9.93082502209465"><ele>229.99999999999997</ele><time>2026-04-30T12:37:59Z</time></trkpt><trkpt lat="45.663811431080966" lon="9.930794138976596"><ele>230.0</ele><time>2026-04-30T12:38:00Z</time></trkpt><trkpt lat="45.66375007755973" lon="9.930761489324823"><ele>229.99999999999997</ele><time>2026-04-30T12:38:01Z</time></trkpt><trkpt lat="45.66368615669177" lon="9.930731209412334"><ele>229.99999999999997</ele><time>2026-04-30T12:38:02Z</time></trkpt><trkpt lat="45.663623157585995" lon="9.930699944047543"><ele>231.57142857142856</ele><time>2026-04-30T12:38:03Z</time></trkpt><trkpt lat="45.66356332084795" lon="9.93066025128516"><ele>233.14285714285714</ele><time>2026-04-30T12:38:04Z</time></trkpt><trkpt lat="45.66350588449513" lon="9.93061489373642"><ele>234.71428571428572</ele><time>2026-04-30T12:38:05Z</time></trkpt><trkpt lat="45.66344916047075" lon="9.930568456762773"><ele>236.28571428571428</ele><time>2026-04-30T12:38:06Z</time></trkpt><trkpt lat="45.6633919858531" lon="9.930521849332289"><ele>237.8571428571429</ele><time>2026-04-30T12:38:07Z</time></trkpt><trkpt lat="45.66333775675419" lon="9.930469915095516"><ele>239.42857142857144</ele><time>2026-04-30T12:38:08Z</time></trkpt><trkpt lat="45.66328429401093" lon="9.93041632085547"><ele>241.0</ele><time>2026-04-30T12:38:09Z</time></trkpt><trkpt lat="45.663227643004774" lon="9.930364505225471"><ele>241.0</ele><time>2026-04-30T12:38:10Z</time></trkpt><trkpt lat="45.66317366367146" lon="9.930313943763878"><ele>241.00000000000003</ele><time>2026-04-30T12:38:11Z</time></trkpt><trkpt lat="45.66311816754267" lon="9.930263719848446"><ele>241.0</ele><time>2026-04-30T12:38:12Z</time></trkpt><trkpt lat="45.66306150829137" lon="9.930216967109784"><ele>241.0</ele><time>2026-04-30T12:38:13Z</time></trkpt><trkpt lat="45.66300736720033" lon="9.930167650631574"><ele>241.00000000000003</ele><time>2026-04-30T12:38:14Z</time></trkpt><trkpt lat="45.66295323377978" lon="9.930115190253806"><ele>241.0</ele><time>2026-04-30T12:38:15Z</time></trkpt><trkpt lat="45.66289914493007" lon="9.930059007918919"><ele>241.0</ele><time>2026-04-30T12:38:16Z</time></trkpt><trkpt lat="45.66279316753178" lon="9.929951470129987"><ele>240.0</ele><time>2026-04-30T12:38:18Z</time></trkpt><trkpt lat="45.66269219839116" lon="9.929851500441476"><ele>239.00000000000003</ele><time>2026-04-30T12:38:20Z</time></trkpt><trkpt lat="45.662586613470936" lon="9.92975385146807"><ele>238.00000000000003</ele><time>2026-04-30T12:38:22Z</time></trkpt><trkpt lat="45.66252907312251" lon="9.929687904407924"><ele>237.0</ele><time>2026-04-30T12:38:23Z</time></trkpt><trkpt lat="45.66246897875117" lon="9.92963306739094"><ele>236.0</ele><time>2026-04-30T12:38:24Z</time></trkpt><trkpt lat="45.66240791290987" lon="9.929570461532755"><ele>236.00000000000003</ele><time>2026-04-30T12:38:25Z</time></trkpt><trkpt lat="45.66231944237856" lon="9.929479775216269"><ele>236.0</ele><time>2026-04-30T12:38:27Z</time></trkpt><trkpt lat="45.66225783115057" lon="9.929424706803454"><ele>236.0</ele><time>2026-04-30T12:38:28Z</time></trkpt><trkpt lat="45.662173241975594" lon="9.929283947962166"><ele>236.0</ele><time>2026-04-30T12:38:30Z</time></trkpt><trkpt lat="45.66212596355468" lon="9.929221672611899"><ele>236.00000000000003</ele><time>2026-04-30T12:38:31Z</time></trkpt><trkpt lat="45.662078529800105" lon="9.929161990619836"><ele>236.0</ele><time>2026-04-30T12:38:32Z</time></trkpt><trkpt lat="45.66204290039896" lon="9.929085483201701"><ele>234.0</ele><time>2026-04-30T12:38:33Z</time></trkpt><trkpt lat="45.66199600028489" lon="9.929014778397741"><ele>232.00000000000003</ele><time>2026-04-30T12:38:34Z</time></trkpt><trkpt lat="45.661925563245454" lon="9.928873246140979"><ele>230.00000000000003</ele><time>2026-04-30T12:38:36Z</time></trkpt><trkpt lat="45.6619195358481" lon="9.928714427363543"><ele>228.0</ele><time>2026-04-30T12:38:38Z</time></trkpt><trkpt lat="45.66183738563209" lon="9.9285921730411"><ele>226.0</ele><time>2026-04-30T12:38:40Z</time></trkpt><trkpt lat="45.66177357314904" lon="9.928575941154467"><ele>226.0</ele><time>2026-04-30T12:38:41Z</time></trkpt><trkpt lat="45.66170920684654" lon="9.928564518397705"><ele>226.00000000000003</ele><time>2026-04-30T12:38:42Z</time></trkpt><trkpt lat="45.661642494029635" lon="9.928531816024776"><ele>226.00000000000003</ele><time>2026-04-30T12:38:43Z</time></trkpt><trkpt lat="45.661532049938515" lon="9.928459687827548"><ele>226.0</ele><time>2026-04-30T12:38:45Z</time></trkpt><trkpt lat="45.661414190919764" lon="9.928413469706511"><ele>226.0</ele><time>2026-04-30T12:38:47Z</time></trkpt><trkpt lat="45.661291123332745" lon="9.928366745776762"><ele>225.83333333333331</ele><time>2026-04-30T12:38:49Z</time></trkpt><trkpt lat="45.66116964263735" lon="9.928308307177058"><ele>225.66666666666666</ele><time>2026-04-30T12:38:51Z</time></trkpt><trkpt lat="45.66110532017214" lon="9.928247620743742"><ele>225.5</ele><time>2026-04-30T12:38:52Z</time></trkpt><trkpt lat="45.66104305852135" lon="9.928187599468796"><ele>225.33333333333331</ele><time>2026-04-30T12:38:53Z</time></trkpt><trkpt lat="45.66097660763764" lon="9.928164878413677"><ele>225.16666666666666</ele><time>2026-04-30T12:38:54Z</time></trkpt><trkpt lat="45.66091640725726" lon="9.928131493457265"><ele>225.0</ele><time>2026-04-30T12:38:55Z</time></trkpt><trkpt lat="45.660846648134815" lon="9.928089864890854"><ele>224.8571428571429</ele><time>2026-04-30T12:38:56Z</time></trkpt><trkpt lat="45.66078353840708" lon="9.928051074056436"><ele>224.71428571428572</ele><time>2026-04-30T12:38:57Z</time></trkpt><trkpt lat="45.66072094095013" lon="9.928006695060862"><ele>224.57142857142858</ele><time>2026-04-30T12:38:58Z</time></trkpt><trkpt lat="45.66065975530567" lon="9.927960696629171"><ele>224.42857142857144</ele><time>2026-04-30T12:38:59Z</time></trkpt><trkpt lat="45.66060314458346" lon="9.927913253495078"><ele>224.28571428571428</ele><time>2026-04-30T12:39:00Z</time></trkpt><trkpt lat="45.6605427096874" lon="9.927869125744268"><ele>224.14285714285714</ele><time>2026-04-30T12:39:01Z</time></trkpt><trkpt lat="45.66047499689241" lon="9.92782077421069"><ele>224.0</ele><time>2026-04-30T12:39:02Z</time></trkpt><trkpt lat="45.66040291513733" lon="9.92776589176963"><ele>224.00000000000003</ele><time>2026-04-30T12:39:03Z</time></trkpt><trkpt lat="45.66034580928524" lon="9.927718262847572"><ele>224.0</ele><time>2026-04-30T12:39:04Z</time></trkpt><trkpt lat="45.6602839718061" lon="9.92765428775229"><ele>224.0</ele><time>2026-04-30T12:39:05Z</time></trkpt><trkpt lat="45.660225447878375" lon="9.927579572756075"><ele>224.0</ele><time>2026-04-30T12:39:06Z</time></trkpt><trkpt lat="45.66016121047834" lon="9.92751767479632"><ele>224.00000000000003</ele><time>2026-04-30T12:39:07Z</time></trkpt><trkpt lat="45.660097257547406" lon="9.927446872887566"><ele>224.0</ele><time>2026-04-30T12:39:08Z</time></trkpt><trkpt lat="45.660036933401194" lon="9.927371328616832"><ele>223.16666666666669</ele><time>2026-04-30T12:39:09Z</time></trkpt><trkpt lat="45.659970309552605" lon="9.92729275656483"><ele>222.33333333333334</ele><time>2026-04-30T12:39:10Z</time></trkpt><trkpt lat="45.659908865512975" lon="9.927203296440712"><ele>221.5</ele><time>2026-04-30T12:39:11Z</time></trkpt><trkpt lat="45.65985984951556" lon="9.927095166097669"><ele>220.66666666666669</ele><time>2026-04-30T12:39:12Z</time></trkpt><trkpt lat="45.65982172029122" lon="9.926981878214036"><ele>219.83333333333334</ele><time>2026-04-30T12:39:13Z</time></trkpt><trkpt lat="45.65979142225841" lon="9.926865767502498"><ele>219.0</ele><time>2026-04-30T12:39:14Z</time></trkpt><trkpt lat="45.659758797646795" lon="9.926760700457317"><ele>218.66666666666666</ele><time>2026-04-30T12:39:15Z</time></trkpt><trkpt lat="45.65970781819542" lon="9.926668458293676"><ele>218.33333333333331</ele><time>2026-04-30T12:39:16Z</time></trkpt><trkpt lat="45.6596491331645" lon="9.926600361735339"><ele>218.0</ele><time>2026-04-30T12:39:17Z</time></trkpt><trkpt lat="45.65959483318806" lon="9.9265105374496"><ele>217.66666666666666</ele><time>2026-04-30T12:39:18Z</time></trkpt><trkpt lat="45.6595399565876" lon="9.926433219116513"><ele>217.33333333333331</ele><time>2026-04-30T12:39:19Z</time></trkpt><trkpt lat="45.65947401449003" lon="9.926369603956514"><ele>217.0</ele><time>2026-04-30T12:39:20Z</time></trkpt><trkpt lat="45.65940495056017" lon="9.926317601300317"><ele>217.0</ele><time>2026-04-30T12:39:21Z</time></trkpt><trkpt lat="45.6593422547996" lon="9.926257693780995"><ele>217.0</ele><time>2026-04-30T12:39:22Z</time></trkpt><trkpt lat="45.65928028089485" lon="9.926203353507066"><ele>217.0</ele><time>2026-04-30T12:39:23Z</time></trkpt><trkpt lat="45.65922255699044" lon="9.926150049235353"><ele>217.0</ele><time>2026-04-30T12:39:24Z</time></trkpt><trkpt lat="45.65916578076238" lon="9.926093702830125"><ele>217.0</ele><time>2026-04-30T12:39:25Z</time></trkpt><trkpt lat="45.65911173354593" lon="9.926034599975837"><ele>217.0</ele><time>2026-04-30T12:39:26Z</time></trkpt><trkpt lat="45.65905411569753" lon="9.925994814476878"><ele>217.0</ele><time>2026-04-30T12:39:27Z</time></trkpt><trkpt lat="45.658948324607174" lon="9.925888133829575"><ele>217.14285714285714</ele><time>2026-04-30T12:39:29Z</time></trkpt><trkpt lat="45.65889391288207" lon="9.92583993848968"><ele>217.28571428571428</ele><time>2026-04-30T12:39:30Z</time></trkpt><trkpt lat="45.65883882732235" lon="9.925794632256801"><ele>217.42857142857144</ele><time>2026-04-30T12:39:31Z</time></trkpt><trkpt lat="45.65878342185287" lon="9.925748105447576"><ele>217.57142857142856</ele><time>2026-04-30T12:39:32Z</time></trkpt><trkpt lat="45.65867516025852" lon="9.925652306701672"><ele>217.71428571428572</ele><time>2026-04-30T12:39:34Z</time></trkpt><trkpt lat="45.65861965176083" lon="9.925607055513476"><ele>217.85714285714286</ele><time>2026-04-30T12:39:35Z</time></trkpt><trkpt lat="45.658564401606455" lon="9.92556052795343"><ele>218.0</ele><time>2026-04-30T12:39:36Z</time></trkpt><trkpt lat="45.65850731942116" lon="9.925514677593334"><ele>218.00000000000003</ele><time>2026-04-30T12:39:37Z</time></trkpt><trkpt lat="45.65845239673479" lon="9.925463050727666"><ele>218.0</ele><time>2026-04-30T12:39:38Z</time></trkpt><trkpt lat="45.65839575987482" lon="9.925413931635095"><ele>218.0</ele><time>2026-04-30T12:39:39Z</time></trkpt><trkpt lat="45.65828500420265" lon="9.925325009466006"><ele>218.0</ele><time>2026-04-30T12:39:41Z</time></trkpt><trkpt lat="45.65823075969833" lon="9.925279145271483"><ele>218.00000000000003</ele><time>2026-04-30T12:39:42Z</time></trkpt><trkpt lat="45.65812722822441" lon="9.925182440618709"><ele>218.0</ele><time>2026-04-30T12:39:44Z</time></trkpt><trkpt lat="45.65807315426752" lon="9.925127579255607"><ele>218.0</ele><time>2026-04-30T12:39:45Z</time></trkpt><trkpt lat="45.65801871194797" lon="9.925076145692113"><ele>218.0</ele><time>2026-04-30T12:39:46Z</time></trkpt><trkpt lat="45.65796286668947" lon="9.925028556936889"><ele>218.0</ele><time>2026-04-30T12:39:47Z</time></trkpt><trkpt lat="45.65790978095413" lon="9.924976300114674"><ele>218.0</ele><time>2026-04-30T12:39:48Z</time></trkpt><trkpt lat="45.65785434885359" lon="9.92492957358092"><ele>218.0</ele><time>2026-04-30T12:39:49Z</time></trkpt><trkpt lat="45.657798978617585" lon="9.924885191996111"><ele>218.0</ele><time>2026-04-30T12:39:50Z</time></trkpt><trkpt lat="45.65774452767626" lon="9.924835079082001"><ele>218.0</ele><time>2026-04-30T12:39:51Z</time></trkpt><trkpt lat="45.65769093926562" lon="9.924784324948945"><ele>218.66666666666669</ele><time>2026-04-30T12:39:52Z</time></trkpt><trkpt lat="45.65758676918871" lon="9.924674280793072"><ele>219.33333333333334</ele><time>2026-04-30T12:39:54Z</time></trkpt><trkpt lat="45.65753460239201" lon="9.924619286986927"><ele>220.0</ele><time>2026-04-30T12:39:55Z</time></trkpt><trkpt lat="45.65748582091448" lon="9.924558386402607"><ele>220.66666666666669</ele><time>2026-04-30T12:39:56Z</time></trkpt><trkpt lat="45.65743630159492" lon="9.924502087508493"><ele>221.33333333333334</ele><time>2026-04-30T12:39:57Z</time></trkpt><trkpt lat="45.657385739078144" lon="9.924445908667643"><ele>222.0</ele><time>2026-04-30T12:39:58Z</time></trkpt><trkpt lat="45.657292596158705" lon="9.924327161518026"><ele>222.0</ele><time>2026-04-30T12:40:00Z</time></trkpt><trkpt lat="45.65724796150892" lon="9.924258713347404"><ele>222.0</ele><time>2026-04-30T12:40:01Z</time></trkpt><trkpt lat="45.657200387402405" lon="9.924195289346647"><ele>222.0</ele><time>2026-04-30T12:40:02Z</time></trkpt><trkpt lat="45.65715617739166" lon="9.924124579573808"><ele>222.0</ele><time>2026-04-30T12:40:03Z</time></trkpt><trkpt lat="45.65706367308827" lon="9.92399789911068"><ele>222.0</ele><time>2026-04-30T12:40:05Z</time></trkpt><trkpt lat="45.656975050901146" lon="9.92386652103319"><ele>222.0</ele><time>2026-04-30T12:40:07Z</time></trkpt><trkpt lat="45.65688579443088" lon="9.92373645173904"><ele>222.0</ele><time>2026-04-30T12:40:09Z</time></trkpt><trkpt lat="45.6567962869618" lon="9.923605509721787"><ele>222.0</ele><time>2026-04-30T12:40:11Z</time></trkpt><trkpt lat="45.6567589120457" lon="9.923531783807121"><ele>222.0</ele><time>2026-04-30T12:40:12Z</time></trkpt><trkpt lat="45.65671944714434" lon="9.923459995893975"><ele>222.0</ele><time>2026-04-30T12:40:13Z</time></trkpt><trkpt lat="45.656679098510345" lon="9.923385698211305"><ele>222.0</ele><time>2026-04-30T12:40:14Z</time></trkpt><trkpt lat="45.65664222406697" lon="9.923309616078585"><ele>223.33333333333334</ele><time>2026-04-30T12:40:15Z</time></trkpt><trkpt lat="45.656612462001284" lon="9.923228114251573"><ele>224.66666666666669</ele><time>2026-04-30T12:40:16Z</time></trkpt><trkpt lat="45.65658078979576" lon="9.923136574932345"><ele>226.0</ele><time>2026-04-30T12:40:17Z</time></trkpt><trkpt lat="45.656577224231334" lon="9.923043646195694"><ele>227.33333333333334</ele><time>2026-04-30T12:40:18Z</time></trkpt><trkpt lat="45.656542847201756" lon="9.922962772239801"><ele>228.66666666666669</ele><time>2026-04-30T12:40:19Z</time></trkpt><trkpt lat="45.65643656458232" lon="9.922869451834604"><ele>230.0</ele><time>2026-04-30T12:40:21Z</time></trkpt><trkpt lat="45.65637425802726" lon="9.92284744800067"><ele>230.00000000000003</ele><time>2026-04-30T12:40:22Z</time></trkpt><trkpt lat="45.65631408007099" lon="9.92282002620837"><ele>230.0</ele><time>2026-04-30T12:40:23Z</time></trkpt><trkpt lat="45.65625566716023" lon="9.922774853423034"><ele>230.0</ele><time>2026-04-30T12:40:24Z</time></trkpt><trkpt lat="45.65616459687564" lon="9.922651972180345"><ele>230.0</ele><time>2026-04-30T12:40:26Z</time></trkpt><trkpt lat="45.65611650841389" lon="9.922585323996236"><ele>230.00000000000003</ele><time>2026-04-30T12:40:27Z</time></trkpt><trkpt lat="45.6560368612675" lon="9.922454467014001"><ele>230.0</ele><time>2026-04-30T12:40:29Z</time></trkpt><trkpt lat="45.655960819341026" lon="9.922313492316349"><ele>228.8</ele><time>2026-04-30T12:40:31Z</time></trkpt><trkpt lat="45.655892183522624" lon="9.922168899654093"><ele>227.6</ele><time>2026-04-30T12:40:33Z</time></trkpt><trkpt lat="45.65581197948445" lon="9.92203665700261"><ele>226.39999999999998</ele><time>2026-04-30T12:40:35Z</time></trkpt><trkpt lat="45.655766955250215" lon="9.921972265994734"><ele>225.2</ele><time>2026-04-30T12:40:36Z</time></trkpt><trkpt lat="45.65569178305054" lon="9.921835726978356"><ele>224.0</ele><time>2026-04-30T12:40:38Z</time></trkpt><trkpt lat="45.65562102781396" lon="9.921692246474757"><ele>223.375</ele><time>2026-04-30T12:40:40Z</time></trkpt><trkpt lat="45.65558083917249" lon="9.92161937686134"><ele>222.75</ele><time>2026-04-30T12:40:41Z</time></trkpt><trkpt lat="45.65554066486677" lon="9.921548576522616"><ele>222.125</ele><time>2026-04-30T12:40:42Z</time></trkpt><trkpt lat="45.65550227352152" lon="9.92147600537177"><ele>221.5</ele><time>2026-04-30T12:40:43Z</time></trkpt><trkpt lat="45.65546605188252" lon="9.921401576296367"><ele>220.875</ele><time>2026-04-30T12:40:44Z</time></trkpt><trkpt lat="45.65543157972447" lon="9.921324584227628"><ele>220.25</ele><time>2026-04-30T12:40:45Z</time></trkpt><trkpt lat="45.65539683993434" lon="9.921247824728775"><ele>219.625</ele><time>2026-04-30T12:40:46Z</time></trkpt><trkpt lat="45.65535548852878" lon="9.921174195660353"><ele>219.0</ele><time>2026-04-30T12:40:47Z</time></trkpt><trkpt lat="45.655271621006605" lon="9.921039029073919"><ele>219.0</ele><time>2026-04-30T12:40:49Z</time></trkpt><trkpt lat="45.655191735900374" lon="9.920902940584385"><ele>219.0</ele><time>2026-04-30T12:40:51Z</time></trkpt><trkpt lat="45.65511099361021" lon="9.920767498258488"><ele>219.0</ele><time>2026-04-30T12:40:53Z</time></trkpt><trkpt lat="45.65503132247804" lon="9.920632342073558"><ele>219.0</ele><time>2026-04-30T12:40:55Z</time></trkpt><trkpt lat="45.65495069671977" lon="9.920498870236242"><ele>220.66666666666666</ele><time>2026-04-30T12:40:57Z</time></trkpt><trkpt lat="45.6549098885731" lon="9.920429889450261"><ele>222.33333333333331</ele><time>2026-04-30T12:40:58Z</time></trkpt><trkpt lat="45.65482723639213" lon="9.920302542042254"><ele>224.0</ele><time>2026-04-30T12:41:00Z</time></trkpt><trkpt lat="45.654737501340854" lon="9.920180315430645"><ele>225.66666666666666</ele><time>2026-04-30T12:41:02Z</time></trkpt><trkpt lat="45.65468283386697" lon="9.92013004732528"><ele>227.33333333333331</ele><time>2026-04-30T12:41:03Z</time></trkpt><trkpt lat="45.654628671644836" lon="9.920079504969701"><ele>229.0</ele><time>2026-04-30T12:41:04Z</time></trkpt><trkpt lat="45.65452880420257" lon="9.919969368090463"><ele>230.2</ele><time>2026-04-30T12:41:06Z</time></trkpt><trkpt lat="45.654432975896405" lon="9.919858039818942"><ele>231.39999999999998</ele><time>2026-04-30T12:41:08Z</time></trkpt><trkpt lat="45.65433761832004" lon="9.919739936376692"><ele>232.6</ele><time>2026-04-30T12:41:10Z</time></trkpt><trkpt lat="45.654248801329175" lon="9.919629183781051"><ele>233.8</ele><time>2026-04-30T12:41:12Z</time></trkpt><trkpt lat="45.65420420862522" lon="9.919560996807636"><ele>235.0</ele><time>2026-04-30T12:41:13Z</time></trkpt><trkpt lat="45.654121530653384" lon="9.91942960133233"><ele>235.0</ele><time>2026-04-30T12:41:15Z</time></trkpt><trkpt lat="45.65404576474075" lon="9.919293380035453"><ele>235.0</ele><time>2026-04-30T12:41:17Z</time></trkpt><trkpt lat="45.65396906599508" lon="9.91914870726967"><ele>235.0</ele><time>2026-04-30T12:41:19Z</time></trkpt><trkpt lat="45.65390416291195" lon="9.918996617982284"><ele>235.0</ele><time>2026-04-30T12:41:21Z</time></trkpt><trkpt lat="45.653882120971076" lon="9.918910656554909"><ele>235.0</ele><time>2026-04-30T12:41:22Z</time></trkpt><trkpt lat="45.65385524029005" lon="9.918829079350509"><ele>237.2</ele><time>2026-04-30T12:41:23Z</time></trkpt><trkpt lat="45.65382499586004" lon="9.91865569780978"><ele>239.4</ele><time>2026-04-30T12:41:25Z</time></trkpt><trkpt lat="45.65381309327049" lon="9.91847485346248"><ele>241.60000000000002</ele><time>2026-04-30T12:41:27Z</time></trkpt><trkpt lat="45.653813169660964" lon="9.918298911102209"><ele>243.8</ele><time>2026-04-30T12:41:29Z</time></trkpt><trkpt lat="45.65381193796726" lon="9.918208366243604"><ele>246.0</ele><time>2026-04-30T12:41:30Z</time></trkpt><trkpt lat="45.65381072515843" lon="9.918029291908592"><ele>247.60000000000002</ele><time>2026-04-30T12:41:32Z</time></trkpt><trkpt lat="45.65380875977648" lon="9.917852443394914"><ele>249.20000000000002</ele><time>2026-04-30T12:41:34Z</time></trkpt><trkpt lat="45.653807773403386" lon="9.917671635877824"><ele>250.79999999999998</ele><time>2026-04-30T12:41:36Z</time></trkpt><trkpt lat="45.65380663151815" lon="9.917493476141598"><ele>252.39999999999998</ele><time>2026-04-30T12:41:38Z</time></trkpt><trkpt lat="45.65380644961695" lon="9.917403311685518"><ele>254.0</ele><time>2026-04-30T12:41:39Z</time></trkpt><trkpt lat="45.65380564854992" lon="9.917223414861173"><ele>255.16666666666669</ele><time>2026-04-30T12:41:41Z</time></trkpt><trkpt lat="45.65380396481736" lon="9.917044605839417"><ele>256.33333333333337</ele><time>2026-04-30T12:41:43Z</time></trkpt><trkpt lat="45.653791613530764" lon="9.916866556474359"><ele>257.5</ele><time>2026-04-30T12:41:45Z</time></trkpt><trkpt lat="45.65377644813195" lon="9.916777475692726"><ele>258.6666666666667</ele><time>2026-04-30T12:41:46Z</time></trkpt><trkpt lat="45.65375589440258" lon="9.916689303153507"><ele>259.8333333333333</ele><time>2026-04-30T12:41:47Z</time></trkpt><trkpt lat="45.65373235483844" lon="9.916604713159616"><ele>261.0</ele><time>2026-04-30T12:41:48Z</time></trkpt><trkpt lat="45.65366686302544" lon="9.916450976911788"><ele>257.2</ele><time>2026-04-30T12:41:50Z</time></trkpt><trkpt lat="45.65357819539074" lon="9.916326188175017"><ele>253.40000000000003</ele><time>2026-04-30T12:41:52Z</time></trkpt><trkpt lat="45.65353179016282" lon="9.916264206274354"><ele>249.6</ele><time>2026-04-30T12:41:53Z</time></trkpt><trkpt lat="45.65343247994031" lon="9.91615732517911"><ele>245.8</ele><time>2026-04-30T12:41:55Z</time></trkpt><trkpt lat="45.65338077130277" lon="9.916096800320435"><ele>242.0</ele><time>2026-04-30T12:41:56Z</time></trkpt><trkpt lat="45.653289679583125" lon="9.91598489741501"><ele>242.0</ele><time>2026-04-30T12:41:58Z</time></trkpt><trkpt lat="45.65324099096774" lon="9.915925610134982"><ele>242.0</ele><time>2026-04-30T12:41:59Z</time></trkpt><trkpt lat="45.65315687893996" lon="9.915795567206594"><ele>242.0</ele><time>2026-04-30T12:42:01Z</time></trkpt><trkpt lat="45.65311411982101" lon="9.915729461118428"><ele>242.0</ele><time>2026-04-30T12:42:02Z</time></trkpt><trkpt lat="45.65303766774931" lon="9.915588195682291"><ele>242.0</ele><time>2026-04-30T12:42:04Z</time></trkpt><trkpt lat="45.6529692333496" lon="9.91544070549704"><ele>243.0</ele><time>2026-04-30T12:42:06Z</time></trkpt><trkpt lat="45.652900578606335" lon="9.915292053760044"><ele>244.0</ele><time>2026-04-30T12:42:08Z</time></trkpt><trkpt lat="45.65286930245143" lon="9.915211921165886"><ele>245.0</ele><time>2026-04-30T12:42:09Z</time></trkpt><trkpt lat="45.65283525442023" lon="9.915134787185602"><ele>246.0</ele><time>2026-04-30T12:42:10Z</time></trkpt><trkpt lat="45.65276839272221" lon="9.914983049522002"><ele>247.0</ele><time>2026-04-30T12:42:12Z</time></trkpt><trkpt lat="45.652705757042995" lon="9.914828524320518"><ele>247.0</ele><time>2026-04-30T12:42:14Z</time></trkpt><trkpt lat="45.65266990768629" lon="9.914753945363204"><ele>247.0</ele><time>2026-04-30T12:42:15Z</time></trkpt><trkpt lat="45.652602761056315" lon="9.914605552928125"><ele>247.0</ele><time>2026-04-30T12:42:17Z</time></trkpt><trkpt lat="45.65253240635379" lon="9.914458169394813"><ele>247.0</ele><time>2026-04-30T12:42:19Z</time></trkpt><trkpt lat="45.65246765717737" lon="9.914303895495133"><ele>247.0</ele><time>2026-04-30T12:42:21Z</time></trkpt><trkpt lat="45.65243591430062" lon="9.914222982232452"><ele>248.16666666666666</ele><time>2026-04-30T12:42:22Z</time></trkpt><trkpt lat="45.652405601143094" lon="9.914138366949853"><ele>249.33333333333331</ele><time>2026-04-30T12:42:23Z</time></trkpt><trkpt lat="45.65237178355484" lon="9.914058829552003"><ele>250.5</ele><time>2026-04-30T12:42:24Z</time></trkpt><trkpt lat="45.65234117886227" lon="9.913977146745111"><ele>251.66666666666669</ele><time>2026-04-30T12:42:25Z</time></trkpt><trkpt lat="45.65230784495009" lon="9.91389557750599"><ele>252.83333333333334</ele><time>2026-04-30T12:42:26Z</time></trkpt><trkpt lat="45.65227692336048" lon="9.913813763756298"><ele>254.0</ele><time>2026-04-30T12:42:27Z</time></trkpt><trkpt lat="45.65221860057914" lon="9.9136515520147"><ele>254.0</ele><time>2026-04-30T12:42:29Z</time></trkpt><trkpt lat="45.652161470811386" lon="9.913493133858749"><ele>254.0</ele><time>2026-04-30T12:42:31Z</time></trkpt><trkpt lat="45.652121525016135" lon="9.913324509597011"><ele>254.0</ele><time>2026-04-30T12:42:33Z</time></trkpt><trkpt lat="45.65208902029855" lon="9.913152571760534"><ele>254.0</ele><time>2026-04-30T12:42:35Z</time></trkpt><trkpt lat="45.652060103236025" lon="9.913034258161868"><ele>256.0</ele><time>2026-04-30T12:42:37Z</time></trkpt><trkpt lat="45.65201271514392" lon="9.912929184377985"><ele>258.0</ele><time>2026-04-30T12:43:20Z</time></trkpt><trkpt lat="45.65195595220935" lon="9.912849740024468"><ele>260.0</ele><time>2026-04-30T12:43:22Z</time></trkpt><trkpt lat="45.65186172698587" lon="9.912756208610508"><ele>262.0</ele><time>2026-04-30T12:43:24Z</time></trkpt><trkpt lat="45.65181031394868" lon="9.912701767341211"><ele>264.0</ele><time>2026-04-30T12:43:25Z</time></trkpt><trkpt lat="45.65175456991639" lon="9.91264429392961"><ele>266.0</ele><time>2026-04-30T12:43:26Z</time></trkpt><trkpt lat="45.651706683893316" lon="9.912582876930168"><ele>262.0</ele><time>2026-04-30T12:43:27Z</time></trkpt><trkpt lat="45.651609959681984" lon="9.912465394815626"><ele>258.0</ele><time>2026-04-30T12:43:29Z</time></trkpt><trkpt lat="45.65152298355938" lon="9.912353496405446"><ele>254.0</ele><time>2026-04-30T12:43:31Z</time></trkpt><trkpt lat="45.651437652144814" lon="9.912249739370601"><ele>250.0</ele><time>2026-04-30T12:43:33Z</time></trkpt><trkpt lat="45.65136081577701" lon="9.91214938891623"><ele>250.0</ele><time>2026-04-30T12:43:35Z</time></trkpt><trkpt lat="45.65128160746103" lon="9.912045074020815"><ele>250.0</ele><time>2026-04-30T12:43:37Z</time></trkpt><trkpt lat="45.651231747063754" lon="9.91198596818184"><ele>250.0</ele><time>2026-04-30T12:43:38Z</time></trkpt><trkpt lat="45.651180993963465" lon="9.911925970520867"><ele>250.0</ele><time>2026-04-30T12:43:39Z</time></trkpt><trkpt lat="45.65113088534145" lon="9.911868344097634"><ele>250.0</ele><time>2026-04-30T12:43:40Z</time></trkpt><trkpt lat="45.651082252716506" lon="9.911810641396462"><ele>250.0</ele><time>2026-04-30T12:43:41Z</time></trkpt><trkpt lat="45.65103059001512" lon="9.911755558707119"><ele>250.0</ele><time>2026-04-30T12:43:42Z</time></trkpt><trkpt lat="45.65097615478054" lon="9.911709710126251"><ele>249.83333333333331</ele><time>2026-04-30T12:43:43Z</time></trkpt><trkpt lat="45.65091962411525" lon="9.911663723602672"><ele>249.66666666666666</ele><time>2026-04-30T12:43:44Z</time></trkpt><trkpt lat="45.650862673911135" lon="9.91161933054107"><ele>249.5</ele><time>2026-04-30T12:43:45Z</time></trkpt><trkpt lat="45.65075795370061" lon="9.91153041915284"><ele>249.33333333333331</ele><time>2026-04-30T12:43:47Z</time></trkpt><trkpt lat="45.650653084578984" lon="9.911445866741333"><ele>249.16666666666666</ele><time>2026-04-30T12:43:49Z</time></trkpt><trkpt lat="45.65059895979392" lon="9.911395873222396"><ele>249.0</ele><time>2026-04-30T12:43:50Z</time></trkpt><trkpt lat="45.650542774535104" lon="9.911349154031864"><ele>249.0</ele><time>2026-04-30T12:43:51Z</time></trkpt><trkpt lat="45.650486543140254" lon="9.91130701629039"><ele>249.0</ele><time>2026-04-30T12:43:52Z</time></trkpt><trkpt lat="45.65043223319196" lon="9.91126009623292"><ele>249.0</ele><time>2026-04-30T12:43:53Z</time></trkpt><trkpt lat="45.65033106678882" lon="9.911172443526112"><ele>249.0</ele><time>2026-04-30T12:43:55Z</time></trkpt><trkpt lat="45.65022030689708" lon="9.911077775453842"><ele>249.0</ele><time>2026-04-30T12:43:57Z</time></trkpt><trkpt lat="45.65016627645473" lon="9.911027458906815"><ele>249.0</ele><time>2026-04-30T12:43:58Z</time></trkpt><trkpt lat="45.6501087061255" lon="9.910974491437637"><ele>248.42857142857142</ele><time>2026-04-30T12:43:59Z</time></trkpt><trkpt lat="45.650056266782556" lon="9.910914231048002"><ele>247.85714285714283</ele><time>2026-04-30T12:44:00Z</time></trkpt><trkpt lat="45.65000969115346" lon="9.910846868312856"><ele>247.28571428571428</ele><time>2026-04-30T12:44:01Z</time></trkpt><trkpt lat="45.64996391898783" lon="9.91077701396291"><ele>246.71428571428572</ele><time>2026-04-30T12:44:02Z</time></trkpt><trkpt lat="45.6499227496666" lon="9.910699826315279"><ele>246.14285714285714</ele><time>2026-04-30T12:44:03Z</time></trkpt><trkpt lat="45.64988360335042" lon="9.910621349162366"><ele>245.57142857142856</ele><time>2026-04-30T12:44:04Z</time></trkpt><trkpt lat="45.649850368683964" lon="9.910541486347206"><ele>245.0</ele><time>2026-04-30T12:44:05Z</time></trkpt><trkpt lat="45.649819849994635" lon="9.91045564379654"><ele>245.00000000000003</ele><time>2026-04-30T12:44:06Z</time></trkpt><trkpt lat="45.64980771417027" lon="9.9103571000557"><ele>245.0</ele><time>2026-04-30T12:44:07Z</time></trkpt><trkpt lat="45.64980092193807" lon="9.910259431191331"><ele>245.0</ele><time>2026-04-30T12:44:08Z</time></trkpt><trkpt lat="45.64980727664816" lon="9.910163110016125"><ele>245.0</ele><time>2026-04-30T12:44:09Z</time></trkpt><trkpt lat="45.64982063018143" lon="9.910070970741716"><ele>245.00000000000003</ele><time>2026-04-30T12:44:10Z</time></trkpt><trkpt lat="45.64982653207657" lon="9.909979994803098"><ele>245.0</ele><time>2026-04-30T12:44:11Z</time></trkpt><trkpt lat="45.64984560319093" lon="9.909807211984903"><ele>245.83333333333334</ele><time>2026-04-30T12:44:13Z</time></trkpt><trkpt lat="45.64984833629971" lon="9.90964228273655"><ele>246.66666666666669</ele><time>2026-04-30T12:44:15Z</time></trkpt><trkpt lat="45.64979532627687" lon="9.909489317698005"><ele>247.5</ele><time>2026-04-30T12:44:17Z</time></trkpt><trkpt lat="45.649753873295495" lon="9.909415611052744"><ele>248.33333333333331</ele><time>2026-04-30T12:44:18Z</time></trkpt><trkpt lat="45.649704833633656" lon="9.909353176120757"><ele>249.16666666666666</ele><time>2026-04-30T12:44:19Z</time></trkpt><trkpt lat="45.64964872323735" lon="9.909301906231336"><ele>250.0</ele><time>2026-04-30T12:44:20Z</time></trkpt><trkpt lat="45.64958851876436" lon="9.909253623814944"><ele>248.85714285714283</ele><time>2026-04-30T12:44:21Z</time></trkpt><trkpt lat="45.649526063016964" lon="9.909214036140076"><ele>247.71428571428572</ele><time>2026-04-30T12:44:22Z</time></trkpt><trkpt lat="45.64945903028768" lon="9.909184307114982"><ele>246.57142857142856</ele><time>2026-04-30T12:44:23Z</time></trkpt><trkpt lat="45.64939084423643" lon="9.909166997960282"><ele>245.42857142857142</ele><time>2026-04-30T12:44:24Z</time></trkpt><trkpt lat="45.649319005989234" lon="9.90916273019664"><ele>244.28571428571428</ele><time>2026-04-30T12:44:25Z</time></trkpt><trkpt lat="45.649247425818295" lon="9.909168102858374"><ele>243.14285714285714</ele><time>2026-04-30T12:44:26Z</time></trkpt><trkpt lat="45.64917727957673" lon="9.909179731769784"><ele>242.0</ele><time>2026-04-30T12:44:27Z</time></trkpt><trkpt lat="45.64910651334762" lon="9.909200325239697"><ele>242.0</ele><time>2026-04-30T12:44:28Z</time></trkpt><trkpt lat="45.64903631987078" lon="9.909219747561249"><ele>241.99999999999997</ele><time>2026-04-30T12:44:29Z</time></trkpt><trkpt lat="45.648964353037314" lon="9.90923623367658"><ele>242.0</ele><time>2026-04-30T12:44:30Z</time></trkpt><trkpt lat="45.648891919015455" lon="9.909251540953894"><ele>242.0</ele><time>2026-04-30T12:44:31Z</time></trkpt><trkpt lat="45.64881836490659" lon="9.909268473841234"><ele>241.99999999999997</ele><time>2026-04-30T12:44:32Z</time></trkpt><trkpt lat="45.648744701967345" lon="9.90928345368381"><ele>242.0</ele><time>2026-04-30T12:44:33Z</time></trkpt><trkpt lat="45.64867024313688" lon="9.909302136124346"><ele>242.0</ele><time>2026-04-30T12:44:34Z</time></trkpt><trkpt lat="45.6485951465358" lon="9.909318791463814"><ele>241.50000000000003</ele><time>2026-04-30T12:44:35Z</time></trkpt><trkpt lat="45.648521027107044" lon="9.909338110950022"><ele>241.0</ele><time>2026-04-30T12:44:36Z</time></trkpt><trkpt lat="45.64844510439768" lon="9.909355439228003"><ele>240.5</ele><time>2026-04-30T12:44:37Z</time></trkpt><trkpt lat="45.64836922216448" lon="9.909372089287896"><ele>240.0</ele><time>2026-04-30T12:44:38Z</time></trkpt><trkpt lat="45.64829225817255" lon="9.909385989829504"><ele>239.50000000000003</ele><time>2026-04-30T12:44:39Z</time></trkpt><trkpt lat="45.648215481852006" lon="9.909399614198728"><ele>239.0</ele><time>2026-04-30T12:44:40Z</time></trkpt><trkpt lat="45.64813834480006" lon="9.909418923860912"><ele>239.00000000000003</ele><time>2026-04-30T12:44:41Z</time></trkpt><trkpt lat="45.64806250205511" lon="9.909440415048756"><ele>239.0</ele><time>2026-04-30T12:44:42Z</time></trkpt><trkpt lat="45.647985768698746" lon="9.909459894245602"><ele>239.0</ele><time>2026-04-30T12:44:43Z</time></trkpt><trkpt lat="45.64790867470798" lon="9.9094754909211"><ele>239.0</ele><time>2026-04-30T12:44:44Z</time></trkpt><trkpt lat="45.64783277315151" lon="9.909490840511333"><ele>239.00000000000003</ele><time>2026-04-30T12:44:45Z</time></trkpt><trkpt lat="45.64775542163833" lon="9.909508412429268"><ele>239.0</ele><time>2026-04-30T12:44:46Z</time></trkpt><trkpt lat="45.647684811578" lon="9.909523486463405"><ele>238.5714285714286</ele><time>2026-04-30T12:44:47Z</time></trkpt><trkpt lat="45.64761085549607" lon="9.909545219893856"><ele>238.14285714285717</ele><time>2026-04-30T12:44:48Z</time></trkpt><trkpt lat="45.64753887569668" lon="9.909561071353798"><ele>237.71428571428572</ele><time>2026-04-30T12:44:49Z</time></trkpt><trkpt lat="45.64747011801016" lon="9.909579195152808"><ele>237.2857142857143</ele><time>2026-04-30T12:44:50Z</time></trkpt><trkpt lat="45.64740100642222" lon="9.909594948150517"><ele>236.8571428571429</ele><time>2026-04-30T12:44:51Z</time></trkpt><trkpt lat="45.64733367672783" lon="9.909609937851473"><ele>236.42857142857142</ele><time>2026-04-30T12:44:52Z</time></trkpt><trkpt lat="45.64726605395106" lon="9.909620415998589"><ele>236.0</ele><time>2026-04-30T12:44:53Z</time></trkpt><trkpt lat="45.64719832684059" lon="9.909628856236631"><ele>236.00000000000003</ele><time>2026-04-30T12:44:54Z</time></trkpt><trkpt lat="45.6471312030436" lon="9.909642234890566"><ele>236.0</ele><time>2026-04-30T12:44:55Z</time></trkpt><trkpt lat="45.647067430516636" lon="9.909650807499666"><ele>236.0</ele><time>2026-04-30T12:44:56Z</time></trkpt><trkpt lat="45.646972819354" lon="9.909676124758908"><ele>236.0</ele><time>2026-04-30T12:44:58Z</time></trkpt><trkpt lat="45.64691010742989" lon="9.909704354661454"><ele>236.00000000000003</ele><time>2026-04-30T12:45:00Z</time></trkpt><trkpt lat="45.646825427496" lon="9.909732831698257"><ele>236.0</ele><time>2026-04-30T12:45:03Z</time></trkpt><trkpt lat="45.64671554776579" lon="9.909717297704002"><ele>236.0</ele><time>2026-04-30T12:45:05Z</time></trkpt><trkpt lat="45.646649795904366" lon="9.909717355475145"><ele>236.0</ele><time>2026-04-30T12:45:06Z</time></trkpt><trkpt lat="45.64658378188311" lon="9.909711228588613"><ele>236.0</ele><time>2026-04-30T12:45:07Z</time></trkpt><trkpt lat="45.646521580839966" lon="9.909696704605741"><ele>236.0</ele><time>2026-04-30T12:45:08Z</time></trkpt><trkpt lat="45.646460114492214" lon="9.90967684178425"><ele>236.0</ele><time>2026-04-30T12:45:09Z</time></trkpt><trkpt lat="45.64639516366659" lon="9.909660461471088"><ele>236.0</ele><time>2026-04-30T12:45:10Z</time></trkpt><trkpt lat="45.64633189081527" lon="9.909640113956343"><ele>236.0</ele><time>2026-04-30T12:45:11Z</time></trkpt><trkpt lat="45.64626763602677" lon="9.909619466144274"><ele>236.00000000000003</ele><time>2026-04-30T12:45:12Z</time></trkpt><trkpt lat="45.64620376937444" lon="9.909599465476996"><ele>236.0</ele><time>2026-04-30T12:45:13Z</time></trkpt><trkpt lat="45.646080101937265" lon="9.909511056020376"><ele>236.0</ele><time>2026-04-30T12:45:15Z</time></trkpt><trkpt lat="45.64601910582272" lon="9.909484311594186"><ele>236.0</ele><time>2026-04-30T12:45:16Z</time></trkpt><trkpt lat="45.64595099278727" lon="9.909465655679734"><ele>236.00000000000003</ele><time>2026-04-30T12:45:17Z</time></trkpt><trkpt lat="45.64588323879012" lon="9.909458313023588"><ele>236.0</ele><time>2026-04-30T12:45:18Z</time></trkpt><trkpt lat="45.645815610041026" lon="9.909445918086252"><ele>235.71428571428572</ele><time>2026-04-30T12:45:19Z</time></trkpt><trkpt lat="45.645751978745245" lon="9.909423818029506"><ele>235.42857142857144</ele><time>2026-04-30T12:45:20Z</time></trkpt><trkpt lat="45.64568796182658" lon="9.909401665487842"><ele>235.14285714285717</ele><time>2026-04-30T12:45:21Z</time></trkpt><trkpt lat="45.64562109896198" lon="9.909382482449638"><ele>234.85714285714286</ele><time>2026-04-30T12:45:22Z</time></trkpt><trkpt lat="45.64555530920368" lon="9.909367192730533"><ele>234.5714285714286</ele><time>2026-04-30T12:45:23Z</time></trkpt><trkpt lat="45.64548783044238" lon="9.909350750162805"><ele>234.2857142857143</ele><time>2026-04-30T12:45:24Z</time></trkpt><trkpt lat="45.64542109043489" lon="9.909334744834748"><ele>234.0</ele><time>2026-04-30T12:45:25Z</time></trkpt><trkpt lat="45.645353812942716" lon="9.909312881965212"><ele>233.71428571428572</ele><time>2026-04-30T12:45:26Z</time></trkpt><trkpt lat="45.64528902540426" lon="9.909284401195121"><ele>233.42857142857144</ele><time>2026-04-30T12:45:27Z</time></trkpt><trkpt lat="45.645222816846584" lon="9.909261978573559"><ele>233.14285714285717</ele><time>2026-04-30T12:45:28Z</time></trkpt><trkpt lat="45.645156016899314" lon="9.909243906954993"><ele>232.8571428571429</ele><time>2026-04-30T12:45:29Z</time></trkpt><trkpt lat="45.64508913799818" lon="9.909223762761707"><ele>232.57142857142858</ele><time>2026-04-30T12:45:30Z</time></trkpt><trkpt lat="45.64502207794311" lon="9.909204033926548"><ele>232.28571428571433</ele><time>2026-04-30T12:45:31Z</time></trkpt><trkpt lat="45.64495503627139" lon="9.909186711455016"><ele>232.00000000000003</ele><time>2026-04-30T12:45:32Z</time></trkpt><trkpt lat="45.64488983162854" lon="9.909168795800472"><ele>232.00000000000003</ele><time>2026-04-30T12:45:33Z</time></trkpt><trkpt lat="45.64482231630724" lon="9.909150492705383"><ele>232.0</ele><time>2026-04-30T12:45:34Z</time></trkpt><trkpt lat="45.644756448464314" lon="9.909130267598073"><ele>232.00000000000003</ele><time>2026-04-30T12:45:35Z</time></trkpt><trkpt lat="45.64469028846812" lon="9.90910597077335"><ele>232.00000000000003</ele><time>2026-04-30T12:45:36Z</time></trkpt><trkpt lat="45.6446230609244" lon="9.909087349662164"><ele>232.0</ele><time>2026-04-30T12:45:37Z</time></trkpt><trkpt lat="45.6445550807298" lon="9.909064888771606"><ele>232.00000000000003</ele><time>2026-04-30T12:45:38Z</time></trkpt><trkpt lat="45.64448823726475" lon="9.909044904118298"><ele>232.00000000000003</ele><time>2026-04-30T12:45:39Z</time></trkpt><trkpt lat="45.64441911319948" lon="9.909025051164653"><ele>232.00000000000003</ele><time>2026-04-30T12:45:40Z</time></trkpt><trkpt lat="45.64435040875668" lon="9.909005248771871"><ele>232.0</ele><time>2026-04-30T12:45:41Z</time></trkpt><trkpt lat="45.6442811441631" lon="9.908995820933587"><ele>232.00000000000003</ele><time>2026-04-30T12:45:42Z</time></trkpt><trkpt lat="45.64421232662942" lon="9.909000136791926"><ele>232.00000000000003</ele><time>2026-04-30T12:45:43Z</time></trkpt><trkpt lat="45.64414381721435" lon="9.90899518190683"><ele>232.0</ele><time>2026-04-30T12:45:44Z</time></trkpt><trkpt lat="45.64407570931444" lon="9.908974037834437"><ele>232.00000000000003</ele><time>2026-04-30T12:45:45Z</time></trkpt><trkpt lat="45.64400598224015" lon="9.908949369826027"><ele>232.00000000000003</ele><time>2026-04-30T12:45:46Z</time></trkpt><trkpt lat="45.64393552020907" lon="9.90892991576576"><ele>232.00000000000003</ele><time>2026-04-30T12:45:47Z</time></trkpt><trkpt lat="45.643863525198114" lon="9.908910731689936"><ele>232.0</ele><time>2026-04-30T12:45:48Z</time></trkpt><trkpt lat="45.643794626005395" lon="9.90888544323053"><ele>232.00000000000003</ele><time>2026-04-30T12:45:49Z</time></trkpt><trkpt lat="45.64372857385488" lon="9.908849149905006"><ele>232.00000000000003</ele><time>2026-04-30T12:45:50Z</time></trkpt><trkpt lat="45.643663158118315" lon="9.908806276821593"><ele>232.0</ele><time>2026-04-30T12:45:51Z</time></trkpt><trkpt lat="45.64359336320298" lon="9.908777730412707"><ele>232.00000000000003</ele><time>2026-04-30T12:45:52Z</time></trkpt><trkpt lat="45.643522645065296" lon="9.908757811874189"><ele>232.00000000000003</ele><time>2026-04-30T12:45:53Z</time></trkpt><trkpt lat="45.64345116631018" lon="9.908741181720286"><ele>231.71428571428575</ele><time>2026-04-30T12:45:54Z</time></trkpt><trkpt lat="45.64338110281069" lon="9.90872500890838"><ele>231.42857142857144</ele><time>2026-04-30T12:45:55Z</time></trkpt><trkpt lat="45.64331147218627" lon="9.908707795412795"><ele>231.14285714285714</ele><time>2026-04-30T12:45:56Z</time></trkpt><trkpt lat="45.643243853920346" lon="9.908686202887239"><ele>230.85714285714286</ele><time>2026-04-30T12:45:57Z</time></trkpt><trkpt lat="45.64317424846434" lon="9.908664637858534"><ele>230.57142857142856</ele><time>2026-04-30T12:45:58Z</time></trkpt><trkpt lat="45.643106624938596" lon="9.908646561990794"><ele>230.28571428571425</ele><time>2026-04-30T12:45:59Z</time></trkpt><trkpt lat="45.64303953696626" lon="9.908626624008178"><ele>229.99999999999997</ele><time>2026-04-30T12:46:00Z</time></trkpt><trkpt lat="45.64297171279682" lon="9.908606243798555"><ele>229.99999999999997</ele><time>2026-04-30T12:46:01Z</time></trkpt><trkpt lat="45.64290421875991" lon="9.908584010872875"><ele>230.0</ele><time>2026-04-30T12:46:02Z</time></trkpt><trkpt lat="45.642836419964915" lon="9.908565999267633"><ele>229.99999999999997</ele><time>2026-04-30T12:46:03Z</time></trkpt><trkpt lat="45.642769158149065" lon="9.908546569502967"><ele>229.99999999999997</ele><time>2026-04-30T12:46:04Z</time></trkpt><trkpt lat="45.64270133230736" lon="9.908528312700264"><ele>230.0</ele><time>2026-04-30T12:46:05Z</time></trkpt><trkpt lat="45.642633864401866" lon="9.90850928299325"><ele>229.99999999999997</ele><time>2026-04-30T12:46:06Z</time></trkpt><trkpt lat="45.64256833977719" lon="9.90847974335068"><ele>229.99999999999997</ele><time>2026-04-30T12:46:07Z</time></trkpt><trkpt lat="45.64250266608104" lon="9.908450388800716"><ele>229.85714285714283</ele><time>2026-04-30T12:46:08Z</time></trkpt><trkpt lat="45.64243743865629" lon="9.908421020939159"><ele>229.71428571428572</ele><time>2026-04-30T12:46:09Z</time></trkpt><trkpt lat="45.64236955667359" lon="9.90839499007712"><ele>229.57142857142856</ele><time>2026-04-30T12:46:10Z</time></trkpt><trkpt lat="45.64230548765715" lon="9.908369024851401"><ele>229.42857142857142</ele><time>2026-04-30T12:46:11Z</time></trkpt><trkpt lat="45.64223987661808" lon="9.908355526892846"><ele>229.28571428571428</ele><time>2026-04-30T12:46:12Z</time></trkpt><trkpt lat="45.642174470256144" lon="9.90834807990765"><ele>229.14285714285714</ele><time>2026-04-30T12:46:13Z</time></trkpt><trkpt lat="45.64206863764791" lon="9.908297618313755"><ele>229.0</ele><time>2026-04-30T12:46:15Z</time></trkpt><trkpt lat="45.64201923949213" lon="9.908180357797653"><ele>228.99999999999997</ele><time>2026-04-30T12:46:17Z</time></trkpt><trkpt lat="45.64194349774301" lon="9.908079857513355"><ele>229.0</ele><time>2026-04-30T12:46:19Z</time></trkpt><trkpt lat="45.64187196017532" lon="9.908074580147408"><ele>229.0</ele><time>2026-04-30T12:46:20Z</time></trkpt><trkpt lat="45.64180860683333" lon="9.908095420713881"><ele>229.0</ele><time>2026-04-30T12:46:21Z</time></trkpt><trkpt lat="45.64170136340728" lon="9.908113792540135"><ele>228.99999999999997</ele><time>2026-04-30T12:46:23Z</time></trkpt><trkpt lat="45.641621636337675" lon="9.908045033677357"><ele>229.0</ele><time>2026-04-30T12:46:25Z</time></trkpt><trkpt lat="45.641572485921955" lon="9.907923156123104"><ele>229.0</ele><time>2026-04-30T12:46:27Z</time></trkpt><trkpt lat="45.64155533398138" lon="9.907802034857204"><ele>228.99999999999997</ele><time>2026-04-30T12:46:29Z</time></trkpt><trkpt lat="45.641526940257194" lon="9.90766807131604"><ele>228.99999999999997</ele><time>2026-04-30T12:46:31Z</time></trkpt><trkpt lat="45.64148069519346" lon="9.907502459652378"><ele>229.0</ele><time>2026-04-30T12:46:33Z</time></trkpt><trkpt lat="45.6414461428652" lon="9.90736184250962"><ele>229.0</ele><time>2026-04-30T12:46:35Z</time></trkpt><trkpt lat="45.64141735593144" lon="9.907261815650592"><ele>228.83333333333331</ele><time>2026-04-30T12:46:37Z</time></trkpt><trkpt lat="45.641390050934795" lon="9.907150428368944"><ele>228.66666666666666</ele><time>2026-04-30T12:46:39Z</time></trkpt><trkpt lat="45.64137592871134" lon="9.907046491264198"><ele>228.5</ele><time>2026-04-30T12:46:42Z</time></trkpt><trkpt lat="45.641345474530155" lon="9.90693829441957"><ele>228.33333333333331</ele><time>2026-04-30T12:46:45Z</time></trkpt><trkpt lat="45.641322556362695" lon="9.906804606378314"><ele>228.16666666666666</ele><time>2026-04-30T12:46:47Z</time></trkpt><trkpt lat="45.64131158178744" lon="9.906674708437581"><ele>228.0</ele><time>2026-04-30T12:46:49Z</time></trkpt><trkpt lat="45.641281544391205" lon="9.90655078433294"><ele>228.0</ele><time>2026-04-30T12:46:51Z</time></trkpt><trkpt lat="45.641239140134566" lon="9.906452873640406"><ele>228.0</ele><time>2026-04-30T12:46:53Z</time></trkpt><trkpt lat="45.6412089413815" lon="9.906330013603087"><ele>228.0</ele><time>2026-04-30T12:46:55Z</time></trkpt><trkpt lat="45.641173094384435" lon="9.906152910624703"><ele>228.0</ele><time>2026-04-30T12:46:57Z</time></trkpt><trkpt lat="45.641142379058834" lon="9.905977078279093"><ele>228.0</ele><time>2026-04-30T12:46:59Z</time></trkpt><trkpt lat="45.64112293590438" lon="9.905888108244694"><ele>228.0</ele><time>2026-04-30T12:47:00Z</time></trkpt><trkpt lat="45.64110253618254" lon="9.90579988595623"><ele>227.99999999999997</ele><time>2026-04-30T12:47:01Z</time></trkpt><trkpt lat="45.64108509250972" lon="9.905708323242802"><ele>228.0</ele><time>2026-04-30T12:47:02Z</time></trkpt><trkpt lat="45.64107251992275" lon="9.905615469265355"><ele>228.0</ele><time>2026-04-30T12:47:03Z</time></trkpt><trkpt lat="45.641060804910595" lon="9.905523651336756"><ele>227.99999999999997</ele><time>2026-04-30T12:47:04Z</time></trkpt><trkpt lat="45.64104781162752" lon="9.905434102913347"><ele>228.0</ele><time>2026-04-30T12:47:05Z</time></trkpt><trkpt lat="45.64101391454062" lon="9.905280107070093"><ele>228.0</ele><time>2026-04-30T12:47:07Z</time></trkpt><trkpt lat="45.6410192024681" lon="9.905146625575364"><ele>228.0</ele><time>2026-04-30T12:47:09Z</time></trkpt><trkpt lat="45.641018727471675" lon="9.904999859566201"><ele>228.0</ele><time>2026-04-30T12:47:11Z</time></trkpt><trkpt lat="45.6409978767038" lon="9.904912079446376"><ele>228.0</ele><time>2026-04-30T12:47:12Z</time></trkpt><trkpt lat="45.64097633639141" lon="9.90482375837674"><ele>228.0</ele><time>2026-04-30T12:47:13Z</time></trkpt><trkpt lat="45.640955611291055" lon="9.904737377086235"><ele>228.0</ele><time>2026-04-30T12:47:14Z</time></trkpt><trkpt lat="45.640900258624505" lon="9.904591785837054"><ele>228.0</ele><time>2026-04-30T12:47:16Z</time></trkpt><trkpt lat="45.64084488484112" lon="9.904484164631938"><ele>228.0</ele><time>2026-04-30T12:47:18Z</time></trkpt><trkpt lat="45.64080086915058" lon="9.9043660943029"><ele>228.0</ele><time>2026-04-30T12:47:20Z</time></trkpt><trkpt lat="45.64076124169142" lon="9.904204270105492"><ele>228.0</ele><time>2026-04-30T12:47:22Z</time></trkpt><trkpt lat="45.640747571731076" lon="9.904112204471025"><ele>228.0</ele><time>2026-04-30T12:47:23Z</time></trkpt><trkpt lat="45.64072707534669" lon="9.904020291056527"><ele>228.0</ele><time>2026-04-30T12:47:24Z</time></trkpt><trkpt lat="45.64070655508499" lon="9.903933874738897"><ele>228.0</ele><time>2026-04-30T12:47:25Z</time></trkpt><trkpt lat="45.64068655946716" lon="9.903847292200085"><ele>228.0</ele><time>2026-04-30T12:47:26Z</time></trkpt><trkpt lat="45.64065370740695" lon="9.903731980563705"><ele>228.0</ele><time>2026-04-30T12:47:28Z</time></trkpt><trkpt lat="45.64064370460749" lon="9.90364034078252"><ele>228.0</ele><time>2026-04-30T12:47:30Z</time></trkpt><trkpt lat="45.64062105789407" lon="9.903550917885607"><ele>228.0</ele><time>2026-04-30T12:47:33Z</time></trkpt><trkpt lat="45.64060486650036" lon="9.903436288323967"><ele>228.0</ele><time>2026-04-30T12:47:40Z</time></trkpt><trkpt lat="45.64059846001027" lon="9.903282507058625"><ele>228.0</ele><time>2026-04-30T12:47:42Z</time></trkpt><trkpt lat="45.64054997216935" lon="9.903126632524867"><ele>228.0</ele><time>2026-04-30T12:47:44Z</time></trkpt><trkpt lat="45.640499443629615" lon="9.903001375754476"><ele>228.0</ele><time>2026-04-30T12:47:46Z</time></trkpt><trkpt lat="45.64047520704453" lon="9.902836055188763"><ele>228.0</ele><time>2026-04-30T12:47:48Z</time></trkpt><trkpt lat="45.640450783399636" lon="9.90266920029714"><ele>228.0</ele><time>2026-04-30T12:47:50Z</time></trkpt><trkpt lat="45.6404271685952" lon="9.90250564140736"><ele>228.14285714285714</ele><time>2026-04-30T12:47:52Z</time></trkpt><trkpt lat="45.64039517290429" lon="9.90234054709519"><ele>228.28571428571428</ele><time>2026-04-30T12:47:54Z</time></trkpt><trkpt lat="45.64038395268894" lon="9.902248688674865"><ele>228.42857142857142</ele><time>2026-04-30T12:47:55Z</time></trkpt><trkpt lat="45.640368854278414" lon="9.902158342795515"><ele>228.57142857142856</ele><time>2026-04-30T12:47:56Z</time></trkpt><trkpt lat="45.640354697013336" lon="9.902067758522586"><ele>228.71428571428572</ele><time>2026-04-30T12:47:57Z</time></trkpt><trkpt lat="45.640337577184624" lon="9.901977000433888"><ele>228.85714285714283</ele><time>2026-04-30T12:47:58Z</time></trkpt><trkpt lat="45.64032266746848" lon="9.901888840204256"><ele>229.0</ele><time>2026-04-30T12:47:59Z</time></trkpt><trkpt lat="45.64030462256884" lon="9.901800392273168"><ele>228.75</ele><time>2026-04-30T12:48:00Z</time></trkpt><trkpt lat="45.640285684453595" lon="9.901624975478356"><ele>228.5</ele><time>2026-04-30T12:48:02Z</time></trkpt><trkpt lat="45.64025629346329" lon="9.90145282985066"><ele>228.25</ele><time>2026-04-30T12:48:04Z</time></trkpt><trkpt lat="45.64023078920698" lon="9.901285935727953"><ele>228.0</ele><time>2026-04-30T12:48:06Z</time></trkpt><trkpt lat="45.64020049475208" lon="9.901107243192985"><ele>228.0</ele><time>2026-04-30T12:48:08Z</time></trkpt><trkpt lat="45.640184430089" lon="9.901014805174306"><ele>227.99999999999997</ele><time>2026-04-30T12:48:09Z</time></trkpt><trkpt lat="45.640168456405085" lon="9.900920107983707"><ele>228.0</ele><time>2026-04-30T12:48:10Z</time></trkpt><trkpt lat="45.64015307487999" lon="9.900825877350089"><ele>228.0</ele><time>2026-04-30T12:48:11Z</time></trkpt><trkpt lat="45.64013487068676" lon="9.900735170530185"><ele>227.99999999999997</ele><time>2026-04-30T12:48:12Z</time></trkpt><trkpt lat="45.64011910299179" lon="9.900639003144237"><ele>228.0</ele><time>2026-04-30T12:48:13Z</time></trkpt><trkpt lat="45.640105804435755" lon="9.900543007255152"><ele>228.0</ele><time>2026-04-30T12:48:14Z</time></trkpt><trkpt lat="45.64008987688866" lon="9.900450467241924"><ele>227.83333333333334</ele><time>2026-04-30T12:48:15Z</time></trkpt><trkpt lat="45.64007087252905" lon="9.900363176936"><ele>227.66666666666669</ele><time>2026-04-30T12:48:16Z</time></trkpt><trkpt lat="45.640055035171066" lon="9.900267290633963"><ele>227.5</ele><time>2026-04-30T12:48:17Z</time></trkpt><trkpt lat="45.64005497459539" lon="9.900161060754808"><ele>227.33333333333334</ele><time>2026-04-30T12:48:18Z</time></trkpt><trkpt lat="45.64004015737826" lon="9.900070341624854"><ele>227.16666666666669</ele><time>2026-04-30T12:48:19Z</time></trkpt><trkpt lat="45.640008232413805" lon="9.899891226706039"><ele>227.0</ele><time>2026-04-30T12:48:21Z</time></trkpt><trkpt lat="45.63999469205769" lon="9.899798015874456"><ele>227.0</ele><time>2026-04-30T12:48:22Z</time></trkpt><trkpt lat="45.639980421880644" lon="9.899705322980552"><ele>227.00000000000003</ele><time>2026-04-30T12:48:23Z</time></trkpt><trkpt lat="45.63996393145108" lon="9.899610801888732"><ele>227.0</ele><time>2026-04-30T12:48:24Z</time></trkpt><trkpt lat="45.63994696461953" lon="9.899518001781933"><ele>227.0</ele><time>2026-04-30T12:48:25Z</time></trkpt><trkpt lat="45.63992842724911" lon="9.899423167317776"><ele>227.00000000000003</ele><time>2026-04-30T12:48:26Z</time></trkpt><trkpt lat="45.63991370766217" lon="9.899330238866058"><ele>227.0</ele><time>2026-04-30T12:48:27Z</time></trkpt><trkpt lat="45.639896356800286" lon="9.899238369798965"><ele>227.0</ele><time>2026-04-30T12:48:28Z</time></trkpt><trkpt lat="45.63987982084755" lon="9.899145831054335"><ele>227.0</ele><time>2026-04-30T12:48:29Z</time></trkpt><trkpt lat="45.639865199370604" lon="9.899056358360736"><ele>227.00000000000003</ele><time>2026-04-30T12:48:30Z</time></trkpt><trkpt lat="45.63984696959782" lon="9.898967130057784"><ele>227.0</ele><time>2026-04-30T12:48:31Z</time></trkpt><trkpt lat="45.639831429616294" lon="9.898876173067977"><ele>227.0</ele><time>2026-04-30T12:48:32Z</time></trkpt><trkpt lat="45.639814195146535" lon="9.898782359131523"><ele>227.00000000000003</ele><time>2026-04-30T12:48:33Z</time></trkpt><trkpt lat="45.63979958494794" lon="9.89869119589617"><ele>227.0</ele><time>2026-04-30T12:48:34Z</time></trkpt><trkpt lat="45.63978396252269" lon="9.898600161993722"><ele>227.0</ele><time>2026-04-30T12:48:35Z</time></trkpt><trkpt lat="45.63976850023147" lon="9.898508280396168"><ele>226.71428571428572</ele><time>2026-04-30T12:48:36Z</time></trkpt><trkpt lat="45.639751539023365" lon="9.898417088884019"><ele>226.42857142857144</ele><time>2026-04-30T12:48:37Z</time></trkpt><trkpt lat="45.63973856682965" lon="9.898326188685907"><ele>226.14285714285717</ele><time>2026-04-30T12:48:38Z</time></trkpt><trkpt lat="45.63971936763442" lon="9.898237401563678"><ele>225.8571428571429</ele><time>2026-04-30T12:48:39Z</time></trkpt><trkpt lat="45.639702781774275" lon="9.898147000646816"><ele>225.57142857142858</ele><time>2026-04-30T12:48:40Z</time></trkpt><trkpt lat="45.63968808405923" lon="9.898056454352366"><ele>225.28571428571433</ele><time>2026-04-30T12:48:41Z</time></trkpt><trkpt lat="45.63967518188391" lon="9.897964939318424"><ele>225.00000000000003</ele><time>2026-04-30T12:48:42Z</time></trkpt><trkpt lat="45.63965614214883" lon="9.897868917552671"><ele>225.00000000000003</ele><time>2026-04-30T12:48:43Z</time></trkpt><trkpt lat="45.63964209920106" lon="9.897779343007011"><ele>225.0</ele><time>2026-04-30T12:48:44Z</time></trkpt><trkpt lat="45.63962745279018" lon="9.89768518588435"><ele>225.00000000000003</ele><time>2026-04-30T12:48:45Z</time></trkpt><trkpt lat="45.639612403722154" lon="9.897593443467187"><ele>225.00000000000003</ele><time>2026-04-30T12:48:46Z</time></trkpt><trkpt lat="45.63959717533371" lon="9.897501315056767"><ele>225.0</ele><time>2026-04-30T12:48:47Z</time></trkpt><trkpt lat="45.639580026374006" lon="9.897410899232021"><ele>225.00000000000003</ele><time>2026-04-30T12:48:48Z</time></trkpt><trkpt lat="45.6395649606947" lon="9.897315799337129"><ele>225.00000000000003</ele><time>2026-04-30T12:48:49Z</time></trkpt><trkpt lat="45.63955092963366" lon="9.897221786672713"><ele>225.00000000000003</ele><time>2026-04-30T12:48:50Z</time></trkpt><trkpt lat="45.63953707893032" lon="9.897127678141716"><ele>225.0</ele><time>2026-04-30T12:48:51Z</time></trkpt><trkpt lat="45.63952135187812" lon="9.897036783570195"><ele>225.00000000000003</ele><time>2026-04-30T12:48:52Z</time></trkpt><trkpt lat="45.639511894713976" lon="9.896944302427432"><ele>225.00000000000003</ele><time>2026-04-30T12:48:53Z</time></trkpt><trkpt lat="45.63950598213122" lon="9.896843985753724"><ele>225.0</ele><time>2026-04-30T12:48:54Z</time></trkpt><trkpt lat="45.63950470967398" lon="9.896744465335445"><ele>225.00000000000003</ele><time>2026-04-30T12:48:55Z</time></trkpt><trkpt lat="45.63949430688549" lon="9.896655582679202"><ele>225.00000000000003</ele><time>2026-04-30T12:48:56Z</time></trkpt><trkpt lat="45.63947428191772" lon="9.896569072014588"><ele>224.71428571428575</ele><time>2026-04-30T12:48:57Z</time></trkpt><trkpt lat="45.63945115284461" lon="9.89648047236986"><ele>224.42857142857144</ele><time>2026-04-30T12:48:58Z</time></trkpt><trkpt lat="45.63942281587508" lon="9.896391283251571"><ele>224.14285714285717</ele><time>2026-04-30T12:48:59Z</time></trkpt><trkpt lat="45.63939345259476" lon="9.896303366931404"><ele>223.8571428571429</ele><time>2026-04-30T12:49:00Z</time></trkpt><trkpt lat="45.63937378517158" lon="9.896212343733682"><ele>223.57142857142856</ele><time>2026-04-30T12:49:01Z</time></trkpt><trkpt lat="45.63935475145534" lon="9.8961189228551"><ele>223.28571428571428</ele><time>2026-04-30T12:49:02Z</time></trkpt><trkpt lat="45.639339287521565" lon="9.896025553534708"><ele>223.0</ele><time>2026-04-30T12:49:03Z</time></trkpt><trkpt lat="45.639321996761346" lon="9.895936244962087"><ele>223.14285714285714</ele><time>2026-04-30T12:49:04Z</time></trkpt><trkpt lat="45.639305543888625" lon="9.89584417267103"><ele>223.28571428571428</ele><time>2026-04-30T12:49:05Z</time></trkpt><trkpt lat="45.63929190516553" lon="9.895751266384744"><ele>223.42857142857144</ele><time>2026-04-30T12:49:06Z</time></trkpt><trkpt lat="45.63927725438635" lon="9.895659067897139"><ele>223.57142857142856</ele><time>2026-04-30T12:49:07Z</time></trkpt><trkpt lat="45.63926482258411" lon="9.895567503605243"><ele>223.71428571428572</ele><time>2026-04-30T12:49:08Z</time></trkpt><trkpt lat="45.63925403408637" lon="9.895477383586678"><ele>223.85714285714286</ele><time>2026-04-30T12:49:09Z</time></trkpt><trkpt lat="45.6392368868745" lon="9.895386075285789"><ele>224.0</ele><time>2026-04-30T12:49:10Z</time></trkpt><trkpt lat="45.639212195100406" lon="9.895212203650692"><ele>224.0</ele><time>2026-04-30T12:49:12Z</time></trkpt><trkpt lat="45.63919325714561" lon="9.895118252555564"><ele>224.0</ele><time>2026-04-30T12:49:13Z</time></trkpt><trkpt lat="45.63917987912805" lon="9.89502320348305"><ele>224.0</ele><time>2026-04-30T12:49:14Z</time></trkpt><trkpt lat="45.63916448490745" lon="9.894930309979507"><ele>224.0</ele><time>2026-04-30T12:49:15Z</time></trkpt><trkpt lat="45.63915202926922" lon="9.8948343238236"><ele>224.0</ele><time>2026-04-30T12:49:16Z</time></trkpt><trkpt lat="45.63914084883176" lon="9.89473943212547"><ele>224.0</ele><time>2026-04-30T12:49:17Z</time></trkpt><trkpt lat="45.63912550019947" lon="9.894644130263663"><ele>224.0</ele><time>2026-04-30T12:49:18Z</time></trkpt><trkpt lat="45.639109101465216" lon="9.8945527937677"><ele>223.66666666666669</ele><time>2026-04-30T12:49:19Z</time></trkpt><trkpt lat="45.6390942188817" lon="9.894461960778118"><ele>223.33333333333334</ele><time>2026-04-30T12:49:20Z</time></trkpt><trkpt lat="45.63907946034313" lon="9.894373237503148"><ele>223.0</ele><time>2026-04-30T12:49:21Z</time></trkpt><trkpt lat="45.639065455357894" lon="9.89428161471235"><ele>222.66666666666669</ele><time>2026-04-30T12:49:22Z</time></trkpt><trkpt lat="45.639042495574024" lon="9.894103972134943"><ele>222.33333333333334</ele><time>2026-04-30T12:49:24Z</time></trkpt><trkpt lat="45.63902848070731" lon="9.894012610887836"><ele>222.0</ele><time>2026-04-30T12:49:25Z</time></trkpt><trkpt lat="45.63901378901242" lon="9.893921020022526"><ele>221.85714285714286</ele><time>2026-04-30T12:49:26Z</time></trkpt><trkpt lat="45.63899962143184" lon="9.893829449293811"><ele>221.71428571428572</ele><time>2026-04-30T12:49:27Z</time></trkpt><trkpt lat="45.638983619379054" lon="9.89373685552468"><ele>221.57142857142858</ele><time>2026-04-30T12:49:28Z</time></trkpt><trkpt lat="45.63896801808967" lon="9.893646912901087"><ele>221.42857142857144</ele><time>2026-04-30T12:49:29Z</time></trkpt><trkpt lat="45.638954037385794" lon="9.893554454739617"><ele>221.28571428571428</ele><time>2026-04-30T12:49:30Z</time></trkpt><trkpt lat="45.63893794128613" lon="9.893463722519453"><ele>221.14285714285717</ele><time>2026-04-30T12:49:31Z</time></trkpt><trkpt lat="45.63892140952119" lon="9.893372886483395"><ele>221.0</ele><time>2026-04-30T12:49:32Z</time></trkpt><trkpt lat="45.63890673127458" lon="9.893282296344305"><ele>221.2857142857143</ele><time>2026-04-30T12:49:33Z</time></trkpt><trkpt lat="45.63889340970557" lon="9.893191587995842"><ele>221.57142857142858</ele><time>2026-04-30T12:49:34Z</time></trkpt><trkpt lat="45.638878383762055" lon="9.893101215314767"><ele>221.85714285714286</ele><time>2026-04-30T12:49:35Z</time></trkpt><trkpt lat="45.638865464248134" lon="9.893010374165828"><ele>222.14285714285717</ele><time>2026-04-30T12:49:36Z</time></trkpt><trkpt lat="45.638851513772174" lon="9.892919578090371"><ele>222.42857142857142</ele><time>2026-04-30T12:49:37Z</time></trkpt><trkpt lat="45.63883743960877" lon="9.892828995205711"><ele>222.71428571428572</ele><time>2026-04-30T12:49:38Z</time></trkpt><trkpt lat="45.638822383907716" lon="9.892741048622945"><ele>223.0</ele><time>2026-04-30T12:49:39Z</time></trkpt><trkpt lat="45.63880901403903" lon="9.89264932913278"><ele>222.8</ele><time>2026-04-30T12:49:40Z</time></trkpt><trkpt lat="45.63877734139096" lon="9.892472064948679"><ele>222.60000000000002</ele><time>2026-04-30T12:49:42Z</time></trkpt><trkpt lat="45.63876357137768" lon="9.892382255771116"><ele>222.39999999999998</ele><time>2026-04-30T12:49:43Z</time></trkpt><trkpt lat="45.63873794216392" lon="9.892202047015363"><ele>222.2</ele><time>2026-04-30T12:49:45Z</time></trkpt><trkpt lat="45.63872228020284" lon="9.892112757596623"><ele>222.0</ele><time>2026-04-30T12:49:46Z</time></trkpt><trkpt lat="45.63870969823943" lon="9.892019229908346"><ele>222.0</ele><time>2026-04-30T12:49:47Z</time></trkpt><trkpt lat="45.63869546084111" lon="9.891928649096073"><ele>222.0</ele><time>2026-04-30T12:49:48Z</time></trkpt><trkpt lat="45.63868124902797" lon="9.891835954326961"><ele>222.0</ele><time>2026-04-30T12:49:49Z</time></trkpt><trkpt lat="45.638665267167106" lon="9.891741946424311"><ele>222.0</ele><time>2026-04-30T12:49:50Z</time></trkpt><trkpt lat="45.63865331563708" lon="9.891647213229254"><ele>222.0</ele><time>2026-04-30T12:49:51Z</time></trkpt><trkpt lat="45.638638432430305" lon="9.891552095017405"><ele>222.0</ele><time>2026-04-30T12:49:52Z</time></trkpt><trkpt lat="45.63862712975777" lon="9.891456002702498"><ele>222.0</ele><time>2026-04-30T12:49:53Z</time></trkpt><trkpt lat="45.63861035257574" lon="9.891367283562367"><ele>221.7142857142857</ele><time>2026-04-30T12:49:54Z</time></trkpt><trkpt lat="45.638593722333376" lon="9.89126970930666"><ele>221.42857142857144</ele><time>2026-04-30T12:49:55Z</time></trkpt><trkpt lat="45.63858017908234" lon="9.891180921703896"><ele>221.14285714285714</ele><time>2026-04-30T12:49:56Z</time></trkpt><trkpt lat="45.63856846854919" lon="9.891086531239127"><ele>220.85714285714283</ele><time>2026-04-30T12:49:57Z</time></trkpt><trkpt lat="45.638557390519836" lon="9.890991423611894"><ele>220.57142857142856</ele><time>2026-04-30T12:49:58Z</time></trkpt><trkpt lat="45.63854510233517" lon="9.89089605251668"><ele>220.28571428571428</ele><time>2026-04-30T12:49:59Z</time></trkpt><trkpt lat="45.63852873195948" lon="9.890801377393892"><ele>220.0</ele><time>2026-04-30T12:50:00Z</time></trkpt><trkpt lat="45.63851395150565" lon="9.890703030291377"><ele>219.85714285714283</ele><time>2026-04-30T12:50:01Z</time></trkpt><trkpt lat="45.63849963372874" lon="9.890607213357853"><ele>219.71428571428572</ele><time>2026-04-30T12:50:02Z</time></trkpt><trkpt lat="45.63848815277316" lon="9.890510005887547"><ele>219.57142857142856</ele><time>2026-04-30T12:50:03Z</time></trkpt><trkpt lat="45.63847361927538" lon="9.890413256059723"><ele>219.42857142857142</ele><time>2026-04-30T12:50:04Z</time></trkpt><trkpt lat="45.63845968805313" lon="9.890315894053163"><ele>219.28571428571428</ele><time>2026-04-30T12:50:05Z</time></trkpt><trkpt lat="45.63844681086129" lon="9.890220387016328"><ele>219.14285714285714</ele><time>2026-04-30T12:50:06Z</time></trkpt><trkpt lat="45.6384335792318" lon="9.890122255481554"><ele>219.0</ele><time>2026-04-30T12:50:07Z</time></trkpt><trkpt lat="45.63842051855519" lon="9.89002785654776"><ele>218.83333333333334</ele><time>2026-04-30T12:50:08Z</time></trkpt><trkpt lat="45.638409193359465" lon="9.889931206830774"><ele>218.66666666666669</ele><time>2026-04-30T12:50:09Z</time></trkpt><trkpt lat="45.63839820880579" lon="9.889836910144933"><ele>218.5</ele><time>2026-04-30T12:50:10Z</time></trkpt><trkpt lat="45.638384948275885" lon="9.889746038750067"><ele>218.33333333333334</ele><time>2026-04-30T12:50:11Z</time></trkpt><trkpt lat="45.63837496693429" lon="9.889653841265524"><ele>218.16666666666669</ele><time>2026-04-30T12:50:12Z</time></trkpt><trkpt lat="45.63835796913335" lon="9.889561296441668"><ele>218.0</ele><time>2026-04-30T12:50:13Z</time></trkpt><trkpt lat="45.6383410213692" lon="9.889384360386776"><ele>218.0</ele><time>2026-04-30T12:50:15Z</time></trkpt><trkpt lat="45.63836081273842" lon="9.889290767114673"><ele>218.0</ele><time>2026-04-30T12:50:16Z</time></trkpt><trkpt lat="45.638384036424895" lon="9.889198297720982"><ele>218.0</ele><time>2026-04-30T12:50:17Z</time></trkpt><trkpt lat="45.63838759093993" lon="9.889100768403676"><ele>218.0</ele><time>2026-04-30T12:50:18Z</time></trkpt><trkpt lat="45.63836275886747" lon="9.889008013103053"><ele>218.0</ele><time>2026-04-30T12:50:19Z</time></trkpt><trkpt lat="45.63832188346301" lon="9.888928115282024"><ele>218.0</ele><time>2026-04-30T12:50:20Z</time></trkpt><trkpt lat="45.63827967209494" lon="9.888856490926198"><ele>218.0</ele><time>2026-04-30T12:50:21Z</time></trkpt><trkpt lat="45.63824719221661" lon="9.888775903221848"><ele>217.85714285714286</ele><time>2026-04-30T12:50:22Z</time></trkpt><trkpt lat="45.638223259266056" lon="9.888687726318713"><ele>217.71428571428572</ele><time>2026-04-30T12:50:23Z</time></trkpt><trkpt lat="45.63820863655426" lon="9.888595689001448"><ele>217.57142857142856</ele><time>2026-04-30T12:50:24Z</time></trkpt><trkpt lat="45.63819598060273" lon="9.888504342134649"><ele>217.42857142857144</ele><time>2026-04-30T12:50:25Z</time></trkpt><trkpt lat="45.638182146639764" lon="9.888411234911384"><ele>217.28571428571428</ele><time>2026-04-30T12:50:26Z</time></trkpt><trkpt lat="45.638165016757405" lon="9.888318421096463"><ele>217.14285714285714</ele><time>2026-04-30T12:50:27Z</time></trkpt><trkpt lat="45.63815164677823" lon="9.888224458859534"><ele>217.0</ele><time>2026-04-30T12:50:28Z</time></trkpt><trkpt lat="45.638139026765884" lon="9.888130118766282"><ele>217.0</ele><time>2026-04-30T12:50:29Z</time></trkpt><trkpt lat="45.638126228566165" lon="9.888036141234542"><ele>217.0</ele><time>2026-04-30T12:50:30Z</time></trkpt><trkpt lat="45.63811359546189" lon="9.887941749708439"><ele>217.0</ele><time>2026-04-30T12:50:31Z</time></trkpt><trkpt lat="45.63809765528429" lon="9.887851484297176"><ele>217.0</ele><time>2026-04-30T12:50:32Z</time></trkpt><trkpt lat="45.63808343559834" lon="9.88775915645139"><ele>217.0</ele><time>2026-04-30T12:50:33Z</time></trkpt><trkpt lat="45.638068679582645" lon="9.8876655410814"><ele>217.0</ele><time>2026-04-30T12:50:34Z</time></trkpt><trkpt lat="45.638055137268296" lon="9.887572191703061"><ele>217.0</ele><time>2026-04-30T12:50:35Z</time></trkpt><trkpt lat="45.63804328968829" lon="9.887478484313027"><ele>217.14285714285714</ele><time>2026-04-30T12:50:36Z</time></trkpt><trkpt lat="45.6380318654887" lon="9.887384450016501"><ele>217.28571428571428</ele><time>2026-04-30T12:50:37Z</time></trkpt><trkpt lat="45.63802191011225" lon="9.887292200681046"><ele>217.42857142857144</ele><time>2026-04-30T12:50:38Z</time></trkpt><trkpt lat="45.63800902272571" lon="9.887201005857213"><ele>217.57142857142856</ele><time>2026-04-30T12:50:39Z</time></trkpt><trkpt lat="45.63799656110298" lon="9.887108077993277"><ele>217.71428571428572</ele><time>2026-04-30T12:50:40Z</time></trkpt><trkpt lat="45.63798403401555" lon="9.887015437757494"><ele>217.85714285714286</ele><time>2026-04-30T12:50:41Z</time></trkpt><trkpt lat="45.63797145047069" lon="9.886923164553483"><ele>218.0</ele><time>2026-04-30T12:50:42Z</time></trkpt><trkpt lat="45.63795793431915" lon="9.886830837833196"><ele>217.85714285714286</ele><time>2026-04-30T12:50:43Z</time></trkpt><trkpt lat="45.63794484324461" lon="9.886738467446852"><ele>217.71428571428572</ele><time>2026-04-30T12:50:44Z</time></trkpt><trkpt lat="45.63793010229627" lon="9.886647300376858"><ele>217.57142857142856</ele><time>2026-04-30T12:50:45Z</time></trkpt><trkpt lat="45.637914082886425" lon="9.886558657088809"><ele>217.42857142857144</ele><time>2026-04-30T12:50:46Z</time></trkpt><trkpt lat="45.63789966139803" lon="9.886467586350092"><ele>217.28571428571428</ele><time>2026-04-30T12:50:47Z</time></trkpt><trkpt lat="45.63789153624369" lon="9.88637574884597"><ele>217.14285714285714</ele><time>2026-04-30T12:50:48Z</time></trkpt><trkpt lat="45.63788575813314" lon="9.88628470439721"><ele>217.0</ele><time>2026-04-30T12:50:49Z</time></trkpt><trkpt lat="45.63787846184761" lon="9.886192269716135"><ele>217.0</ele><time>2026-04-30T12:50:50Z</time></trkpt><trkpt lat="45.63788105742921" lon="9.886100550135772"><ele>217.0</ele><time>2026-04-30T12:50:51Z</time></trkpt><trkpt lat="45.63789376969399" lon="9.886009566711435"><ele>217.0</ele><time>2026-04-30T12:50:52Z</time></trkpt><trkpt lat="45.637913377268504" lon="9.885923055138717"><ele>217.0</ele><time>2026-04-30T12:50:53Z</time></trkpt><trkpt lat="45.63793492263575" lon="9.88583378203775"><ele>217.0</ele><time>2026-04-30T12:50:54Z</time></trkpt><trkpt lat="45.63795387611319" lon="9.885740588890558"><ele>217.0</ele><time>2026-04-30T12:50:55Z</time></trkpt><trkpt lat="45.63796287042124" lon="9.885646411609146"><ele>217.0</ele><time>2026-04-30T12:50:56Z</time></trkpt><trkpt lat="45.637954178563014" lon="9.88555108402975"><ele>216.66666666666666</ele><time>2026-04-30T12:50:57Z</time></trkpt><trkpt lat="45.637929894459255" lon="9.88545704701355"><ele>216.33333333333331</ele><time>2026-04-30T12:50:58Z</time></trkpt><trkpt lat="45.637895931343586" lon="9.885378240709567"><ele>216.0</ele><time>2026-04-30T12:50:59Z</time></trkpt><trkpt lat="45.63785493349065" lon="9.885305264607213"><ele>215.66666666666669</ele><time>2026-04-30T12:51:00Z</time></trkpt><trkpt lat="45.6378093212986" lon="9.88523707323858"><ele>215.33333333333334</ele><time>2026-04-30T12:51:01Z</time></trkpt><trkpt lat="45.63772581970732" lon="9.885094463084439"><ele>215.0</ele><time>2026-04-30T12:51:03Z</time></trkpt><trkpt lat="45.63770540251783" lon="9.885009089518865"><ele>214.85714285714286</ele><time>2026-04-30T12:51:04Z</time></trkpt><trkpt lat="45.637693930821555" lon="9.884913511349518"><ele>214.71428571428572</ele><time>2026-04-30T12:51:05Z</time></trkpt><trkpt lat="45.63768302133902" lon="9.88482299348256"><ele>214.57142857142858</ele><time>2026-04-30T12:51:06Z</time></trkpt><trkpt lat="45.63767100710274" lon="9.884727680761841"><ele>214.42857142857144</ele><time>2026-04-30T12:51:07Z</time></trkpt><trkpt lat="45.63765876361215" lon="9.884637392160403"><ele>214.28571428571428</ele><time>2026-04-30T12:51:08Z</time></trkpt><trkpt lat="45.63764654596065" lon="9.884546386339075"><ele>214.14285714285717</ele><time>2026-04-30T12:51:09Z</time></trkpt><trkpt lat="45.63763505325598" lon="9.884451412620992"><ele>214.0</ele><time>2026-04-30T12:51:10Z</time></trkpt><trkpt lat="45.637622112601505" lon="9.88435820854849"><ele>214.00000000000003</ele><time>2026-04-30T12:51:11Z</time></trkpt><trkpt lat="45.63760819384505" lon="9.884266671240905"><ele>214.0</ele><time>2026-04-30T12:51:12Z</time></trkpt><trkpt lat="45.63759512580018" lon="9.88417317460431"><ele>214.0</ele><time>2026-04-30T12:51:13Z</time></trkpt><trkpt lat="45.637582721713414" lon="9.884080119724596"><ele>214.0</ele><time>2026-04-30T12:51:14Z</time></trkpt><trkpt lat="45.637572477951245" lon="9.88398871162175"><ele>214.0</ele><time>2026-04-30T12:51:15Z</time></trkpt><trkpt lat="45.63755817192028" lon="9.883894256234102"><ele>214.00000000000003</ele><time>2026-04-30T12:51:16Z</time></trkpt><trkpt lat="45.63754412834244" lon="9.883801791845075"><ele>214.0</ele><time>2026-04-30T12:51:17Z</time></trkpt><trkpt lat="45.63753390003911" lon="9.883712154239996"><ele>213.85714285714286</ele><time>2026-04-30T12:51:18Z</time></trkpt><trkpt lat="45.63752234950991" lon="9.883620710149767"><ele>213.71428571428572</ele><time>2026-04-30T12:51:19Z</time></trkpt><trkpt lat="45.6375101416862" lon="9.88352755467021"><ele>213.57142857142856</ele><time>2026-04-30T12:51:20Z</time></trkpt><trkpt lat="45.637496218805346" lon="9.883436760999368"><ele>213.42857142857144</ele><time>2026-04-30T12:51:21Z</time></trkpt><trkpt lat="45.63748169846549" lon="9.883341932844704"><ele>213.28571428571428</ele><time>2026-04-30T12:51:22Z</time></trkpt><trkpt lat="45.63746739605468" lon="9.883250894642767"><ele>213.14285714285714</ele><time>2026-04-30T12:51:23Z</time></trkpt><trkpt lat="45.637455348007755" lon="9.883158242433726"><ele>213.0</ele><time>2026-04-30T12:51:24Z</time></trkpt><trkpt lat="45.6374421941552" lon="9.883065456831341"><ele>213.0</ele><time>2026-04-30T12:51:25Z</time></trkpt><trkpt lat="45.6374303054754" lon="9.882971268609822"><ele>213.0</ele><time>2026-04-30T12:51:26Z</time></trkpt><trkpt lat="45.63740373257448" lon="9.882788330880182"><ele>213.0</ele><time>2026-04-30T12:51:28Z</time></trkpt><trkpt lat="45.637389864799715" lon="9.88270042100895"><ele>213.0</ele><time>2026-04-30T12:51:29Z</time></trkpt><trkpt lat="45.637377541776836" lon="9.882607818118226"><ele>213.0</ele><time>2026-04-30T12:51:30Z</time></trkpt><trkpt lat="45.637362174607986" lon="9.882516426844452"><ele>213.0</ele><time>2026-04-30T12:51:31Z</time></trkpt><trkpt lat="45.6373473259084" lon="9.882425792091892"><ele>212.99999999999997</ele><time>2026-04-30T12:51:32Z</time></trkpt><trkpt lat="45.6373329835137" lon="9.88233621743671"><ele>213.0</ele><time>2026-04-30T12:51:33Z</time></trkpt><trkpt lat="45.63732130162875" lon="9.882245053383121"><ele>213.0</ele><time>2026-04-30T12:51:34Z</time></trkpt><trkpt lat="45.63730901449121" lon="9.882156517796885"><ele>213.0</ele><time>2026-04-30T12:51:35Z</time></trkpt><trkpt lat="45.637298551443365" lon="9.882066229049924"><ele>213.0</ele><time>2026-04-30T12:51:36Z</time></trkpt><trkpt lat="45.637286642331965" lon="9.881973979001714"><ele>212.99999999999997</ele><time>2026-04-30T12:51:37Z</time></trkpt><trkpt lat="45.63727706900484" lon="9.881881288900367"><ele>213.0</ele><time>2026-04-30T12:51:38Z</time></trkpt><trkpt lat="45.63726896532768" lon="9.881789906071564"><ele>212.99999999999997</ele><time>2026-04-30T12:51:39Z</time></trkpt><trkpt lat="45.637253477396655" lon="9.88169842865057"><ele>213.0</ele><time>2026-04-30T12:51:40Z</time></trkpt><trkpt lat="45.637239516476946" lon="9.881604329498323"><ele>213.0</ele><time>2026-04-30T12:51:41Z</time></trkpt><trkpt lat="45.637226018167944" lon="9.881511897738347"><ele>213.0</ele><time>2026-04-30T12:51:42Z</time></trkpt><trkpt lat="45.63721272510079" lon="9.881417339509236"><ele>213.0</ele><time>2026-04-30T12:51:43Z</time></trkpt><trkpt lat="45.63720249516471" lon="9.88132429844288"><ele>212.99999999999997</ele><time>2026-04-30T12:51:44Z</time></trkpt><trkpt lat="45.63718892842972" lon="9.88123039652257"><ele>213.0</ele><time>2026-04-30T12:51:45Z</time></trkpt><trkpt lat="45.63717443280012" lon="9.881137183722466"><ele>212.99999999999997</ele><time>2026-04-30T12:51:46Z</time></trkpt><trkpt lat="45.63716264001721" lon="9.881041723768071"><ele>213.0</ele><time>2026-04-30T12:51:47Z</time></trkpt><trkpt lat="45.63714992043369" lon="9.880950233524054"><ele>213.0</ele><time>2026-04-30T12:51:48Z</time></trkpt><trkpt lat="45.63713794866904" lon="9.880856342814079"><ele>213.0</ele><time>2026-04-30T12:51:49Z</time></trkpt><trkpt lat="45.637123691444046" lon="9.880765584554096"><ele>213.0</ele><time>2026-04-30T12:51:50Z</time></trkpt><trkpt lat="45.63711062093571" lon="9.880673409789482"><ele>212.99999999999997</ele><time>2026-04-30T12:51:51Z</time></trkpt><trkpt lat="45.63709661405402" lon="9.880581796721017"><ele>213.0</ele><time>2026-04-30T12:51:52Z</time></trkpt><trkpt lat="45.637083931009904" lon="9.880488026845931"><ele>212.99999999999997</ele><time>2026-04-30T12:51:53Z</time></trkpt><trkpt lat="45.63707115213457" lon="9.880395147991198"><ele>213.0</ele><time>2026-04-30T12:51:54Z</time></trkpt><trkpt lat="45.637059609117735" lon="9.880303443195595"><ele>213.0</ele><time>2026-04-30T12:51:55Z</time></trkpt><trkpt lat="45.637048689330726" lon="9.88021141964473"><ele>213.0</ele><time>2026-04-30T12:51:56Z</time></trkpt><trkpt lat="45.637049596797304" lon="9.880118240230397"><ele>213.0</ele><time>2026-04-30T12:51:57Z</time></trkpt><trkpt lat="45.6370567704922" lon="9.880027045670479"><ele>212.99999999999997</ele><time>2026-04-30T12:51:58Z</time></trkpt><trkpt lat="45.63705213179452" lon="9.879932641349534"><ele>213.0</ele><time>2026-04-30T12:51:59Z</time></trkpt><trkpt lat="45.63701947299437" lon="9.879849819276465"><ele>213.14285714285714</ele><time>2026-04-30T12:52:00Z</time></trkpt><trkpt lat="45.63698816659186" lon="9.87976717054919"><ele>213.28571428571428</ele><time>2026-04-30T12:52:01Z</time></trkpt><trkpt lat="45.63696370082583" lon="9.879677585061282"><ele>213.42857142857144</ele><time>2026-04-30T12:52:02Z</time></trkpt><trkpt lat="45.636941472477304" lon="9.87958937212343"><ele>213.57142857142856</ele><time>2026-04-30T12:52:03Z</time></trkpt><trkpt lat="45.63691979364385" lon="9.879500599363086"><ele>213.71428571428572</ele><time>2026-04-30T12:52:04Z</time></trkpt><trkpt lat="45.63690309668878" lon="9.879410309922443"><ele>213.85714285714286</ele><time>2026-04-30T12:52:05Z</time></trkpt><trkpt lat="45.636894235106475" lon="9.87932035395469"><ele>214.0</ele><time>2026-04-30T12:52:06Z</time></trkpt><trkpt lat="45.636883023130466" lon="9.879225410936575"><ele>213.71428571428572</ele><time>2026-04-30T12:52:07Z</time></trkpt><trkpt lat="45.63687097607046" lon="9.879136953157904"><ele>213.42857142857144</ele><time>2026-04-30T12:52:08Z</time></trkpt><trkpt lat="45.6368591361485" lon="9.879043667583193"><ele>213.14285714285717</ele><time>2026-04-30T12:52:09Z</time></trkpt><trkpt lat="45.63684988027371" lon="9.878952634578773"><ele>212.85714285714286</ele><time>2026-04-30T12:52:10Z</time></trkpt><trkpt lat="45.636838396569054" lon="9.878860541843116"><ele>212.57142857142856</ele><time>2026-04-30T12:52:11Z</time></trkpt><trkpt lat="45.636824180497186" lon="9.878771478507016"><ele>212.2857142857143</ele><time>2026-04-30T12:52:12Z</time></trkpt><trkpt lat="45.63681061791272" lon="9.87867870873111"><ele>212.0</ele><time>2026-04-30T12:52:13Z</time></trkpt><trkpt lat="45.63679753838645" lon="9.87858901509621"><ele>212.0</ele><time>2026-04-30T12:52:14Z</time></trkpt><trkpt lat="45.63678413023779" lon="9.8784960800445"><ele>212.0</ele><time>2026-04-30T12:52:15Z</time></trkpt><trkpt lat="45.63677362444745" lon="9.878403679179339"><ele>212.0</ele><time>2026-04-30T12:52:16Z</time></trkpt><trkpt lat="45.63676026092344" lon="9.878314311546632"><ele>212.0</ele><time>2026-04-30T12:52:17Z</time></trkpt><trkpt lat="45.636745506416126" lon="9.878221459070005"><ele>212.0</ele><time>2026-04-30T12:52:18Z</time></trkpt><trkpt lat="45.63673318847391" lon="9.878127501874822"><ele>212.0</ele><time>2026-04-30T12:52:19Z</time></trkpt><trkpt lat="45.636720995653015" lon="9.878036251546845"><ele>212.0</ele><time>2026-04-30T12:52:20Z</time></trkpt><trkpt lat="45.6367060682179" lon="9.877943663770841"><ele>212.0</ele><time>2026-04-30T12:52:21Z</time></trkpt><trkpt lat="45.636692118423" lon="9.87785101473987"><ele>212.0</ele><time>2026-04-30T12:52:22Z</time></trkpt><trkpt lat="45.63667859531671" lon="9.877757250106628"><ele>212.0</ele><time>2026-04-30T12:52:23Z</time></trkpt><trkpt lat="45.636665087972744" lon="9.877666363924638"><ele>212.0</ele><time>2026-04-30T12:52:24Z</time></trkpt><trkpt lat="45.63665216856635" lon="9.877572570195651"><ele>212.0</ele><time>2026-04-30T12:52:25Z</time></trkpt><trkpt lat="45.636640221015604" lon="9.877479415561483"><ele>212.0</ele><time>2026-04-30T12:52:26Z</time></trkpt><trkpt lat="45.63662757235074" lon="9.877385677279625"><ele>212.0</ele><time>2026-04-30T12:52:27Z</time></trkpt><trkpt lat="45.63661483416435" lon="9.877293031683966"><ele>212.0</ele><time>2026-04-30T12:52:28Z</time></trkpt><trkpt lat="45.636601613455774" lon="9.877200724185561"><ele>212.0</ele><time>2026-04-30T12:52:29Z</time></trkpt><trkpt lat="45.63659448675964" lon="9.87710825946012"><ele>212.0</ele><time>2026-04-30T12:52:30Z</time></trkpt><trkpt lat="45.63658357821682" lon="9.877016187828056"><ele>212.0</ele><time>2026-04-30T12:52:31Z</time></trkpt><trkpt lat="45.63657311254538" lon="9.876923864376758"><ele>212.0</ele><time>2026-04-30T12:52:32Z</time></trkpt><trkpt lat="45.63656342389877" lon="9.876829583220246"><ele>212.0</ele><time>2026-04-30T12:52:33Z</time></trkpt><trkpt lat="45.636552206883664" lon="9.876736236106195"><ele>212.0</ele><time>2026-04-30T12:52:34Z</time></trkpt><trkpt lat="45.636529705507144" lon="9.876556004115132"><ele>212.00000000000003</ele><time>2026-04-30T12:52:36Z</time></trkpt><trkpt lat="45.636520868004524" lon="9.876462595786112"><ele>212.0</ele><time>2026-04-30T12:52:37Z</time></trkpt><trkpt lat="45.636499745050884" lon="9.876286228507203"><ele>212.0</ele><time>2026-04-30T12:52:39Z</time></trkpt><trkpt lat="45.63649048685557" lon="9.876196375752324"><ele>212.0</ele><time>2026-04-30T12:52:40Z</time></trkpt><trkpt lat="45.636481383553615" lon="9.876101451635833"><ele>212.00000000000003</ele><time>2026-04-30T12:52:41Z</time></trkpt><trkpt lat="45.636465031604516" lon="9.876010700998709"><ele>212.0</ele><time>2026-04-30T12:52:42Z</time></trkpt><trkpt lat="45.63645081075161" lon="9.875918744881224"><ele>212.0</ele><time>2026-04-30T12:52:43Z</time></trkpt><trkpt lat="45.63643646605892" lon="9.875826029599763"><ele>212.0</ele><time>2026-04-30T12:52:44Z</time></trkpt><trkpt lat="45.6364225070986" lon="9.875734398511518"><ele>212.0</ele><time>2026-04-30T12:52:45Z</time></trkpt><trkpt lat="45.63640807794903" lon="9.875641493910777"><ele>212.0</ele><time>2026-04-30T12:52:46Z</time></trkpt><trkpt lat="45.63639592776584" lon="9.875550658497058"><ele>212.0</ele><time>2026-04-30T12:52:47Z</time></trkpt><trkpt lat="45.63638361157052" lon="9.87546045049856"><ele>212.0</ele><time>2026-04-30T12:52:48Z</time></trkpt><trkpt lat="45.63637374147571" lon="9.87536962668571"><ele>212.0</ele><time>2026-04-30T12:52:49Z</time></trkpt><trkpt lat="45.63633933037963" lon="9.875202375918137"><ele>211.83333333333334</ele><time>2026-04-30T12:52:51Z</time></trkpt><trkpt lat="45.63630987481001" lon="9.875054578638508"><ele>211.66666666666669</ele><time>2026-04-30T12:52:53Z</time></trkpt><trkpt lat="45.63628927208359" lon="9.874882929619627"><ele>211.5</ele><time>2026-04-30T12:52:55Z</time></trkpt><trkpt lat="45.63627463941318" lon="9.874791914552288"><ele>211.33333333333331</ele><time>2026-04-30T12:52:56Z</time></trkpt><trkpt lat="45.6362626634692" lon="9.87469839846792"><ele>211.16666666666666</ele><time>2026-04-30T12:52:57Z</time></trkpt><trkpt lat="45.636245355796284" lon="9.87460807306312"><ele>211.0</ele><time>2026-04-30T12:52:58Z</time></trkpt><trkpt lat="45.636235183136115" lon="9.874512023708618"><ele>211.0</ele><time>2026-04-30T12:52:59Z</time></trkpt><trkpt lat="45.63621496485353" lon="9.874423209434589"><ele>211.0</ele><time>2026-04-30T12:53:00Z</time></trkpt><trkpt lat="45.636199013642674" lon="9.874336065220415"><ele>211.0</ele><time>2026-04-30T12:53:01Z</time></trkpt><trkpt lat="45.63618925838017" lon="9.874236678644571"><ele>211.0</ele><time>2026-04-30T12:53:02Z</time></trkpt><trkpt lat="45.63616697958801" lon="9.874149499910299"><ele>211.0</ele><time>2026-04-30T12:53:03Z</time></trkpt><trkpt lat="45.636159296035686" lon="9.874056005975008"><ele>211.0</ele><time>2026-04-30T12:53:04Z</time></trkpt><trkpt lat="45.636145381234506" lon="9.873959743292184"><ele>211.0</ele><time>2026-04-30T12:53:05Z</time></trkpt><trkpt lat="45.636125434248264" lon="9.873775938792216"><ele>210.83333333333331</ele><time>2026-04-30T12:53:07Z</time></trkpt><trkpt lat="45.63610594005658" lon="9.873597179581727"><ele>210.66666666666666</ele><time>2026-04-30T12:53:09Z</time></trkpt><trkpt lat="45.63608498196939" lon="9.873511227294362"><ele>210.5</ele><time>2026-04-30T12:53:10Z</time></trkpt><trkpt lat="45.63607034591791" lon="9.873421092318942"><ele>210.33333333333331</ele><time>2026-04-30T12:53:11Z</time></trkpt><trkpt lat="45.63605678330131" lon="9.873328660800079"><ele>210.16666666666666</ele><time>2026-04-30T12:53:12Z</time></trkpt><trkpt lat="45.63604419834176" lon="9.873236655164966"><ele>210.0</ele><time>2026-04-30T12:53:13Z</time></trkpt><trkpt lat="45.6360212535397" lon="9.873055315993755"><ele>209.85714285714286</ele><time>2026-04-30T12:53:15Z</time></trkpt><trkpt lat="45.63601231792707" lon="9.872963504651299"><ele>209.71428571428572</ele><time>2026-04-30T12:53:16Z</time></trkpt><trkpt lat="45.63600205698277" lon="9.872873396173494"><ele>209.57142857142856</ele><time>2026-04-30T12:53:17Z</time></trkpt><trkpt lat="45.635993968415065" lon="9.872782638455398"><ele>209.42857142857144</ele><time>2026-04-30T12:53:18Z</time></trkpt><trkpt lat="45.63598640997838" lon="9.872692491038174"><ele>209.28571428571428</ele><time>2026-04-30T12:53:19Z</time></trkpt><trkpt lat="45.635982998040205" lon="9.872599453573056"><ele>209.14285714285714</ele><time>2026-04-30T12:53:20Z</time></trkpt><trkpt lat="45.635988520427205" lon="9.87250363516648"><ele>209.0</ele><time>2026-04-30T12:53:21Z</time></trkpt><trkpt lat="45.635986504253104" lon="9.872409438474117"><ele>209.00000000000003</ele><time>2026-04-30T12:53:22Z</time></trkpt><trkpt lat="45.63598277724529" lon="9.872314563071086"><ele>209.0</ele><time>2026-04-30T12:53:23Z</time></trkpt><trkpt lat="45.635985415712874" lon="9.872215580598322"><ele>209.0</ele><time>2026-04-30T12:53:24Z</time></trkpt><trkpt lat="45.635985356921445" lon="9.872123340327503"><ele>209.0</ele><time>2026-04-30T12:53:25Z</time></trkpt><trkpt lat="45.63599141652852" lon="9.871934186970357"><ele>209.00000000000003</ele><time>2026-04-30T12:53:27Z</time></trkpt><trkpt lat="45.636011341733216" lon="9.871846244699043"><ele>209.0</ele><time>2026-04-30T12:53:28Z</time></trkpt><trkpt lat="45.63602786589953" lon="9.871752976413575"><ele>209.14285714285714</ele><time>2026-04-30T12:53:29Z</time></trkpt><trkpt lat="45.63603667760057" lon="9.87166105808166"><ele>209.28571428571428</ele><time>2026-04-30T12:53:30Z</time></trkpt><trkpt lat="45.63604583780338" lon="9.871564305204684"><ele>209.42857142857144</ele><time>2026-04-30T12:53:31Z</time></trkpt><trkpt lat="45.63605508448126" lon="9.871471529277903"><ele>209.57142857142856</ele><time>2026-04-30T12:53:32Z</time></trkpt><trkpt lat="45.6360665788932" lon="9.871378992143296"><ele>209.71428571428572</ele><time>2026-04-30T12:53:33Z</time></trkpt><trkpt lat="45.63607556703206" lon="9.871286139363166"><ele>209.85714285714286</ele><time>2026-04-30T12:53:34Z</time></trkpt><trkpt lat="45.6360855689572" lon="9.871194735880579"><ele>210.0</ele><time>2026-04-30T12:53:35Z</time></trkpt><trkpt lat="45.636087759812064" lon="9.871103282239556"><ele>210.0</ele><time>2026-04-30T12:53:36Z</time></trkpt><trkpt lat="45.63609405954179" lon="9.871010183909632"><ele>210.0</ele><time>2026-04-30T12:53:37Z</time></trkpt><trkpt lat="45.63611376548426" lon="9.870848980178751"><ele>210.0</ele><time>2026-04-30T12:53:39Z</time></trkpt><trkpt lat="45.63613138164721" lon="9.870686582736223"><ele>210.0</ele><time>2026-04-30T12:53:41Z</time></trkpt><trkpt lat="45.63614269439691" lon="9.870548038403784"><ele>210.0</ele><time>2026-04-30T12:53:43Z</time></trkpt><trkpt lat="45.63614051383234" lon="9.870396684821115"><ele>211.6</ele><time>2026-04-30T12:53:45Z</time></trkpt><trkpt lat="45.636145114747016" lon="9.87027247079322"><ele>213.2</ele><time>2026-04-30T12:53:47Z</time></trkpt><trkpt lat="45.63615662687008" lon="9.870125180877716"><ele>214.8</ele><time>2026-04-30T12:53:49Z</time></trkpt><trkpt lat="45.636166168280184" lon="9.869983384565483"><ele>216.4</ele><time>2026-04-30T12:53:51Z</time></trkpt><trkpt lat="45.6361780161419" lon="9.869849572732186"><ele>218.0</ele><time>2026-04-30T12:53:53Z</time></trkpt><trkpt lat="45.63619188640015" lon="9.869699274052698"><ele>218.0</ele><time>2026-04-30T12:53:55Z</time></trkpt><trkpt lat="45.63619472781884" lon="9.86954458566527"><ele>218.0</ele><time>2026-04-30T12:53:57Z</time></trkpt><trkpt lat="45.636195023377496" lon="9.869448338358268"><ele>218.0</ele><time>2026-04-30T12:53:58Z</time></trkpt><trkpt lat="45.636204230623626" lon="9.869352745026037"><ele>218.0</ele><time>2026-04-30T12:53:59Z</time></trkpt><trkpt lat="45.636213391385205" lon="9.869255423290522"><ele>218.0</ele><time>2026-04-30T12:54:00Z</time></trkpt><trkpt lat="45.63622240624459" lon="9.869157587707564"><ele>218.0</ele><time>2026-04-30T12:54:01Z</time></trkpt><trkpt lat="45.636225732558074" lon="9.869060902296454"><ele>218.0</ele><time>2026-04-30T12:54:02Z</time></trkpt><trkpt lat="45.63622758263298" lon="9.868960936436524"><ele>217.71428571428572</ele><time>2026-04-30T12:54:03Z</time></trkpt><trkpt lat="45.63622944180791" lon="9.86885884540923"><ele>217.42857142857144</ele><time>2026-04-30T12:54:04Z</time></trkpt><trkpt lat="45.63623936560747" lon="9.868757879111145"><ele>217.14285714285714</ele><time>2026-04-30T12:54:05Z</time></trkpt><trkpt lat="45.636261746544335" lon="9.868665784481326"><ele>216.85714285714286</ele><time>2026-04-30T12:54:06Z</time></trkpt><trkpt lat="45.63627653150078" lon="9.868573568815311"><ele>216.57142857142856</ele><time>2026-04-30T12:54:07Z</time></trkpt><trkpt lat="45.63629272488014" lon="9.86848163921061"><ele>216.28571428571428</ele><time>2026-04-30T12:54:08Z</time></trkpt><trkpt lat="45.636311976409864" lon="9.868388227050303"><ele>216.0</ele><time>2026-04-30T12:54:09Z</time></trkpt><trkpt lat="45.636331880960526" lon="9.868295730627954"><ele>215.57142857142856</ele><time>2026-04-30T12:54:10Z</time></trkpt><trkpt lat="45.63634837118521" lon="9.868206481055632"><ele>215.14285714285714</ele><time>2026-04-30T12:54:11Z</time></trkpt><trkpt lat="45.636363459825056" lon="9.868116613250377"><ele>214.71428571428572</ele><time>2026-04-30T12:54:12Z</time></trkpt><trkpt lat="45.636379549432334" lon="9.868026671431428"><ele>214.28571428571428</ele><time>2026-04-30T12:54:13Z</time></trkpt><trkpt lat="45.63639757440442" lon="9.867936545593384"><ele>213.85714285714286</ele><time>2026-04-30T12:54:14Z</time></trkpt><trkpt lat="45.63641779977111" lon="9.867848789785217"><ele>213.42857142857142</ele><time>2026-04-30T12:54:15Z</time></trkpt><trkpt lat="45.636434910094074" lon="9.867759046644796"><ele>213.0</ele><time>2026-04-30T12:54:16Z</time></trkpt><trkpt lat="45.63645476472856" lon="9.867673326421036"><ele>212.33333333333334</ele><time>2026-04-30T12:54:17Z</time></trkpt><trkpt lat="45.636511806250844" lon="9.867510162221427"><ele>211.66666666666669</ele><time>2026-04-30T12:54:19Z</time></trkpt><trkpt lat="45.63658282022306" lon="9.867363336015314"><ele>211.0</ele><time>2026-04-30T12:54:21Z</time></trkpt><trkpt lat="45.6366201353146" lon="9.867288225341621"><ele>210.33333333333334</ele><time>2026-04-30T12:54:22Z</time></trkpt><trkpt lat="45.63665762235225" lon="9.867213282295218"><ele>209.66666666666669</ele><time>2026-04-30T12:54:23Z</time></trkpt><trkpt lat="45.63669888144092" lon="9.867140669058934"><ele>209.0</ele><time>2026-04-30T12:54:24Z</time></trkpt><trkpt lat="45.636742010313235" lon="9.867073036496905"><ele>209.0</ele><time>2026-04-30T12:54:25Z</time></trkpt><trkpt lat="45.636784371743786" lon="9.867002096499563"><ele>209.0</ele><time>2026-04-30T12:54:26Z</time></trkpt><trkpt lat="45.63683018789255" lon="9.86693484671943"><ele>209.0</ele><time>2026-04-30T12:54:27Z</time></trkpt><trkpt lat="45.636874104044246" lon="9.866869896318738"><ele>209.0</ele><time>2026-04-30T12:54:28Z</time></trkpt><trkpt lat="45.63691950003374" lon="9.866803585518568"><ele>209.0</ele><time>2026-04-30T12:54:29Z</time></trkpt><trkpt lat="45.63697278389211" lon="9.866749100260543"><ele>209.0</ele><time>2026-04-30T12:54:30Z</time></trkpt><trkpt lat="45.63702104610832" lon="9.866689663832876"><ele>209.0</ele><time>2026-04-30T12:54:31Z</time></trkpt><trkpt lat="45.63707118912609" lon="9.866633103683622"><ele>209.33333333333334</ele><time>2026-04-30T12:54:32Z</time></trkpt><trkpt lat="45.63712284654019" lon="9.866577658718366"><ele>209.66666666666669</ele><time>2026-04-30T12:54:33Z</time></trkpt><trkpt lat="45.637175784427946" lon="9.866527385350043"><ele>210.0</ele><time>2026-04-30T12:54:34Z</time></trkpt><trkpt lat="45.637229456781164" lon="9.86647401417616"><ele>210.33333333333331</ele><time>2026-04-30T12:54:35Z</time></trkpt><trkpt lat="45.637332763461316" lon="9.866376047152068"><ele>210.66666666666666</ele><time>2026-04-30T12:54:37Z</time></trkpt><trkpt lat="45.6374307296885" lon="9.866261971605466"><ele>211.0</ele><time>2026-04-30T12:54:39Z</time></trkpt><trkpt lat="45.637530395347866" lon="9.866153983616659"><ele>210.99999999999997</ele><time>2026-04-30T12:54:41Z</time></trkpt><trkpt lat="45.6376165438848" lon="9.866024018521127"><ele>211.0</ele><time>2026-04-30T12:54:43Z</time></trkpt><trkpt lat="45.6376457615259" lon="9.86594407473528"><ele>211.0</ele><time>2026-04-30T12:54:44Z</time></trkpt><trkpt lat="45.63767500157369" lon="9.865863373939602"><ele>211.0</ele><time>2026-04-30T12:54:45Z</time></trkpt><trkpt lat="45.63771016042527" lon="9.865787421866182"><ele>210.99999999999997</ele><time>2026-04-30T12:54:46Z</time></trkpt><trkpt lat="45.63778433003175" lon="9.865645654649411"><ele>211.0</ele><time>2026-04-30T12:54:48Z</time></trkpt><trkpt lat="45.63782519831309" lon="9.865577158085603"><ele>213.0</ele><time>2026-04-30T12:54:49Z</time></trkpt><trkpt lat="45.6378695604644" lon="9.865511118239969"><ele>215.0</ele><time>2026-04-30T12:54:50Z</time></trkpt><trkpt lat="45.63796118227277" lon="9.865387454666381"><ele>217.0</ele><time>2026-04-30T12:54:52Z</time></trkpt><trkpt lat="45.63801181261391" lon="9.86533333282412"><ele>219.0</ele><time>2026-04-30T12:54:53Z</time></trkpt><trkpt lat="45.63806249877077" lon="9.865279437308093"><ele>221.0</ele><time>2026-04-30T12:54:54Z</time></trkpt><trkpt lat="45.6381153435712" lon="9.865228412271541"><ele>223.00000000000003</ele><time>2026-04-30T12:54:55Z</time></trkpt><trkpt lat="45.63817133530232" lon="9.86517597752526"><ele>225.00000000000003</ele><time>2026-04-30T12:54:56Z</time></trkpt><trkpt lat="45.63822458913387" lon="9.865122437203297"><ele>223.14285714285717</ele><time>2026-04-30T12:54:57Z</time></trkpt><trkpt lat="45.638279431105644" lon="9.865067015741225"><ele>221.28571428571428</ele><time>2026-04-30T12:54:58Z</time></trkpt><trkpt lat="45.63833389848674" lon="9.865016369722014"><ele>219.42857142857144</ele><time>2026-04-30T12:54:59Z</time></trkpt><trkpt lat="45.638388570167955" lon="9.864959814372654"><ele>217.57142857142858</ele><time>2026-04-30T12:55:00Z</time></trkpt><trkpt lat="45.638440046559204" lon="9.864903409149708"><ele>215.71428571428572</ele><time>2026-04-30T12:55:01Z</time></trkpt><trkpt lat="45.63848600336835" lon="9.864835294774268"><ele>213.85714285714286</ele><time>2026-04-30T12:55:02Z</time></trkpt><trkpt lat="45.63853363901172" lon="9.86476714148054"><ele>212.0</ele><time>2026-04-30T12:55:03Z</time></trkpt><trkpt lat="45.6385782103685" lon="9.864701249462552"><ele>212.0</ele><time>2026-04-30T12:55:04Z</time></trkpt><trkpt lat="45.63862241349461" lon="9.864629051542328"><ele>212.0</ele><time>2026-04-30T12:55:05Z</time></trkpt><trkpt lat="45.63866230778911" lon="9.864556703255374"><ele>212.0</ele><time>2026-04-30T12:55:06Z</time></trkpt><trkpt lat="45.63870397461368" lon="9.864485694331929"><ele>212.0</ele><time>2026-04-30T12:55:07Z</time></trkpt><trkpt lat="45.63874591022987" lon="9.864410288117313"><ele>212.0</ele><time>2026-04-30T12:55:08Z</time></trkpt><trkpt lat="45.638787051113106" lon="9.864340878740892"><ele>212.0</ele><time>2026-04-30T12:55:09Z</time></trkpt><trkpt lat="45.63882848494062" lon="9.864271686970266"><ele>212.0</ele><time>2026-04-30T12:55:10Z</time></trkpt><trkpt lat="45.638869966765135" lon="9.864201000207073"><ele>212.57142857142858</ele><time>2026-04-30T12:55:11Z</time></trkpt><trkpt lat="45.63890664866082" lon="9.864125428315472"><ele>213.14285714285714</ele><time>2026-04-30T12:55:12Z</time></trkpt><trkpt lat="45.63894287272768" lon="9.864046469630114"><ele>213.71428571428572</ele><time>2026-04-30T12:55:13Z</time></trkpt><trkpt lat="45.63897538686773" lon="9.863965269089059"><ele>214.28571428571428</ele><time>2026-04-30T12:55:14Z</time></trkpt><trkpt lat="45.63901152019549" lon="9.863883282519755"><ele>214.85714285714283</ele><time>2026-04-30T12:55:15Z</time></trkpt><trkpt lat="45.639046496161896" lon="9.863803813693558"><ele>215.42857142857142</ele><time>2026-04-30T12:55:16Z</time></trkpt><trkpt lat="45.63908525696429" lon="9.863725163182698"><ele>216.0</ele><time>2026-04-30T12:55:17Z</time></trkpt><trkpt lat="45.639121556412626" lon="9.863644162991129"><ele>216.0</ele><time>2026-04-30T12:55:18Z</time></trkpt><trkpt lat="45.639157958819354" lon="9.863560094130175"><ele>216.0</ele><time>2026-04-30T12:55:19Z</time></trkpt><trkpt lat="45.63919646920002" lon="9.863475316072789"><ele>216.0</ele><time>2026-04-30T12:55:20Z</time></trkpt><trkpt lat="45.639233875887484" lon="9.863390801224345"><ele>216.0</ele><time>2026-04-30T12:55:21Z</time></trkpt><trkpt lat="45.63927900534993" lon="9.863306992412731"><ele>216.0</ele><time>2026-04-30T12:55:22Z</time></trkpt><trkpt lat="45.63932603462236" lon="9.863231306567158"><ele>216.0</ele><time>2026-04-30T12:55:23Z</time></trkpt><trkpt lat="45.63938572151768" lon="9.863164954435419"><ele>216.0</ele><time>2026-04-30T12:55:24Z</time></trkpt><trkpt lat="45.63944878779054" lon="9.863108111897791"><ele>216.71428571428572</ele><time>2026-04-30T12:55:25Z</time></trkpt><trkpt lat="45.63950936704199" lon="9.863052155429878"><ele>217.42857142857142</ele><time>2026-04-30T12:55:26Z</time></trkpt><trkpt lat="45.63957401867173" lon="9.863001792953446"><ele>218.14285714285717</ele><time>2026-04-30T12:55:27Z</time></trkpt><trkpt lat="45.639643317682314" lon="9.862953880215896"><ele>218.85714285714286</ele><time>2026-04-30T12:55:28Z</time></trkpt><trkpt lat="45.63971166103157" lon="9.862909338282677"><ele>219.57142857142858</ele><time>2026-04-30T12:55:29Z</time></trkpt><trkpt lat="45.63978243818053" lon="9.862868174364472"><ele>220.2857142857143</ele><time>2026-04-30T12:55:30Z</time></trkpt><trkpt lat="45.63985266072665" lon="9.862831746803236"><ele>221.0</ele><time>2026-04-30T12:55:31Z</time></trkpt><trkpt lat="45.639924253040064" lon="9.862797718397843"><ele>221.00000000000003</ele><time>2026-04-30T12:55:32Z</time></trkpt><trkpt lat="45.63999408293194" lon="9.862774464994054"><ele>221.0</ele><time>2026-04-30T12:55:33Z</time></trkpt><trkpt lat="45.64006435747473" lon="9.862748298756363"><ele>221.0</ele><time>2026-04-30T12:55:34Z</time></trkpt><trkpt lat="45.640131847664165" lon="9.862726392992526"><ele>221.0</ele><time>2026-04-30T12:55:35Z</time></trkpt><trkpt lat="45.640201708489094" lon="9.862699001595592"><ele>221.0</ele><time>2026-04-30T12:55:36Z</time></trkpt><trkpt lat="45.640268855993355" lon="9.862680800740439"><ele>221.00000000000003</ele><time>2026-04-30T12:55:37Z</time></trkpt><trkpt lat="45.64033656949659" lon="9.86265918683399"><ele>221.0</ele><time>2026-04-30T12:55:38Z</time></trkpt><trkpt lat="45.64040137095601" lon="9.862634898002026"><ele>219.85714285714286</ele><time>2026-04-30T12:55:39Z</time></trkpt><trkpt lat="45.64046417596051" lon="9.862609339096858"><ele>218.71428571428572</ele><time>2026-04-30T12:55:40Z</time></trkpt><trkpt lat="45.640527045706826" lon="9.862584093415379"><ele>217.57142857142856</ele><time>2026-04-30T12:55:41Z</time></trkpt><trkpt lat="45.64059025043106" lon="9.862557552102492"><ele>216.42857142857144</ele><time>2026-04-30T12:55:42Z</time></trkpt><trkpt lat="45.64065314276079" lon="9.8625325850855"><ele>215.28571428571428</ele><time>2026-04-30T12:55:43Z</time></trkpt><trkpt lat="45.64071685746139" lon="9.862509361651338"><ele>214.14285714285714</ele><time>2026-04-30T12:55:44Z</time></trkpt><trkpt lat="45.640779406191" lon="9.862487065564947"><ele>213.0</ele><time>2026-04-30T12:55:45Z</time></trkpt><trkpt lat="45.64084428481473" lon="9.86246401636372"><ele>212.99999999999997</ele><time>2026-04-30T12:55:46Z</time></trkpt><trkpt lat="45.64090709745178" lon="9.862440766479398"><ele>213.0</ele><time>2026-04-30T12:55:47Z</time></trkpt><trkpt lat="45.64097221003642" lon="9.862420278580158"><ele>213.0</ele><time>2026-04-30T12:55:48Z</time></trkpt><trkpt lat="45.641037742844496" lon="9.862399701936274"><ele>213.0</ele><time>2026-04-30T12:55:49Z</time></trkpt><trkpt lat="45.64110320520665" lon="9.862378976560676"><ele>213.0</ele><time>2026-04-30T12:55:50Z</time></trkpt><trkpt lat="45.64116796951605" lon="9.862362785129921"><ele>212.99999999999997</ele><time>2026-04-30T12:55:51Z</time></trkpt><trkpt lat="45.64123536894948" lon="9.862347181847973"><ele>213.0</ele><time>2026-04-30T12:55:52Z</time></trkpt><trkpt lat="45.64130429507338" lon="9.862330255105789"><ele>213.28571428571428</ele><time>2026-04-30T12:55:53Z</time></trkpt><trkpt lat="45.64137255365318" lon="9.8623140359542"><ele>213.57142857142856</ele><time>2026-04-30T12:55:54Z</time></trkpt><trkpt lat="45.64144186780661" lon="9.862296666522541"><ele>213.85714285714283</ele><time>2026-04-30T12:55:55Z</time></trkpt><trkpt lat="45.64151088579195" lon="9.862275615634326"><ele>214.14285714285714</ele><time>2026-04-30T12:55:56Z</time></trkpt><trkpt lat="45.6415796466166" lon="9.862254743225881"><ele>214.42857142857144</ele><time>2026-04-30T12:55:57Z</time></trkpt><trkpt lat="45.641650844715805" lon="9.862237608113672"><ele>214.7142857142857</ele><time>2026-04-30T12:55:58Z</time></trkpt><trkpt lat="45.641721204959524" lon="9.862223895807812"><ele>215.0</ele><time>2026-04-30T12:55:59Z</time></trkpt><trkpt lat="45.64179222024397" lon="9.862210175079804"><ele>215.0</ele><time>2026-04-30T12:56:00Z</time></trkpt><trkpt lat="45.64186208378169" lon="9.862196574723132"><ele>215.0</ele><time>2026-04-30T12:56:01Z</time></trkpt><trkpt lat="45.641933517599746" lon="9.862181110032944"><ele>215.0</ele><time>2026-04-30T12:56:02Z</time></trkpt><trkpt lat="45.64200274838234" lon="9.862162879289023"><ele>215.0</ele><time>2026-04-30T12:56:03Z</time></trkpt><trkpt lat="45.64207322624623" lon="9.86214931487786"><ele>215.0</ele><time>2026-04-30T12:56:04Z</time></trkpt><trkpt lat="45.64214427112952" lon="9.86214006749168"><ele>215.0</ele><time>2026-04-30T12:56:05Z</time></trkpt><trkpt lat="45.64221268134655" lon="9.862126923284945"><ele>215.0</ele><time>2026-04-30T12:56:06Z</time></trkpt><trkpt lat="45.64228026689335" lon="9.86210973757161"><ele>216.0</ele><time>2026-04-30T12:56:07Z</time></trkpt><trkpt lat="45.64234989192648" lon="9.862096486031719"><ele>217.0</ele><time>2026-04-30T12:56:08Z</time></trkpt><trkpt lat="45.64241466322045" lon="9.862069281083432"><ele>218.0</ele><time>2026-04-30T12:56:09Z</time></trkpt><trkpt lat="45.642480073872754" lon="9.862037208429443"><ele>219.0</ele><time>2026-04-30T12:56:10Z</time></trkpt><trkpt lat="45.64254245220033" lon="9.86199692641398"><ele>220.0</ele><time>2026-04-30T12:56:11Z</time></trkpt><trkpt lat="45.64260427966129" lon="9.86194903044273"><ele>221.0</ele><time>2026-04-30T12:56:12Z</time></trkpt><trkpt lat="45.642663006470386" lon="9.861892326155875"><ele>222.0</ele><time>2026-04-30T12:56:13Z</time></trkpt><trkpt lat="45.64271705498642" lon="9.861825548778576"><ele>220.85714285714286</ele><time>2026-04-30T12:56:14Z</time></trkpt><trkpt lat="45.64277140770813" lon="9.861759726088613"><ele>219.71428571428572</ele><time>2026-04-30T12:56:15Z</time></trkpt><trkpt lat="45.6428241820785" lon="9.861691471094582"><ele>218.57142857142858</ele><time>2026-04-30T12:56:16Z</time></trkpt><trkpt lat="45.64287896963653" lon="9.861628319298203"><ele>217.42857142857144</ele><time>2026-04-30T12:56:17Z</time></trkpt><trkpt lat="45.642942762516874" lon="9.861583749936123"><ele>216.28571428571428</ele><time>2026-04-30T12:56:18Z</time></trkpt><trkpt lat="45.64299364297289" lon="9.861506864305666"><ele>215.14285714285717</ele><time>2026-04-30T12:56:19Z</time></trkpt><trkpt lat="45.643035617604035" lon="9.861416649898317"><ele>214.0</ele><time>2026-04-30T12:56:20Z</time></trkpt><trkpt lat="45.64307701111807" lon="9.861326346597384"><ele>214.00000000000003</ele><time>2026-04-30T12:56:21Z</time></trkpt><trkpt lat="45.64312010068549" lon="9.861243858048992"><ele>214.0</ele><time>2026-04-30T12:56:22Z</time></trkpt><trkpt lat="45.643164265444035" lon="9.86115915791665"><ele>214.0</ele><time>2026-04-30T12:56:23Z</time></trkpt><trkpt lat="45.643209814930444" lon="9.861076095515482"><ele>214.0</ele><time>2026-04-30T12:56:24Z</time></trkpt><trkpt lat="45.6432570727031" lon="9.860994568893897"><ele>214.0</ele><time>2026-04-30T12:56:25Z</time></trkpt><trkpt lat="45.643303945287926" lon="9.860910715347892"><ele>214.00000000000003</ele><time>2026-04-30T12:56:26Z</time></trkpt><trkpt lat="45.64335209781749" lon="9.860826142502102"><ele>214.0</ele><time>2026-04-30T12:56:27Z</time></trkpt><trkpt lat="45.643399366985925" lon="9.860739802971704"><ele>212.99999999999997</ele><time>2026-04-30T12:56:28Z</time></trkpt><trkpt lat="45.643446884234635" lon="9.860654725139252"><ele>212.0</ele><time>2026-04-30T12:56:29Z</time></trkpt><trkpt lat="45.64349508317905" lon="9.860571070477535"><ele>211.0</ele><time>2026-04-30T12:56:30Z</time></trkpt><trkpt lat="45.64354374107901" lon="9.860486123168315"><ele>210.0</ele><time>2026-04-30T12:56:31Z</time></trkpt><trkpt lat="45.64359270630739" lon="9.860402205221341"><ele>208.99999999999997</ele><time>2026-04-30T12:56:32Z</time></trkpt><trkpt lat="45.64364247478772" lon="9.860322545136993"><ele>208.0</ele><time>2026-04-30T12:56:33Z</time></trkpt><trkpt lat="45.643691301903665" lon="9.860239303726493"><ele>207.7142857142857</ele><time>2026-04-30T12:56:34Z</time></trkpt><trkpt lat="45.643737683868615" lon="9.860153981043105"><ele>207.42857142857144</ele><time>2026-04-30T12:56:35Z</time></trkpt><trkpt lat="45.64378449172688" lon="9.86007154210473"><ele>207.14285714285714</ele><time>2026-04-30T12:56:36Z</time></trkpt><trkpt lat="45.64383105414327" lon="9.85998853319433"><ele>206.85714285714283</ele><time>2026-04-30T12:56:37Z</time></trkpt><trkpt lat="45.64387491485057" lon="9.859902948574172"><ele>206.57142857142856</ele><time>2026-04-30T12:56:38Z</time></trkpt><trkpt lat="45.64391727071285" lon="9.859818796531666"><ele>206.28571428571428</ele><time>2026-04-30T12:56:39Z</time></trkpt><trkpt lat="45.64396179685894" lon="9.859737147372165"><ele>206.0</ele><time>2026-04-30T12:56:40Z</time></trkpt><trkpt lat="45.64400808967553" lon="9.859660238237716"><ele>205.85714285714283</ele><time>2026-04-30T12:56:41Z</time></trkpt><trkpt lat="45.644053911095135" lon="9.859585752924172"><ele>205.71428571428572</ele><time>2026-04-30T12:56:42Z</time></trkpt><trkpt lat="45.64409464319112" lon="9.859503976268604"><ele>205.57142857142856</ele><time>2026-04-30T12:56:43Z</time></trkpt><trkpt lat="45.64413020555128" lon="9.859424860405511"><ele>205.42857142857142</ele><time>2026-04-30T12:56:44Z</time></trkpt><trkpt lat="45.64416070874478" lon="9.859340683103357"><ele>205.28571428571428</ele><time>2026-04-30T12:56:45Z</time></trkpt><trkpt lat="45.6441976928544" lon="9.859258392674663"><ele>205.14285714285714</ele><time>2026-04-30T12:56:46Z</time></trkpt><trkpt lat="45.64423181406727" lon="9.859179092313237"><ele>205.0</ele><time>2026-04-30T12:56:47Z</time></trkpt><trkpt lat="45.644271744762804" lon="9.859105481116076"><ele>205.0</ele><time>2026-04-30T12:56:48Z</time></trkpt><trkpt lat="45.644312597592084" lon="9.85903330074617"><ele>205.0</ele><time>2026-04-30T12:56:49Z</time></trkpt><trkpt lat="45.64435478922921" lon="9.858960938593981"><ele>205.0</ele><time>2026-04-30T12:56:50Z</time></trkpt><trkpt lat="45.64439478057033" lon="9.858888943585553"><ele>205.0</ele><time>2026-04-30T12:56:51Z</time></trkpt><trkpt lat="45.644432455753" lon="9.85881463477505"><ele>205.0</ele><time>2026-04-30T12:56:52Z</time></trkpt><trkpt lat="45.64446831597157" lon="9.858735523996305"><ele>205.0</ele><time>2026-04-30T12:56:53Z</time></trkpt><trkpt lat="45.644501637514864" lon="9.858658177511385"><ele>205.0</ele><time>2026-04-30T12:56:54Z</time></trkpt><trkpt lat="45.644536029224064" lon="9.858577434902015"><ele>204.99999999999997</ele><time>2026-04-30T12:56:55Z</time></trkpt><trkpt lat="45.64456832834929" lon="9.858496745878766"><ele>205.0</ele><time>2026-04-30T12:56:56Z</time></trkpt><trkpt lat="45.64462772812985" lon="9.858331640340392"><ele>205.0</ele><time>2026-04-30T12:56:58Z</time></trkpt><trkpt lat="45.64465341968877" lon="9.858246915388147"><ele>205.0</ele><time>2026-04-30T12:56:59Z</time></trkpt><trkpt lat="45.644682401615825" lon="9.858162215024553"><ele>204.99999999999997</ele><time>2026-04-30T12:57:00Z</time></trkpt><trkpt lat="45.64470957637863" lon="9.858079266927025"><ele>205.0</ele><time>2026-04-30T12:57:01Z</time></trkpt><trkpt lat="45.644738472559105" lon="9.857994661631475"><ele>204.83333333333331</ele><time>2026-04-30T12:57:02Z</time></trkpt><trkpt lat="45.64476217069748" lon="9.85790525861313"><ele>204.66666666666666</ele><time>2026-04-30T12:57:03Z</time></trkpt><trkpt lat="45.64478680787822" lon="9.857819454487192"><ele>204.5</ele><time>2026-04-30T12:57:04Z</time></trkpt><trkpt lat="45.644811946277855" lon="9.857733141183889"><ele>204.33333333333331</ele><time>2026-04-30T12:57:05Z</time></trkpt><trkpt lat="45.64484459598624" lon="9.8576530222843"><ele>204.16666666666666</ele><time>2026-04-30T12:57:06Z</time></trkpt><trkpt lat="45.6449076379829" lon="9.857496206494076"><ele>204.0</ele><time>2026-04-30T12:57:08Z</time></trkpt><trkpt lat="45.64494286073081" lon="9.857420581169151"><ele>203.66666666666666</ele><time>2026-04-30T12:57:09Z</time></trkpt><trkpt lat="45.64498236031054" lon="9.857349336890438"><ele>203.33333333333331</ele><time>2026-04-30T12:57:10Z</time></trkpt><trkpt lat="45.645076246610365" lon="9.857231310991176"><ele>203.0</ele><time>2026-04-30T12:57:12Z</time></trkpt><trkpt lat="45.64513190138186" lon="9.857183411669027"><ele>202.66666666666666</ele><time>2026-04-30T12:57:13Z</time></trkpt><trkpt lat="45.6452393478956" lon="9.85709511915345"><ele>202.33333333333331</ele><time>2026-04-30T12:57:15Z</time></trkpt><trkpt lat="45.6452894681226" lon="9.857036024027401"><ele>202.0</ele><time>2026-04-30T12:57:16Z</time></trkpt><trkpt lat="45.64532837264521" lon="9.856963927275997"><ele>202.0</ele><time>2026-04-30T12:57:17Z</time></trkpt><trkpt lat="45.64535766583468" lon="9.856881651141299"><ele>202.0</ele><time>2026-04-30T12:57:18Z</time></trkpt><trkpt lat="45.645372066064226" lon="9.85679063362966"><ele>202.0</ele><time>2026-04-30T12:57:19Z</time></trkpt><trkpt lat="45.645380886639316" lon="9.856699562235297"><ele>202.0</ele><time>2026-04-30T12:57:20Z</time></trkpt><trkpt lat="45.64538601979602" lon="9.856609279005927"><ele>202.0</ele><time>2026-04-30T12:57:21Z</time></trkpt><trkpt lat="45.64538774169109" lon="9.856517082853301"><ele>202.0</ele><time>2026-04-30T12:57:22Z</time></trkpt><trkpt lat="45.64541580872397" lon="9.856431618861187"><ele>202.0</ele><time>2026-04-30T12:57:23Z</time></trkpt><trkpt lat="45.64545155091312" lon="9.856356585846125"><ele>202.0</ele><time>2026-04-30T12:57:24Z</time></trkpt><trkpt lat="45.645491922747986" lon="9.85628613504805"><ele>202.0</ele><time>2026-04-30T12:57:25Z</time></trkpt><trkpt lat="45.64553708792123" lon="9.856215914519064"><ele>202.0</ele><time>2026-04-30T12:57:26Z</time></trkpt><trkpt lat="45.64558206680837" lon="9.856151167123596"><ele>202.0</ele><time>2026-04-30T12:57:27Z</time></trkpt><trkpt lat="45.64562946220344" lon="9.856090100348096"><ele>202.0</ele><time>2026-04-30T12:57:28Z</time></trkpt><trkpt lat="45.645677703598636" lon="9.856029671797996"><ele>202.0</ele><time>2026-04-30T12:57:29Z</time></trkpt><trkpt lat="45.64572733384768" lon="9.855970824015024"><ele>202.0</ele><time>2026-04-30T12:57:30Z</time></trkpt><trkpt lat="45.64577596855448" lon="9.855912162377075"><ele>202.25</ele><time>2026-04-30T12:57:31Z</time></trkpt><trkpt lat="45.64582756844101" lon="9.85585672364681"><ele>202.5</ele><time>2026-04-30T12:57:32Z</time></trkpt><trkpt lat="45.64587889112308" lon="9.855803859680357"><ele>202.75</ele><time>2026-04-30T12:57:33Z</time></trkpt><trkpt lat="45.645931025039886" lon="9.855747842412194"><ele>203.0</ele><time>2026-04-30T12:57:34Z</time></trkpt><trkpt lat="45.64598527522459" lon="9.855696720571338"><ele>203.25</ele><time>2026-04-30T12:57:35Z</time></trkpt><trkpt lat="45.646038659101265" lon="9.85564542354566"><ele>203.5</ele><time>2026-04-30T12:57:36Z</time></trkpt><trkpt lat="45.64609301423941" lon="9.855597879193429"><ele>203.75</ele><time>2026-04-30T12:57:37Z</time></trkpt><trkpt lat="45.646147133808704" lon="9.85555179129483"><ele>204.0</ele><time>2026-04-30T12:57:38Z</time></trkpt><trkpt lat="45.64620119239493" lon="9.855503592302846"><ele>204.0</ele><time>2026-04-30T12:57:39Z</time></trkpt><trkpt lat="45.64625459538985" lon="9.855454490171867"><ele>204.0</ele><time>2026-04-30T12:57:40Z</time></trkpt><trkpt lat="45.64630834813407" lon="9.855407214148663"><ele>204.0</ele><time>2026-04-30T12:57:41Z</time></trkpt><trkpt lat="45.6463625474798" lon="9.85536132944756"><ele>204.0</ele><time>2026-04-30T12:57:42Z</time></trkpt><trkpt lat="45.64646963424872" lon="9.855269916345996"><ele>204.0</ele><time>2026-04-30T12:57:44Z</time></trkpt><trkpt lat="45.64651987465326" lon="9.855214529027393"><ele>204.0</ele><time>2026-04-30T12:57:45Z</time></trkpt><trkpt lat="45.646569826134794" lon="9.85515934378716"><ele>204.0</ele><time>2026-04-30T12:57:46Z</time></trkpt><trkpt lat="45.646624629311106" lon="9.855112196806838"><ele>204.14285714285714</ele><time>2026-04-30T12:57:47Z</time></trkpt><trkpt lat="45.646685166084794" lon="9.855085379778576"><ele>204.28571428571428</ele><time>2026-04-30T12:57:48Z</time></trkpt><trkpt lat="45.64675128315807" lon="9.855073382970371"><ele>204.42857142857144</ele><time>2026-04-30T12:57:49Z</time></trkpt><trkpt lat="45.646815004672966" lon="9.855053231070654"><ele>204.57142857142856</ele><time>2026-04-30T12:57:50Z</time></trkpt><trkpt lat="45.64687746015446" lon="9.855022819220054"><ele>204.7142857142857</ele><time>2026-04-30T12:57:51Z</time></trkpt><trkpt lat="45.64693607126158" lon="9.85498737390173"><ele>204.85714285714286</ele><time>2026-04-30T12:57:52Z</time></trkpt><trkpt lat="45.646996002341645" lon="9.854955685630285"><ele>205.0</ele><time>2026-04-30T12:57:53Z</time></trkpt><trkpt lat="45.64705485062891" lon="9.854919576360144"><ele>205.0</ele><time>2026-04-30T12:57:54Z</time></trkpt><trkpt lat="45.64716892340689" lon="9.854845815987325"><ele>205.0</ele><time>2026-04-30T12:57:56Z</time></trkpt><trkpt lat="45.647284738942204" lon="9.854780687468216"><ele>205.0</ele><time>2026-04-30T12:57:58Z</time></trkpt><trkpt lat="45.647400491146975" lon="9.854715488133172"><ele>205.0</ele><time>2026-04-30T12:58:00Z</time></trkpt><trkpt lat="45.647459090428306" lon="9.854677831310449"><ele>205.0</ele><time>2026-04-30T12:58:01Z</time></trkpt><trkpt lat="45.647518094485434" lon="9.854642074372435"><ele>204.99999999999997</ele><time>2026-04-30T12:58:02Z</time></trkpt><trkpt lat="45.64757801172447" lon="9.854607169598603"><ele>205.0</ele><time>2026-04-30T12:58:03Z</time></trkpt><trkpt lat="45.647637809267536" lon="9.854571304092246"><ele>205.0</ele><time>2026-04-30T12:58:04Z</time></trkpt><trkpt lat="45.647695365309346" lon="9.854533856616523"><ele>205.0</ele><time>2026-04-30T12:58:05Z</time></trkpt><trkpt lat="45.64775412421079" lon="9.85449785351327"><ele>204.99999999999997</ele><time>2026-04-30T12:58:06Z</time></trkpt><trkpt lat="45.64787064100372" lon="9.854428791477847"><ele>205.0</ele><time>2026-04-30T12:58:08Z</time></trkpt><trkpt lat="45.64798677416834" lon="9.854361571612543"><ele>205.16666666666666</ele><time>2026-04-30T12:58:10Z</time></trkpt><trkpt lat="45.64804483421955" lon="9.854326294379929"><ele>205.33333333333331</ele><time>2026-04-30T12:58:11Z</time></trkpt><trkpt lat="45.64810240655" lon="9.854286762069597"><ele>205.5</ele><time>2026-04-30T12:58:12Z</time></trkpt><trkpt lat="45.64816182882563" lon="9.85425521492983"><ele>205.66666666666669</ele><time>2026-04-30T12:58:13Z</time></trkpt><trkpt lat="45.64827730347512" lon="9.854187673163448"><ele>205.83333333333334</ele><time>2026-04-30T12:58:15Z</time></trkpt><trkpt lat="45.64833607394669" lon="9.854154050484993"><ele>206.0</ele><time>2026-04-30T12:58:16Z</time></trkpt><trkpt lat="45.64845569020306" lon="9.854086854385578"><ele>206.4</ele><time>2026-04-30T12:58:18Z</time></trkpt><trkpt lat="45.64857169781808" lon="9.85401142454693"><ele>206.8</ele><time>2026-04-30T12:58:20Z</time></trkpt><trkpt lat="45.64868319781935" lon="9.853941192775093"><ele>207.20000000000002</ele><time>2026-04-30T12:58:22Z</time></trkpt><trkpt lat="45.64874198598558" lon="9.853906153796263"><ele>207.60000000000002</ele><time>2026-04-30T12:58:23Z</time></trkpt><trkpt lat="45.64880057425956" lon="9.853872675617643"><ele>208.0</ele><time>2026-04-30T12:58:24Z</time></trkpt><trkpt lat="45.64891639883803" lon="9.853806748243668"><ele>208.42857142857142</ele><time>2026-04-30T12:58:26Z</time></trkpt><trkpt lat="45.648976345613605" lon="9.853778855940757"><ele>208.85714285714286</ele><time>2026-04-30T12:58:27Z</time></trkpt><trkpt lat="45.64903876083025" lon="9.853760133060028"><ele>209.28571428571428</ele><time>2026-04-30T12:58:28Z</time></trkpt><trkpt lat="45.649160345819986" lon="9.853763624818773"><ele>209.71428571428572</ele><time>2026-04-30T12:58:30Z</time></trkpt><trkpt lat="45.64922258054047" lon="9.85372725391884"><ele>210.14285714285717</ele><time>2026-04-30T12:58:31Z</time></trkpt><trkpt lat="45.64926711675284" lon="9.853656173519209"><ele>210.57142857142858</ele><time>2026-04-30T12:58:32Z</time></trkpt><trkpt lat="45.64930397395186" lon="9.853578832986239"><ele>211.0</ele><time>2026-04-30T12:58:33Z</time></trkpt><trkpt lat="45.64941698461525" lon="9.853496061758946"><ele>211.0</ele><time>2026-04-30T12:58:35Z</time></trkpt><trkpt lat="45.64947448050713" lon="9.853458051923514"><ele>211.0</ele><time>2026-04-30T12:58:36Z</time></trkpt><trkpt lat="45.64953218206786" lon="9.853418540409903"><ele>211.0</ele><time>2026-04-30T12:58:37Z</time></trkpt><trkpt lat="45.64958863520539" lon="9.853377520037489"><ele>211.0</ele><time>2026-04-30T12:58:38Z</time></trkpt><trkpt lat="45.64969519699401" lon="9.853281597947658"><ele>211.0</ele><time>2026-04-30T12:58:40Z</time></trkpt><trkpt lat="45.64974830965762" lon="9.853230376882559"><ele>211.0</ele><time>2026-04-30T12:58:41Z</time></trkpt><trkpt lat="45.6498011524763" lon="9.853180503345026"><ele>211.0</ele><time>2026-04-30T12:58:42Z</time></trkpt><trkpt lat="45.64985148065711" lon="9.853125358092978"><ele>211.0</ele><time>2026-04-30T12:58:43Z</time></trkpt><trkpt lat="45.64994639476458" lon="9.853008852356458"><ele>211.0</ele><time>2026-04-30T12:58:45Z</time></trkpt><trkpt lat="45.65004201895888" lon="9.852888343066125"><ele>211.0</ele><time>2026-04-30T12:58:47Z</time></trkpt><trkpt lat="45.650086465000825" lon="9.852824016746059"><ele>211.0</ele><time>2026-04-30T12:58:48Z</time></trkpt><trkpt lat="45.65017373452817" lon="9.852698767801984"><ele>211.0</ele><time>2026-04-30T12:58:50Z</time></trkpt><trkpt lat="45.65025196368315" lon="9.85256006883838"><ele>212.0</ele><time>2026-04-30T12:58:52Z</time></trkpt><trkpt lat="45.65032522590873" lon="9.852421531534974"><ele>213.0</ele><time>2026-04-30T12:58:54Z</time></trkpt><trkpt lat="45.65039574689813" lon="9.852273244439921"><ele>214.0</ele><time>2026-04-30T12:58:56Z</time></trkpt><trkpt lat="45.650454198957405" lon="9.852118308931288"><ele>215.0</ele><time>2026-04-30T12:58:58Z</time></trkpt><trkpt lat="45.65050742137055" lon="9.851961096566843"><ele>215.0</ele><time>2026-04-30T12:59:00Z</time></trkpt><trkpt lat="45.650554721878336" lon="9.851801103248999"><ele>215.0</ele><time>2026-04-30T12:59:02Z</time></trkpt><trkpt lat="45.6505976044074" lon="9.851637439039914"><ele>215.0</ele><time>2026-04-30T12:59:04Z</time></trkpt><trkpt lat="45.65063718386589" lon="9.85147487010273"><ele>215.0</ele><time>2026-04-30T12:59:06Z</time></trkpt><trkpt lat="45.65066616731221" lon="9.851305944547033"><ele>215.4</ele><time>2026-04-30T12:59:08Z</time></trkpt><trkpt lat="45.65069233768701" lon="9.851135931719806"><ele>215.8</ele><time>2026-04-30T12:59:10Z</time></trkpt><trkpt lat="45.650709799000744" lon="9.850962902355148"><ele>216.2</ele><time>2026-04-30T12:59:12Z</time></trkpt><trkpt lat="45.65072190784265" lon="9.850873084893315"><ele>216.6</ele><time>2026-04-30T12:59:13Z</time></trkpt><trkpt lat="45.65074653802386" lon="9.850699967368655"><ele>217.0</ele><time>2026-04-30T12:59:15Z</time></trkpt><trkpt lat="45.650766509485116" lon="9.850523267134445"><ele>217.0</ele><time>2026-04-30T12:59:17Z</time></trkpt><trkpt lat="45.65079059000735" lon="9.850346154362857"><ele>217.0</ele><time>2026-04-30T12:59:19Z</time></trkpt><trkpt lat="45.6508032365558" lon="9.8502564710968"><ele>217.0</ele><time>2026-04-30T12:59:20Z</time></trkpt><trkpt lat="45.65081632122575" lon="9.850167001022232"><ele>217.0</ele><time>2026-04-30T12:59:21Z</time></trkpt><trkpt lat="45.65084237227805" lon="9.849989420178078"><ele>217.0</ele><time>2026-04-30T12:59:23Z</time></trkpt><trkpt lat="45.65086494545747" lon="9.849814121753328"><ele>216.8</ele><time>2026-04-30T12:59:25Z</time></trkpt><trkpt lat="45.65087878547141" lon="9.849724305335615"><ele>216.6</ele><time>2026-04-30T12:59:26Z</time></trkpt><trkpt lat="45.65090843160323" lon="9.849550402598577"><ele>216.40000000000003</ele><time>2026-04-30T12:59:28Z</time></trkpt><trkpt lat="45.65095764415997" lon="9.849383631918696"><ele>216.20000000000002</ele><time>2026-04-30T12:59:30Z</time></trkpt><trkpt lat="45.65098165986924" lon="9.849298894856904"><ele>216.0</ele><time>2026-04-30T12:59:31Z</time></trkpt><trkpt lat="45.651031587091545" lon="9.84913468510887"><ele>216.0</ele><time>2026-04-30T12:59:33Z</time></trkpt><trkpt lat="45.65106078616894" lon="9.849051951279188"><ele>216.0</ele><time>2026-04-30T12:59:34Z</time></trkpt><trkpt lat="45.6511098073447" lon="9.848887382310291"><ele>216.0</ele><time>2026-04-30T12:59:36Z</time></trkpt><trkpt lat="45.65115563464337" lon="9.848720989133946"><ele>216.0</ele><time>2026-04-30T12:59:38Z</time></trkpt><trkpt lat="45.65118191670709" lon="9.84863727917167"><ele>216.0</ele><time>2026-04-30T12:59:39Z</time></trkpt><trkpt lat="45.651209385853264" lon="9.848552666951056"><ele>216.0</ele><time>2026-04-30T12:59:40Z</time></trkpt><trkpt lat="45.6512632559159" lon="9.848392378827914"><ele>216.60000000000002</ele><time>2026-04-30T12:59:42Z</time></trkpt><trkpt lat="45.65128784479857" lon="9.848304336869957"><ele>217.20000000000002</ele><time>2026-04-30T12:59:43Z</time></trkpt><trkpt lat="45.65133631920722" lon="9.848142905334802"><ele>217.79999999999998</ele><time>2026-04-30T12:59:45Z</time></trkpt><trkpt lat="45.651381776400754" lon="9.847998223559518"><ele>218.39999999999998</ele><time>2026-04-30T12:59:47Z</time></trkpt><trkpt lat="45.65142321424341" lon="9.847863725971012"><ele>219.0</ele><time>2026-04-30T12:59:49Z</time></trkpt><trkpt lat="45.651462329567096" lon="9.847737608251519"><ele>219.33333333333334</ele><time>2026-04-30T12:59:51Z</time></trkpt><trkpt lat="45.65150538901683" lon="9.847570208810865"><ele>219.66666666666669</ele><time>2026-04-30T12:59:53Z</time></trkpt><trkpt lat="45.65151768757015" lon="9.847478682797302"><ele>220.0</ele><time>2026-04-30T12:59:54Z</time></trkpt><trkpt lat="45.65154313530607" lon="9.84739574345191"><ele>220.33333333333334</ele><time>2026-04-30T12:59:55Z</time></trkpt><trkpt lat="45.6515733080103" lon="9.847311957315197"><ele>220.66666666666669</ele><time>2026-04-30T12:59:56Z</time></trkpt><trkpt lat="45.651603745475626" lon="9.847226755944133"><ele>221.0</ele><time>2026-04-30T12:59:57Z</time></trkpt><trkpt lat="45.65163240836461" lon="9.847142775576549"><ele>221.00000000000003</ele><time>2026-04-30T12:59:58Z</time></trkpt><trkpt lat="45.651655469749656" lon="9.84705873637711"><ele>221.0</ele><time>2026-04-30T12:59:59Z</time></trkpt><trkpt lat="45.65167784476442" lon="9.846973255738863"><ele>221.0</ele><time>2026-04-30T13:00:00Z</time></trkpt><trkpt lat="45.65172253980965" lon="9.846808795436706"><ele>221.0</ele><time>2026-04-30T13:00:02Z</time></trkpt><trkpt lat="45.65174551681695" lon="9.846724501895862"><ele>221.00000000000003</ele><time>2026-04-30T13:00:03Z</time></trkpt><trkpt lat="45.651766729027266" lon="9.846638266586927"><ele>221.0</ele><time>2026-04-30T13:00:04Z</time></trkpt><trkpt lat="45.651807963155846" lon="9.846469963637336"><ele>220.83333333333334</ele><time>2026-04-30T13:00:06Z</time></trkpt><trkpt lat="45.65184480695595" lon="9.846300557666666"><ele>220.66666666666669</ele><time>2026-04-30T13:00:08Z</time></trkpt><trkpt lat="45.651857532603664" lon="9.846211646290566"><ele>220.5</ele><time>2026-04-30T13:00:09Z</time></trkpt><trkpt lat="45.65187298261077" lon="9.846124043343206"><ele>220.33333333333331</ele><time>2026-04-30T13:00:10Z</time></trkpt><trkpt lat="45.651891364131956" lon="9.84603601678888"><ele>220.16666666666666</ele><time>2026-04-30T13:00:11Z</time></trkpt><trkpt lat="45.6519193798778" lon="9.84586079879305"><ele>220.0</ele><time>2026-04-30T13:00:13Z</time></trkpt><trkpt lat="45.65193221919505" lon="9.845770831859188"><ele>219.66666666666666</ele><time>2026-04-30T13:00:14Z</time></trkpt><trkpt lat="45.65195329055511" lon="9.845684529358044"><ele>219.33333333333331</ele><time>2026-04-30T13:00:15Z</time></trkpt><trkpt lat="45.65197428357517" lon="9.845593103340477"><ele>219.0</ele><time>2026-04-30T13:00:16Z</time></trkpt><trkpt lat="45.652000715384546" lon="9.845505721552861"><ele>218.66666666666669</ele><time>2026-04-30T13:00:17Z</time></trkpt><trkpt lat="45.652026177108134" lon="9.845419357976104"><ele>218.33333333333334</ele><time>2026-04-30T13:00:18Z</time></trkpt><trkpt lat="45.65204025832167" lon="9.845329454044757"><ele>218.0</ele><time>2026-04-30T13:00:19Z</time></trkpt><trkpt lat="45.65207003079517" lon="9.845154469482686"><ele>218.66666666666669</ele><time>2026-04-30T13:00:21Z</time></trkpt><trkpt lat="45.6520868623657" lon="9.845065454958345"><ele>219.33333333333334</ele><time>2026-04-30T13:00:22Z</time></trkpt><trkpt lat="45.65210509436319" lon="9.844978757336017"><ele>220.0</ele><time>2026-04-30T13:00:23Z</time></trkpt><trkpt lat="45.65212382140402" lon="9.84489190832767"><ele>220.66666666666669</ele><time>2026-04-30T13:00:24Z</time></trkpt><trkpt lat="45.652150397224275" lon="9.844727365850778"><ele>221.33333333333334</ele><time>2026-04-30T13:00:26Z</time></trkpt><trkpt lat="45.65217761145254" lon="9.8445760984078"><ele>222.0</ele><time>2026-04-30T13:00:28Z</time></trkpt><trkpt lat="45.65220828021311" lon="9.844419386793021"><ele>221.6</ele><time>2026-04-30T13:00:30Z</time></trkpt><trkpt lat="45.65224014720512" lon="9.844248776895835"><ele>221.2</ele><time>2026-04-30T13:00:32Z</time></trkpt><trkpt lat="45.652275090642206" lon="9.844089588853807"><ele>220.8</ele><time>2026-04-30T13:00:34Z</time></trkpt><trkpt lat="45.65232948882437" lon="9.84394931858716"><ele>220.4</ele><time>2026-04-30T13:00:36Z</time></trkpt><trkpt lat="45.65239171648673" lon="9.843912591154119"><ele>220.0</ele><time>2026-04-30T13:00:37Z</time></trkpt><trkpt lat="45.652461141776136" lon="9.843927693442923"><ele>219.99999999999997</ele><time>2026-04-30T13:00:38Z</time></trkpt><trkpt lat="45.65258216378352" lon="9.843925120851768"><ele>220.0</ele><time>2026-04-30T13:00:40Z</time></trkpt><trkpt lat="45.65263848939378" lon="9.84388396242739"><ele>220.0</ele><time>2026-04-30T13:00:41Z</time></trkpt><trkpt lat="45.65268237896132" lon="9.843817353602535"><ele>220.0</ele><time>2026-04-30T13:00:42Z</time></trkpt><trkpt lat="45.65271853646199" lon="9.843739142798979"><ele>220.0</ele><time>2026-04-30T13:00:43Z</time></trkpt><trkpt lat="45.6527544460944" lon="9.843662721817921"><ele>219.99999999999997</ele><time>2026-04-30T13:00:44Z</time></trkpt><trkpt lat="45.65278719668397" lon="9.84358538893799"><ele>220.0</ele><time>2026-04-30T13:00:45Z</time></trkpt><trkpt lat="45.65285918375226" lon="9.843436578157364"><ele>221.0</ele><time>2026-04-30T13:00:47Z</time></trkpt><trkpt lat="45.652936576705386" lon="9.843296884644886"><ele>222.0</ele><time>2026-04-30T13:00:49Z</time></trkpt><trkpt lat="45.65300852383397" lon="9.84315471468057"><ele>223.0</ele><time>2026-04-30T13:00:51Z</time></trkpt><trkpt lat="45.65307654630307" lon="9.843001815964536"><ele>224.0</ele><time>2026-04-30T13:00:53Z</time></trkpt><trkpt lat="45.65311429776492" lon="9.842926777699976"><ele>225.0</ele><time>2026-04-30T13:00:54Z</time></trkpt><trkpt lat="45.653152957717445" lon="9.842853016066243"><ele>225.0</ele><time>2026-04-30T13:00:55Z</time></trkpt><trkpt lat="45.65321966053354" lon="9.84270219737612"><ele>225.0</ele><time>2026-04-30T13:00:57Z</time></trkpt><trkpt lat="45.653254150145514" lon="9.842625020658199"><ele>225.0</ele><time>2026-04-30T13:00:58Z</time></trkpt><trkpt lat="45.65332147201363" lon="9.84247199540339"><ele>225.0</ele><time>2026-04-30T13:01:00Z</time></trkpt><trkpt lat="45.653359389157515" lon="9.842397213032964"><ele>225.0</ele><time>2026-04-30T13:01:01Z</time></trkpt><trkpt lat="45.65339871153771" lon="9.842323811734659"><ele>225.0</ele><time>2026-04-30T13:01:02Z</time></trkpt><trkpt lat="45.65343747171235" lon="9.842249503339806"><ele>224.83333333333334</ele><time>2026-04-30T13:01:03Z</time></trkpt><trkpt lat="45.653475831789684" lon="9.842173848048906"><ele>224.66666666666669</ele><time>2026-04-30T13:01:04Z</time></trkpt><trkpt lat="45.65351116757799" lon="9.842097328275333"><ele>224.5</ele><time>2026-04-30T13:01:05Z</time></trkpt><trkpt lat="45.65354766870694" lon="9.842021042682294"><ele>224.33333333333334</ele><time>2026-04-30T13:01:06Z</time></trkpt><trkpt lat="45.65358391069293" lon="9.84194587421022"><ele>224.16666666666669</ele><time>2026-04-30T13:01:07Z</time></trkpt><trkpt lat="45.65361870441858" lon="9.841863255786324"><ele>224.0</ele><time>2026-04-30T13:01:08Z</time></trkpt><trkpt lat="45.65368871270238" lon="9.841709151201192"><ele>224.33333333333334</ele><time>2026-04-30T13:01:10Z</time></trkpt><trkpt lat="45.653764778433356" lon="9.841557577686048"><ele>224.66666666666669</ele><time>2026-04-30T13:01:12Z</time></trkpt><trkpt lat="45.65382439063497" lon="9.84139899911689"><ele>225.0</ele><time>2026-04-30T13:01:14Z</time></trkpt><trkpt lat="45.65385407415628" lon="9.841318324993292"><ele>225.33333333333331</ele><time>2026-04-30T13:01:15Z</time></trkpt><trkpt lat="45.65388482569506" lon="9.841238917927207"><ele>225.66666666666666</ele><time>2026-04-30T13:01:16Z</time></trkpt><trkpt lat="45.65391547214322" lon="9.841155712277901"><ele>226.0</ele><time>2026-04-30T13:01:17Z</time></trkpt><trkpt lat="45.65394643533692" lon="9.84107474526766"><ele>225.99999999999997</ele><time>2026-04-30T13:01:18Z</time></trkpt><trkpt lat="45.65397541036567" lon="9.840992817617547"><ele>226.0</ele><time>2026-04-30T13:01:19Z</time></trkpt><trkpt lat="45.65400615139773" lon="9.84091143000855"><ele>226.0</ele><time>2026-04-30T13:01:20Z</time></trkpt><trkpt lat="45.654039411117424" lon="9.84083091916341"><ele>226.0</ele><time>2026-04-30T13:01:21Z</time></trkpt><trkpt lat="45.65407466016334" lon="9.840748733856472"><ele>225.99999999999997</ele><time>2026-04-30T13:01:22Z</time></trkpt><trkpt lat="45.65413264310739" lon="9.840587773918843"><ele>226.0</ele><time>2026-04-30T13:01:24Z</time></trkpt><trkpt lat="45.65416809512326" lon="9.84050713292024"><ele>225.83333333333331</ele><time>2026-04-30T13:01:25Z</time></trkpt><trkpt lat="45.65420301048201" lon="9.840430302532345"><ele>225.66666666666666</ele><time>2026-04-30T13:01:26Z</time></trkpt><trkpt lat="45.65423477778684" lon="9.840348943246507"><ele>225.5</ele><time>2026-04-30T13:01:27Z</time></trkpt><trkpt lat="45.65426894125974" lon="9.840272398048837"><ele>225.33333333333331</ele><time>2026-04-30T13:01:28Z</time></trkpt><trkpt lat="45.654311043291145" lon="9.840195568619315"><ele>225.16666666666666</ele><time>2026-04-30T13:01:29Z</time></trkpt><trkpt lat="45.654346967808905" lon="9.840117463357888"><ele>225.0</ele><time>2026-04-30T13:01:30Z</time></trkpt><trkpt lat="45.65441865710153" lon="9.83996894720902"><ele>225.25</ele><time>2026-04-30T13:01:32Z</time></trkpt><trkpt lat="45.65449170558397" lon="9.839822089916623"><ele>225.5</ele><time>2026-04-30T13:01:34Z</time></trkpt><trkpt lat="45.654565303785326" lon="9.83967104773924"><ele>225.75</ele><time>2026-04-30T13:01:36Z</time></trkpt><trkpt lat="45.65464269799034" lon="9.839527533982142"><ele>226.0</ele><time>2026-04-30T13:01:38Z</time></trkpt><trkpt lat="45.654715932214586" lon="9.839374717525489"><ele>225.66666666666666</ele><time>2026-04-30T13:01:40Z</time></trkpt><trkpt lat="45.65477132207276" lon="9.839221114794782"><ele>225.33333333333331</ele><time>2026-04-30T13:01:42Z</time></trkpt><trkpt lat="45.65480692045924" lon="9.839145400926661"><ele>225.0</ele><time>2026-04-30T13:01:43Z</time></trkpt><trkpt lat="45.65483590611182" lon="9.839056754397701"><ele>224.66666666666669</ele><time>2026-04-30T13:01:44Z</time></trkpt><trkpt lat="45.654895443456745" lon="9.838897991806528"><ele>224.33333333333334</ele><time>2026-04-30T13:01:46Z</time></trkpt><trkpt lat="45.65492342188028" lon="9.838813695315979"><ele>224.0</ele><time>2026-04-30T13:01:47Z</time></trkpt><trkpt lat="45.65495255311331" lon="9.838732126095671"><ele>224.00000000000003</ele><time>2026-04-30T13:01:48Z</time></trkpt><trkpt lat="45.6549861930173" lon="9.838650029124704"><ele>224.0</ele><time>2026-04-30T13:01:49Z</time></trkpt><trkpt lat="45.65501507803024" lon="9.838568527974115"><ele>224.0</ele><time>2026-04-30T13:01:50Z</time></trkpt><trkpt lat="45.65504498346326" lon="9.838488505674201"><ele>224.0</ele><time>2026-04-30T13:01:51Z</time></trkpt><trkpt lat="45.65509836777026" lon="9.838334534525695"><ele>224.00000000000003</ele><time>2026-04-30T13:01:53Z</time></trkpt><trkpt lat="45.65515327080521" lon="9.838191750023137"><ele>224.0</ele><time>2026-04-30T13:01:55Z</time></trkpt><trkpt lat="45.65519830324094" lon="9.838051467068384"><ele>223.79999999999998</ele><time>2026-04-30T13:01:57Z</time></trkpt><trkpt lat="45.65525273964847" lon="9.837899520291423"><ele>223.59999999999997</ele><time>2026-04-30T13:01:59Z</time></trkpt><trkpt lat="45.65526847935791" lon="9.83780811341047"><ele>223.4</ele><time>2026-04-30T13:02:00Z</time></trkpt><trkpt lat="45.655316251648735" lon="9.837639963236503"><ele>223.2</ele><time>2026-04-30T13:02:02Z</time></trkpt><trkpt lat="45.65534860636347" lon="9.837467945632625"><ele>223.0</ele><time>2026-04-30T13:02:04Z</time></trkpt><trkpt lat="45.65538019485391" lon="9.837295935308767"><ele>223.8</ele><time>2026-04-30T13:02:06Z</time></trkpt><trkpt lat="45.65542521334328" lon="9.837129475873919"><ele>224.60000000000002</ele><time>2026-04-30T13:02:08Z</time></trkpt><trkpt lat="45.655459212555684" lon="9.837053197960826"><ele>225.39999999999998</ele><time>2026-04-30T13:02:09Z</time></trkpt><trkpt lat="45.65550369665657" lon="9.83690112944391"><ele>226.2</ele><time>2026-04-30T13:02:11Z</time></trkpt><trkpt lat="45.655530711936194" lon="9.836809095519772"><ele>227.0</ele><time>2026-04-30T13:02:12Z</time></trkpt><trkpt lat="45.65558138427556" lon="9.836650640402844"><ele>227.0</ele><time>2026-04-30T13:02:14Z</time></trkpt><trkpt lat="45.65565108587187" lon="9.836506340101272"><ele>227.0</ele><time>2026-04-30T13:02:16Z</time></trkpt><trkpt lat="45.655727161566986" lon="9.836371821838346"><ele>227.0</ele><time>2026-04-30T13:02:18Z</time></trkpt><trkpt lat="45.655765994339205" lon="9.836300637608646"><ele>227.0</ele><time>2026-04-30T13:02:19Z</time></trkpt><trkpt lat="45.65584359312172" lon="9.836162009300264"><ele>227.0</ele><time>2026-04-30T13:02:21Z</time></trkpt><trkpt lat="45.65591998725896" lon="9.836030250231456"><ele>227.25</ele><time>2026-04-30T13:02:23Z</time></trkpt><trkpt lat="45.65599405564597" lon="9.835899404396876"><ele>227.5</ele><time>2026-04-30T13:02:25Z</time></trkpt><trkpt lat="45.65607504395026" lon="9.835769943007655"><ele>227.75</ele><time>2026-04-30T13:02:27Z</time></trkpt><trkpt lat="45.65615749734544" lon="9.835647838647676"><ele>228.0</ele><time>2026-04-30T13:02:29Z</time></trkpt><trkpt lat="45.65624514138503" lon="9.835530197276466"><ele>229.4</ele><time>2026-04-30T13:02:31Z</time></trkpt><trkpt lat="45.6563279771799" lon="9.835402776773801"><ele>230.8</ele><time>2026-04-30T13:02:33Z</time></trkpt><trkpt lat="45.656411760949695" lon="9.83527691777665"><ele>232.2</ele><time>2026-04-30T13:02:35Z</time></trkpt><trkpt lat="45.65645549054444" lon="9.835199038410666"><ele>233.6</ele><time>2026-04-30T13:02:36Z</time></trkpt><trkpt lat="45.65654061367322" lon="9.835071447474533"><ele>235.0</ele><time>2026-04-30T13:02:38Z</time></trkpt><trkpt lat="45.65662777868433" lon="9.834965484136065"><ele>235.0</ele><time>2026-04-30T13:02:40Z</time></trkpt><trkpt lat="45.656708505643124" lon="9.834849667871316"><ele>235.0</ele><time>2026-04-30T13:02:42Z</time></trkpt><trkpt lat="45.65680500474122" lon="9.834748758508985"><ele>235.0</ele><time>2026-04-30T13:02:44Z</time></trkpt><trkpt lat="45.6568519407971" lon="9.83468416104979"><ele>235.0</ele><time>2026-04-30T13:02:45Z</time></trkpt><trkpt lat="45.65695013069141" lon="9.834576769171653"><ele>235.0</ele><time>2026-04-30T13:02:47Z</time></trkpt><trkpt lat="45.657045798644965" lon="9.834474721873285"><ele>233.8</ele><time>2026-04-30T13:02:49Z</time></trkpt><trkpt lat="45.657110065935974" lon="9.834435888459373"><ele>232.6</ele><time>2026-04-30T13:02:50Z</time></trkpt><trkpt lat="45.65719880902127" lon="9.834312564978278"><ele>231.39999999999998</ele><time>2026-04-30T13:02:52Z</time></trkpt><trkpt lat="45.65730710130754" lon="9.834215906487959"><ele>230.2</ele><time>2026-04-30T13:02:54Z</time></trkpt><trkpt lat="45.65740981578502" lon="9.834114953619439"><ele>229.0</ele><time>2026-04-30T13:02:56Z</time></trkpt><trkpt lat="45.65751765511013" lon="9.834032896585148"><ele>229.0</ele><time>2026-04-30T13:02:58Z</time></trkpt><trkpt lat="45.657571871232754" lon="9.833979012525953"><ele>228.99999999999997</ele><time>2026-04-30T13:02:59Z</time></trkpt><trkpt lat="45.65767196713508" lon="9.833882289739545"><ele>228.99999999999997</ele><time>2026-04-30T13:03:01Z</time></trkpt><trkpt lat="45.657726742031336" lon="9.833828607998091"><ele>229.0</ele><time>2026-04-30T13:03:02Z</time></trkpt><trkpt lat="45.65783020418214" lon="9.833733215669554"><ele>229.0</ele><time>2026-04-30T13:03:04Z</time></trkpt><trkpt lat="45.65793505042035" lon="9.833633833135027"><ele>228.75</ele><time>2026-04-30T13:03:06Z</time></trkpt><trkpt lat="45.658037542943866" lon="9.833539348395007"><ele>228.5</ele><time>2026-04-30T13:03:08Z</time></trkpt><trkpt lat="45.65813518273674" lon="9.833446657625007"><ele>228.25</ele><time>2026-04-30T13:03:10Z</time></trkpt><trkpt lat="45.65823724322489" lon="9.833352576427043"><ele>228.0</ele><time>2026-04-30T13:03:12Z</time></trkpt><trkpt lat="45.65834740027967" lon="9.833264286088356"><ele>227.75</ele><time>2026-04-30T13:03:14Z</time></trkpt><trkpt lat="45.658448877334024" lon="9.833171246971698"><ele>227.5</ele><time>2026-04-30T13:03:16Z</time></trkpt><trkpt lat="45.65854028618153" lon="9.833078721021472"><ele>227.25</ele><time>2026-04-30T13:03:18Z</time></trkpt><trkpt lat="45.658633814121764" lon="9.8329910091019"><ele>227.0</ele><time>2026-04-30T13:03:20Z</time></trkpt><trkpt lat="45.65873854307081" lon="9.83288861430198"><ele>227.00000000000003</ele><time>2026-04-30T13:03:22Z</time></trkpt><trkpt lat="45.65879007752969" lon="9.832832698571174"><ele>227.0</ele><time>2026-04-30T13:03:23Z</time></trkpt><trkpt lat="45.65889143062492" lon="9.832727479820626"><ele>227.0</ele><time>2026-04-30T13:03:25Z</time></trkpt><trkpt lat="45.658997642059965" lon="9.832635611231701"><ele>227.0</ele><time>2026-04-30T13:03:27Z</time></trkpt><trkpt lat="45.659048784398934" lon="9.83257972207034"><ele>227.00000000000003</ele><time>2026-04-30T13:03:28Z</time></trkpt><trkpt lat="45.65909934193298" lon="9.832524116340165"><ele>227.0</ele><time>2026-04-30T13:03:29Z</time></trkpt><trkpt lat="45.65919772139598" lon="9.832413923570941"><ele>227.0</ele><time>2026-04-30T13:03:31Z</time></trkpt><trkpt lat="45.65929586111734" lon="9.832304742751484"><ele>227.0</ele><time>2026-04-30T13:03:33Z</time></trkpt><trkpt lat="45.65934701405745" lon="9.83224605812962"><ele>227.0</ele><time>2026-04-30T13:03:34Z</time></trkpt><trkpt lat="45.65944181404767" lon="9.8321315019651"><ele>227.0</ele><time>2026-04-30T13:03:36Z</time></trkpt><trkpt lat="45.65953868330009" lon="9.83202090213465"><ele>227.0</ele><time>2026-04-30T13:03:38Z</time></trkpt><trkpt lat="45.65963498629334" lon="9.83191017654381"><ele>227.0</ele><time>2026-04-30T13:03:40Z</time></trkpt><trkpt lat="45.659685670374785" lon="9.831856064307848"><ele>227.00000000000003</ele><time>2026-04-30T13:03:41Z</time></trkpt><trkpt lat="45.65978417195694" lon="9.831745196777504"><ele>227.0</ele><time>2026-04-30T13:03:43Z</time></trkpt><trkpt lat="45.659834933510275" lon="9.831691425949783"><ele>227.0</ele><time>2026-04-30T13:03:44Z</time></trkpt><trkpt lat="45.65988552047655" lon="9.831636018945822"><ele>227.00000000000003</ele><time>2026-04-30T13:03:45Z</time></trkpt><trkpt lat="45.6599374029346" lon="9.831583806294312"><ele>227.0</ele><time>2026-04-30T13:03:46Z</time></trkpt><trkpt lat="45.65998803272263" lon="9.831528979615804"><ele>227.0</ele><time>2026-04-30T13:03:47Z</time></trkpt><trkpt lat="45.6600378469593" lon="9.831471963461546"><ele>226.8</ele><time>2026-04-30T13:03:48Z</time></trkpt><trkpt lat="45.66008725641353" lon="9.831415253761937"><ele>226.6</ele><time>2026-04-30T13:03:49Z</time></trkpt><trkpt lat="45.66018408190018" lon="9.831303756814963"><ele>226.40000000000003</ele><time>2026-04-30T13:03:51Z</time></trkpt><trkpt lat="45.66023270734896" lon="9.831246433321242"><ele>226.20000000000002</ele><time>2026-04-30T13:03:52Z</time></trkpt><trkpt lat="45.66033252342871" lon="9.831137428343597"><ele>226.0</ele><time>2026-04-30T13:03:54Z</time></trkpt><trkpt lat="45.660431264482604" lon="9.83102070803788"><ele>226.4</ele><time>2026-04-30T13:03:56Z</time></trkpt><trkpt lat="45.66052923219664" lon="9.830910472496845"><ele>226.8</ele><time>2026-04-30T13:03:58Z</time></trkpt><trkpt lat="45.66058151334953" lon="9.830857583645058"><ele>227.20000000000002</ele><time>2026-04-30T13:03:59Z</time></trkpt><trkpt lat="45.66062992306885" lon="9.830798806890385"><ele>227.60000000000002</ele><time>2026-04-30T13:04:00Z</time></trkpt><trkpt lat="45.66073051782637" lon="9.830692952614765"><ele>228.0</ele><time>2026-04-30T13:04:02Z</time></trkpt><trkpt lat="45.66082958525959" lon="9.830585366321655"><ele>228.0</ele><time>2026-04-30T13:04:04Z</time></trkpt><trkpt lat="45.66088503702228" lon="9.830533942945268"><ele>228.0</ele><time>2026-04-30T13:04:05Z</time></trkpt><trkpt lat="45.6609926710943" lon="9.83044703229757"><ele>228.0</ele><time>2026-04-30T13:04:07Z</time></trkpt><trkpt lat="45.661106656444765" lon="9.83037648181662"><ele>228.0</ele><time>2026-04-30T13:04:09Z</time></trkpt><trkpt lat="45.6611664841818" lon="9.830346121543673"><ele>228.0</ele><time>2026-04-30T13:04:10Z</time></trkpt><trkpt lat="45.66128378036689" lon="9.830291866308634"><ele>228.28571428571428</ele><time>2026-04-30T13:04:12Z</time></trkpt><trkpt lat="45.66140287653375" lon="9.830240793271509"><ele>228.57142857142856</ele><time>2026-04-30T13:04:14Z</time></trkpt><trkpt lat="45.66146385931952" lon="9.830215669870821"><ele>228.85714285714283</ele><time>2026-04-30T13:04:15Z</time></trkpt><trkpt lat="45.661525371293685" lon="9.830194886172055"><ele>229.1428571428571</ele><time>2026-04-30T13:04:16Z</time></trkpt><trkpt lat="45.661587765933916" lon="9.830172741275838"><ele>229.42857142857142</ele><time>2026-04-30T13:04:17Z</time></trkpt><trkpt lat="45.66164912223307" lon="9.830146922755455"><ele>229.71428571428567</ele><time>2026-04-30T13:04:18Z</time></trkpt><trkpt lat="45.66170979073563" lon="9.830118426893394"><ele>229.99999999999997</ele><time>2026-04-30T13:04:19Z</time></trkpt><trkpt lat="45.661833380091956" lon="9.830078635895827"><ele>230.2</ele><time>2026-04-30T13:04:21Z</time></trkpt><trkpt lat="45.66195638888803" lon="9.83003659674762"><ele>230.4</ele><time>2026-04-30T13:04:23Z</time></trkpt><trkpt lat="45.66201854102424" lon="9.830015253639639"><ele>230.60000000000002</ele><time>2026-04-30T13:04:24Z</time></trkpt><trkpt lat="45.662134570070386" lon="9.82996858212499"><ele>230.8</ele><time>2026-04-30T13:04:26Z</time></trkpt><trkpt lat="45.66224390294501" lon="9.829932486277633"><ele>231.0</ele><time>2026-04-30T13:04:28Z</time></trkpt><trkpt lat="45.66234745738342" lon="9.829894217569198"><ele>231.0</ele><time>2026-04-30T13:04:30Z</time></trkpt><trkpt lat="45.66244209849008" lon="9.8298621008514"><ele>231.00000000000003</ele><time>2026-04-30T13:04:32Z</time></trkpt><trkpt lat="45.66254255543452" lon="9.829832639344495"><ele>231.00000000000003</ele><time>2026-04-30T13:04:34Z</time></trkpt><trkpt lat="45.66266068361727" lon="9.829788668171949"><ele>231.0</ele><time>2026-04-30T13:04:36Z</time></trkpt><trkpt lat="45.662779882453144" lon="9.82974658735811"><ele>231.0</ele><time>2026-04-30T13:04:38Z</time></trkpt><trkpt lat="45.66289587423989" lon="9.82970447338879"><ele>231.4</ele><time>2026-04-30T13:04:40Z</time></trkpt><trkpt lat="45.66295736461609" lon="9.82968425597058"><ele>231.8</ele><time>2026-04-30T13:04:41Z</time></trkpt><trkpt lat="45.66307667892425" lon="9.829638059899683"><ele>232.20000000000002</ele><time>2026-04-30T13:04:43Z</time></trkpt><trkpt lat="45.663193190800634" lon="9.829588866516978"><ele>232.60000000000002</ele><time>2026-04-30T13:04:45Z</time></trkpt><trkpt lat="45.66330893764443" lon="9.829540129702702"><ele>233.0</ele><time>2026-04-30T13:04:47Z</time></trkpt><trkpt lat="45.6634256531518" lon="9.829495785863005"><ele>233.0</ele><time>2026-04-30T13:04:49Z</time></trkpt><trkpt lat="45.6634874941906" lon="9.829468042557824"><ele>233.0</ele><time>2026-04-30T13:04:50Z</time></trkpt><trkpt lat="45.66360839609691" lon="9.829420575505576"><ele>233.0</ele><time>2026-04-30T13:04:52Z</time></trkpt><trkpt lat="45.66373070891617" lon="9.82937451907509"><ele>233.0</ele><time>2026-04-30T13:04:54Z</time></trkpt><trkpt lat="45.66385047178539" lon="9.829322311371767"><ele>233.0</ele><time>2026-04-30T13:04:56Z</time></trkpt><trkpt lat="45.66391268839468" lon="9.829301939045838"><ele>233.2</ele><time>2026-04-30T13:04:57Z</time></trkpt><trkpt lat="45.6640343917502" lon="9.829258171050958"><ele>233.4</ele><time>2026-04-30T13:04:59Z</time></trkpt><trkpt lat="45.66415544808019" lon="9.82920946067422"><ele>233.59999999999997</ele><time>2026-04-30T13:05:01Z</time></trkpt><trkpt lat="45.66421477675261" lon="9.829178208529312"><ele>233.79999999999998</ele><time>2026-04-30T13:05:02Z</time></trkpt><trkpt lat="45.66433028478458" lon="9.829133318326466"><ele>234.0</ele><time>2026-04-30T13:05:04Z</time></trkpt><trkpt lat="45.66443704887271" lon="9.829088198921434"><ele>234.39999999999998</ele><time>2026-04-30T13:05:06Z</time></trkpt><trkpt lat="45.664534530330926" lon="9.8290457752731"><ele>234.79999999999998</ele><time>2026-04-30T13:05:08Z</time></trkpt><trkpt lat="45.66462565353642" lon="9.829013222637597"><ele>235.20000000000002</ele><time>2026-04-30T13:05:10Z</time></trkpt><trkpt lat="45.66470781901456" lon="9.828973254717418"><ele>235.60000000000002</ele><time>2026-04-30T13:05:12Z</time></trkpt><trkpt lat="45.66478887532259" lon="9.828940602559953"><ele>236.0</ele><time>2026-04-30T13:05:14Z</time></trkpt><trkpt lat="45.664892440910876" lon="9.828899584347363"><ele>236.0</ele><time>2026-04-30T13:05:16Z</time></trkpt><trkpt lat="45.66501447549662" lon="9.828850655671342"><ele>236.0</ele><time>2026-04-30T13:05:18Z</time></trkpt><trkpt lat="45.665127063766086" lon="9.828792715525918"><ele>236.0</ele><time>2026-04-30T13:05:20Z</time></trkpt><trkpt lat="45.66523111842212" lon="9.828743442685738"><ele>236.0</ele><time>2026-04-30T13:05:22Z</time></trkpt><trkpt lat="45.665326593673385" lon="9.828695661013846"><ele>236.0</ele><time>2026-04-30T13:05:24Z</time></trkpt><trkpt lat="45.665419851499145" lon="9.828652816487585"><ele>236.00000000000003</ele><time>2026-04-30T13:05:26Z</time></trkpt><trkpt lat="45.66553464137319" lon="9.828600512761733"><ele>236.00000000000003</ele><time>2026-04-30T13:05:28Z</time></trkpt><trkpt lat="45.66559372189841" lon="9.828568244087094"><ele>236.0</ele><time>2026-04-30T13:05:29Z</time></trkpt><trkpt lat="45.66570111941001" lon="9.828511454691899"><ele>236.0</ele><time>2026-04-30T13:05:31Z</time></trkpt><trkpt lat="45.66579721478557" lon="9.828459139981018"><ele>235.83333333333334</ele><time>2026-04-30T13:05:33Z</time></trkpt><trkpt lat="45.665887892603074" lon="9.82841223269126"><ele>235.66666666666669</ele><time>2026-04-30T13:05:35Z</time></trkpt><trkpt lat="45.6659700526752" lon="9.828374800207927"><ele>235.5</ele><time>2026-04-30T13:05:37Z</time></trkpt><trkpt lat="45.66604816670643" lon="9.828327458838801"><ele>235.33333333333331</ele><time>2026-04-30T13:05:39Z</time></trkpt><trkpt lat="45.6661357775656" lon="9.828293033159188"><ele>235.16666666666666</ele><time>2026-04-30T13:05:41Z</time></trkpt><trkpt lat="45.666221151113604" lon="9.828249792095077"><ele>235.0</ele><time>2026-04-30T13:05:43Z</time></trkpt><trkpt lat="45.666309242678395" lon="9.82819869452087"><ele>235.0</ele><time>2026-04-30T13:05:45Z</time></trkpt><trkpt lat="45.66639920188851" lon="9.828153034785933"><ele>235.0</ele><time>2026-04-30T13:05:47Z</time></trkpt><trkpt lat="45.6664911182189" lon="9.828097105128741"><ele>235.0</ele><time>2026-04-30T13:05:49Z</time></trkpt><trkpt lat="45.666581051616724" lon="9.828025881184054"><ele>235.0</ele><time>2026-04-30T13:05:51Z</time></trkpt><trkpt lat="45.6666675040425" lon="9.827982428209378"><ele>235.0</ele><time>2026-04-30T13:05:53Z</time></trkpt><trkpt lat="45.666744360737766" lon="9.82802488106129"><ele>235.0</ele><time>2026-04-30T13:05:55Z</time></trkpt><trkpt lat="45.66677995278658" lon="9.828127080780105"><ele>235.0</ele><time>2026-04-30T13:05:57Z</time></trkpt><trkpt lat="45.66678279992498" lon="9.82826343000637"><ele>235.0</ele><time>2026-04-30T13:05:59Z</time></trkpt><trkpt lat="45.66678648201422" lon="9.828383020064376"><ele>235.0</ele><time>2026-04-30T13:06:01Z</time></trkpt><trkpt lat="45.66686351642823" lon="9.828487482722199"><ele>235.0</ele><time>2026-04-30T13:06:03Z</time></trkpt><trkpt lat="45.66695702548321" lon="9.82858106544155"><ele>235.75</ele><time>2026-04-30T13:06:05Z</time></trkpt><trkpt lat="45.66704908236758" lon="9.828686957435835"><ele>236.5</ele><time>2026-04-30T13:06:07Z</time></trkpt><trkpt lat="45.667136751717955" lon="9.828793875293645"><ele>237.25</ele><time>2026-04-30T13:06:09Z</time></trkpt><trkpt lat="45.66723448979432" lon="9.828893131962085"><ele>238.0</ele><time>2026-04-30T13:06:11Z</time></trkpt><trkpt lat="45.667333283326165" lon="9.829001247028142"><ele>238.0</ele><time>2026-04-30T13:06:13Z</time></trkpt><trkpt lat="45.66742551842371" lon="9.829111702056673"><ele>238.0</ele><time>2026-04-30T13:06:15Z</time></trkpt><trkpt lat="45.667517809054054" lon="9.829220047319005"><ele>238.0</ele><time>2026-04-30T13:06:17Z</time></trkpt><trkpt lat="45.66761226832751" lon="9.829320699390548"><ele>238.0</ele><time>2026-04-30T13:06:19Z</time></trkpt><trkpt lat="45.66770804560647" lon="9.829420289766356"><ele>238.25</ele><time>2026-04-30T13:06:21Z</time></trkpt><trkpt lat="45.66779873109391" lon="9.829522015156494"><ele>238.5</ele><time>2026-04-30T13:06:23Z</time></trkpt><trkpt lat="45.6678672446524" lon="9.829647412834234"><ele>238.75</ele><time>2026-04-30T13:06:25Z</time></trkpt><trkpt lat="45.66796047720946" lon="9.829738924097382"><ele>239.0</ele><time>2026-04-30T13:06:27Z</time></trkpt><trkpt lat="45.66806994442133" lon="9.829820741625387"><ele>239.0</ele><time>2026-04-30T13:06:29Z</time></trkpt><trkpt lat="45.66817704997217" lon="9.829903891622687"><ele>239.0</ele><time>2026-04-30T13:06:31Z</time></trkpt><trkpt lat="45.668278826642265" lon="9.830000280217934"><ele>239.0</ele><time>2026-04-30T13:06:33Z</time></trkpt><trkpt lat="45.66837944118982" lon="9.830104272956959"><ele>239.0</ele><time>2026-04-30T13:06:35Z</time></trkpt><trkpt lat="45.66846760976038" lon="9.830222447639766"><ele>239.6</ele><time>2026-04-30T13:06:37Z</time></trkpt><trkpt lat="45.668548536631185" lon="9.830336944566744"><ele>240.2</ele><time>2026-04-30T13:06:39Z</time></trkpt><trkpt lat="45.66862502014957" lon="9.830440821986064"><ele>240.79999999999998</ele><time>2026-04-30T13:06:41Z</time></trkpt><trkpt lat="45.6686882176645" lon="9.830541072480152"><ele>241.39999999999998</ele><time>2026-04-30T13:06:43Z</time></trkpt><trkpt lat="45.66874430952071" lon="9.830628362930556"><ele>242.0</ele><time>2026-04-30T13:06:45Z</time></trkpt><trkpt lat="45.66881534702016" lon="9.830655437569787"><ele>242.0</ele><time>2026-04-30T13:06:47Z</time></trkpt><trkpt lat="45.66890478534459" lon="9.830688159813342"><ele>242.0</ele><time>2026-04-30T13:06:49Z</time></trkpt><trkpt lat="45.66898668305526" lon="9.83071121173309"><ele>242.0</ele><time>2026-04-30T13:06:51Z</time></trkpt><trkpt lat="45.66907482951786" lon="9.83071055906976"><ele>242.0</ele><time>2026-04-30T13:06:53Z</time></trkpt><trkpt lat="45.66916400174613" lon="9.83068926303728"><ele>242.0</ele><time>2026-04-30T13:06:55Z</time></trkpt><trkpt lat="45.66925691502493" lon="9.830636765780408"><ele>242.0</ele><time>2026-04-30T13:06:57Z</time></trkpt><trkpt lat="45.66934383612592" lon="9.830575953995519"><ele>242.0</ele><time>2026-04-30T13:06:59Z</time></trkpt><trkpt lat="45.669422205204725" lon="9.830508731116009"><ele>242.0</ele><time>2026-04-30T13:07:01Z</time></trkpt><trkpt lat="45.66950989333479" lon="9.830432253167922"><ele>242.0</ele><time>2026-04-30T13:07:03Z</time></trkpt><trkpt lat="45.66958835443017" lon="9.830348550432602"><ele>242.0</ele><time>2026-04-30T13:07:05Z</time></trkpt><trkpt lat="45.66967868207487" lon="9.830290472601714"><ele>242.6</ele><time>2026-04-30T13:07:07Z</time></trkpt><trkpt lat="45.66978589956135" lon="9.830227290815063"><ele>243.2</ele><time>2026-04-30T13:07:09Z</time></trkpt><trkpt lat="45.66990241074531" lon="9.830193695111703"><ele>243.8</ele><time>2026-04-30T13:07:11Z</time></trkpt><trkpt lat="45.670022018698674" lon="9.83016281691513"><ele>244.4</ele><time>2026-04-30T13:07:13Z</time></trkpt><trkpt lat="45.67009032659934" lon="9.830143722081898"><ele>245.0</ele><time>2026-04-30T13:07:14Z</time></trkpt><trkpt lat="45.67016072078199" lon="9.830114836193154"><ele>244.00000000000003</ele><time>2026-04-30T13:07:15Z</time></trkpt><trkpt lat="45.67023250091179" lon="9.830103305974164"><ele>243.0</ele><time>2026-04-30T13:07:16Z</time></trkpt><trkpt lat="45.67029498713895" lon="9.830087460055944"><ele>242.0</ele><time>2026-04-30T13:07:17Z</time></trkpt><trkpt lat="45.67036071120975" lon="9.830076085975572"><ele>241.0</ele><time>2026-04-30T13:07:18Z</time></trkpt><trkpt lat="45.670478426835885" lon="9.830095595371903"><ele>240.00000000000003</ele><time>2026-04-30T13:07:20Z</time></trkpt><trkpt lat="45.67054300462045" lon="9.830086688887594"><ele>239.0</ele><time>2026-04-30T13:07:21Z</time></trkpt><trkpt lat="45.67066418981384" lon="9.830115747533569"><ele>240.2</ele><time>2026-04-30T13:07:23Z</time></trkpt><trkpt lat="45.670720977417616" lon="9.830177698319883"><ele>241.39999999999998</ele><time>2026-04-30T13:07:24Z</time></trkpt><trkpt lat="45.67084265705503" lon="9.83019826858599"><ele>242.6</ele><time>2026-04-30T13:07:26Z</time></trkpt><trkpt lat="45.67090646972956" lon="9.83021382002429"><ele>243.8</ele><time>2026-04-30T13:07:27Z</time></trkpt><trkpt lat="45.67102706134387" lon="9.830215310618827"><ele>245.0</ele><time>2026-04-30T13:07:29Z</time></trkpt><trkpt lat="45.67109715177765" lon="9.830186479009289"><ele>244.16666666666669</ele><time>2026-04-30T13:07:30Z</time></trkpt><trkpt lat="45.67116167489861" lon="9.830183102777928"><ele>243.33333333333334</ele><time>2026-04-30T13:07:31Z</time></trkpt><trkpt lat="45.671224836164185" lon="9.830171432312826"><ele>242.5</ele><time>2026-04-30T13:07:32Z</time></trkpt><trkpt lat="45.67128965820876" lon="9.830165719041103"><ele>241.66666666666669</ele><time>2026-04-30T13:07:33Z</time></trkpt><trkpt lat="45.67141146277193" lon="9.830151374456623"><ele>240.83333333333334</ele><time>2026-04-30T13:07:35Z</time></trkpt><trkpt lat="45.67152288945516" lon="9.830189147785216"><ele>240.0</ele><time>2026-04-30T13:07:37Z</time></trkpt><trkpt lat="45.671621378400296" lon="9.83029881183913"><ele>240.0</ele><time>2026-04-30T13:07:39Z</time></trkpt><trkpt lat="45.67166460649863" lon="9.830365385103535"><ele>240.0</ele><time>2026-04-30T13:07:40Z</time></trkpt><trkpt lat="45.67170188766476" lon="9.830439503276626"><ele>240.0</ele><time>2026-04-30T13:07:41Z</time></trkpt><trkpt lat="45.67174148649144" lon="9.83060117750063"><ele>240.0</ele><time>2026-04-30T13:07:43Z</time></trkpt><trkpt lat="45.671784457121746" lon="9.830729025867997"><ele>240.0</ele><time>2026-04-30T13:07:45Z</time></trkpt><trkpt lat="45.67187538748572" lon="9.830740843850958"><ele>240.0</ele><time>2026-04-30T13:07:47Z</time></trkpt><trkpt lat="45.671936152775544" lon="9.830699931608608"><ele>238.83333333333334</ele><time>2026-04-30T13:07:48Z</time></trkpt><trkpt lat="45.67205583188608" lon="9.830617381592239"><ele>237.66666666666669</ele><time>2026-04-30T13:07:50Z</time></trkpt><trkpt lat="45.67211746584165" lon="9.830559416265649"><ele>236.5</ele><time>2026-04-30T13:07:51Z</time></trkpt><trkpt lat="45.672175631877224" lon="9.830495448026277"><ele>235.33333333333334</ele><time>2026-04-30T13:07:52Z</time></trkpt><trkpt lat="45.672230612453376" lon="9.830422614091685"><ele>234.16666666666669</ele><time>2026-04-30T13:07:53Z</time></trkpt><trkpt lat="45.67227654742078" lon="9.830341163878686"><ele>233.0</ele><time>2026-04-30T13:07:54Z</time></trkpt><trkpt lat="45.67231865117391" lon="9.830258852115733"><ele>233.0</ele><time>2026-04-30T13:07:55Z</time></trkpt><trkpt lat="45.67235964347356" lon="9.830176184366085"><ele>233.0</ele><time>2026-04-30T13:07:56Z</time></trkpt><trkpt lat="45.672398941236175" lon="9.830094508066733"><ele>233.0</ele><time>2026-04-30T13:07:57Z</time></trkpt><trkpt lat="45.67243711326803" lon="9.830010692537794"><ele>233.0</ele><time>2026-04-30T13:07:58Z</time></trkpt><trkpt lat="45.67247114414985" lon="9.829924276414816"><ele>233.0</ele><time>2026-04-30T13:07:59Z</time></trkpt><trkpt lat="45.67250115760003" lon="9.829839092979437"><ele>233.0</ele><time>2026-04-30T13:08:00Z</time></trkpt><trkpt lat="45.6725377686215" lon="9.829760863822592"><ele>233.0</ele><time>2026-04-30T13:08:01Z</time></trkpt><trkpt lat="45.67257515958645" lon="9.8296820374715"><ele>232.71428571428572</ele><time>2026-04-30T13:08:02Z</time></trkpt><trkpt lat="45.67261422487692" lon="9.829604459598734"><ele>232.42857142857142</ele><time>2026-04-30T13:08:03Z</time></trkpt><trkpt lat="45.672652983854825" lon="9.829526743893213"><ele>232.14285714285714</ele><time>2026-04-30T13:08:04Z</time></trkpt><trkpt lat="45.6726924528871" lon="9.829449660900737"><ele>231.85714285714286</ele><time>2026-04-30T13:08:05Z</time></trkpt><trkpt lat="45.672730768970126" lon="9.829371557853333"><ele>231.57142857142856</ele><time>2026-04-30T13:08:06Z</time></trkpt><trkpt lat="45.672768803466134" lon="9.829294937969673"><ele>231.28571428571428</ele><time>2026-04-30T13:08:07Z</time></trkpt><trkpt lat="45.67280824217065" lon="9.829220460332667"><ele>231.0</ele><time>2026-04-30T13:08:08Z</time></trkpt><trkpt lat="45.672842733475626" lon="9.829144112610729"><ele>230.5</ele><time>2026-04-30T13:08:09Z</time></trkpt><trkpt lat="45.67291484561615" lon="9.829000547991946"><ele>230.0</ele><time>2026-04-30T13:08:11Z</time></trkpt><trkpt lat="45.67298601254909" lon="9.82885683069457"><ele>229.5</ele><time>2026-04-30T13:08:13Z</time></trkpt><trkpt lat="45.67305500653818" lon="9.82871933138075"><ele>229.0</ele><time>2026-04-30T13:08:15Z</time></trkpt><trkpt lat="45.67312849875276" lon="9.828593162934007"><ele>228.99999999999997</ele><time>2026-04-30T13:08:17Z</time></trkpt><trkpt lat="45.673213957768496" lon="9.82849292206155"><ele>229.0</ele><time>2026-04-30T13:08:19Z</time></trkpt><trkpt lat="45.67327047876083" lon="9.828448553023213"><ele>229.0</ele><time>2026-04-30T13:08:20Z</time></trkpt><trkpt lat="45.67332836778346" lon="9.828411515721818"><ele>229.0</ele><time>2026-04-30T13:08:21Z</time></trkpt><trkpt lat="45.67338850686846" lon="9.828380914723281"><ele>228.99999999999997</ele><time>2026-04-30T13:08:22Z</time></trkpt><trkpt lat="45.673493276978846" lon="9.828332064099586"><ele>229.0</ele><time>2026-04-30T13:08:24Z</time></trkpt><trkpt lat="45.67357974497222" lon="9.82823897838939"><ele>229.5</ele><time>2026-04-30T13:08:26Z</time></trkpt><trkpt lat="45.67367212934657" lon="9.828142693085203"><ele>230.0</ele><time>2026-04-30T13:08:28Z</time></trkpt><trkpt lat="45.67377070222812" lon="9.828048654245789"><ele>230.5</ele><time>2026-04-30T13:08:30Z</time></trkpt><trkpt lat="45.673864981258234" lon="9.827959952921933"><ele>231.0</ele><time>2026-04-30T13:08:32Z</time></trkpt><trkpt lat="45.67396806076644" lon="9.827881267752511"><ele>231.0</ele><time>2026-04-30T13:08:34Z</time></trkpt><trkpt lat="45.674075479962255" lon="9.827816340431257"><ele>231.00000000000003</ele><time>2026-04-30T13:08:36Z</time></trkpt><trkpt lat="45.674190678600716" lon="9.827787524793681"><ele>231.00000000000003</ele><time>2026-04-30T13:08:38Z</time></trkpt><trkpt lat="45.674283552089435" lon="9.827762830188309"><ele>231.0</ele><time>2026-04-30T13:08:40Z</time></trkpt><trkpt lat="45.67435223328459" lon="9.827786543237002"><ele>231.0</ele><time>2026-04-30T13:08:43Z</time></trkpt><trkpt lat="45.674381794044265" lon="9.82793796426195"><ele>231.0</ele><time>2026-04-30T13:08:45Z</time></trkpt><trkpt lat="45.6744283474418" lon="9.828077906888756"><ele>231.0</ele><time>2026-04-30T13:08:47Z</time></trkpt><trkpt lat="45.674473496373835" lon="9.828233114366231"><ele>231.0</ele><time>2026-04-30T13:08:49Z</time></trkpt><trkpt lat="45.67452128730633" lon="9.82838222370339"><ele>231.0</ele><time>2026-04-30T13:08:51Z</time></trkpt><trkpt lat="45.67458661074324" lon="9.82851626297529"><ele>231.8</ele><time>2026-04-30T13:08:53Z</time></trkpt><trkpt lat="45.67466049131016" lon="9.828641086045224"><ele>232.60000000000002</ele><time>2026-04-30T13:08:55Z</time></trkpt><trkpt lat="45.674772237284486" lon="9.828702811907283"><ele>233.4</ele><time>2026-04-30T13:08:57Z</time></trkpt><trkpt lat="45.67488948083449" lon="9.82873216203005"><ele>234.2</ele><time>2026-04-30T13:08:59Z</time></trkpt><trkpt lat="45.674952373502144" lon="9.828748089534743"><ele>235.0</ele><time>2026-04-30T13:09:00Z</time></trkpt><trkpt lat="45.67506534140331" lon="9.828767863594607"><ele>234.99999999999997</ele><time>2026-04-30T13:09:02Z</time></trkpt><trkpt lat="45.67517233433366" lon="9.828755530404662"><ele>235.0</ele><time>2026-04-30T13:09:04Z</time></trkpt><trkpt lat="45.675271185323815" lon="9.828776244031594"><ele>235.0</ele><time>2026-04-30T13:09:06Z</time></trkpt><trkpt lat="45.675352538049346" lon="9.828790160684058"><ele>235.0</ele><time>2026-04-30T13:09:08Z</time></trkpt><trkpt lat="45.67538752638552" lon="9.828701355462023"><ele>234.99999999999997</ele><time>2026-04-30T13:09:10Z</time></trkpt><trkpt lat="45.675380422026215" lon="9.828604187376643"><ele>235.0</ele><time>2026-04-30T13:09:11Z</time></trkpt><trkpt lat="45.675376643166864" lon="9.828510268787463"><ele>235.2</ele><time>2026-04-30T13:09:12Z</time></trkpt><trkpt lat="45.67538169831919" lon="9.828418621792947"><ele>235.4</ele><time>2026-04-30T13:09:13Z</time></trkpt><trkpt lat="45.67538790214896" lon="9.828328338840317"><ele>235.60000000000002</ele><time>2026-04-30T13:09:14Z</time></trkpt><trkpt lat="45.67539395823631" lon="9.828148339706857"><ele>235.8</ele><time>2026-04-30T13:09:16Z</time></trkpt><trkpt lat="45.67540507270129" lon="9.827979197309995"><ele>236.0</ele><time>2026-04-30T13:09:18Z</time></trkpt><trkpt lat="45.675426741751004" lon="9.827817009143862"><ele>236.0</ele><time>2026-04-30T13:09:20Z</time></trkpt><trkpt lat="45.67544340743601" lon="9.82764608572277"><ele>236.00000000000003</ele><time>2026-04-30T13:09:22Z</time></trkpt><trkpt lat="45.67545229554256" lon="9.827556748641053"><ele>236.00000000000003</ele><time>2026-04-30T13:09:23Z</time></trkpt><trkpt lat="45.67546652821479" lon="9.827467053859698"><ele>236.0</ele><time>2026-04-30T13:09:24Z</time></trkpt><trkpt lat="45.67548158470542" lon="9.827298170793446"><ele>236.0</ele><time>2026-04-30T13:09:26Z</time></trkpt><trkpt lat="45.6754986451915" lon="9.827145447704241"><ele>236.00000000000003</ele><time>2026-04-30T13:09:28Z</time></trkpt><trkpt lat="45.675500930227386" lon="9.827034774895337"><ele>236.0</ele><time>2026-04-30T13:09:30Z</time></trkpt><trkpt lat="45.67546611311633" lon="9.826954331378095"><ele>236.0</ele><time>2026-04-30T13:09:32Z</time></trkpt><trkpt lat="45.67539036762253" lon="9.82685944928228"><ele>236.0</ele><time>2026-04-30T13:09:34Z</time></trkpt><trkpt lat="45.67532622634567" lon="9.826751639417905"><ele>236.00000000000003</ele><time>2026-04-30T13:09:36Z</time></trkpt><trkpt lat="45.67528787324152" lon="9.82667297142353"><ele>236.0</ele><time>2026-04-30T13:09:38Z</time></trkpt><trkpt lat="45.67518510320817" lon="9.826644476927752"><ele>236.0</ele><time>2026-04-30T13:09:40Z</time></trkpt><trkpt lat="45.67506402835062" lon="9.82663015003357"><ele>236.00000000000003</ele><time>2026-04-30T13:09:42Z</time></trkpt><trkpt lat="45.67495136828085" lon="9.826572470130769"><ele>236.00000000000003</ele><time>2026-04-30T13:09:44Z</time></trkpt><trkpt lat="45.67488480121617" lon="9.826488999428634"><ele>236.0</ele><time>2026-04-30T13:09:46Z</time></trkpt><trkpt lat="45.674838438248656" lon="9.826395743827675"><ele>236.0</ele><time>2026-04-30T13:09:48Z</time></trkpt><trkpt lat="45.6747535141555" lon="9.82633469660737"><ele>236.0</ele><time>2026-04-30T13:09:50Z</time></trkpt><trkpt lat="45.67468047483981" lon="9.826306810870674"><ele>236.00000000000003</ele><time>2026-04-30T13:09:52Z</time></trkpt><trkpt lat="45.674602262391836" lon="9.826219962182778"><ele>236.00000000000003</ele><time>2026-04-30T13:09:55Z</time></trkpt><trkpt lat="45.67453170189318" lon="9.826173535274137"><ele>236.0</ele><time>2026-04-30T13:09:57Z</time></trkpt><trkpt lat="45.67441902352232" lon="9.826178794329241"><ele>236.0</ele><time>2026-04-30T13:09:59Z</time></trkpt><trkpt lat="45.67430819732662" lon="9.82618169799264"><ele>235.60000000000002</ele><time>2026-04-30T13:10:01Z</time></trkpt><trkpt lat="45.67420883245231" lon="9.826169136805635"><ele>235.20000000000002</ele><time>2026-04-30T13:10:03Z</time></trkpt><trkpt lat="45.67412999158594" lon="9.826126084602766"><ele>234.79999999999998</ele><time>2026-04-30T13:10:05Z</time></trkpt><trkpt lat="45.67402688625341" lon="9.826131367302523"><ele>234.39999999999998</ele><time>2026-04-30T13:10:08Z</time></trkpt><trkpt lat="45.67392801942199" lon="9.826166362421471"><ele>234.0</ele><time>2026-04-30T13:10:10Z</time></trkpt><trkpt lat="45.67381323969419" lon="9.826119050685069"><ele>234.0</ele><time>2026-04-30T13:10:12Z</time></trkpt><trkpt lat="45.67370338341335" lon="9.826092297793362"><ele>233.99999999999997</ele><time>2026-04-30T13:10:14Z</time></trkpt><trkpt lat="45.67361994041546" lon="9.826055430296757"><ele>233.99999999999997</ele><time>2026-04-30T13:10:16Z</time></trkpt><trkpt lat="45.67357118838722" lon="9.82596147673506"><ele>234.0</ele><time>2026-04-30T13:10:19Z</time></trkpt><trkpt lat="45.67362183440107" lon="9.825842092637359"><ele>234.0</ele><time>2026-04-30T13:10:21Z</time></trkpt><trkpt lat="45.67367158455502" lon="9.82573079226812"><ele>234.39999999999998</ele><time>2026-04-30T13:10:23Z</time></trkpt><trkpt lat="45.67365883948" lon="9.825633227728698"><ele>234.79999999999998</ele><time>2026-04-30T13:10:26Z</time></trkpt><trkpt lat="45.67358257601665" lon="9.825603548665795"><ele>235.20000000000002</ele><time>2026-04-30T13:10:28Z</time></trkpt><trkpt lat="45.67347402369276" lon="9.825578417676523"><ele>235.60000000000002</ele><time>2026-04-30T13:10:30Z</time></trkpt><trkpt lat="45.673359234745114" lon="9.825517744960848"><ele>236.0</ele><time>2026-04-30T13:10:32Z</time></trkpt><trkpt lat="45.67323701880772" lon="9.825451278262426"><ele>236.16666666666669</ele><time>2026-04-30T13:10:34Z</time></trkpt><trkpt lat="45.67312900940677" lon="9.825438063831985"><ele>236.33333333333334</ele><time>2026-04-30T13:10:36Z</time></trkpt><trkpt lat="45.6730739171222" lon="9.825493707300804"><ele>236.5</ele><time>2026-04-30T13:10:37Z</time></trkpt><trkpt lat="45.67303489987235" lon="9.825582405251607"><ele>236.66666666666669</ele><time>2026-04-30T13:10:38Z</time></trkpt><trkpt lat="45.6730071840667" lon="9.825674005280721"><ele>236.83333333333334</ele><time>2026-04-30T13:10:39Z</time></trkpt><trkpt lat="45.67292956970465" lon="9.825751092107668"><ele>237.0</ele><time>2026-04-30T13:10:41Z</time></trkpt><trkpt lat="45.672843993445696" lon="9.825724915792456"><ele>235.6</ele><time>2026-04-30T13:10:43Z</time></trkpt><trkpt lat="45.6727329020664" lon="9.825676504405093"><ele>234.2</ele><time>2026-04-30T13:10:45Z</time></trkpt><trkpt lat="45.672623615308105" lon="9.825715905531974"><ele>232.8</ele><time>2026-04-30T13:10:47Z</time></trkpt><trkpt lat="45.672531102698606" lon="9.82577105279305"><ele>231.4</ele><time>2026-04-30T13:10:49Z</time></trkpt><trkpt lat="45.67245146540908" lon="9.825838626573482"><ele>230.0</ele><time>2026-04-30T13:10:52Z</time></trkpt><trkpt lat="45.67239267482525" lon="9.825914714632816"><ele>229.66666666666669</ele><time>2026-04-30T13:10:54Z</time></trkpt><trkpt lat="45.6723478819568" lon="9.826000743694648"><ele>229.33333333333334</ele><time>2026-04-30T13:10:56Z</time></trkpt><trkpt lat="45.67231802698278" lon="9.826084670245388"><ele>229.0</ele><time>2026-04-30T13:10:58Z</time></trkpt><trkpt lat="45.67224428684143" lon="9.826191121959502"><ele>228.66666666666669</ele><time>2026-04-30T13:11:01Z</time></trkpt><trkpt lat="45.672193469651425" lon="9.826311559420633"><ele>228.33333333333334</ele><time>2026-04-30T13:11:03Z</time></trkpt><trkpt lat="45.67214658626842" lon="9.826430519195496"><ele>228.0</ele><time>2026-04-30T13:11:05Z</time></trkpt><trkpt lat="45.67216091417997" lon="9.826541542200408"><ele>228.0</ele><time>2026-04-30T13:11:09Z</time></trkpt><trkpt lat="45.67225407137795" lon="9.826593134845695"><ele>228.0</ele><time>2026-04-30T13:11:11Z</time></trkpt><trkpt lat="45.67235305807861" lon="9.826673955598519"><ele>228.0</ele><time>2026-04-30T13:11:13Z</time></trkpt><trkpt lat="45.672435698907606" lon="9.826796483818091"><ele>228.0</ele><time>2026-04-30T13:11:15Z</time></trkpt><trkpt lat="45.67251924021901" lon="9.82690590681405"><ele>228.0</ele><time>2026-04-30T13:11:17Z</time></trkpt><trkpt lat="45.672613434907156" lon="9.82697425880232"><ele>227.8</ele><time>2026-04-30T13:11:19Z</time></trkpt><trkpt lat="45.67270956025331" lon="9.827058233815514"><ele>227.60000000000002</ele><time>2026-04-30T13:11:21Z</time></trkpt><trkpt lat="45.6728075264308" lon="9.827133263357862"><ele>227.39999999999998</ele><time>2026-04-30T13:11:23Z</time></trkpt><trkpt lat="45.67291028972188" lon="9.827134261705844"><ele>227.2</ele><time>2026-04-30T13:11:25Z</time></trkpt><trkpt lat="45.673009796610025" lon="9.82706770126418"><ele>227.0</ele><time>2026-04-30T13:11:27Z</time></trkpt><trkpt lat="45.673106572775815" lon="9.827101129023685"><ele>227.0</ele><time>2026-04-30T13:11:29Z</time></trkpt><trkpt lat="45.67315493887729" lon="9.82725492163204"><ele>227.0</ele><time>2026-04-30T13:11:31Z</time></trkpt><trkpt lat="45.67326074139556" lon="9.827348196365351"><ele>227.0</ele><time>2026-04-30T13:11:33Z</time></trkpt><trkpt lat="45.67337080363555" lon="9.827419915260672"><ele>227.0</ele><time>2026-04-30T13:11:35Z</time></trkpt><trkpt lat="45.673468499317586" lon="9.827499021470524"><ele>227.0</ele><time>2026-04-30T13:11:37Z</time></trkpt><trkpt lat="45.67355350213364" lon="9.827585558115304"><ele>227.0</ele><time>2026-04-30T13:11:39Z</time></trkpt><trkpt lat="45.67362396206814" lon="9.827696339883246"><ele>227.0</ele><time>2026-04-30T13:11:41Z</time></trkpt><trkpt lat="45.67369520222215" lon="9.827787478555038"><ele>227.0</ele><time>2026-04-30T13:11:43Z</time></trkpt><trkpt lat="45.673782848588004" lon="9.827820392991415"><ele>227.0</ele><time>2026-04-30T13:11:45Z</time></trkpt><trkpt lat="45.67387549422143" lon="9.827868770852648"><ele>227.8</ele><time>2026-04-30T13:11:47Z</time></trkpt><trkpt lat="45.673986992914024" lon="9.82784488353267"><ele>228.6</ele><time>2026-04-30T13:11:49Z</time></trkpt><trkpt lat="45.67410010218683" lon="9.827805236130843"><ele>229.40000000000003</ele><time>2026-04-30T13:11:51Z</time></trkpt><trkpt lat="45.67420152195311" lon="9.827780562584769"><ele>230.20000000000002</ele><time>2026-04-30T13:11:53Z</time></trkpt><trkpt lat="45.67427856985436" lon="9.827758243673209"><ele>231.0</ele><time>2026-04-30T13:11:55Z</time></trkpt><trkpt lat="45.674369662486036" lon="9.827709867146186"><ele>231.20000000000002</ele><time>2026-04-30T13:11:58Z</time></trkpt><trkpt lat="45.674433096991336" lon="9.827596801429824"><ele>231.40000000000003</ele><time>2026-04-30T13:12:00Z</time></trkpt><trkpt lat="45.674505826040495" lon="9.827475096046001"><ele>231.6</ele><time>2026-04-30T13:12:02Z</time></trkpt><trkpt lat="45.67456957231034" lon="9.827334021424667"><ele>231.8</ele><time>2026-04-30T13:12:04Z</time></trkpt><trkpt lat="45.674622203461745" lon="9.827186985605616"><ele>232.0</ele><time>2026-04-30T13:12:06Z</time></trkpt><trkpt lat="45.67464338781069" lon="9.827022605126743"><ele>232.6</ele><time>2026-04-30T13:12:08Z</time></trkpt><trkpt lat="45.67465002936728" lon="9.826857163289455"><ele>233.2</ele><time>2026-04-30T13:12:10Z</time></trkpt><trkpt lat="45.67464861069221" lon="9.826696372845747"><ele>233.8</ele><time>2026-04-30T13:12:12Z</time></trkpt><trkpt lat="45.67465058535851" lon="9.826529984907637"><ele>234.4</ele><time>2026-04-30T13:12:14Z</time></trkpt><trkpt lat="45.6746282643176" lon="9.826391409592599"><ele>235.0</ele><time>2026-04-30T13:12:16Z</time></trkpt><trkpt lat="45.674600756903295" lon="9.826287258386492"><ele>235.14285714285714</ele><time>2026-04-30T13:12:18Z</time></trkpt><trkpt lat="45.67457136658255" lon="9.826192921436729"><ele>235.28571428571428</ele><time>2026-04-30T13:12:20Z</time></trkpt><trkpt lat="45.674532467850824" lon="9.826115925776977"><ele>235.42857142857142</ele><time>2026-04-30T13:12:22Z</time></trkpt><trkpt lat="45.67449840707569" lon="9.826030822487075"><ele>235.57142857142856</ele><time>2026-04-30T13:12:24Z</time></trkpt><trkpt lat="45.674487390900616" lon="9.825896429393383"><ele>235.71428571428572</ele><time>2026-04-30T13:12:26Z</time></trkpt><trkpt lat="45.67447356089219" lon="9.825808096441342"><ele>235.85714285714283</ele><time>2026-04-30T13:12:27Z</time></trkpt><trkpt lat="45.67445268774551" lon="9.825711909843337"><ele>236.0</ele><time>2026-04-30T13:12:28Z</time></trkpt><trkpt lat="45.67443708973953" lon="9.825622389861563"><ele>236.0</ele><time>2026-04-30T13:12:29Z</time></trkpt><trkpt lat="45.67441563832613" lon="9.825534763291774"><ele>236.00000000000003</ele><time>2026-04-30T13:12:30Z</time></trkpt><trkpt lat="45.67440100577927" lon="9.825445996990997"><ele>236.00000000000003</ele><time>2026-04-30T13:12:31Z</time></trkpt><trkpt lat="45.674395476865875" lon="9.8252618476793"><ele>236.0</ele><time>2026-04-30T13:12:33Z</time></trkpt><trkpt lat="45.67437792440535" lon="9.825089728128871"><ele>236.0</ele><time>2026-04-30T13:12:35Z</time></trkpt><trkpt lat="45.67438059721318" lon="9.82491179741053"><ele>236.20000000000002</ele><time>2026-04-30T13:12:37Z</time></trkpt><trkpt lat="45.67437562795904" lon="9.82474520752596"><ele>236.40000000000003</ele><time>2026-04-30T13:12:39Z</time></trkpt><trkpt lat="45.67436949932731" lon="9.824592784500208"><ele>236.6</ele><time>2026-04-30T13:12:41Z</time></trkpt><trkpt lat="45.674387733793466" lon="9.824458163840001"><ele>236.8</ele><time>2026-04-30T13:12:43Z</time></trkpt><trkpt lat="45.674476729569726" lon="9.824415942808145"><ele>237.0</ele><time>2026-04-30T13:12:45Z</time></trkpt><trkpt lat="45.67458452520203" lon="9.824469292414248"><ele>237.2</ele><time>2026-04-30T13:12:47Z</time></trkpt><trkpt lat="45.67470224298827" lon="9.824495483200074"><ele>237.39999999999998</ele><time>2026-04-30T13:12:49Z</time></trkpt><trkpt lat="45.67481291673724" lon="9.824530552270172"><ele>237.60000000000002</ele><time>2026-04-30T13:12:51Z</time></trkpt><trkpt lat="45.67490419923014" lon="9.824582346269139"><ele>237.8</ele><time>2026-04-30T13:12:53Z</time></trkpt><trkpt lat="45.67498669293537" lon="9.824509686034142"><ele>238.0</ele><time>2026-04-30T13:12:55Z</time></trkpt><trkpt lat="45.67495925148967" lon="9.824345730977033"><ele>237.85714285714286</ele><time>2026-04-30T13:12:57Z</time></trkpt><trkpt lat="45.674986635649844" lon="9.824199390295377"><ele>237.71428571428572</ele><time>2026-04-30T13:12:59Z</time></trkpt><trkpt lat="45.675016397382734" lon="9.824119681083458"><ele>237.57142857142856</ele><time>2026-04-30T13:13:00Z</time></trkpt><trkpt lat="45.67504446760535" lon="9.824038554517314"><ele>237.42857142857142</ele><time>2026-04-30T13:13:01Z</time></trkpt><trkpt lat="45.67507006281774" lon="9.823954475548188"><ele>237.28571428571428</ele><time>2026-04-30T13:13:02Z</time></trkpt><trkpt lat="45.67508134095589" lon="9.823859284104222"><ele>237.1428571428571</ele><time>2026-04-30T13:13:03Z</time></trkpt><trkpt lat="45.67508787103697" lon="9.823765041736097"><ele>236.99999999999997</ele><time>2026-04-30T13:13:04Z</time></trkpt><trkpt lat="45.67510004968304" lon="9.823671580689075"><ele>236.99999999999997</ele><time>2026-04-30T13:13:05Z</time></trkpt><trkpt lat="45.675117936307416" lon="9.823579394397639"><ele>237.0</ele><time>2026-04-30T13:13:06Z</time></trkpt><trkpt lat="45.67513656610141" lon="9.823487542046989"><ele>236.99999999999997</ele><time>2026-04-30T13:13:07Z</time></trkpt><trkpt lat="45.675161923543016" lon="9.823399734399988"><ele>236.99999999999997</ele><time>2026-04-30T13:13:08Z</time></trkpt><trkpt lat="45.675187250461704" lon="9.823314695373979"><ele>237.0</ele><time>2026-04-30T13:13:09Z</time></trkpt><trkpt lat="45.67521574201799" lon="9.82323155112363"><ele>236.99999999999997</ele><time>2026-04-30T13:13:10Z</time></trkpt><trkpt lat="45.67524483313224" lon="9.8231502968295"><ele>236.99999999999997</ele><time>2026-04-30T13:13:11Z</time></trkpt><trkpt lat="45.67527164685593" lon="9.8230683648414"><ele>237.28571428571425</ele><time>2026-04-30T13:13:12Z</time></trkpt><trkpt lat="45.67530145630509" lon="9.822985273327197"><ele>237.57142857142856</ele><time>2026-04-30T13:13:13Z</time></trkpt><trkpt lat="45.67533023222622" lon="9.82290463436513"><ele>237.85714285714286</ele><time>2026-04-30T13:13:14Z</time></trkpt><trkpt lat="45.67536148318217" lon="9.82282561193986"><ele>238.14285714285714</ele><time>2026-04-30T13:13:15Z</time></trkpt><trkpt lat="45.67539129336488" lon="9.822743872268978"><ele>238.42857142857144</ele><time>2026-04-30T13:13:16Z</time></trkpt><trkpt lat="45.675445345565144" lon="9.822580930562497"><ele>238.71428571428575</ele><time>2026-04-30T13:13:18Z</time></trkpt><trkpt lat="45.67547327538459" lon="9.822498321371995"><ele>239.00000000000003</ele><time>2026-04-30T13:13:19Z</time></trkpt><trkpt lat="45.67553169058074" lon="9.822342994910414"><ele>239.0</ele><time>2026-04-30T13:13:21Z</time></trkpt><trkpt lat="45.67559878330022" lon="9.82219661336146"><ele>238.99999999999997</ele><time>2026-04-30T13:13:23Z</time></trkpt><trkpt lat="45.67565400705002" lon="9.822041166645489"><ele>238.99999999999997</ele><time>2026-04-30T13:13:25Z</time></trkpt><trkpt lat="45.67571841688407" lon="9.82191542614099"><ele>239.0</ele><time>2026-04-30T13:13:27Z</time></trkpt><trkpt lat="45.6757886445122" lon="9.821825529063663"><ele>239.0</ele><time>2026-04-30T13:13:29Z</time></trkpt><trkpt lat="45.67588709576779" lon="9.8218067029605"><ele>239.14285714285717</ele><time>2026-04-30T13:13:31Z</time></trkpt><trkpt lat="45.6759971927784" lon="9.821728496312707"><ele>239.28571428571428</ele><time>2026-04-30T13:13:33Z</time></trkpt><trkpt lat="45.67603593422111" lon="9.82165182869248"><ele>239.42857142857144</ele><time>2026-04-30T13:13:34Z</time></trkpt><trkpt lat="45.67606661935412" lon="9.821568224018145"><ele>239.57142857142858</ele><time>2026-04-30T13:13:35Z</time></trkpt><trkpt lat="45.67610170991169" lon="9.821492476652777"><ele>239.71428571428572</ele><time>2026-04-30T13:13:36Z</time></trkpt><trkpt lat="45.67614596680732" lon="9.821426586878118"><ele>239.85714285714286</ele><time>2026-04-30T13:13:37Z</time></trkpt><trkpt lat="45.67619498962841" lon="9.821367739376445"><ele>240.0</ele><time>2026-04-30T13:13:38Z</time></trkpt><trkpt lat="45.67624244034793" lon="9.821303760743012"><ele>240.125</ele><time>2026-04-30T13:13:39Z</time></trkpt><trkpt lat="45.676284513199384" lon="9.821235974812373"><ele>240.25</ele><time>2026-04-30T13:13:40Z</time></trkpt><trkpt lat="45.676320640772374" lon="9.82116180061017"><ele>240.375</ele><time>2026-04-30T13:13:41Z</time></trkpt><trkpt lat="45.676349055660936" lon="9.821080151238787"><ele>240.5</ele><time>2026-04-30T13:13:42Z</time></trkpt><trkpt lat="45.67637328889111" lon="9.82099588383716"><ele>240.625</ele><time>2026-04-30T13:13:43Z</time></trkpt><trkpt lat="45.67639919886127" lon="9.820912104430587"><ele>240.75</ele><time>2026-04-30T13:13:44Z</time></trkpt><trkpt lat="45.6764265489903" lon="9.82083068932118"><ele>240.875</ele><time>2026-04-30T13:13:45Z</time></trkpt><trkpt lat="45.67645333872278" lon="9.820747204869704"><ele>241.0</ele><time>2026-04-30T13:13:46Z</time></trkpt><trkpt lat="45.67648254308418" lon="9.820665792599785"><ele>241.0</ele><time>2026-04-30T13:13:47Z</time></trkpt><trkpt lat="45.67650549542099" lon="9.820581132172489"><ele>241.00000000000003</ele><time>2026-04-30T13:13:48Z</time></trkpt><trkpt lat="45.676530179678245" lon="9.820496389846237"><ele>241.0</ele><time>2026-04-30T13:13:49Z</time></trkpt><trkpt lat="45.67655145185719" lon="9.820408802897918"><ele>241.0</ele><time>2026-04-30T13:13:50Z</time></trkpt><trkpt lat="45.676574395039445" lon="9.820321297174196"><ele>241.00000000000003</ele><time>2026-04-30T13:13:51Z</time></trkpt><trkpt lat="45.676602817534516" lon="9.820239620045037"><ele>241.0</ele><time>2026-04-30T13:13:52Z</time></trkpt><trkpt lat="45.67663411097444" lon="9.820159324340711"><ele>241.0</ele><time>2026-04-30T13:13:53Z</time></trkpt><trkpt lat="45.67667508624546" lon="9.819997358532712"><ele>241.14285714285717</ele><time>2026-04-30T13:13:55Z</time></trkpt><trkpt lat="45.67669758557146" lon="9.819910943603533"><ele>241.2857142857143</ele><time>2026-04-30T13:13:56Z</time></trkpt><trkpt lat="45.676721511417334" lon="9.819822701688057"><ele>241.42857142857144</ele><time>2026-04-30T13:13:57Z</time></trkpt><trkpt lat="45.67674824992319" lon="9.819736775516144"><ele>241.57142857142856</ele><time>2026-04-30T13:13:58Z</time></trkpt><trkpt lat="45.676773079945455" lon="9.819650954672284"><ele>241.7142857142857</ele><time>2026-04-30T13:13:59Z</time></trkpt><trkpt lat="45.676803381268336" lon="9.819565249061705"><ele>241.85714285714283</ele><time>2026-04-30T13:14:00Z</time></trkpt><trkpt lat="45.6768329657337" lon="9.819482060219682"><ele>242.0</ele><time>2026-04-30T13:14:01Z</time></trkpt><trkpt lat="45.67686552807538" lon="9.819403443695467"><ele>242.0</ele><time>2026-04-30T13:14:02Z</time></trkpt><trkpt lat="45.67690607644859" lon="9.819237454248206"><ele>241.99999999999997</ele><time>2026-04-30T13:14:04Z</time></trkpt><trkpt lat="45.67692573485106" lon="9.819151817477067"><ele>242.0</ele><time>2026-04-30T13:14:05Z</time></trkpt><trkpt lat="45.67694987350896" lon="9.819065762790425"><ele>242.0</ele><time>2026-04-30T13:14:06Z</time></trkpt><trkpt lat="45.67697392804819" lon="9.818979310557753"><ele>241.99999999999997</ele><time>2026-04-30T13:14:07Z</time></trkpt><trkpt lat="45.67699999890798" lon="9.818893312153934"><ele>242.0</ele><time>2026-04-30T13:14:08Z</time></trkpt><trkpt lat="45.67702424127196" lon="9.8188090992261"><ele>242.0</ele><time>2026-04-30T13:14:09Z</time></trkpt><trkpt lat="45.67704456685487" lon="9.818722155399358"><ele>242.0</ele><time>2026-04-30T13:14:10Z</time></trkpt><trkpt lat="45.67706421377693" lon="9.81863399242948"><ele>242.0</ele><time>2026-04-30T13:14:11Z</time></trkpt><trkpt lat="45.677080569509144" lon="9.818546208596738"><ele>242.0</ele><time>2026-04-30T13:14:12Z</time></trkpt><trkpt lat="45.67710307932342" lon="9.818460697296866"><ele>242.0</ele><time>2026-04-30T13:14:13Z</time></trkpt><trkpt lat="45.6771210098369" lon="9.818372730496309"><ele>242.0</ele><time>2026-04-30T13:14:14Z</time></trkpt><trkpt lat="45.6771436588018" lon="9.818285638477994"><ele>242.0</ele><time>2026-04-30T13:14:15Z</time></trkpt><trkpt lat="45.67716489129522" lon="9.818199703812683"><ele>242.0</ele><time>2026-04-30T13:14:16Z</time></trkpt><trkpt lat="45.67718812498936" lon="9.818113277378307"><ele>242.0</ele><time>2026-04-30T13:14:17Z</time></trkpt><trkpt lat="45.67720891493791" lon="9.818024344312132"><ele>242.00000000000003</ele><time>2026-04-30T13:14:18Z</time></trkpt><trkpt lat="45.67722914386722" lon="9.817935295632882"><ele>242.0</ele><time>2026-04-30T13:14:19Z</time></trkpt><trkpt lat="45.677250479959845" lon="9.817848032014833"><ele>242.0</ele><time>2026-04-30T13:14:20Z</time></trkpt><trkpt lat="45.67726789113264" lon="9.817758357758565"><ele>242.0</ele><time>2026-04-30T13:14:21Z</time></trkpt><trkpt lat="45.67728866386779" lon="9.817668928076838"><ele>242.00000000000003</ele><time>2026-04-30T13:14:22Z</time></trkpt><trkpt lat="45.677324126166354" lon="9.817498040410362"><ele>242.0</ele><time>2026-04-30T13:14:24Z</time></trkpt><trkpt lat="45.677361152919" lon="9.81732868133529"><ele>241.85714285714283</ele><time>2026-04-30T13:14:26Z</time></trkpt><trkpt lat="45.677379182114166" lon="9.817239500886181"><ele>241.7142857142857</ele><time>2026-04-30T13:14:27Z</time></trkpt><trkpt lat="45.67739225869207" lon="9.817151062516919"><ele>241.57142857142856</ele><time>2026-04-30T13:14:28Z</time></trkpt><trkpt lat="45.677407689083125" lon="9.817058828176487"><ele>241.42857142857144</ele><time>2026-04-30T13:14:29Z</time></trkpt><trkpt lat="45.677425424161044" lon="9.816968248230452"><ele>241.2857142857143</ele><time>2026-04-30T13:14:30Z</time></trkpt><trkpt lat="45.677443797532234" lon="9.816879147670491"><ele>241.14285714285717</ele><time>2026-04-30T13:14:31Z</time></trkpt><trkpt lat="45.67746252139502" lon="9.81679127309213"><ele>241.0</ele><time>2026-04-30T13:14:32Z</time></trkpt><trkpt lat="45.67748117135505" lon="9.816701033556862"><ele>240.99999999999997</ele><time>2026-04-30T13:14:33Z</time></trkpt><trkpt lat="45.67750410713378" lon="9.816616503631412"><ele>241.0</ele><time>2026-04-30T13:14:34Z</time></trkpt><trkpt lat="45.67753136632254" lon="9.81653175621951"><ele>241.0</ele><time>2026-04-30T13:14:35Z</time></trkpt><trkpt lat="45.67756529568894" lon="9.816453555986618"><ele>241.0</ele><time>2026-04-30T13:14:36Z</time></trkpt><trkpt lat="45.67764059788832" lon="9.816308047935719"><ele>240.99999999999997</ele><time>2026-04-30T13:14:38Z</time></trkpt><trkpt lat="45.6777239474458" lon="9.816171785895266"><ele>241.0</ele><time>2026-04-30T13:14:40Z</time></trkpt><trkpt lat="45.67777022188873" lon="9.816106718583109"><ele>240.71428571428572</ele><time>2026-04-30T13:14:41Z</time></trkpt><trkpt lat="45.67781921463257" lon="9.81604849808463"><ele>240.42857142857144</ele><time>2026-04-30T13:14:42Z</time></trkpt><trkpt lat="45.677864087349285" lon="9.815982533399296"><ele>240.14285714285717</ele><time>2026-04-30T13:14:43Z</time></trkpt><trkpt lat="45.67790482088589" lon="9.81591146596064"><ele>239.8571428571429</ele><time>2026-04-30T13:14:44Z</time></trkpt><trkpt lat="45.677945060330984" lon="9.815839500342122"><ele>239.57142857142858</ele><time>2026-04-30T13:14:45Z</time></trkpt><trkpt lat="45.67798132775725" lon="9.815762374273847"><ele>239.28571428571433</ele><time>2026-04-30T13:14:46Z</time></trkpt><trkpt lat="45.67801059321589" lon="9.815678146611106"><ele>239.00000000000003</ele><time>2026-04-30T13:14:47Z</time></trkpt><trkpt lat="45.67803325873201" lon="9.815590293972228"><ele>239.00000000000003</ele><time>2026-04-30T13:14:48Z</time></trkpt><trkpt lat="45.678053108930236" lon="9.815500651505047"><ele>239.0</ele><time>2026-04-30T13:14:49Z</time></trkpt><trkpt lat="45.678074276617984" lon="9.815414717513143"><ele>239.0</ele><time>2026-04-30T13:14:50Z</time></trkpt><trkpt lat="45.67809312642385" lon="9.81532528440424"><ele>239.0</ele><time>2026-04-30T13:14:51Z</time></trkpt><trkpt lat="45.67811167022913" lon="9.81523677164693"><ele>239.00000000000003</ele><time>2026-04-30T13:14:52Z</time></trkpt><trkpt lat="45.67812891527891" lon="9.815147683149739"><ele>239.0</ele><time>2026-04-30T13:14:53Z</time></trkpt><trkpt lat="45.67815864472041" lon="9.814970003639592"><ele>238.83333333333334</ele><time>2026-04-30T13:14:55Z</time></trkpt><trkpt lat="45.678173766084" lon="9.814881342238818"><ele>238.66666666666669</ele><time>2026-04-30T13:14:56Z</time></trkpt><trkpt lat="45.67819281813743" lon="9.814793175037638"><ele>238.5</ele><time>2026-04-30T13:14:57Z</time></trkpt><trkpt lat="45.67820869810089" lon="9.814701925555013"><ele>238.33333333333331</ele><time>2026-04-30T13:14:58Z</time></trkpt><trkpt lat="45.678243788918024" lon="9.8145268338798"><ele>238.16666666666666</ele><time>2026-04-30T13:15:00Z</time></trkpt><trkpt lat="45.678261550115415" lon="9.814436870480495"><ele>238.0</ele><time>2026-04-30T13:15:01Z</time></trkpt><trkpt lat="45.678273057286354" lon="9.814347949991173"><ele>237.83333333333331</ele><time>2026-04-30T13:15:02Z</time></trkpt><trkpt lat="45.67828665842333" lon="9.814254187691995"><ele>237.66666666666666</ele><time>2026-04-30T13:15:03Z</time></trkpt><trkpt lat="45.678316716443014" lon="9.814077850615904"><ele>237.5</ele><time>2026-04-30T13:15:05Z</time></trkpt><trkpt lat="45.67833094499403" lon="9.813989897278285"><ele>237.33333333333331</ele><time>2026-04-30T13:15:06Z</time></trkpt><trkpt lat="45.67834731115974" lon="9.813899387588297"><ele>237.16666666666666</ele><time>2026-04-30T13:15:07Z</time></trkpt><trkpt lat="45.6783605282811" lon="9.813809531381839"><ele>237.0</ele><time>2026-04-30T13:15:08Z</time></trkpt><trkpt lat="45.67837294044" lon="9.813720147250645"><ele>236.99999999999997</ele><time>2026-04-30T13:15:09Z</time></trkpt><trkpt lat="45.678380876844805" lon="9.813629674606926"><ele>237.0</ele><time>2026-04-30T13:15:10Z</time></trkpt><trkpt lat="45.678391314380455" lon="9.813540335793274"><ele>236.99999999999997</ele><time>2026-04-30T13:15:11Z</time></trkpt><trkpt lat="45.678405659259234" lon="9.813451100111571"><ele>236.99999999999997</ele><time>2026-04-30T13:15:12Z</time></trkpt><trkpt lat="45.67841828445689" lon="9.813362608797492"><ele>237.0</ele><time>2026-04-30T13:15:13Z</time></trkpt><trkpt lat="45.678435634149615" lon="9.813270745411165"><ele>236.99999999999997</ele><time>2026-04-30T13:15:14Z</time></trkpt><trkpt lat="45.67844513388184" lon="9.813094829913227"><ele>236.99999999999997</ele><time>2026-04-30T13:15:16Z</time></trkpt><trkpt lat="45.67846207786369" lon="9.812911671967433"><ele>237.16666666666666</ele><time>2026-04-30T13:15:18Z</time></trkpt><trkpt lat="45.678480278385784" lon="9.812730882576009"><ele>237.33333333333331</ele><time>2026-04-30T13:15:20Z</time></trkpt><trkpt lat="45.67848839339766" lon="9.81264018559598"><ele>237.5</ele><time>2026-04-30T13:15:21Z</time></trkpt><trkpt lat="45.67849109441541" lon="9.812544366529156"><ele>237.66666666666666</ele><time>2026-04-30T13:15:22Z</time></trkpt><trkpt lat="45.67849896221746" lon="9.812452006245884"><ele>237.83333333333331</ele><time>2026-04-30T13:15:23Z</time></trkpt><trkpt lat="45.67850376446633" lon="9.812360334336041"><ele>238.0</ele><time>2026-04-30T13:15:24Z</time></trkpt><trkpt lat="45.6785090470226" lon="9.812264012204183"><ele>238.0</ele><time>2026-04-30T13:15:25Z</time></trkpt><trkpt lat="45.678515395332596" lon="9.812172170913483"><ele>238.0</ele><time>2026-04-30T13:15:26Z</time></trkpt><trkpt lat="45.678523665978666" lon="9.812078822446503"><ele>238.0</ele><time>2026-04-30T13:15:27Z</time></trkpt><trkpt lat="45.678529110337365" lon="9.811987029432014"><ele>238.0</ele><time>2026-04-30T13:15:28Z</time></trkpt><trkpt lat="45.67853893738284" lon="9.81189445078865"><ele>238.0</ele><time>2026-04-30T13:15:29Z</time></trkpt><trkpt lat="45.67855108513993" lon="9.811803899119619"><ele>238.0</ele><time>2026-04-30T13:15:30Z</time></trkpt><trkpt lat="45.678563890072624" lon="9.811712620146709"><ele>238.0</ele><time>2026-04-30T13:15:31Z</time></trkpt><trkpt lat="45.67859940934863" lon="9.811539719927659"><ele>238.0</ele><time>2026-04-30T13:15:33Z</time></trkpt><trkpt lat="45.6786392578529" lon="9.8113803207394"><ele>238.0</ele><time>2026-04-30T13:15:35Z</time></trkpt><trkpt lat="45.678677530497815" lon="9.811227726317918"><ele>238.0</ele><time>2026-04-30T13:15:37Z</time></trkpt><trkpt lat="45.67870691583143" lon="9.811080105456526"><ele>238.0</ele><time>2026-04-30T13:15:39Z</time></trkpt><trkpt lat="45.67872618408543" lon="9.81093776010647"><ele>238.0</ele><time>2026-04-30T13:15:41Z</time></trkpt><trkpt lat="45.67874392804142" lon="9.810804068272441"><ele>237.60000000000002</ele><time>2026-04-30T13:15:43Z</time></trkpt><trkpt lat="45.67876042891659" lon="9.810666633790115"><ele>237.20000000000002</ele><time>2026-04-30T13:15:45Z</time></trkpt><trkpt lat="45.678773864224794" lon="9.810495089313417"><ele>236.8</ele><time>2026-04-30T13:15:47Z</time></trkpt><trkpt lat="45.678783804143" lon="9.810315899157084"><ele>236.4</ele><time>2026-04-30T13:15:49Z</time></trkpt><trkpt lat="45.67879594246455" lon="9.810222997006635"><ele>236.0</ele><time>2026-04-30T13:15:50Z</time></trkpt><trkpt lat="45.678807381059535" lon="9.810131089296664"><ele>236.00000000000003</ele><time>2026-04-30T13:15:51Z</time></trkpt><trkpt lat="45.67882060518393" lon="9.810041828441939"><ele>236.0</ele><time>2026-04-30T13:15:52Z</time></trkpt><trkpt lat="45.67883579753645" lon="9.809953331600566"><ele>236.0</ele><time>2026-04-30T13:15:53Z</time></trkpt><trkpt lat="45.67884820064358" lon="9.809864545313133"><ele>236.0</ele><time>2026-04-30T13:15:54Z</time></trkpt><trkpt lat="45.67886916257983" lon="9.809696051132052"><ele>236.00000000000003</ele><time>2026-04-30T13:15:56Z</time></trkpt><trkpt lat="45.678896394200194" lon="9.809534902410606"><ele>236.0</ele><time>2026-04-30T13:15:58Z</time></trkpt><trkpt lat="45.67892287809878" lon="9.809378808889441"><ele>236.20000000000002</ele><time>2026-04-30T13:16:00Z</time></trkpt><trkpt lat="45.67894758870288" lon="9.809227505398288"><ele>236.40000000000003</ele><time>2026-04-30T13:16:02Z</time></trkpt><trkpt lat="45.67897399905673" lon="9.809082463124696"><ele>236.6</ele><time>2026-04-30T13:16:04Z</time></trkpt><trkpt lat="45.6790024118426" lon="9.808955049804323"><ele>236.8</ele><time>2026-04-30T13:16:06Z</time></trkpt><trkpt lat="45.67902546950222" lon="9.80884789712042"><ele>237.0</ele><time>2026-04-30T13:16:08Z</time></trkpt><trkpt lat="45.67908948332514" lon="9.808770561912958"><ele>237.0</ele><time>2026-04-30T13:16:11Z</time></trkpt><trkpt lat="45.67918912186389" lon="9.80880415651426"><ele>237.0</ele><time>2026-04-30T13:16:13Z</time></trkpt><trkpt lat="45.67929250686405" lon="9.808857885860657"><ele>237.0</ele><time>2026-04-30T13:16:15Z</time></trkpt><trkpt lat="45.67939747793722" lon="9.808869806766985"><ele>237.0</ele><time>2026-04-30T13:16:17Z</time></trkpt><trkpt lat="45.67952147725125" lon="9.808895830389218"><ele>237.0</ele><time>2026-04-30T13:16:19Z</time></trkpt><trkpt lat="45.67958465941671" lon="9.808901528812312"><ele>236.6</ele><time>2026-04-30T13:16:20Z</time></trkpt><trkpt lat="45.67971196308074" lon="9.80889783230693"><ele>236.2</ele><time>2026-04-30T13:16:22Z</time></trkpt><trkpt lat="45.679775558277164" lon="9.808892449812904"><ele>235.8</ele><time>2026-04-30T13:16:23Z</time></trkpt><trkpt lat="45.67983899004436" lon="9.808883003968928"><ele>235.4</ele><time>2026-04-30T13:16:24Z</time></trkpt><trkpt lat="45.67996171573403" lon="9.808860199571162"><ele>235.0</ele><time>2026-04-30T13:16:26Z</time></trkpt><trkpt lat="45.68007896582012" lon="9.808812078899242"><ele>235.0</ele><time>2026-04-30T13:16:28Z</time></trkpt><trkpt lat="45.68019554148377" lon="9.808743261831326"><ele>235.0</ele><time>2026-04-30T13:16:30Z</time></trkpt><trkpt lat="45.6803129452338" lon="9.80868365915621"><ele>235.0</ele><time>2026-04-30T13:16:32Z</time></trkpt><trkpt lat="45.68037486018437" lon="9.808666532203917"><ele>235.0</ele><time>2026-04-30T13:16:33Z</time></trkpt><trkpt lat="45.68049903519596" lon="9.808641061385023"><ele>235.0</ele><time>2026-04-30T13:16:35Z</time></trkpt><trkpt lat="45.68056183412293" lon="9.808632694333161"><ele>235.5</ele><time>2026-04-30T13:16:36Z</time></trkpt><trkpt lat="45.680685011851004" lon="9.808618674311104"><ele>236.0</ele><time>2026-04-30T13:16:38Z</time></trkpt><trkpt lat="45.68080052349533" lon="9.808606248009795"><ele>236.5</ele><time>2026-04-30T13:16:40Z</time></trkpt><trkpt lat="45.680912029159714" lon="9.808618507990008"><ele>237.0</ele><time>2026-04-30T13:16:42Z</time></trkpt><trkpt lat="45.68102031277021" lon="9.808642226576897"><ele>237.1428571428571</ele><time>2026-04-30T13:16:44Z</time></trkpt><trkpt lat="45.68113718553075" lon="9.808676488418236"><ele>237.28571428571428</ele><time>2026-04-30T13:16:46Z</time></trkpt><trkpt lat="45.681199606530114" lon="9.808693717217627"><ele>237.42857142857142</ele><time>2026-04-30T13:16:47Z</time></trkpt><trkpt lat="45.68126099412925" lon="9.80872315925707"><ele>237.57142857142856</ele><time>2026-04-30T13:16:48Z</time></trkpt><trkpt lat="45.68132592944211" lon="9.808729334464934"><ele>237.71428571428572</ele><time>2026-04-30T13:16:49Z</time></trkpt><trkpt lat="45.681389292821805" lon="9.808713722157343"><ele>237.85714285714286</ele><time>2026-04-30T13:16:50Z</time></trkpt><trkpt lat="45.68144744156826" lon="9.808675507341352"><ele>238.0</ele><time>2026-04-30T13:16:51Z</time></trkpt><trkpt lat="45.681568940937936" lon="9.808705836144588"><ele>237.99999999999997</ele><time>2026-04-30T13:16:53Z</time></trkpt><trkpt lat="45.681631984436315" lon="9.808719677358125"><ele>238.0</ele><time>2026-04-30T13:16:54Z</time></trkpt><trkpt lat="45.681696528700826" lon="9.808732328792182"><ele>238.0</ele><time>2026-04-30T13:16:55Z</time></trkpt><trkpt lat="45.681761634504575" lon="9.808737960330863"><ele>238.0</ele><time>2026-04-30T13:16:56Z</time></trkpt><trkpt lat="45.68188885427925" lon="9.808744117293823"><ele>237.99999999999997</ele><time>2026-04-30T13:16:58Z</time></trkpt><trkpt lat="45.6819532869488" lon="9.808746487171458"><ele>238.0</ele><time>2026-04-30T13:16:59Z</time></trkpt><trkpt lat="45.682017440139575" lon="9.808750468986322"><ele>237.60000000000002</ele><time>2026-04-30T13:17:00Z</time></trkpt><trkpt lat="45.68208035088718" lon="9.808754111880477"><ele>237.20000000000002</ele><time>2026-04-30T13:17:01Z</time></trkpt><trkpt lat="45.682205283963995" lon="9.808764772503219"><ele>236.8</ele><time>2026-04-30T13:17:03Z</time></trkpt><trkpt lat="45.68232906346434" lon="9.808776255715742"><ele>236.4</ele><time>2026-04-30T13:17:05Z</time></trkpt><trkpt lat="45.68245407099739" lon="9.808787114874429"><ele>236.0</ele><time>2026-04-30T13:17:07Z</time></trkpt><trkpt lat="45.682580255369714" lon="9.808804236678148"><ele>236.0</ele><time>2026-04-30T13:17:09Z</time></trkpt><trkpt lat="45.68270287709963" lon="9.808825297152048"><ele>236.00000000000003</ele><time>2026-04-30T13:17:11Z</time></trkpt><trkpt lat="45.682764816515345" lon="9.808843691490411"><ele>236.00000000000003</ele><time>2026-04-30T13:17:12Z</time></trkpt><trkpt lat="45.68288589686012" lon="9.80887817960138"><ele>236.0</ele><time>2026-04-30T13:17:14Z</time></trkpt><trkpt lat="45.68300740210479" lon="9.808910923914274"><ele>236.0</ele><time>2026-04-30T13:17:16Z</time></trkpt><trkpt lat="45.68312848690749" lon="9.808949698675157"><ele>236.4</ele><time>2026-04-30T13:17:18Z</time></trkpt><trkpt lat="45.68324325129823" lon="9.80898187321924"><ele>236.8</ele><time>2026-04-30T13:17:20Z</time></trkpt><trkpt lat="45.68336287567694" lon="9.809020325001168"><ele>237.20000000000002</ele><time>2026-04-30T13:17:22Z</time></trkpt><trkpt lat="45.6834855552233" lon="9.809066753556099"><ele>237.60000000000002</ele><time>2026-04-30T13:17:24Z</time></trkpt><trkpt lat="45.68354717738548" lon="9.80908851231721"><ele>238.0</ele><time>2026-04-30T13:17:25Z</time></trkpt><trkpt lat="45.6836689208374" lon="9.809122058827672"><ele>238.2</ele><time>2026-04-30T13:17:27Z</time></trkpt><trkpt lat="45.68379074065832" lon="9.809156601055367"><ele>238.4</ele><time>2026-04-30T13:17:29Z</time></trkpt><trkpt lat="45.68385294057705" lon="9.809178467113968"><ele>238.59999999999997</ele><time>2026-04-30T13:17:30Z</time></trkpt><trkpt lat="45.683974286951496" lon="9.80921930369905"><ele>238.79999999999998</ele><time>2026-04-30T13:17:32Z</time></trkpt><trkpt lat="45.684096004426536" lon="9.809253832860318"><ele>239.0</ele><time>2026-04-30T13:17:34Z</time></trkpt><trkpt lat="45.68421714774775" lon="9.809293879343702"><ele>239.0</ele><time>2026-04-30T13:17:36Z</time></trkpt><trkpt lat="45.684338428666216" lon="9.809336325262844"><ele>238.99999999999997</ele><time>2026-04-30T13:17:38Z</time></trkpt><trkpt lat="45.68440019622359" lon="9.809355578619845"><ele>238.99999999999997</ele><time>2026-04-30T13:17:39Z</time></trkpt><trkpt lat="45.684520039419695" lon="9.809390942986555"><ele>239.0</ele><time>2026-04-30T13:17:41Z</time></trkpt><trkpt lat="45.684642610513144" lon="9.809424279229516"><ele>239.0</ele><time>2026-04-30T13:17:43Z</time></trkpt><trkpt lat="45.68476255720599" lon="9.809459887293718"><ele>239.39999999999998</ele><time>2026-04-30T13:17:45Z</time></trkpt><trkpt lat="45.68488185464906" lon="9.809501152757827"><ele>239.79999999999998</ele><time>2026-04-30T13:17:47Z</time></trkpt><trkpt lat="45.684995693111226" lon="9.809538380868114"><ele>240.20000000000002</ele><time>2026-04-30T13:17:49Z</time></trkpt><trkpt lat="45.685099336640704" lon="9.809571057357049"><ele>240.60000000000002</ele><time>2026-04-30T13:17:51Z</time></trkpt><trkpt lat="45.68519022087009" lon="9.80959471768015"><ele>241.0</ele><time>2026-04-30T13:17:53Z</time></trkpt><trkpt lat="45.68526510134998" lon="9.80966691410347"><ele>241.0</ele><time>2026-04-30T13:17:56Z</time></trkpt><trkpt lat="45.68534898028201" lon="9.809709480395727"><ele>241.00000000000003</ele><time>2026-04-30T13:17:58Z</time></trkpt><trkpt lat="45.68546334998867" lon="9.809768207768673"><ele>241.00000000000003</ele><time>2026-04-30T13:18:00Z</time></trkpt><trkpt lat="45.685526071329065" lon="9.809794381613496"><ele>241.0</ele><time>2026-04-30T13:18:01Z</time></trkpt><trkpt lat="45.6855870159838" lon="9.809818741978534"><ele>241.0</ele><time>2026-04-30T13:18:02Z</time></trkpt><trkpt lat="45.68570647490658" lon="9.809860013982478"><ele>241.0</ele><time>2026-04-30T13:18:04Z</time></trkpt><trkpt lat="45.685817360507656" lon="9.809902655120402"><ele>241.00000000000003</ele><time>2026-04-30T13:18:06Z</time></trkpt><trkpt lat="45.6859167906705" lon="9.80992912917443"><ele>241.00000000000003</ele><time>2026-04-30T13:18:08Z</time></trkpt><trkpt lat="45.685983964886546" lon="9.809939053762639"><ele>241.0</ele><time>2026-04-30T13:18:10Z</time></trkpt><trkpt lat="45.686022937643926" lon="9.809824106198183"><ele>241.0</ele><time>2026-04-30T13:18:13Z</time></trkpt><trkpt lat="45.686039586584556" lon="9.80968352163062"><ele>241.0</ele><time>2026-04-30T13:18:15Z</time></trkpt><trkpt lat="45.6860562134084" lon="9.809553189582902"><ele>241.00000000000003</ele><time>2026-04-30T13:18:17Z</time></trkpt><trkpt lat="45.68606716988103" lon="9.809442649749116"><ele>241.00000000000003</ele><time>2026-04-30T13:18:21Z</time></trkpt><trkpt lat="45.68608407571096" lon="9.809349393952706"><ele>241.0</ele><time>2026-04-30T13:18:23Z</time></trkpt><trkpt lat="45.686107173878455" lon="9.809204253153583"><ele>241.0</ele><time>2026-04-30T13:18:25Z</time></trkpt><trkpt lat="45.68611767847766" lon="9.809035189402438"><ele>241.0</ele><time>2026-04-30T13:18:27Z</time></trkpt><trkpt lat="45.68613669850931" lon="9.808939843982605"><ele>241.00000000000003</ele><time>2026-04-30T13:18:28Z</time></trkpt><trkpt lat="45.686153598171316" lon="9.808844514138174"><ele>241.0</ele><time>2026-04-30T13:18:29Z</time></trkpt><trkpt lat="45.68617022074473" lon="9.808747105586308"><ele>241.0</ele><time>2026-04-30T13:18:30Z</time></trkpt><trkpt lat="45.68617383902035" lon="9.808651886197167"><ele>241.00000000000003</ele><time>2026-04-30T13:18:31Z</time></trkpt><trkpt lat="45.68617746918497" lon="9.808555457122495"><ele>241.0</ele><time>2026-04-30T13:18:32Z</time></trkpt><trkpt lat="45.68618160942142" lon="9.808464150333124"><ele>241.0</ele><time>2026-04-30T13:18:33Z</time></trkpt><trkpt lat="45.686186239017125" lon="9.808373508123138"><ele>241.0</ele><time>2026-04-30T13:18:34Z</time></trkpt><trkpt lat="45.686192827417486" lon="9.808196211628893"><ele>241.00000000000003</ele><time>2026-04-30T13:18:36Z</time></trkpt><trkpt lat="45.686201288652676" lon="9.808025419012132"><ele>241.00000000000003</ele><time>2026-04-30T13:18:38Z</time></trkpt><trkpt lat="45.68621019660653" lon="9.807840998102021"><ele>241.0</ele><time>2026-04-30T13:18:40Z</time></trkpt><trkpt lat="45.686213941763526" lon="9.80774535665674"><ele>241.0</ele><time>2026-04-30T13:18:41Z</time></trkpt><trkpt lat="45.686219760390834" lon="9.80764909090569"><ele>240.85714285714286</ele><time>2026-04-30T13:18:42Z</time></trkpt><trkpt lat="45.68622494378133" lon="9.80755465485021"><ele>240.71428571428572</ele><time>2026-04-30T13:18:43Z</time></trkpt><trkpt lat="45.68622892193198" lon="9.807462384813167"><ele>240.57142857142858</ele><time>2026-04-30T13:18:44Z</time></trkpt><trkpt lat="45.686232355145926" lon="9.807369971538265"><ele>240.42857142857144</ele><time>2026-04-30T13:18:45Z</time></trkpt><trkpt lat="45.686239605832654" lon="9.807279314486793"><ele>240.28571428571428</ele><time>2026-04-30T13:18:46Z</time></trkpt><trkpt lat="45.686242446606585" lon="9.807188077568876"><ele>240.14285714285717</ele><time>2026-04-30T13:18:47Z</time></trkpt><trkpt lat="45.68625235058201" lon="9.807008972117357"><ele>240.0</ele><time>2026-04-30T13:18:49Z</time></trkpt><trkpt lat="45.68625748809545" lon="9.806915524342957"><ele>240.0</ele><time>2026-04-30T13:18:50Z</time></trkpt><trkpt lat="45.68627727467871" lon="9.806738354174202"><ele>240.0</ele><time>2026-04-30T13:18:52Z</time></trkpt><trkpt lat="45.68628828986403" lon="9.806647510636976"><ele>240.0</ele><time>2026-04-30T13:18:53Z</time></trkpt><trkpt lat="45.686294470983505" lon="9.806556551621505"><ele>240.0</ele><time>2026-04-30T13:18:54Z</time></trkpt><trkpt lat="45.686320056538726" lon="9.806378935057666"><ele>240.0</ele><time>2026-04-30T13:18:56Z</time></trkpt><trkpt lat="45.68633203110209" lon="9.806288386424216"><ele>240.0</ele><time>2026-04-30T13:18:57Z</time></trkpt><trkpt lat="45.68634509561799" lon="9.806197303599479"><ele>240.0</ele><time>2026-04-30T13:18:58Z</time></trkpt><trkpt lat="45.68635585760091" lon="9.806108080018628"><ele>240.0</ele><time>2026-04-30T13:18:59Z</time></trkpt><trkpt lat="45.68639509424514" lon="9.805950723472852"><ele>240.0</ele><time>2026-04-30T13:19:01Z</time></trkpt><trkpt lat="45.6864270543721" lon="9.805780230562736"><ele>240.0</ele><time>2026-04-30T13:19:03Z</time></trkpt><trkpt lat="45.686442063765895" lon="9.805689448447657"><ele>240.0</ele><time>2026-04-30T13:19:04Z</time></trkpt><trkpt lat="45.6864525264426" lon="9.805600557870623"><ele>240.0</ele><time>2026-04-30T13:19:05Z</time></trkpt><trkpt lat="45.68646789857388" lon="9.805510983233727"><ele>240.0</ele><time>2026-04-30T13:19:06Z</time></trkpt><trkpt lat="45.686486237200974" lon="9.80542011047794"><ele>240.0</ele><time>2026-04-30T13:19:07Z</time></trkpt><trkpt lat="45.68650972280792" lon="9.805335130500739"><ele>240.0</ele><time>2026-04-30T13:19:08Z</time></trkpt><trkpt lat="45.686534462165234" lon="9.805248303887256"><ele>240.0</ele><time>2026-04-30T13:19:09Z</time></trkpt><trkpt lat="45.68655361574644" lon="9.805159504238128"><ele>240.0</ele><time>2026-04-30T13:19:10Z</time></trkpt><trkpt lat="45.68657445433391" lon="9.805070777443765"><ele>240.0</ele><time>2026-04-30T13:19:11Z</time></trkpt><trkpt lat="45.686592125327245" lon="9.804981234312343"><ele>240.0</ele><time>2026-04-30T13:19:12Z</time></trkpt><trkpt lat="45.686614800456695" lon="9.80489375270093"><ele>240.16666666666666</ele><time>2026-04-30T13:19:13Z</time></trkpt><trkpt lat="45.686635872904326" lon="9.804806739647425"><ele>240.33333333333331</ele><time>2026-04-30T13:19:14Z</time></trkpt><trkpt lat="45.68665745235663" lon="9.804718201637229"><ele>240.5</ele><time>2026-04-30T13:19:15Z</time></trkpt><trkpt lat="45.6866778828898" lon="9.804631349244795"><ele>240.66666666666666</ele><time>2026-04-30T13:19:16Z</time></trkpt><trkpt lat="45.686718878053036" lon="9.804468738714249"><ele>240.83333333333331</ele><time>2026-04-30T13:19:18Z</time></trkpt><trkpt lat="45.68676003069579" lon="9.804318426309685"><ele>241.0</ele><time>2026-04-30T13:19:20Z</time></trkpt><trkpt lat="45.686797474573" lon="9.804165270695016"><ele>241.0</ele><time>2026-04-30T13:19:22Z</time></trkpt><trkpt lat="45.686825289251715" lon="9.80407952410575"><ele>241.00000000000003</ele><time>2026-04-30T13:19:23Z</time></trkpt><trkpt lat="45.68689087793252" lon="9.803934604612106"><ele>241.00000000000003</ele><time>2026-04-30T13:19:25Z</time></trkpt><trkpt lat="45.68695142999275" lon="9.803799540587006"><ele>241.0</ele><time>2026-04-30T13:19:27Z</time></trkpt><trkpt lat="45.68695831848434" lon="9.803622983430728"><ele>241.0</ele><time>2026-04-30T13:19:29Z</time></trkpt><trkpt lat="45.68694399827995" lon="9.803529906512912"><ele>241.0</ele><time>2026-04-30T13:19:30Z</time></trkpt><trkpt lat="45.68693126605923" lon="9.80343752856579"><ele>241.00000000000003</ele><time>2026-04-30T13:19:31Z</time></trkpt><trkpt lat="45.686920700314396" lon="9.803347627301845"><ele>241.0</ele><time>2026-04-30T13:19:32Z</time></trkpt><trkpt lat="45.68691211551088" lon="9.803254380843148"><ele>241.0</ele><time>2026-04-30T13:19:33Z</time></trkpt><trkpt lat="45.68690756221305" lon="9.803161310415529"><ele>241.00000000000003</ele><time>2026-04-30T13:19:34Z</time></trkpt><trkpt lat="45.686905988908634" lon="9.803068339265023"><ele>241.0</ele><time>2026-04-30T13:19:35Z</time></trkpt><trkpt lat="45.68690222873796" lon="9.802894064595383"><ele>241.0</ele><time>2026-04-30T13:19:37Z</time></trkpt><trkpt lat="45.68689279974791" lon="9.80272734125625"><ele>240.8</ele><time>2026-04-30T13:19:39Z</time></trkpt><trkpt lat="45.68686656319886" lon="9.802568795773107"><ele>240.60000000000002</ele><time>2026-04-30T13:19:41Z</time></trkpt><trkpt lat="45.68685370744363" lon="9.802416756494218"><ele>240.4</ele><time>2026-04-30T13:19:43Z</time></trkpt><trkpt lat="45.68683441141368" lon="9.802272583037208"><ele>240.2</ele><time>2026-04-30T13:19:45Z</time></trkpt><trkpt lat="45.686814368710166" lon="9.802138734892498"><ele>240.0</ele><time>2026-04-30T13:19:47Z</time></trkpt><trkpt lat="45.68679962719046" lon="9.802011377760314"><ele>240.0</ele><time>2026-04-30T13:19:49Z</time></trkpt><trkpt lat="45.686782290160565" lon="9.801855583558496"><ele>240.0</ele><time>2026-04-30T13:19:51Z</time></trkpt><trkpt lat="45.68677301521466" lon="9.801764759152165"><ele>240.0</ele><time>2026-04-30T13:19:52Z</time></trkpt><trkpt lat="45.68675955410787" lon="9.801670982763062"><ele>240.0</ele><time>2026-04-30T13:19:53Z</time></trkpt><trkpt lat="45.68674870847961" lon="9.801580552852437"><ele>240.0</ele><time>2026-04-30T13:19:54Z</time></trkpt><trkpt lat="45.686735561178175" lon="9.801491313183377"><ele>240.0</ele><time>2026-04-30T13:19:55Z</time></trkpt><trkpt lat="45.68672418917651" lon="9.801401265465854"><ele>240.0</ele><time>2026-04-30T13:19:56Z</time></trkpt><trkpt lat="45.686712053476185" lon="9.801308697015871"><ele>240.0</ele><time>2026-04-30T13:19:57Z</time></trkpt><trkpt lat="45.68669082863817" lon="9.80113027202279"><ele>240.0</ele><time>2026-04-30T13:19:59Z</time></trkpt><trkpt lat="45.686680829722405" lon="9.801040414014649"><ele>240.0</ele><time>2026-04-30T13:20:00Z</time></trkpt><trkpt lat="45.68666758133927" lon="9.800948147610914"><ele>240.0</ele><time>2026-04-30T13:20:01Z</time></trkpt><trkpt lat="45.68665524707554" lon="9.80085974204997"><ele>240.0</ele><time>2026-04-30T13:20:02Z</time></trkpt><trkpt lat="45.68664491016701" lon="9.800769475394414"><ele>240.0</ele><time>2026-04-30T13:20:03Z</time></trkpt><trkpt lat="45.68663384723709" lon="9.800680226587879"><ele>240.0</ele><time>2026-04-30T13:20:04Z</time></trkpt><trkpt lat="45.686623133528286" lon="9.800588477001353"><ele>240.0</ele><time>2026-04-30T13:20:05Z</time></trkpt><trkpt lat="45.68661039510973" lon="9.800497047620823"><ele>240.0</ele><time>2026-04-30T13:20:06Z</time></trkpt><trkpt lat="45.686598426923915" lon="9.800406426082041"><ele>240.0</ele><time>2026-04-30T13:20:07Z</time></trkpt><trkpt lat="45.68658720765204" lon="9.80031674090706"><ele>240.0</ele><time>2026-04-30T13:20:08Z</time></trkpt><trkpt lat="45.68657888529612" lon="9.800224869628263"><ele>240.0</ele><time>2026-04-30T13:20:09Z</time></trkpt><trkpt lat="45.68656937244" lon="9.800133357857632"><ele>240.0</ele><time>2026-04-30T13:20:10Z</time></trkpt><trkpt lat="45.686561990451246" lon="9.800040802300622"><ele>240.0</ele><time>2026-04-30T13:20:11Z</time></trkpt><trkpt lat="45.686556139878405" lon="9.799950365388536"><ele>240.0</ele><time>2026-04-30T13:20:12Z</time></trkpt><trkpt lat="45.68654495397925" lon="9.799860123026942"><ele>240.0</ele><time>2026-04-30T13:20:13Z</time></trkpt><trkpt lat="45.68652688123128" lon="9.799679290928616"><ele>240.0</ele><time>2026-04-30T13:20:15Z</time></trkpt><trkpt lat="45.68651412307573" lon="9.799589935276364"><ele>240.0</ele><time>2026-04-30T13:20:16Z</time></trkpt><trkpt lat="45.686502240293144" lon="9.799500027338434"><ele>240.0</ele><time>2026-04-30T13:20:17Z</time></trkpt><trkpt lat="45.686491029194435" lon="9.79940863521385"><ele>240.0</ele><time>2026-04-30T13:20:18Z</time></trkpt><trkpt lat="45.68648338140834" lon="9.799315620074415"><ele>240.16666666666666</ele><time>2026-04-30T13:20:19Z</time></trkpt><trkpt lat="45.68646870926821" lon="9.799226290970243"><ele>240.33333333333331</ele><time>2026-04-30T13:20:20Z</time></trkpt><trkpt lat="45.68645881216963" lon="9.799134696086213"><ele>240.5</ele><time>2026-04-30T13:20:21Z</time></trkpt><trkpt lat="45.68644342338229" lon="9.799045930519656"><ele>240.66666666666666</ele><time>2026-04-30T13:20:22Z</time></trkpt><trkpt lat="45.686419454161026" lon="9.798865047452928"><ele>240.83333333333331</ele><time>2026-04-30T13:20:24Z</time></trkpt><trkpt lat="45.686410884465076" lon="9.798771875896035"><ele>241.0</ele><time>2026-04-30T13:20:25Z</time></trkpt><trkpt lat="45.68639434649488" lon="9.798591771928928"><ele>241.0</ele><time>2026-04-30T13:20:27Z</time></trkpt><trkpt lat="45.686375849059736" lon="9.798412423530818"><ele>241.00000000000003</ele><time>2026-04-30T13:20:29Z</time></trkpt><trkpt lat="45.686366278713926" lon="9.798323310848913"><ele>241.0</ele><time>2026-04-30T13:20:30Z</time></trkpt><trkpt lat="45.68635430562887" lon="9.798232606465106"><ele>241.0</ele><time>2026-04-30T13:20:31Z</time></trkpt><trkpt lat="45.68635085683747" lon="9.798140096564946"><ele>241.00000000000003</ele><time>2026-04-30T13:20:32Z</time></trkpt><trkpt lat="45.686340249380315" lon="9.798049937156078"><ele>241.0</ele><time>2026-04-30T13:20:33Z</time></trkpt><trkpt lat="45.686332080634195" lon="9.797956818966831"><ele>241.0</ele><time>2026-04-30T13:20:34Z</time></trkpt><trkpt lat="45.68631457676798" lon="9.797781307296539"><ele>241.0</ele><time>2026-04-30T13:20:36Z</time></trkpt><trkpt lat="45.686307237839806" lon="9.797690476898175"><ele>241.00000000000003</ele><time>2026-04-30T13:20:37Z</time></trkpt><trkpt lat="45.68629850959078" lon="9.797600911768049"><ele>241.0</ele><time>2026-04-30T13:20:38Z</time></trkpt><trkpt lat="45.686292690207324" lon="9.797510614862365"><ele>241.0</ele><time>2026-04-30T13:20:39Z</time></trkpt><trkpt lat="45.68628337976124" lon="9.797420790309676"><ele>241.00000000000003</ele><time>2026-04-30T13:20:40Z</time></trkpt><trkpt lat="45.68627310529344" lon="9.79733178731828"><ele>241.0</ele><time>2026-04-30T13:20:41Z</time></trkpt><trkpt lat="45.686257911805384" lon="9.79715451215496"><ele>241.0</ele><time>2026-04-30T13:20:43Z</time></trkpt><trkpt lat="45.68623673161698" lon="9.796981789786917"><ele>241.33333333333331</ele><time>2026-04-30T13:20:45Z</time></trkpt><trkpt lat="45.68622635509914" lon="9.796889423882114"><ele>241.66666666666666</ele><time>2026-04-30T13:20:46Z</time></trkpt><trkpt lat="45.68619870927306" lon="9.796715722693678"><ele>242.0</ele><time>2026-04-30T13:20:48Z</time></trkpt><trkpt lat="45.686183454926336" lon="9.796625227894078"><ele>242.33333333333331</ele><time>2026-04-30T13:20:49Z</time></trkpt><trkpt lat="45.686151102523986" lon="9.796454828758572"><ele>242.66666666666666</ele><time>2026-04-30T13:20:51Z</time></trkpt><trkpt lat="45.686131718333094" lon="9.796365063332717"><ele>243.0</ele><time>2026-04-30T13:20:52Z</time></trkpt><trkpt lat="45.68610744261955" lon="9.796281812299295"><ele>242.66666666666666</ele><time>2026-04-30T13:20:53Z</time></trkpt><trkpt lat="45.686088649000794" lon="9.79619524816123"><ele>242.33333333333331</ele><time>2026-04-30T13:20:54Z</time></trkpt><trkpt lat="45.686062542842514" lon="9.796107236971698"><ele>242.0</ele><time>2026-04-30T13:20:55Z</time></trkpt><trkpt lat="45.68601377684834" lon="9.795943611420332"><ele>241.66666666666666</ele><time>2026-04-30T13:20:57Z</time></trkpt><trkpt lat="45.68598627099001" lon="9.79586063518858"><ele>241.33333333333331</ele><time>2026-04-30T13:20:58Z</time></trkpt><trkpt lat="45.68596200358096" lon="9.795774116809353"><ele>241.0</ele><time>2026-04-30T13:20:59Z</time></trkpt><trkpt lat="45.6859301071311" lon="9.7956877984268"><ele>241.0</ele><time>2026-04-30T13:21:00Z</time></trkpt><trkpt lat="45.68589857767548" lon="9.795602233168305"><ele>241.00000000000003</ele><time>2026-04-30T13:21:01Z</time></trkpt><trkpt lat="45.68586593301909" lon="9.795516326514656"><ele>241.0</ele><time>2026-04-30T13:21:02Z</time></trkpt><trkpt lat="45.68583766590362" lon="9.795428921148547"><ele>241.0</ele><time>2026-04-30T13:21:03Z</time></trkpt><trkpt lat="45.68580806327434" lon="9.795339917823455"><ele>241.00000000000003</ele><time>2026-04-30T13:21:04Z</time></trkpt><trkpt lat="45.685775800234985" lon="9.795252646706846"><ele>241.0</ele><time>2026-04-30T13:21:05Z</time></trkpt><trkpt lat="45.68574645053289" lon="9.795164237603386"><ele>241.0</ele><time>2026-04-30T13:21:06Z</time></trkpt><trkpt lat="45.68571341208122" lon="9.795076905650728"><ele>241.0</ele><time>2026-04-30T13:21:07Z</time></trkpt><trkpt lat="45.68568592250156" lon="9.794987062695048"><ele>241.00000000000003</ele><time>2026-04-30T13:21:08Z</time></trkpt><trkpt lat="45.68565519532033" lon="9.794899873736622"><ele>241.0</ele><time>2026-04-30T13:21:09Z</time></trkpt><trkpt lat="45.6856218990106" lon="9.794812246044124"><ele>241.0</ele><time>2026-04-30T13:21:10Z</time></trkpt><trkpt lat="45.685591236025836" lon="9.794725989522561"><ele>241.00000000000003</ele><time>2026-04-30T13:21:11Z</time></trkpt><trkpt lat="45.68556053591634" lon="9.794640676445548"><ele>241.0</ele><time>2026-04-30T13:21:12Z</time></trkpt><trkpt lat="45.68552774287045" lon="9.794554727705817"><ele>241.0</ele><time>2026-04-30T13:21:13Z</time></trkpt><trkpt lat="45.68549561317478" lon="9.794468126775506"><ele>241.0</ele><time>2026-04-30T13:21:14Z</time></trkpt><trkpt lat="45.68546446151752" lon="9.794381746258386"><ele>241.00000000000003</ele><time>2026-04-30T13:21:15Z</time></trkpt><trkpt lat="45.68543402912468" lon="9.794297211455515"><ele>241.0</ele><time>2026-04-30T13:21:16Z</time></trkpt><trkpt lat="45.68540440132156" lon="9.794212513699216"><ele>241.0</ele><time>2026-04-30T13:21:17Z</time></trkpt><trkpt lat="45.68537143659358" lon="9.794130590217097"><ele>241.00000000000003</ele><time>2026-04-30T13:21:18Z</time></trkpt><trkpt lat="45.68533795796918" lon="9.79404921923632"><ele>241.0</ele><time>2026-04-30T13:21:19Z</time></trkpt><trkpt lat="45.68530960484615" lon="9.793966752878513"><ele>241.0</ele><time>2026-04-30T13:21:20Z</time></trkpt><trkpt lat="45.685285276797764" lon="9.793882750887924"><ele>240.83333333333331</ele><time>2026-04-30T13:21:21Z</time></trkpt><trkpt lat="45.685232349224755" lon="9.7937203643367"><ele>240.66666666666666</ele><time>2026-04-30T13:21:23Z</time></trkpt><trkpt lat="45.685172395092756" lon="9.793559464481964"><ele>240.5</ele><time>2026-04-30T13:21:25Z</time></trkpt><trkpt lat="45.68514469706204" lon="9.793477972528718"><ele>240.33333333333331</ele><time>2026-04-30T13:21:26Z</time></trkpt><trkpt lat="45.685114842847106" lon="9.793394713940414"><ele>240.16666666666666</ele><time>2026-04-30T13:21:27Z</time></trkpt><trkpt lat="45.68508460191565" lon="9.793314360799323"><ele>240.0</ele><time>2026-04-30T13:21:28Z</time></trkpt><trkpt lat="45.68505214997738" lon="9.793234378052345"><ele>239.71428571428572</ele><time>2026-04-30T13:21:29Z</time></trkpt><trkpt lat="45.6850217578889" lon="9.793152396119176"><ele>239.42857142857142</ele><time>2026-04-30T13:21:30Z</time></trkpt><trkpt lat="45.68499204702712" lon="9.793066683873326"><ele>239.14285714285714</ele><time>2026-04-30T13:21:31Z</time></trkpt><trkpt lat="45.684962469551145" lon="9.792983657711186"><ele>238.85714285714286</ele><time>2026-04-30T13:21:32Z</time></trkpt><trkpt lat="45.68493221665165" lon="9.79289947328429"><ele>238.57142857142856</ele><time>2026-04-30T13:21:33Z</time></trkpt><trkpt lat="45.68490104100668" lon="9.792816968716771"><ele>238.28571428571428</ele><time>2026-04-30T13:21:34Z</time></trkpt><trkpt lat="45.68487125772099" lon="9.792732241454853"><ele>238.0</ele><time>2026-04-30T13:21:35Z</time></trkpt><trkpt lat="45.68483977921836" lon="9.792649552895293"><ele>238.0</ele><time>2026-04-30T13:21:36Z</time></trkpt><trkpt lat="45.68480849741423" lon="9.792566366423792"><ele>238.0</ele><time>2026-04-30T13:21:37Z</time></trkpt><trkpt lat="45.684776810015464" lon="9.79248351472544"><ele>238.0</ele><time>2026-04-30T13:21:38Z</time></trkpt><trkpt lat="45.684746410391774" lon="9.792398537361024"><ele>238.0</ele><time>2026-04-30T13:21:39Z</time></trkpt><trkpt lat="45.684715965491776" lon="9.792314661076093"><ele>238.0</ele><time>2026-04-30T13:21:40Z</time></trkpt><trkpt lat="45.684685907911756" lon="9.792230003962347"><ele>238.0</ele><time>2026-04-30T13:21:41Z</time></trkpt><trkpt lat="45.684656618525466" lon="9.792148341236802"><ele>238.0</ele><time>2026-04-30T13:21:42Z</time></trkpt><trkpt lat="45.68462482183338" lon="9.7920636875265"><ele>238.0</ele><time>2026-04-30T13:21:43Z</time></trkpt><trkpt lat="45.68459558026899" lon="9.791983452508157"><ele>238.0</ele><time>2026-04-30T13:21:44Z</time></trkpt><trkpt lat="45.684564908504754" lon="9.791899773144186"><ele>238.0</ele><time>2026-04-30T13:21:45Z</time></trkpt><trkpt lat="45.684531469856836" lon="9.79181906976287"><ele>238.0</ele><time>2026-04-30T13:21:46Z</time></trkpt><trkpt lat="45.6845028491149" lon="9.791736926554462"><ele>238.0</ele><time>2026-04-30T13:21:47Z</time></trkpt><trkpt lat="45.68447154476896" lon="9.791657743905773"><ele>238.0</ele><time>2026-04-30T13:21:48Z</time></trkpt><trkpt lat="45.68444020306637" lon="9.791575180819901"><ele>238.0</ele><time>2026-04-30T13:21:49Z</time></trkpt><trkpt lat="45.684412893410205" lon="9.791492980682287"><ele>237.71428571428572</ele><time>2026-04-30T13:21:50Z</time></trkpt><trkpt lat="45.68438291526806" lon="9.79141269140068"><ele>237.42857142857144</ele><time>2026-04-30T13:21:51Z</time></trkpt><trkpt lat="45.68435178354907" lon="9.791333444648052"><ele>237.14285714285714</ele><time>2026-04-30T13:21:52Z</time></trkpt><trkpt lat="45.684320430623195" lon="9.79125434423766"><ele>236.85714285714286</ele><time>2026-04-30T13:21:53Z</time></trkpt><trkpt lat="45.68429068940518" lon="9.791173219620124"><ele>236.57142857142858</ele><time>2026-04-30T13:21:54Z</time></trkpt><trkpt lat="45.68425882073275" lon="9.791094587967693"><ele>236.28571428571428</ele><time>2026-04-30T13:21:55Z</time></trkpt><trkpt lat="45.68419604363563" lon="9.790935280350233"><ele>236.0</ele><time>2026-04-30T13:21:57Z</time></trkpt><trkpt lat="45.68413846715353" lon="9.790776086653857"><ele>236.0</ele><time>2026-04-30T13:21:59Z</time></trkpt><trkpt lat="45.68408102081323" lon="9.790616308918425"><ele>236.00000000000003</ele><time>2026-04-30T13:22:01Z</time></trkpt><trkpt lat="45.68402031100877" lon="9.790460041917855"><ele>236.00000000000003</ele><time>2026-04-30T13:22:03Z</time></trkpt><trkpt lat="45.68398923447302" lon="9.790380135958134"><ele>236.0</ele><time>2026-04-30T13:22:04Z</time></trkpt><trkpt lat="45.683928075374865" lon="9.790222942679474"><ele>236.0</ele><time>2026-04-30T13:22:06Z</time></trkpt><trkpt lat="45.68387267195035" lon="9.790060423708692"><ele>236.0</ele><time>2026-04-30T13:22:08Z</time></trkpt><trkpt lat="45.68382084695514" lon="9.789894331389661"><ele>236.00000000000003</ele><time>2026-04-30T13:22:10Z</time></trkpt><trkpt lat="45.683771844893826" lon="9.789722010686159"><ele>236.00000000000003</ele><time>2026-04-30T13:22:12Z</time></trkpt><trkpt lat="45.6837460576512" lon="9.789638837548452"><ele>236.0</ele><time>2026-04-30T13:22:13Z</time></trkpt><trkpt lat="45.68372134848939" lon="9.789552687282006"><ele>236.0</ele><time>2026-04-30T13:22:14Z</time></trkpt><trkpt lat="45.68369583573896" lon="9.789463152828096"><ele>236.00000000000003</ele><time>2026-04-30T13:22:15Z</time></trkpt><trkpt lat="45.68367211620214" lon="9.789376713488185"><ele>236.0</ele><time>2026-04-30T13:22:16Z</time></trkpt><trkpt lat="45.68364948265804" lon="9.789291317463755"><ele>236.0</ele><time>2026-04-30T13:22:17Z</time></trkpt><trkpt lat="45.68360391472961" lon="9.789130261504779"><ele>236.0</ele><time>2026-04-30T13:22:19Z</time></trkpt><trkpt lat="45.683584166110826" lon="9.789044026764214"><ele>236.00000000000003</ele><time>2026-04-30T13:22:20Z</time></trkpt><trkpt lat="45.683551814497406" lon="9.788886471298998"><ele>236.0</ele><time>2026-04-30T13:22:22Z</time></trkpt><trkpt lat="45.68352516901398" lon="9.788735813574414"><ele>235.8</ele><time>2026-04-30T13:22:24Z</time></trkpt><trkpt lat="45.6835054292709" lon="9.788590977439917"><ele>235.60000000000002</ele><time>2026-04-30T13:22:26Z</time></trkpt><trkpt lat="45.683481800309934" lon="9.788449898529981"><ele>235.4</ele><time>2026-04-30T13:22:28Z</time></trkpt><trkpt lat="45.68344849783082" lon="9.788286030111554"><ele>235.2</ele><time>2026-04-30T13:22:30Z</time></trkpt><trkpt lat="45.68343364996588" lon="9.788187134984863"><ele>235.0</ele><time>2026-04-30T13:22:31Z</time></trkpt><trkpt lat="45.683421555037484" lon="9.788094795329448"><ele>234.85714285714283</ele><time>2026-04-30T13:22:32Z</time></trkpt><trkpt lat="45.683409800329585" lon="9.787999194967899"><ele>234.7142857142857</ele><time>2026-04-30T13:22:33Z</time></trkpt><trkpt lat="45.68340992856002" lon="9.787906372423503"><ele>234.57142857142856</ele><time>2026-04-30T13:22:34Z</time></trkpt><trkpt lat="45.68341755654947" lon="9.787805591562794"><ele>234.42857142857144</ele><time>2026-04-30T13:22:35Z</time></trkpt><trkpt lat="45.683424842200274" lon="9.787713947256599"><ele>234.2857142857143</ele><time>2026-04-30T13:22:36Z</time></trkpt><trkpt lat="45.68342280560921" lon="9.787622709979274"><ele>234.14285714285717</ele><time>2026-04-30T13:22:37Z</time></trkpt><trkpt lat="45.68341521411004" lon="9.787532359578071"><ele>234.0</ele><time>2026-04-30T13:22:38Z</time></trkpt><trkpt lat="45.683397877243216" lon="9.787439271091907"><ele>234.33333333333334</ele><time>2026-04-30T13:22:39Z</time></trkpt><trkpt lat="45.68334535362395" lon="9.78727749988091"><ele>234.66666666666669</ele><time>2026-04-30T13:22:41Z</time></trkpt><trkpt lat="45.68331382365868" lon="9.787196650718109"><ele>235.0</ele><time>2026-04-30T13:22:42Z</time></trkpt><trkpt lat="45.683266877501325" lon="9.787027740410988"><ele>235.33333333333334</ele><time>2026-04-30T13:22:44Z</time></trkpt><trkpt lat="45.68324658710527" lon="9.786939840524608"><ele>235.66666666666669</ele><time>2026-04-30T13:22:45Z</time></trkpt><trkpt lat="45.68323476941389" lon="9.786849275809686"><ele>236.0</ele><time>2026-04-30T13:22:46Z</time></trkpt><trkpt lat="45.683225464620094" lon="9.786754752487628"><ele>236.0</ele><time>2026-04-30T13:22:47Z</time></trkpt><trkpt lat="45.68322055509433" lon="9.786664010884728"><ele>236.0</ele><time>2026-04-30T13:22:48Z</time></trkpt><trkpt lat="45.683214009251934" lon="9.786568576981313"><ele>236.0</ele><time>2026-04-30T13:22:49Z</time></trkpt><trkpt lat="45.683204590901134" lon="9.786473385391625"><ele>236.0</ele><time>2026-04-30T13:22:50Z</time></trkpt><trkpt lat="45.6831978515458" lon="9.786377513904046"><ele>236.0</ele><time>2026-04-30T13:22:51Z</time></trkpt><trkpt lat="45.68319041075924" lon="9.786284510035596"><ele>236.0</ele><time>2026-04-30T13:22:52Z</time></trkpt><trkpt lat="45.68318304919919" lon="9.786189550369112"><ele>236.0</ele><time>2026-04-30T13:22:53Z</time></trkpt><trkpt lat="45.68317435325496" lon="9.786098315787708"><ele>235.66666666666669</ele><time>2026-04-30T13:22:54Z</time></trkpt><trkpt lat="45.68316538704007" lon="9.786008007179552"><ele>235.33333333333334</ele><time>2026-04-30T13:22:55Z</time></trkpt><trkpt lat="45.68315530648174" lon="9.785918763866562"><ele>235.0</ele><time>2026-04-30T13:22:56Z</time></trkpt><trkpt lat="45.6831355411068" lon="9.785741637351908"><ele>234.66666666666669</ele><time>2026-04-30T13:22:58Z</time></trkpt><trkpt lat="45.68311388137358" lon="9.785566268555813"><ele>234.33333333333334</ele><time>2026-04-30T13:23:00Z</time></trkpt><trkpt lat="45.683105788674695" lon="9.785475539251392"><ele>234.0</ele><time>2026-04-30T13:23:01Z</time></trkpt><trkpt lat="45.68309815300126" lon="9.785382924989058"><ele>234.0</ele><time>2026-04-30T13:23:02Z</time></trkpt><trkpt lat="45.68309254315785" lon="9.78529080739158"><ele>234.0</ele><time>2026-04-30T13:23:03Z</time></trkpt><trkpt lat="45.68307879618445" lon="9.785202392147998"><ele>234.0</ele><time>2026-04-30T13:23:04Z</time></trkpt><trkpt lat="45.68306740530836" lon="9.78511190351462"><ele>234.0</ele><time>2026-04-30T13:23:05Z</time></trkpt><trkpt lat="45.683060076538936" lon="9.785020653650864"><ele>234.0</ele><time>2026-04-30T13:23:06Z</time></trkpt><trkpt lat="45.68304634937917" lon="9.784830706923696"><ele>234.0</ele><time>2026-04-30T13:23:08Z</time></trkpt><trkpt lat="45.68303032810859" lon="9.784653631907862"><ele>234.0</ele><time>2026-04-30T13:23:10Z</time></trkpt><trkpt lat="45.68301984716188" lon="9.7845635976323"><ele>234.0</ele><time>2026-04-30T13:23:11Z</time></trkpt><trkpt lat="45.68301070790066" lon="9.784473671741965"><ele>234.0</ele><time>2026-04-30T13:23:12Z</time></trkpt><trkpt lat="45.68299479421747" lon="9.784290382486228"><ele>234.0</ele><time>2026-04-30T13:23:14Z</time></trkpt><trkpt lat="45.682980975109245" lon="9.784110515576918"><ele>234.0</ele><time>2026-04-30T13:23:16Z</time></trkpt><trkpt lat="45.682972513528675" lon="9.784020312720346"><ele>234.0</ele><time>2026-04-30T13:23:17Z</time></trkpt><trkpt lat="45.682962958133814" lon="9.783927028709043"><ele>234.2</ele><time>2026-04-30T13:23:18Z</time></trkpt><trkpt lat="45.682946811396135" lon="9.783757846091017"><ele>234.39999999999998</ele><time>2026-04-30T13:23:20Z</time></trkpt><trkpt lat="45.68293167292922" lon="9.783598883475875"><ele>234.6</ele><time>2026-04-30T13:23:22Z</time></trkpt><trkpt lat="45.68290536516932" lon="9.78344721472632"><ele>234.8</ele><time>2026-04-30T13:23:24Z</time></trkpt><trkpt lat="45.682888176476574" lon="9.78335878662048"><ele>235.0</ele><time>2026-04-30T13:23:25Z</time></trkpt><trkpt lat="45.68287101928919" lon="9.78327182706602"><ele>235.2</ele><time>2026-04-30T13:23:26Z</time></trkpt><trkpt lat="45.68285408326896" lon="9.783183521542952"><ele>235.4</ele><time>2026-04-30T13:23:27Z</time></trkpt><trkpt lat="45.682832654958695" lon="9.783005912049099"><ele>235.60000000000002</ele><time>2026-04-30T13:23:29Z</time></trkpt><trkpt lat="45.68283151097631" lon="9.782822680138494"><ele>235.8</ele><time>2026-04-30T13:23:31Z</time></trkpt><trkpt lat="45.6828209620221" lon="9.782640417806375"><ele>236.0</ele><time>2026-04-30T13:23:33Z</time></trkpt><trkpt lat="45.68280343514059" lon="9.782455983401471"><ele>236.0</ele><time>2026-04-30T13:23:35Z</time></trkpt><trkpt lat="45.68279326988513" lon="9.782364583924771"><ele>236.0</ele><time>2026-04-30T13:23:36Z</time></trkpt><trkpt lat="45.682794181085285" lon="9.782267262897403"><ele>236.0</ele><time>2026-04-30T13:23:37Z</time></trkpt><trkpt lat="45.68280250152579" lon="9.782172965953816"><ele>236.0</ele><time>2026-04-30T13:23:38Z</time></trkpt><trkpt lat="45.68280995180972" lon="9.782079996520691"><ele>236.0</ele><time>2026-04-30T13:23:39Z</time></trkpt><trkpt lat="45.68281463625457" lon="9.78198978830824"><ele>236.0</ele><time>2026-04-30T13:23:40Z</time></trkpt><trkpt lat="45.68281841735429" lon="9.781896902489818"><ele>236.0</ele><time>2026-04-30T13:23:41Z</time></trkpt><trkpt lat="45.68284099354973" lon="9.781716041593409"><ele>236.0</ele><time>2026-04-30T13:23:43Z</time></trkpt><trkpt lat="45.6828505051698" lon="9.781538118221768"><ele>236.00000000000003</ele><time>2026-04-30T13:23:45Z</time></trkpt><trkpt lat="45.68285894744809" lon="9.781376486684497"><ele>236.00000000000003</ele><time>2026-04-30T13:23:47Z</time></trkpt><trkpt lat="45.6828718848005" lon="9.781280500916615"><ele>236.0</ele><time>2026-04-30T13:23:48Z</time></trkpt><trkpt lat="45.68287891667498" lon="9.7811874092047"><ele>236.0</ele><time>2026-04-30T13:23:49Z</time></trkpt><trkpt lat="45.68290608558562" lon="9.781018795469704"><ele>236.0</ele><time>2026-04-30T13:23:51Z</time></trkpt><trkpt lat="45.682909338598684" lon="9.780926966516425"><ele>236.0</ele><time>2026-04-30T13:23:52Z</time></trkpt><trkpt lat="45.6829206316597" lon="9.780835322702226"><ele>236.0</ele><time>2026-04-30T13:23:53Z</time></trkpt><trkpt lat="45.682935178820294" lon="9.780746827909864"><ele>236.0</ele><time>2026-04-30T13:23:54Z</time></trkpt><trkpt lat="45.68294437621986" lon="9.780656619823525"><ele>236.0</ele><time>2026-04-30T13:23:55Z</time></trkpt><trkpt lat="45.68295724440505" lon="9.780567379464644"><ele>236.0</ele><time>2026-04-30T13:23:56Z</time></trkpt><trkpt lat="45.6829694198133" lon="9.780476639469233"><ele>236.0</ele><time>2026-04-30T13:23:57Z</time></trkpt><trkpt lat="45.68299137813233" lon="9.780299768001768"><ele>236.0</ele><time>2026-04-30T13:23:59Z</time></trkpt><trkpt lat="45.683001175807945" lon="9.78020713474474"><ele>236.0</ele><time>2026-04-30T13:24:00Z</time></trkpt><trkpt lat="45.683010899169375" lon="9.780117028559491"><ele>236.0</ele><time>2026-04-30T13:24:01Z</time></trkpt><trkpt lat="45.683021568231915" lon="9.780025517591472"><ele>236.0</ele><time>2026-04-30T13:24:02Z</time></trkpt><trkpt lat="45.683036037871965" lon="9.779937476330755"><ele>236.0</ele><time>2026-04-30T13:24:03Z</time></trkpt><trkpt lat="45.68304612058219" lon="9.77984720565917"><ele>236.0</ele><time>2026-04-30T13:24:04Z</time></trkpt><trkpt lat="45.68305965010529" lon="9.779757238436206"><ele>236.0</ele><time>2026-04-30T13:24:05Z</time></trkpt><trkpt lat="45.683083250639655" lon="9.779578622897052"><ele>236.0</ele><time>2026-04-30T13:24:07Z</time></trkpt><trkpt lat="45.68309276731421" lon="9.779488911815148"><ele>236.0</ele><time>2026-04-30T13:24:08Z</time></trkpt><trkpt lat="45.683104669538366" lon="9.779400014977698"><ele>236.0</ele><time>2026-04-30T13:24:09Z</time></trkpt><trkpt lat="45.683115377602626" lon="9.779309189922067"><ele>236.0</ele><time>2026-04-30T13:24:10Z</time></trkpt><trkpt lat="45.683120481802426" lon="9.77921879166869"><ele>236.0</ele><time>2026-04-30T13:24:11Z</time></trkpt><trkpt lat="45.68312013088198" lon="9.77911485656017"><ele>236.0</ele><time>2026-04-30T13:24:12Z</time></trkpt><trkpt lat="45.683120004360084" lon="9.77900207308352"><ele>236.0</ele><time>2026-04-30T13:24:13Z</time></trkpt><trkpt lat="45.683164393065255" lon="9.778836159235192"><ele>236.00000000000003</ele><time>2026-04-30T13:24:15Z</time></trkpt><trkpt lat="45.683175894024" lon="9.77874361960842"><ele>236.0</ele><time>2026-04-30T13:24:16Z</time></trkpt><trkpt lat="45.68320237653814" lon="9.778567476136523"><ele>236.0</ele><time>2026-04-30T13:24:18Z</time></trkpt><trkpt lat="45.68321175936498" lon="9.778477263318706"><ele>236.0</ele><time>2026-04-30T13:24:19Z</time></trkpt><trkpt lat="45.68321966728417" lon="9.778387558984354"><ele>236.00000000000003</ele><time>2026-04-30T13:24:20Z</time></trkpt><trkpt lat="45.683243640511144" lon="9.778207536340245"><ele>236.0</ele><time>2026-04-30T13:24:22Z</time></trkpt><trkpt lat="45.68325715821287" lon="9.778115243112685"><ele>236.00000000000003</ele><time>2026-04-30T13:24:23Z</time></trkpt><trkpt lat="45.68327170206621" lon="9.778026567022112"><ele>236.0</ele><time>2026-04-30T13:24:24Z</time></trkpt><trkpt lat="45.68328283090728" lon="9.777934031592748"><ele>236.0</ele><time>2026-04-30T13:24:25Z</time></trkpt><trkpt lat="45.683295061156606" lon="9.777843003878802"><ele>236.0</ele><time>2026-04-30T13:24:26Z</time></trkpt><trkpt lat="45.683307582221495" lon="9.77774931974334"><ele>236.00000000000003</ele><time>2026-04-30T13:24:27Z</time></trkpt><trkpt lat="45.68332094955063" lon="9.777656304288602"><ele>236.0</ele><time>2026-04-30T13:24:28Z</time></trkpt><trkpt lat="45.68333783427216" lon="9.777479474908658"><ele>236.0</ele><time>2026-04-30T13:24:30Z</time></trkpt><trkpt lat="45.683351588092485" lon="9.777388992787833"><ele>236.0</ele><time>2026-04-30T13:24:31Z</time></trkpt><trkpt lat="45.683362280949424" lon="9.777298451228845"><ele>236.0</ele><time>2026-04-30T13:24:32Z</time></trkpt><trkpt lat="45.68337557827936" lon="9.777208560415012"><ele>236.0</ele><time>2026-04-30T13:24:33Z</time></trkpt><trkpt lat="45.68338389166159" lon="9.777118527280681"><ele>236.0</ele><time>2026-04-30T13:24:34Z</time></trkpt><trkpt lat="45.68339415679855" lon="9.777028955974558"><ele>236.0</ele><time>2026-04-30T13:24:35Z</time></trkpt><trkpt lat="45.683420809737996" lon="9.776858169810007"><ele>236.0</ele><time>2026-04-30T13:24:37Z</time></trkpt><trkpt lat="45.68351040257071" lon="9.7767365233715"><ele>236.0</ele><time>2026-04-30T13:24:39Z</time></trkpt><trkpt lat="45.68357610625825" lon="9.776711915144725"><ele>236.0</ele><time>2026-04-30T13:24:40Z</time></trkpt><trkpt lat="45.68364391440874" lon="9.77671329360802"><ele>236.0</ele><time>2026-04-30T13:24:41Z</time></trkpt><trkpt lat="45.68370748924342" lon="9.776724319831278"><ele>236.0</ele><time>2026-04-30T13:24:42Z</time></trkpt><trkpt lat="45.68376858674563" lon="9.776751479804997"><ele>236.0</ele><time>2026-04-30T13:24:43Z</time></trkpt><trkpt lat="45.68382566397918" lon="9.77680092280311"><ele>236.0</ele><time>2026-04-30T13:24:44Z</time></trkpt><trkpt lat="45.68387618608312" lon="9.77686603423167"><ele>236.0</ele><time>2026-04-30T13:24:45Z</time></trkpt><trkpt lat="45.68392691582213" lon="9.776924003624226"><ele>236.16666666666669</ele><time>2026-04-30T13:24:46Z</time></trkpt><trkpt lat="45.68397447539358" lon="9.776991824528016"><ele>236.33333333333334</ele><time>2026-04-30T13:24:47Z</time></trkpt><trkpt lat="45.68406181104323" lon="9.777122647762079"><ele>236.5</ele><time>2026-04-30T13:24:49Z</time></trkpt><trkpt lat="45.68410255818542" lon="9.777193916193601"><ele>236.66666666666669</ele><time>2026-04-30T13:24:50Z</time></trkpt><trkpt lat="45.68415406841284" lon="9.777249823730997"><ele>236.83333333333334</ele><time>2026-04-30T13:24:51Z</time></trkpt><trkpt lat="45.68421650347857" lon="9.777279748836603"><ele>237.0</ele><time>2026-04-30T13:24:52Z</time></trkpt><trkpt lat="45.68427944640634" lon="9.777300935671745"><ele>237.0</ele><time>2026-04-30T13:24:53Z</time></trkpt><trkpt lat="45.68434213663391" lon="9.77732921975292"><ele>237.0</ele><time>2026-04-30T13:24:54Z</time></trkpt><trkpt lat="45.68446191285044" lon="9.777386613489611"><ele>237.0</ele><time>2026-04-30T13:24:56Z</time></trkpt><trkpt lat="45.684521428679005" lon="9.7774177099113"><ele>237.0</ele><time>2026-04-30T13:24:57Z</time></trkpt><trkpt lat="45.68463721569791" lon="9.777464305241281"><ele>237.0</ele><time>2026-04-30T13:24:59Z</time></trkpt><trkpt lat="45.684747090471355" lon="9.777516725141489"><ele>238.0</ele><time>2026-04-30T13:25:01Z</time></trkpt><trkpt lat="45.68486038238226" lon="9.777575976142879"><ele>239.0</ele><time>2026-04-30T13:25:03Z</time></trkpt><trkpt lat="45.684976169527005" lon="9.777630690447477"><ele>240.0</ele><time>2026-04-30T13:25:05Z</time></trkpt><trkpt lat="45.68508573884636" lon="9.777693111332443"><ele>241.0</ele><time>2026-04-30T13:25:07Z</time></trkpt><trkpt lat="45.68519406667331" lon="9.777760446382505"><ele>242.33333333333331</ele><time>2026-04-30T13:25:09Z</time></trkpt><trkpt lat="45.68530396518739" lon="9.777807021765376"><ele>243.66666666666666</ele><time>2026-04-30T13:25:11Z</time></trkpt><trkpt lat="45.68540592364554" lon="9.777714453678893"><ele>245.0</ele><time>2026-04-30T13:25:13Z</time></trkpt><trkpt lat="45.68543835892613" lon="9.777623378379797"><ele>246.33333333333331</ele><time>2026-04-30T13:25:14Z</time></trkpt><trkpt lat="45.68546418603918" lon="9.777540812978799"><ele>247.66666666666666</ele><time>2026-04-30T13:25:15Z</time></trkpt><trkpt lat="45.685486476593375" lon="9.777450950550262"><ele>249.0</ele><time>2026-04-30T13:25:16Z</time></trkpt><trkpt lat="45.68550772809793" lon="9.77736224854361"><ele>249.0</ele><time>2026-04-30T13:25:17Z</time></trkpt><trkpt lat="45.685529292332696" lon="9.777276599568701"><ele>248.99999999999997</ele><time>2026-04-30T13:25:18Z</time></trkpt><trkpt lat="45.68555289069209" lon="9.777188572078053"><ele>249.0</ele><time>2026-04-30T13:25:19Z</time></trkpt><trkpt lat="45.6855761001921" lon="9.777098200606734"><ele>249.0</ele><time>2026-04-30T13:25:20Z</time></trkpt><trkpt lat="45.68559970243865" lon="9.777006768866578"><ele>248.99999999999997</ele><time>2026-04-30T13:25:21Z</time></trkpt><trkpt lat="45.68562577636696" lon="9.776915814750778"><ele>249.0</ele><time>2026-04-30T13:25:22Z</time></trkpt><trkpt lat="45.685653655024296" lon="9.776823308146952"><ele>249.0</ele><time>2026-04-30T13:25:23Z</time></trkpt><trkpt lat="45.685681522575464" lon="9.776730637299895"><ele>248.57142857142856</ele><time>2026-04-30T13:25:24Z</time></trkpt><trkpt lat="45.68570773634913" lon="9.776634561964366"><ele>248.1428571428571</ele><time>2026-04-30T13:25:25Z</time></trkpt><trkpt lat="45.68573185218212" lon="9.776537816589592"><ele>247.71428571428572</ele><time>2026-04-30T13:25:26Z</time></trkpt><trkpt lat="45.68575661323639" lon="9.776438600294684"><ele>247.28571428571428</ele><time>2026-04-30T13:25:27Z</time></trkpt><trkpt lat="45.68578568522397" lon="9.77634350940235"><ele>246.85714285714286</ele><time>2026-04-30T13:25:28Z</time></trkpt><trkpt lat="45.68581483260071" lon="9.77624797159786"><ele>246.42857142857144</ele><time>2026-04-30T13:25:29Z</time></trkpt><trkpt lat="45.68584442031505" lon="9.776152547221303"><ele>246.00000000000003</ele><time>2026-04-30T13:25:30Z</time></trkpt><trkpt lat="45.68587265793385" lon="9.776055279407995"><ele>245.5714285714286</ele><time>2026-04-30T13:25:31Z</time></trkpt><trkpt lat="45.68589924024277" lon="9.775959311418998"><ele>245.14285714285717</ele><time>2026-04-30T13:25:32Z</time></trkpt><trkpt lat="45.68592872272844" lon="9.775865419733176"><ele>244.71428571428572</ele><time>2026-04-30T13:25:33Z</time></trkpt><trkpt lat="45.6859552758001" lon="9.77577241794229"><ele>244.2857142857143</ele><time>2026-04-30T13:25:34Z</time></trkpt><trkpt lat="45.68598290183141" lon="9.775680068510491"><ele>243.8571428571429</ele><time>2026-04-30T13:25:35Z</time></trkpt><trkpt lat="45.68600845363275" lon="9.775590084483289"><ele>243.42857142857142</ele><time>2026-04-30T13:25:36Z</time></trkpt><trkpt lat="45.68603479018583" lon="9.775501590305376"><ele>243.0</ele><time>2026-04-30T13:25:37Z</time></trkpt><trkpt lat="45.68605991835956" lon="9.775413548181934"><ele>243.0</ele><time>2026-04-30T13:25:38Z</time></trkpt><trkpt lat="45.68608556659222" lon="9.775327225390612"><ele>243.0</ele><time>2026-04-30T13:25:39Z</time></trkpt><trkpt lat="45.686119052264544" lon="9.775246413183758"><ele>243.0</ele><time>2026-04-30T13:25:40Z</time></trkpt><trkpt lat="45.68615516479575" lon="9.775168851616701"><ele>243.0</ele><time>2026-04-30T13:25:41Z</time></trkpt><trkpt lat="45.68618985112225" lon="9.775088269902971"><ele>243.0</ele><time>2026-04-30T13:25:42Z</time></trkpt><trkpt lat="45.686225570195084" lon="9.775006745703923"><ele>243.0</ele><time>2026-04-30T13:25:43Z</time></trkpt><trkpt lat="45.686260813187516" lon="9.774930305329862"><ele>243.0</ele><time>2026-04-30T13:25:44Z</time></trkpt><trkpt lat="45.68629857006621" lon="9.774850246205201"><ele>243.0</ele><time>2026-04-30T13:25:45Z</time></trkpt><trkpt lat="45.68633510202539" lon="9.774770568395029"><ele>243.0</ele><time>2026-04-30T13:25:46Z</time></trkpt><trkpt lat="45.686370934363396" lon="9.77469175836046"><ele>243.0</ele><time>2026-04-30T13:25:47Z</time></trkpt><trkpt lat="45.68640852540004" lon="9.774618390930545"><ele>243.0</ele><time>2026-04-30T13:25:48Z</time></trkpt><trkpt lat="45.686442971228075" lon="9.774536088354713"><ele>243.0</ele><time>2026-04-30T13:25:49Z</time></trkpt><trkpt lat="45.686477398140084" lon="9.77445738278021"><ele>243.0</ele><time>2026-04-30T13:25:50Z</time></trkpt><trkpt lat="45.686509884133606" lon="9.774380164273683"><ele>243.0</ele><time>2026-04-30T13:25:51Z</time></trkpt><trkpt lat="45.686547147257144" lon="9.774297978294298"><ele>243.0</ele><time>2026-04-30T13:25:52Z</time></trkpt><trkpt lat="45.6865842926866" lon="9.774220653900448"><ele>243.0</ele><time>2026-04-30T13:25:53Z</time></trkpt><trkpt lat="45.68662172354099" lon="9.774144826363402"><ele>243.0</ele><time>2026-04-30T13:25:54Z</time></trkpt><trkpt lat="45.686657209530786" lon="9.774063051567042"><ele>243.0</ele><time>2026-04-30T13:25:55Z</time></trkpt><trkpt lat="45.686693764445856" lon="9.773987802039464"><ele>243.0</ele><time>2026-04-30T13:25:56Z</time></trkpt><trkpt lat="45.686730452142726" lon="9.773909055048934"><ele>243.0</ele><time>2026-04-30T13:25:57Z</time></trkpt><trkpt lat="45.68676637357404" lon="9.77383218813893"><ele>243.0</ele><time>2026-04-30T13:25:58Z</time></trkpt><trkpt lat="45.686804147680384" lon="9.773756412262227"><ele>243.0</ele><time>2026-04-30T13:25:59Z</time></trkpt><trkpt lat="45.68683922928669" lon="9.773679639813771"><ele>243.0</ele><time>2026-04-30T13:26:00Z</time></trkpt><trkpt lat="45.68687681375355" lon="9.773604684784809"><ele>243.0</ele><time>2026-04-30T13:26:01Z</time></trkpt><trkpt lat="45.6869139754976" lon="9.773529877267823"><ele>243.0</ele><time>2026-04-30T13:26:02Z</time></trkpt><trkpt lat="45.68694917305653" lon="9.773453704008578"><ele>243.0</ele><time>2026-04-30T13:26:03Z</time></trkpt><trkpt lat="45.68698626345217" lon="9.773376197951029"><ele>243.0</ele><time>2026-04-30T13:26:04Z</time></trkpt><trkpt lat="45.68706122330973" lon="9.773227207212635"><ele>243.42857142857142</ele><time>2026-04-30T13:26:06Z</time></trkpt><trkpt lat="45.687097996402265" lon="9.773153124974606"><ele>243.8571428571429</ele><time>2026-04-30T13:26:07Z</time></trkpt><trkpt lat="45.6871373563553" lon="9.773078194659119"><ele>244.2857142857143</ele><time>2026-04-30T13:26:08Z</time></trkpt><trkpt lat="45.68717612042445" lon="9.77300048995831"><ele>244.71428571428572</ele><time>2026-04-30T13:26:09Z</time></trkpt><trkpt lat="45.687210275097044" lon="9.7729202132327"><ele>245.14285714285717</ele><time>2026-04-30T13:26:10Z</time></trkpt><trkpt lat="45.687245333459764" lon="9.772837409381104"><ele>245.5714285714286</ele><time>2026-04-30T13:26:11Z</time></trkpt><trkpt lat="45.68728525910013" lon="9.772758073034371"><ele>246.00000000000003</ele><time>2026-04-30T13:26:12Z</time></trkpt><trkpt lat="45.687324982761695" lon="9.772680816845082"><ele>246.14285714285717</ele><time>2026-04-30T13:26:13Z</time></trkpt><trkpt lat="45.68736544727239" lon="9.772599452293147"><ele>246.28571428571428</ele><time>2026-04-30T13:26:14Z</time></trkpt><trkpt lat="45.68740776501665" lon="9.77252146955003"><ele>246.42857142857144</ele><time>2026-04-30T13:26:15Z</time></trkpt><trkpt lat="45.687447092471004" lon="9.77243807783198"><ele>246.57142857142858</ele><time>2026-04-30T13:26:16Z</time></trkpt><trkpt lat="45.6874855468183" lon="9.772354145147029"><ele>246.71428571428572</ele><time>2026-04-30T13:26:17Z</time></trkpt><trkpt lat="45.68752747292059" lon="9.77227109519936"><ele>246.85714285714286</ele><time>2026-04-30T13:26:18Z</time></trkpt><trkpt lat="45.68756819472195" lon="9.772187596533438"><ele>247.0</ele><time>2026-04-30T13:26:19Z</time></trkpt><trkpt lat="45.68760721649874" lon="9.77210541664284"><ele>247.0</ele><time>2026-04-30T13:26:20Z</time></trkpt><trkpt lat="45.6876466538286" lon="9.772022819428798"><ele>247.0</ele><time>2026-04-30T13:26:21Z</time></trkpt><trkpt lat="45.687683211031825" lon="9.771942788192787"><ele>247.0</ele><time>2026-04-30T13:26:22Z</time></trkpt><trkpt lat="45.68771595180952" lon="9.771860608463399"><ele>247.0</ele><time>2026-04-30T13:26:23Z</time></trkpt><trkpt lat="45.68775309298939" lon="9.771778760419393"><ele>247.0</ele><time>2026-04-30T13:26:24Z</time></trkpt><trkpt lat="45.68778699240845" lon="9.771698320624251"><ele>247.0</ele><time>2026-04-30T13:26:25Z</time></trkpt><trkpt lat="45.68782173728733" lon="9.771617759586777"><ele>247.0</ele><time>2026-04-30T13:26:26Z</time></trkpt><trkpt lat="45.68785618572447" lon="9.771541842497081"><ele>246.39999999999998</ele><time>2026-04-30T13:26:27Z</time></trkpt><trkpt lat="45.68789034809128" lon="9.771464073869236"><ele>245.79999999999998</ele><time>2026-04-30T13:26:28Z</time></trkpt><trkpt lat="45.68795132610951" lon="9.771311515507072"><ele>245.2</ele><time>2026-04-30T13:26:30Z</time></trkpt><trkpt lat="45.6879982802764" lon="9.771158791686348"><ele>244.6</ele><time>2026-04-30T13:26:32Z</time></trkpt><trkpt lat="45.68806875056121" lon="9.771088657960743"><ele>244.0</ele><time>2026-04-30T13:26:34Z</time></trkpt><trkpt lat="45.6881412442408" lon="9.771166408435105"><ele>243.99999999999997</ele><time>2026-04-30T13:26:36Z</time></trkpt><trkpt lat="45.68816875117195" lon="9.771247632210713"><ele>244.0</ele><time>2026-04-30T13:26:37Z</time></trkpt><trkpt lat="45.68820392686851" lon="9.771323235261214"><ele>243.99999999999997</ele><time>2026-04-30T13:26:38Z</time></trkpt><trkpt lat="45.68824325753042" lon="9.771396032374414"><ele>243.99999999999997</ele><time>2026-04-30T13:26:39Z</time></trkpt><trkpt lat="45.68831644006719" lon="9.77152687809692"><ele>244.0</ele><time>2026-04-30T13:26:41Z</time></trkpt><trkpt lat="45.68833304167423" lon="9.771614043691095"><ele>243.99999999999997</ele><time>2026-04-30T13:26:42Z</time></trkpt><trkpt lat="45.68835478221209" lon="9.771700636650975"><ele>243.99999999999997</ele><time>2026-04-30T13:26:43Z</time></trkpt><trkpt lat="45.68838384681492" lon="9.771781844634939"><ele>244.79999999999998</ele><time>2026-04-30T13:26:44Z</time></trkpt><trkpt lat="45.68845771875711" lon="9.771926518982282"><ele>245.59999999999997</ele><time>2026-04-30T13:26:46Z</time></trkpt><trkpt lat="45.68854805867156" lon="9.772050293855376"><ele>246.4</ele><time>2026-04-30T13:26:48Z</time></trkpt><trkpt lat="45.68864589691443" lon="9.772147707749976"><ele>247.2</ele><time>2026-04-30T13:26:50Z</time></trkpt><trkpt lat="45.68871041951415" lon="9.772150741164529"><ele>248.0</ele><time>2026-04-30T13:26:51Z</time></trkpt><trkpt lat="45.68876612177052" lon="9.77209894176673"><ele>248.00000000000003</ele><time>2026-04-30T13:26:52Z</time></trkpt><trkpt lat="45.688805538491586" lon="9.772026417630634"><ele>248.0</ele><time>2026-04-30T13:26:53Z</time></trkpt><trkpt lat="45.688892272462006" lon="9.77190146203551"><ele>248.0</ele><time>2026-04-30T13:26:55Z</time></trkpt><trkpt lat="45.68892627745522" lon="9.771823779482034"><ele>248.0</ele><time>2026-04-30T13:26:56Z</time></trkpt><trkpt lat="45.68896110397125" lon="9.771747606540384"><ele>248.00000000000003</ele><time>2026-04-30T13:26:57Z</time></trkpt><trkpt lat="45.689019216631166" lon="9.77158803612924"><ele>248.0</ele><time>2026-04-30T13:26:59Z</time></trkpt><trkpt lat="45.68905450925019" lon="9.771510243852124"><ele>247.0</ele><time>2026-04-30T13:27:00Z</time></trkpt><trkpt lat="45.689087318443036" lon="9.771432072527377"><ele>246.0</ele><time>2026-04-30T13:27:01Z</time></trkpt><trkpt lat="45.68912097933235" lon="9.771355768712459"><ele>245.0</ele><time>2026-04-30T13:27:02Z</time></trkpt><trkpt lat="45.689199905757846" lon="9.771220282380503"><ele>244.0</ele><time>2026-04-30T13:27:04Z</time></trkpt><trkpt lat="45.689291878561605" lon="9.771120986915223"><ele>243.0</ele><time>2026-04-30T13:27:06Z</time></trkpt><trkpt lat="45.68938260488074" lon="9.77102401178848"><ele>243.14285714285714</ele><time>2026-04-30T13:27:08Z</time></trkpt><trkpt lat="45.68942794200905" lon="9.770958292861287"><ele>243.28571428571428</ele><time>2026-04-30T13:27:09Z</time></trkpt><trkpt lat="45.68946101925874" lon="9.770878462068689"><ele>243.42857142857142</ele><time>2026-04-30T13:27:10Z</time></trkpt><trkpt lat="45.6894784112034" lon="9.770789727723493"><ele>243.57142857142856</ele><time>2026-04-30T13:27:11Z</time></trkpt><trkpt lat="45.68948315778249" lon="9.77069631413425"><ele>243.71428571428572</ele><time>2026-04-30T13:27:12Z</time></trkpt><trkpt lat="45.68948355515307" lon="9.770600713306091"><ele>243.85714285714283</ele><time>2026-04-30T13:27:13Z</time></trkpt><trkpt lat="45.689482998881346" lon="9.770506809090856"><ele>243.99999999999997</ele><time>2026-04-30T13:27:14Z</time></trkpt><trkpt lat="45.68947998399077" lon="9.770413180648758"><ele>243.99999999999997</ele><time>2026-04-30T13:27:15Z</time></trkpt><trkpt lat="45.689478666138456" lon="9.770320635041488"><ele>244.0</ele><time>2026-04-30T13:27:16Z</time></trkpt><trkpt lat="45.689479067399226" lon="9.770227411374302"><ele>243.99999999999997</ele><time>2026-04-30T13:27:17Z</time></trkpt><trkpt lat="45.689475706243925" lon="9.770134854473051"><ele>243.99999999999997</ele><time>2026-04-30T13:27:18Z</time></trkpt><trkpt lat="45.68947917408724" lon="9.769960510091192"><ele>244.0</ele><time>2026-04-30T13:27:20Z</time></trkpt><trkpt lat="45.68948892588666" lon="9.769871077057275"><ele>243.99999999999997</ele><time>2026-04-30T13:27:21Z</time></trkpt><trkpt lat="45.6895033081704" lon="9.769779847343061"><ele>243.99999999999997</ele><time>2026-04-30T13:27:22Z</time></trkpt><trkpt lat="45.68952973771109" lon="9.769601480185438"><ele>244.0</ele><time>2026-04-30T13:27:24Z</time></trkpt><trkpt lat="45.68952911113162" lon="9.769503735817127"><ele>243.99999999999997</ele><time>2026-04-30T13:27:25Z</time></trkpt><trkpt lat="45.68954752512261" lon="9.769324205173726"><ele>243.99999999999997</ele><time>2026-04-30T13:27:27Z</time></trkpt><trkpt lat="45.68956437295996" lon="9.769146843934536"><ele>244.0</ele><time>2026-04-30T13:27:29Z</time></trkpt><trkpt lat="45.689581415665955" lon="9.76896776420064"><ele>244.0</ele><time>2026-04-30T13:27:31Z</time></trkpt><trkpt lat="45.689595153303245" lon="9.768789929535261"><ele>244.0</ele><time>2026-04-30T13:27:33Z</time></trkpt><trkpt lat="45.689604147976915" lon="9.768617389566456"><ele>244.0</ele><time>2026-04-30T13:27:35Z</time></trkpt><trkpt lat="45.689622414599846" lon="9.768450801821109"><ele>244.0</ele><time>2026-04-30T13:27:37Z</time></trkpt><trkpt lat="45.68963125700395" lon="9.768286890427843"><ele>244.0</ele><time>2026-04-30T13:27:39Z</time></trkpt><trkpt lat="45.689649795408826" lon="9.768145107523507"><ele>244.66666666666666</ele><time>2026-04-30T13:27:41Z</time></trkpt><trkpt lat="45.68973007449163" lon="9.768067820646992"><ele>245.33333333333331</ele><time>2026-04-30T13:27:43Z</time></trkpt><trkpt lat="45.68985741413524" lon="9.76807666763971"><ele>246.0</ele><time>2026-04-30T13:27:45Z</time></trkpt><trkpt lat="45.68992189920604" lon="9.768080319628245"><ele>246.66666666666669</ele><time>2026-04-30T13:27:46Z</time></trkpt><trkpt lat="45.689986955605" lon="9.768057771558617"><ele>247.33333333333334</ele><time>2026-04-30T13:27:47Z</time></trkpt><trkpt lat="45.690049641383126" lon="9.76803297070566"><ele>248.0</ele><time>2026-04-30T13:27:48Z</time></trkpt><trkpt lat="45.69010939706474" lon="9.7679986254895"><ele>248.00000000000003</ele><time>2026-04-30T13:27:49Z</time></trkpt><trkpt lat="45.690165141788626" lon="9.767954307467228"><ele>248.0</ele><time>2026-04-30T13:27:50Z</time></trkpt><trkpt lat="45.690220535288276" lon="9.767901212122705"><ele>248.0</ele><time>2026-04-30T13:27:51Z</time></trkpt><trkpt lat="45.69027433584913" lon="9.767845878650503"><ele>248.0</ele><time>2026-04-30T13:27:52Z</time></trkpt><trkpt lat="45.69032962394284" lon="9.767797782990383"><ele>248.00000000000003</ele><time>2026-04-30T13:27:53Z</time></trkpt><trkpt lat="45.69038434998573" lon="9.767750973056572"><ele>248.0</ele><time>2026-04-30T13:27:54Z</time></trkpt><trkpt lat="45.690493974100804" lon="9.767661878698348"><ele>248.4</ele><time>2026-04-30T13:27:56Z</time></trkpt><trkpt lat="45.69060291904221" lon="9.767573290668043"><ele>248.8</ele><time>2026-04-30T13:27:58Z</time></trkpt><trkpt lat="45.69071381283802" lon="9.767490992661518"><ele>249.2</ele><time>2026-04-30T13:28:00Z</time></trkpt><trkpt lat="45.69082378221221" lon="9.767400777573581"><ele>249.6</ele><time>2026-04-30T13:28:02Z</time></trkpt><trkpt lat="45.69087751126297" lon="9.767352718036436"><ele>250.0</ele><time>2026-04-30T13:28:03Z</time></trkpt><trkpt lat="45.6909341977972" lon="9.767308571196446"><ele>250.0</ele><time>2026-04-30T13:28:04Z</time></trkpt><trkpt lat="45.69103458036792" lon="9.767209190876066"><ele>250.0</ele><time>2026-04-30T13:28:06Z</time></trkpt><trkpt lat="45.6911070465841" lon="9.767086625845982"><ele>250.0</ele><time>2026-04-30T13:28:08Z</time></trkpt><trkpt lat="45.6912042379193" lon="9.76703675130676"><ele>250.0</ele><time>2026-04-30T13:28:10Z</time></trkpt><trkpt lat="45.69126753525681" lon="9.767024158146691"><ele>250.0</ele><time>2026-04-30T13:28:11Z</time></trkpt><trkpt lat="45.69132989195224" lon="9.766998848841864"><ele>250.0</ele><time>2026-04-30T13:28:12Z</time></trkpt><trkpt lat="45.69138983746453" lon="9.766965685584537"><ele>250.0</ele><time>2026-04-30T13:28:13Z</time></trkpt><trkpt lat="45.69150192146226" lon="9.766884415123746"><ele>250.0</ele><time>2026-04-30T13:28:15Z</time></trkpt><trkpt lat="45.69155723151364" lon="9.766839471732512"><ele>250.0</ele><time>2026-04-30T13:28:16Z</time></trkpt><trkpt lat="45.69161357538813" lon="9.766795288041026"><ele>250.0</ele><time>2026-04-30T13:28:17Z</time></trkpt><trkpt lat="45.69167035955918" lon="9.76675367719678"><ele>250.0</ele><time>2026-04-30T13:28:18Z</time></trkpt><trkpt lat="45.69172518142314" lon="9.76670779811787"><ele>250.0</ele><time>2026-04-30T13:28:19Z</time></trkpt><trkpt lat="45.69178101402116" lon="9.766662165802806"><ele>249.99999999999997</ele><time>2026-04-30T13:28:20Z</time></trkpt><trkpt lat="45.69189130964296" lon="9.7665785691094"><ele>250.0</ele><time>2026-04-30T13:28:22Z</time></trkpt><trkpt lat="45.69194992500223" lon="9.766537583393918"><ele>250.0</ele><time>2026-04-30T13:28:23Z</time></trkpt><trkpt lat="45.692007335180435" lon="9.76649782775445"><ele>250.0</ele><time>2026-04-30T13:28:24Z</time></trkpt><trkpt lat="45.692063390789514" lon="9.766452556002166"><ele>249.99999999999997</ele><time>2026-04-30T13:28:25Z</time></trkpt><trkpt lat="45.69217191690724" lon="9.766369330451704"><ele>250.0</ele><time>2026-04-30T13:28:27Z</time></trkpt><trkpt lat="45.69222742017763" lon="9.76632586384625"><ele>250.14285714285714</ele><time>2026-04-30T13:28:28Z</time></trkpt><trkpt lat="45.6923340855189" lon="9.766235822204237"><ele>250.28571428571428</ele><time>2026-04-30T13:28:30Z</time></trkpt><trkpt lat="45.69238936813763" lon="9.766192007789863"><ele>250.42857142857142</ele><time>2026-04-30T13:28:31Z</time></trkpt><trkpt lat="45.69244516311261" lon="9.766146555685843"><ele>250.57142857142856</ele><time>2026-04-30T13:28:32Z</time></trkpt><trkpt lat="45.692500388367826" lon="9.766102950555087"><ele>250.71428571428572</ele><time>2026-04-30T13:28:33Z</time></trkpt><trkpt lat="45.69255765585193" lon="9.766062843993634"><ele>250.85714285714283</ele><time>2026-04-30T13:28:34Z</time></trkpt><trkpt lat="45.69261534789679" lon="9.766020988814562"><ele>250.99999999999997</ele><time>2026-04-30T13:28:35Z</time></trkpt><trkpt lat="45.692671328043495" lon="9.765978857035561"><ele>251.00000000000003</ele><time>2026-04-30T13:28:36Z</time></trkpt><trkpt lat="45.69272582242669" lon="9.765931861814057"><ele>251.0</ele><time>2026-04-30T13:28:37Z</time></trkpt><trkpt lat="45.692780422584214" lon="9.76588675992314"><ele>251.0</ele><time>2026-04-30T13:28:38Z</time></trkpt><trkpt lat="45.69288735658198" lon="9.765797266970708"><ele>251.0</ele><time>2026-04-30T13:28:40Z</time></trkpt><trkpt lat="45.69294328574866" lon="9.765751921781161"><ele>251.00000000000003</ele><time>2026-04-30T13:28:41Z</time></trkpt><trkpt lat="45.69305055145559" lon="9.76566742351961"><ele>251.0</ele><time>2026-04-30T13:28:43Z</time></trkpt><trkpt lat="45.69310568649121" lon="9.765623264901686"><ele>251.20000000000002</ele><time>2026-04-30T13:28:44Z</time></trkpt><trkpt lat="45.693215428356574" lon="9.765542878698911"><ele>251.40000000000003</ele><time>2026-04-30T13:28:46Z</time></trkpt><trkpt lat="45.69327227221247" lon="9.765498285821385"><ele>251.6</ele><time>2026-04-30T13:28:47Z</time></trkpt><trkpt lat="45.69338086217293" lon="9.765409595238085"><ele>251.8</ele><time>2026-04-30T13:28:49Z</time></trkpt><trkpt lat="45.69343700084927" lon="9.765365778146204"><ele>252.0</ele><time>2026-04-30T13:28:50Z</time></trkpt><trkpt lat="45.69354787790255" lon="9.765279012159995"><ele>252.8</ele><time>2026-04-30T13:28:52Z</time></trkpt><trkpt lat="45.69365632817865" lon="9.765195090301109"><ele>253.6</ele><time>2026-04-30T13:28:54Z</time></trkpt><trkpt lat="45.69371115788419" lon="9.765150207244153"><ele>254.40000000000003</ele><time>2026-04-30T13:28:55Z</time></trkpt><trkpt lat="45.69381995152228" lon="9.765062677333725"><ele>255.20000000000002</ele><time>2026-04-30T13:28:57Z</time></trkpt><trkpt lat="45.69392770790718" lon="9.764977624688099"><ele>256.0</ele><time>2026-04-30T13:28:59Z</time></trkpt><trkpt lat="45.69398239392719" lon="9.764931095911242"><ele>256.0</ele><time>2026-04-30T13:29:00Z</time></trkpt><trkpt lat="45.69409329615232" lon="9.764851110673199"><ele>256.0</ele><time>2026-04-30T13:29:02Z</time></trkpt><trkpt lat="45.694203474166" lon="9.764764075338087"><ele>256.0</ele><time>2026-04-30T13:29:04Z</time></trkpt><trkpt lat="45.694309154784875" lon="9.764674731426801"><ele>256.0</ele><time>2026-04-30T13:29:06Z</time></trkpt><trkpt lat="45.6943652127129" lon="9.764628905939505"><ele>256.0</ele><time>2026-04-30T13:29:07Z</time></trkpt><trkpt lat="45.69447145430512" lon="9.764537355719176"><ele>256.0</ele><time>2026-04-30T13:29:09Z</time></trkpt><trkpt lat="45.69458176637817" lon="9.764454460982202"><ele>256.0</ele><time>2026-04-30T13:29:11Z</time></trkpt><trkpt lat="45.694694888810716" lon="9.764374912866174"><ele>256.0</ele><time>2026-04-30T13:29:13Z</time></trkpt><trkpt lat="45.69474997284746" lon="9.764330173031972"><ele>256.0</ele><time>2026-04-30T13:29:14Z</time></trkpt><trkpt lat="45.69485756178673" lon="9.764239990573552"><ele>256.0</ele><time>2026-04-30T13:29:16Z</time></trkpt><trkpt lat="45.69491625642364" lon="9.764199357704442"><ele>256.0</ele><time>2026-04-30T13:29:17Z</time></trkpt><trkpt lat="45.69497116882682" lon="9.764151093244648"><ele>256.0</ele><time>2026-04-30T13:29:18Z</time></trkpt><trkpt lat="45.695079282044084" lon="9.764063157780681"><ele>256.0</ele><time>2026-04-30T13:29:20Z</time></trkpt><trkpt lat="45.69513426587028" lon="9.764018642789166"><ele>256.0</ele><time>2026-04-30T13:29:21Z</time></trkpt><trkpt lat="45.6952440800361" lon="9.763933193761234"><ele>256.0</ele><time>2026-04-30T13:29:23Z</time></trkpt><trkpt lat="45.695345157359256" lon="9.7638505875053"><ele>256.0</ele><time>2026-04-30T13:29:25Z</time></trkpt><trkpt lat="45.69543546433348" lon="9.763781857782563"><ele>256.0</ele><time>2026-04-30T13:29:27Z</time></trkpt><trkpt lat="45.69551591186842" lon="9.76370667165322"><ele>256.0</ele><time>2026-04-30T13:29:29Z</time></trkpt><trkpt lat="45.69559031707919" lon="9.763644737744333"><ele>256.0</ele><time>2026-04-30T13:29:31Z</time></trkpt><trkpt lat="45.69567076420394" lon="9.763584117932922"><ele>256.0</ele><time>2026-04-30T13:29:33Z</time></trkpt><trkpt lat="45.69575269408966" lon="9.76352808008334"><ele>256.3333333333333</ele><time>2026-04-30T13:29:35Z</time></trkpt><trkpt lat="45.69583060337109" lon="9.763464330550683"><ele>256.66666666666663</ele><time>2026-04-30T13:29:37Z</time></trkpt><trkpt lat="45.695903411623085" lon="9.763410710978167"><ele>257.0</ele><time>2026-04-30T13:29:39Z</time></trkpt><trkpt lat="45.69596651839826" lon="9.763355064970417"><ele>257.3333333333333</ele><time>2026-04-30T13:29:41Z</time></trkpt><trkpt lat="45.696027013532486" lon="9.763302293418086"><ele>257.6666666666667</ele><time>2026-04-30T13:29:43Z</time></trkpt><trkpt lat="45.69609282412706" lon="9.76324822035147"><ele>258.0</ele><time>2026-04-30T13:29:45Z</time></trkpt><trkpt lat="45.69617359572886" lon="9.763234473898134"><ele>257.99999999999994</ele><time>2026-04-30T13:29:48Z</time></trkpt><trkpt lat="45.69623602765762" lon="9.763174079550833"><ele>258.0</ele><time>2026-04-30T13:29:50Z</time></trkpt><trkpt lat="45.69629296017006" lon="9.763124331819734"><ele>258.0</ele><time>2026-04-30T13:29:51Z</time></trkpt><trkpt lat="45.69635541997088" lon="9.76309818464439"><ele>258.0</ele><time>2026-04-30T13:29:52Z</time></trkpt><trkpt lat="45.69642064961112" lon="9.763075551207878"><ele>258.0</ele><time>2026-04-30T13:29:53Z</time></trkpt><trkpt lat="45.696484500214765" lon="9.76304789637913"><ele>257.99999999999994</ele><time>2026-04-30T13:29:54Z</time></trkpt><trkpt lat="45.69654665095571" lon="9.763017731093708"><ele>258.0</ele><time>2026-04-30T13:29:55Z</time></trkpt><trkpt lat="45.69666958574796" lon="9.762975432298791"><ele>257.99999999999994</ele><time>2026-04-30T13:29:57Z</time></trkpt><trkpt lat="45.696732748826776" lon="9.762954854664928"><ele>258.0</ele><time>2026-04-30T13:29:58Z</time></trkpt><trkpt lat="45.696796931005146" lon="9.76293649214731"><ele>258.0</ele><time>2026-04-30T13:29:59Z</time></trkpt><trkpt lat="45.69685866512648" lon="9.762913131678419"><ele>258.0</ele><time>2026-04-30T13:30:00Z</time></trkpt><trkpt lat="45.69692096625385" lon="9.762890790055776"><ele>258.0</ele><time>2026-04-30T13:30:01Z</time></trkpt><trkpt lat="45.69698286639192" lon="9.76286611497541"><ele>257.99999999999994</ele><time>2026-04-30T13:30:02Z</time></trkpt><trkpt lat="45.69704559992988" lon="9.762843119264279"><ele>258.0</ele><time>2026-04-30T13:30:03Z</time></trkpt><trkpt lat="45.69710811786838" lon="9.762820927198641"><ele>257.99999999999994</ele><time>2026-04-30T13:30:04Z</time></trkpt><trkpt lat="45.69717060085839" lon="9.76279790203376"><ele>258.0</ele><time>2026-04-30T13:30:05Z</time></trkpt><trkpt lat="45.69723252629868" lon="9.762774995359083"><ele>258.0</ele><time>2026-04-30T13:30:06Z</time></trkpt><trkpt lat="45.69729762874027" lon="9.762751431726983"><ele>258.0</ele><time>2026-04-30T13:30:07Z</time></trkpt><trkpt lat="45.69735957225655" lon="9.762723948787164"><ele>258.0</ele><time>2026-04-30T13:30:08Z</time></trkpt><trkpt lat="45.697421022442825" lon="9.76269733684912"><ele>257.99999999999994</ele><time>2026-04-30T13:30:09Z</time></trkpt><trkpt lat="45.69748423417161" lon="9.762674571069036"><ele>258.0</ele><time>2026-04-30T13:30:10Z</time></trkpt><trkpt lat="45.697546384513764" lon="9.762654995052632"><ele>258.1428571428571</ele><time>2026-04-30T13:30:11Z</time></trkpt><trkpt lat="45.69760986150286" lon="9.762632696621035"><ele>258.2857142857143</ele><time>2026-04-30T13:30:12Z</time></trkpt><trkpt lat="45.69767202330011" lon="9.762606218275847"><ele>258.42857142857144</ele><time>2026-04-30T13:30:13Z</time></trkpt><trkpt lat="45.697734285893944" lon="9.762582986615838"><ele>258.57142857142856</ele><time>2026-04-30T13:30:14Z</time></trkpt><trkpt lat="45.69779647884827" lon="9.762557908141996"><ele>258.7142857142857</ele><time>2026-04-30T13:30:15Z</time></trkpt><trkpt lat="45.69785844197919" lon="9.762529307432574"><ele>258.85714285714283</ele><time>2026-04-30T13:30:16Z</time></trkpt><trkpt lat="45.697919881746195" lon="9.762504873180907"><ele>259.0</ele><time>2026-04-30T13:30:17Z</time></trkpt><trkpt lat="45.697981517444575" lon="9.762479908976958"><ele>259.3333333333333</ele><time>2026-04-30T13:30:18Z</time></trkpt><trkpt lat="45.69804370045886" lon="9.762452892650126"><ele>259.66666666666663</ele><time>2026-04-30T13:30:19Z</time></trkpt><trkpt lat="45.698105529991956" lon="9.762428643985599"><ele>260.0</ele><time>2026-04-30T13:30:20Z</time></trkpt><trkpt lat="45.69816790743639" lon="9.762410615225647"><ele>260.3333333333333</ele><time>2026-04-30T13:30:21Z</time></trkpt><trkpt lat="45.69828941216427" lon="9.762363969608694"><ele>260.6666666666667</ele><time>2026-04-30T13:30:23Z</time></trkpt><trkpt lat="45.69835251300603" lon="9.76233379421634"><ele>261.0</ele><time>2026-04-30T13:30:24Z</time></trkpt><trkpt lat="45.69841825909618" lon="9.762317822044556"><ele>261.0</ele><time>2026-04-30T13:30:25Z</time></trkpt><trkpt lat="45.69854300975436" lon="9.762271377634972"><ele>261.0</ele><time>2026-04-30T13:30:27Z</time></trkpt><trkpt lat="45.69860534506715" lon="9.762245340371575"><ele>261.0</ele><time>2026-04-30T13:30:28Z</time></trkpt><trkpt lat="45.69866691735176" lon="9.762221361804356"><ele>261.0</ele><time>2026-04-30T13:30:29Z</time></trkpt><trkpt lat="45.69872891748092" lon="9.762193496095984"><ele>261.0</ele><time>2026-04-30T13:30:30Z</time></trkpt><trkpt lat="45.69879222472244" lon="9.762170412629187"><ele>261.0</ele><time>2026-04-30T13:30:31Z</time></trkpt><trkpt lat="45.69885453967186" lon="9.762143390313389"><ele>260.6666666666667</ele><time>2026-04-30T13:30:32Z</time></trkpt><trkpt lat="45.69891644491356" lon="9.762121790706034"><ele>260.3333333333333</ele><time>2026-04-30T13:30:33Z</time></trkpt><trkpt lat="45.69897905233031" lon="9.76209481831668"><ele>260.0</ele><time>2026-04-30T13:30:34Z</time></trkpt><trkpt lat="45.69904034756164" lon="9.762071790421086"><ele>259.66666666666663</ele><time>2026-04-30T13:30:35Z</time></trkpt><trkpt lat="45.69910154519593" lon="9.762039682404199"><ele>259.3333333333333</ele><time>2026-04-30T13:30:36Z</time></trkpt><trkpt lat="45.69922583864833" lon="9.761999090551962"><ele>259.0</ele><time>2026-04-30T13:30:38Z</time></trkpt><trkpt lat="45.69934818156604" lon="9.761950838012334"><ele>258.8</ele><time>2026-04-30T13:30:40Z</time></trkpt><trkpt lat="45.69946941744069" lon="9.761901996954078"><ele>258.59999999999997</ele><time>2026-04-30T13:30:42Z</time></trkpt><trkpt lat="45.69953135822428" lon="9.761876649986505"><ele>258.4</ele><time>2026-04-30T13:30:43Z</time></trkpt><trkpt lat="45.69959396021258" lon="9.761852437293095"><ele>258.2</ele><time>2026-04-30T13:30:44Z</time></trkpt><trkpt lat="45.69972473321338" lon="9.76181314026626"><ele>258.0</ele><time>2026-04-30T13:30:46Z</time></trkpt><trkpt lat="45.69984404806388" lon="9.761758929608895"><ele>258.2857142857143</ele><time>2026-04-30T13:30:48Z</time></trkpt><trkpt lat="45.69990833114302" lon="9.761735724851013"><ele>258.57142857142856</ele><time>2026-04-30T13:30:49Z</time></trkpt><trkpt lat="45.69996815164629" lon="9.761706146576634"><ele>258.8571428571429</ele><time>2026-04-30T13:30:50Z</time></trkpt><trkpt lat="45.700033690949795" lon="9.761677201772248"><ele>259.1428571428571</ele><time>2026-04-30T13:30:51Z</time></trkpt><trkpt lat="45.700097060169405" lon="9.761665514051094"><ele>259.42857142857144</ele><time>2026-04-30T13:30:52Z</time></trkpt><trkpt lat="45.70015991551465" lon="9.761635730425125"><ele>259.7142857142857</ele><time>2026-04-30T13:30:53Z</time></trkpt><trkpt lat="45.70022232923481" lon="9.761608046225161"><ele>260.0</ele><time>2026-04-30T13:30:54Z</time></trkpt><trkpt lat="45.70028437302758" lon="9.761588703208394"><ele>260.0</ele><time>2026-04-30T13:30:55Z</time></trkpt><trkpt lat="45.70040627792357" lon="9.76153804979054"><ele>260.0</ele><time>2026-04-30T13:30:57Z</time></trkpt><trkpt lat="45.70046891289004" lon="9.761513871435149"><ele>260.0</ele><time>2026-04-30T13:30:58Z</time></trkpt><trkpt lat="45.70059145764968" lon="9.761468579810112"><ele>260.0</ele><time>2026-04-30T13:31:00Z</time></trkpt><trkpt lat="45.700651225855" lon="9.761437846482261"><ele>260.0</ele><time>2026-04-30T13:31:01Z</time></trkpt><trkpt lat="45.70071736035125" lon="9.761413710525883"><ele>260.0</ele><time>2026-04-30T13:31:02Z</time></trkpt><trkpt lat="45.700835199703356" lon="9.761365193694933"><ele>260.0</ele><time>2026-04-30T13:31:04Z</time></trkpt><trkpt lat="45.700900716410025" lon="9.761345020555488"><ele>260.0</ele><time>2026-04-30T13:31:05Z</time></trkpt><trkpt lat="45.700960910279235" lon="9.7613143208521"><ele>260.0</ele><time>2026-04-30T13:31:06Z</time></trkpt><trkpt lat="45.7010221920849" lon="9.76129184860674"><ele>260.0</ele><time>2026-04-30T13:31:07Z</time></trkpt><trkpt lat="45.70108435970783" lon="9.761262745938327"><ele>260.0</ele><time>2026-04-30T13:31:08Z</time></trkpt><trkpt lat="45.701201211673855" lon="9.761220998344802"><ele>260.2</ele><time>2026-04-30T13:31:10Z</time></trkpt><trkpt lat="45.70131407731951" lon="9.761173707936427"><ele>260.4</ele><time>2026-04-30T13:31:12Z</time></trkpt><trkpt lat="45.701417696901984" lon="9.761132218129998"><ele>260.6</ele><time>2026-04-30T13:31:14Z</time></trkpt><trkpt lat="45.70151708117719" lon="9.761092593949877"><ele>260.8</ele><time>2026-04-30T13:31:16Z</time></trkpt><trkpt lat="45.70163457739949" lon="9.761055347886579"><ele>261.0</ele><time>2026-04-30T13:31:18Z</time></trkpt><trkpt lat="45.70169829037979" lon="9.761024458841604"><ele>261.14285714285717</ele><time>2026-04-30T13:31:19Z</time></trkpt><trkpt lat="45.70176073740427" lon="9.760999218054096"><ele>261.2857142857143</ele><time>2026-04-30T13:31:20Z</time></trkpt><trkpt lat="45.70188358174266" lon="9.760957341143873"><ele>261.42857142857144</ele><time>2026-04-30T13:31:22Z</time></trkpt><trkpt lat="45.70194650641951" lon="9.760931694643544"><ele>261.57142857142856</ele><time>2026-04-30T13:31:23Z</time></trkpt><trkpt lat="45.70200865615648" lon="9.760911372560125"><ele>261.7142857142857</ele><time>2026-04-30T13:31:24Z</time></trkpt><trkpt lat="45.70207158963203" lon="9.760889470882292"><ele>261.8571428571429</ele><time>2026-04-30T13:31:25Z</time></trkpt><trkpt lat="45.702133779149236" lon="9.76087223739258"><ele>262.0</ele><time>2026-04-30T13:31:26Z</time></trkpt><trkpt lat="45.70219678010988" lon="9.760856113075018"><ele>262.0</ele><time>2026-04-30T13:31:27Z</time></trkpt><trkpt lat="45.70226289011611" lon="9.760842802100022"><ele>262.0</ele><time>2026-04-30T13:31:28Z</time></trkpt><trkpt lat="45.70238895052836" lon="9.760833989339101"><ele>262.0</ele><time>2026-04-30T13:31:30Z</time></trkpt><trkpt lat="45.70245210735195" lon="9.76084106011904"><ele>262.0</ele><time>2026-04-30T13:31:31Z</time></trkpt><trkpt lat="45.70257579475014" lon="9.760833824780523"><ele>262.0</ele><time>2026-04-30T13:31:33Z</time></trkpt><trkpt lat="45.702697414226975" lon="9.760816991714561"><ele>261.8</ele><time>2026-04-30T13:31:35Z</time></trkpt><trkpt lat="45.702822173463176" lon="9.760806814436544"><ele>261.6</ele><time>2026-04-30T13:31:37Z</time></trkpt><trkpt lat="45.702942029336114" lon="9.760803553242845"><ele>261.40000000000003</ele><time>2026-04-30T13:31:39Z</time></trkpt><trkpt lat="45.70306548119548" lon="9.760788629664441"><ele>261.2</ele><time>2026-04-30T13:31:41Z</time></trkpt><trkpt lat="45.70312948270702" lon="9.76078233960389"><ele>261.0</ele><time>2026-04-30T13:31:42Z</time></trkpt><trkpt lat="45.70319313014231" lon="9.760775691687323"><ele>261.0</ele><time>2026-04-30T13:31:43Z</time></trkpt><trkpt lat="45.703317980511194" lon="9.76076371977032"><ele>261.0</ele><time>2026-04-30T13:31:45Z</time></trkpt><trkpt lat="45.70344544211434" lon="9.76075373523167"><ele>261.0</ele><time>2026-04-30T13:31:47Z</time></trkpt><trkpt lat="45.70356509298839" lon="9.760743363982067"><ele>261.0</ele><time>2026-04-30T13:31:49Z</time></trkpt><trkpt lat="45.70367733874887" lon="9.760728298093145"><ele>262.2</ele><time>2026-04-30T13:31:51Z</time></trkpt><trkpt lat="45.70378643464107" lon="9.760720120834481"><ele>263.40000000000003</ele><time>2026-04-30T13:31:53Z</time></trkpt><trkpt lat="45.703897152241815" lon="9.760707343892618"><ele>264.6</ele><time>2026-04-30T13:31:55Z</time></trkpt><trkpt lat="45.70400847535063" lon="9.760697410580375"><ele>265.8</ele><time>2026-04-30T13:31:57Z</time></trkpt><trkpt lat="45.704117215977234" lon="9.760692744349553"><ele>267.0</ele><time>2026-04-30T13:31:59Z</time></trkpt><trkpt lat="45.70423735196152" lon="9.760683402183103"><ele>267.0</ele><time>2026-04-30T13:32:01Z</time></trkpt><trkpt lat="45.704301792482234" lon="9.76067716653515"><ele>267.0</ele><time>2026-04-30T13:32:02Z</time></trkpt><trkpt lat="45.70442324706557" lon="9.760665209362228"><ele>267.0</ele><time>2026-04-30T13:32:04Z</time></trkpt><trkpt lat="45.7045474981924" lon="9.760651388067046"><ele>267.0</ele><time>2026-04-30T13:32:06Z</time></trkpt><trkpt lat="45.704672028105875" lon="9.760634337330082"><ele>267.0</ele><time>2026-04-30T13:32:08Z</time></trkpt><trkpt lat="45.70479389800074" lon="9.760621638312712"><ele>267.2</ele><time>2026-04-30T13:32:10Z</time></trkpt><trkpt lat="45.70491923248527" lon="9.760614258773128"><ele>267.4</ele><time>2026-04-30T13:32:12Z</time></trkpt><trkpt lat="45.70503488574293" lon="9.760607021853684"><ele>267.6</ele><time>2026-04-30T13:32:14Z</time></trkpt><trkpt lat="45.705130512507424" lon="9.760580919050083"><ele>267.8</ele><time>2026-04-30T13:32:16Z</time></trkpt><trkpt lat="45.705199942494716" lon="9.760517072564625"><ele>268.0</ele><time>2026-04-30T13:32:18Z</time></trkpt><trkpt lat="45.70527394668329" lon="9.760493358373514"><ele>268.3333333333333</ele><time>2026-04-30T13:32:22Z</time></trkpt><trkpt lat="45.70535142503659" lon="9.760474897241421"><ele>268.66666666666663</ele><time>2026-04-30T13:32:24Z</time></trkpt><trkpt lat="45.705463408882245" lon="9.760453184453127"><ele>269.0</ele><time>2026-04-30T13:32:26Z</time></trkpt><trkpt lat="45.70552895635017" lon="9.760444119425413"><ele>269.3333333333333</ele><time>2026-04-30T13:32:27Z</time></trkpt><trkpt lat="45.705592480391154" lon="9.76043255142681"><ele>269.6666666666667</ele><time>2026-04-30T13:32:28Z</time></trkpt><trkpt lat="45.705655475278334" lon="9.760421461164352"><ele>270.0</ele><time>2026-04-30T13:32:29Z</time></trkpt><trkpt lat="45.70578027196169" lon="9.760413014940402"><ele>270.0</ele><time>2026-04-30T13:32:31Z</time></trkpt><trkpt lat="45.70590391923764" lon="9.760420080419925"><ele>270.0</ele><time>2026-04-30T13:32:33Z</time></trkpt><trkpt lat="45.70602756467532" lon="9.760428467891893"><ele>270.0</ele><time>2026-04-30T13:32:35Z</time></trkpt><trkpt lat="45.706146136449306" lon="9.760443679813134"><ele>270.0</ele><time>2026-04-30T13:32:37Z</time></trkpt><trkpt lat="45.70620919757943" lon="9.760446864778398"><ele>270.0</ele><time>2026-04-30T13:32:38Z</time></trkpt><trkpt lat="45.706332991011244" lon="9.760468053857563"><ele>270.4</ele><time>2026-04-30T13:32:40Z</time></trkpt><trkpt lat="45.706454785361515" lon="9.760479212077849"><ele>270.8</ele><time>2026-04-30T13:32:42Z</time></trkpt><trkpt lat="45.70657679046833" lon="9.760486551754871"><ele>271.2</ele><time>2026-04-30T13:32:44Z</time></trkpt><trkpt lat="45.706701204601075" lon="9.760496141505357"><ele>271.6</ele><time>2026-04-30T13:32:46Z</time></trkpt><trkpt lat="45.706764405573246" lon="9.760492017884095"><ele>272.0</ele><time>2026-04-30T13:32:47Z</time></trkpt><trkpt lat="45.70688786676964" lon="9.760466728310195"><ele>272.2</ele><time>2026-04-30T13:32:49Z</time></trkpt><trkpt lat="45.706949272228805" lon="9.760444086266043"><ele>272.4</ele><time>2026-04-30T13:32:50Z</time></trkpt><trkpt lat="45.7070679017837" lon="9.760393420805899"><ele>272.6</ele><time>2026-04-30T13:32:52Z</time></trkpt><trkpt lat="45.70719172277557" lon="9.760352848373941"><ele>272.8</ele><time>2026-04-30T13:32:54Z</time></trkpt><trkpt lat="45.70731524877057" lon="9.760328078121418"><ele>273.0</ele><time>2026-04-30T13:32:56Z</time></trkpt><trkpt lat="45.70738102097696" lon="9.760327548367844"><ele>273.0</ele><time>2026-04-30T13:32:57Z</time></trkpt><trkpt lat="45.707505135626064" lon="9.760300964827463"><ele>273.0</ele><time>2026-04-30T13:32:59Z</time></trkpt><trkpt lat="45.707570333942876" lon="9.760293378384828"><ele>273.0</ele><time>2026-04-30T13:33:00Z</time></trkpt><trkpt lat="45.70763650311185" lon="9.760274052279003"><ele>273.0</ele><time>2026-04-30T13:33:01Z</time></trkpt><trkpt lat="45.70770267256688" lon="9.760255932893127"><ele>273.0</ele><time>2026-04-30T13:33:02Z</time></trkpt><trkpt lat="45.70777256017227" lon="9.76023241079502"><ele>273.0</ele><time>2026-04-30T13:33:03Z</time></trkpt><trkpt lat="45.70784140760049" lon="9.76020959018331"><ele>272.5</ele><time>2026-04-30T13:33:04Z</time></trkpt><trkpt lat="45.70791173697802" lon="9.760188246954868"><ele>272.0</ele><time>2026-04-30T13:33:05Z</time></trkpt><trkpt lat="45.70798264699701" lon="9.760164499137677"><ele>271.5</ele><time>2026-04-30T13:33:06Z</time></trkpt><trkpt lat="45.70804893224642" lon="9.760144839375602"><ele>271.0</ele><time>2026-04-30T13:33:07Z</time></trkpt><trkpt lat="45.70814763534269" lon="9.760144945417519"><ele>270.5</ele><time>2026-04-30T13:33:09Z</time></trkpt><trkpt lat="45.70819770246296" lon="9.760266475442892"><ele>270.0</ele><time>2026-04-30T13:33:11Z</time></trkpt><trkpt lat="45.70820220861107" lon="9.760359981281933"><ele>270.0</ele><time>2026-04-30T13:33:12Z</time></trkpt><trkpt lat="45.70821572690057" lon="9.760459336443072"><ele>270.0</ele><time>2026-04-30T13:33:13Z</time></trkpt><trkpt lat="45.70823306432743" lon="9.760554520118204"><ele>270.0</ele><time>2026-04-30T13:33:14Z</time></trkpt><trkpt lat="45.70824961852463" lon="9.760649253509884"><ele>270.0</ele><time>2026-04-30T13:33:15Z</time></trkpt><trkpt lat="45.70826480927455" lon="9.76074258543994"><ele>270.0</ele><time>2026-04-30T13:33:16Z</time></trkpt><trkpt lat="45.708281422637796" lon="9.760838072783091"><ele>270.0</ele><time>2026-04-30T13:33:17Z</time></trkpt><trkpt lat="45.70829634382855" lon="9.760931426427241"><ele>270.0</ele><time>2026-04-30T13:33:18Z</time></trkpt><trkpt lat="45.70831178817147" lon="9.761023698338867"><ele>270.0</ele><time>2026-04-30T13:33:19Z</time></trkpt><trkpt lat="45.708330621818575" lon="9.761116062192"><ele>270.0</ele><time>2026-04-30T13:33:20Z</time></trkpt><trkpt lat="45.708347609440175" lon="9.76120901857094"><ele>270.0</ele><time>2026-04-30T13:33:21Z</time></trkpt><trkpt lat="45.708362275873874" lon="9.76130082098324"><ele>270.0</ele><time>2026-04-30T13:33:22Z</time></trkpt><trkpt lat="45.708372984674035" lon="9.761394296239754"><ele>270.0</ele><time>2026-04-30T13:33:23Z</time></trkpt><trkpt lat="45.70840963799381" lon="9.761570201350098"><ele>270.0</ele><time>2026-04-30T13:33:25Z</time></trkpt><trkpt lat="45.70843511378466" lon="9.761744823110483"><ele>270.0</ele><time>2026-04-30T13:33:27Z</time></trkpt><trkpt lat="45.708454213865046" lon="9.761835844071284"><ele>270.0</ele><time>2026-04-30T13:33:28Z</time></trkpt><trkpt lat="45.70847126632592" lon="9.761925300161462"><ele>270.0</ele><time>2026-04-30T13:33:29Z</time></trkpt><trkpt lat="45.708485141513066" lon="9.762017720576893"><ele>270.0</ele><time>2026-04-30T13:33:30Z</time></trkpt><trkpt lat="45.70849848651471" lon="9.762109422847667"><ele>270.0</ele><time>2026-04-30T13:33:31Z</time></trkpt><trkpt lat="45.70851340833021" lon="9.762201875554435"><ele>270.0</ele><time>2026-04-30T13:33:32Z</time></trkpt><trkpt lat="45.708527540548964" lon="9.762291161284653"><ele>270.0</ele><time>2026-04-30T13:33:33Z</time></trkpt><trkpt lat="45.70854991051415" lon="9.76237729126381"><ele>269.8333333333333</ele><time>2026-04-30T13:33:34Z</time></trkpt><trkpt lat="45.708572655032455" lon="9.762462038193322"><ele>269.6666666666667</ele><time>2026-04-30T13:33:35Z</time></trkpt><trkpt lat="45.70859992028208" lon="9.762544792594275"><ele>269.5</ele><time>2026-04-30T13:33:36Z</time></trkpt><trkpt lat="45.7086056924065" lon="9.762710979202906"><ele>269.33333333333337</ele><time>2026-04-30T13:33:38Z</time></trkpt><trkpt lat="45.7085091325712" lon="9.762830473953873"><ele>269.1666666666667</ele><time>2026-04-30T13:33:40Z</time></trkpt><trkpt lat="45.70845833244843" lon="9.762893799500734"><ele>269.0</ele><time>2026-04-30T13:33:41Z</time></trkpt><trkpt lat="45.708409606981625" lon="9.762956779007801"><ele>269.0</ele><time>2026-04-30T13:33:42Z</time></trkpt><trkpt lat="45.708360880362555" lon="9.763017620019314"><ele>269.0</ele><time>2026-04-30T13:33:43Z</time></trkpt><trkpt lat="45.70831298726304" lon="9.76307726284222"><ele>269.0</ele><time>2026-04-30T13:33:44Z</time></trkpt><trkpt lat="45.70826589331956" lon="9.763140580382291"><ele>269.0</ele><time>2026-04-30T13:33:45Z</time></trkpt><trkpt lat="45.70822247519011" lon="9.763206992271975"><ele>269.0</ele><time>2026-04-30T13:33:46Z</time></trkpt><trkpt lat="45.7081374264487" lon="9.763341419765876"><ele>269.0</ele><time>2026-04-30T13:33:48Z</time></trkpt><trkpt lat="45.708102319908164" lon="9.763418376610579"><ele>269.0</ele><time>2026-04-30T13:33:49Z</time></trkpt><trkpt lat="45.70807260349664" lon="9.763501910546502"><ele>270.6666666666667</ele><time>2026-04-30T13:33:50Z</time></trkpt><trkpt lat="45.70805834471036" lon="9.76359360554537"><ele>272.33333333333337</ele><time>2026-04-30T13:33:51Z</time></trkpt><trkpt lat="45.70805594557036" lon="9.76368703334591"><ele>274.0</ele><time>2026-04-30T13:33:52Z</time></trkpt><trkpt lat="45.70806046109074" lon="9.76377755730775"><ele>275.6666666666667</ele><time>2026-04-30T13:33:53Z</time></trkpt><trkpt lat="45.708066134860964" lon="9.763953518482499"><ele>277.3333333333333</ele><time>2026-04-30T13:33:55Z</time></trkpt><trkpt lat="45.70806468914328" lon="9.764123527294169"><ele>279.0</ele><time>2026-04-30T13:33:57Z</time></trkpt><trkpt lat="45.7080630895922" lon="9.764298323388097"><ele>279.0</ele><time>2026-04-30T13:33:59Z</time></trkpt><trkpt lat="45.708065935971334" lon="9.764475715848603"><ele>279.0</ele><time>2026-04-30T13:34:01Z</time></trkpt><trkpt lat="45.708072582817806" lon="9.764650617434341"><ele>279.0</ele><time>2026-04-30T13:34:03Z</time></trkpt><trkpt lat="45.7080956318949" lon="9.764822148387204"><ele>279.0</ele><time>2026-04-30T13:34:05Z</time></trkpt><trkpt lat="45.708133024284685" lon="9.764988185429484"><ele>279.0</ele><time>2026-04-30T13:34:07Z</time></trkpt><trkpt lat="45.70817630812384" lon="9.76515212309429"><ele>279.0</ele><time>2026-04-30T13:34:09Z</time></trkpt><trkpt lat="45.70822694441325" lon="9.765309655096761"><ele>279.0</ele><time>2026-04-30T13:34:11Z</time></trkpt><trkpt lat="45.70825657697742" lon="9.765456442437527"><ele>279.0</ele><time>2026-04-30T13:34:13Z</time></trkpt><trkpt lat="45.70829672592969" lon="9.765539593460268"><ele>279.0</ele><time>2026-04-30T13:34:14Z</time></trkpt><trkpt lat="45.708356707848594" lon="9.765680727963359"><ele>279.0</ele><time>2026-04-30T13:34:16Z</time></trkpt><trkpt lat="45.70839449889989" lon="9.765758356204232"><ele>279.0</ele><time>2026-04-30T13:34:17Z</time></trkpt><trkpt lat="45.70845365786105" lon="9.76590641160066"><ele>279.0</ele><time>2026-04-30T13:34:19Z</time></trkpt><trkpt lat="45.70848970250324" lon="9.765990153309904"><ele>279.0</ele><time>2026-04-30T13:34:20Z</time></trkpt><trkpt lat="45.708546406815834" lon="9.766145161224825"><ele>279.0</ele><time>2026-04-30T13:34:22Z</time></trkpt><trkpt lat="45.70860247714603" lon="9.766308457330078"><ele>279.0</ele><time>2026-04-30T13:34:24Z</time></trkpt><trkpt lat="45.708638213699906" lon="9.766469151853162"><ele>279.0</ele><time>2026-04-30T13:34:26Z</time></trkpt><trkpt lat="45.708662400384846" lon="9.766638428837862"><ele>279.0</ele><time>2026-04-30T13:34:28Z</time></trkpt><trkpt lat="45.70867787858894" lon="9.766727876808714"><ele>279.0</ele><time>2026-04-30T13:34:29Z</time></trkpt><trkpt lat="45.70869869382263" lon="9.76689378477412"><ele>279.0</ele><time>2026-04-30T13:34:31Z</time></trkpt><trkpt lat="45.70872620280056" lon="9.767055477206757"><ele>278.8</ele><time>2026-04-30T13:34:33Z</time></trkpt><trkpt lat="45.708742530511444" lon="9.767203836461057"><ele>278.59999999999997</ele><time>2026-04-30T13:34:35Z</time></trkpt><trkpt lat="45.708768556711206" lon="9.767353613428112"><ele>278.4</ele><time>2026-04-30T13:34:37Z</time></trkpt><trkpt lat="45.70879060064352" lon="9.767513166530312"><ele>278.2</ele><time>2026-04-30T13:34:39Z</time></trkpt><trkpt lat="45.70881264299104" lon="9.767679374143004"><ele>278.0</ele><time>2026-04-30T13:34:41Z</time></trkpt><trkpt lat="45.70880226655767" lon="9.767856400887387"><ele>277.8</ele><time>2026-04-30T13:34:43Z</time></trkpt><trkpt lat="45.708742212278295" lon="9.768017030271723"><ele>277.6</ele><time>2026-04-30T13:34:45Z</time></trkpt><trkpt lat="45.70867179719241" lon="9.768163003676271"><ele>277.4</ele><time>2026-04-30T13:34:47Z</time></trkpt><trkpt lat="45.708610292626155" lon="9.76830166619942"><ele>277.2</ele><time>2026-04-30T13:34:49Z</time></trkpt><trkpt lat="45.7085924696595" lon="9.76840297101202"><ele>277.0</ele><time>2026-04-30T13:34:50Z</time></trkpt><trkpt lat="45.708564030290546" lon="9.768489857104559"><ele>276.1428571428571</ele><time>2026-04-30T13:34:51Z</time></trkpt><trkpt lat="45.70854967749756" lon="9.768582028194038"><ele>275.2857142857143</ele><time>2026-04-30T13:34:52Z</time></trkpt><trkpt lat="45.70853941035229" lon="9.76867926277944"><ele>274.42857142857144</ele><time>2026-04-30T13:34:53Z</time></trkpt><trkpt lat="45.70852529477222" lon="9.76878620772643"><ele>273.57142857142856</ele><time>2026-04-30T13:34:54Z</time></trkpt><trkpt lat="45.70851109004505" lon="9.768891300586947"><ele>272.7142857142857</ele><time>2026-04-30T13:34:55Z</time></trkpt><trkpt lat="45.70850034338728" lon="9.768999843355536"><ele>271.85714285714283</ele><time>2026-04-30T13:34:56Z</time></trkpt><trkpt lat="45.708493389733334" lon="9.769111396186151"><ele>271.0</ele><time>2026-04-30T13:34:57Z</time></trkpt><trkpt lat="45.708490325067544" lon="9.76922179526549"><ele>271.0</ele><time>2026-04-30T13:34:58Z</time></trkpt><trkpt lat="45.70848539335442" lon="9.769337861638933"><ele>271.0</ele><time>2026-04-30T13:34:59Z</time></trkpt><trkpt lat="45.70848719782876" lon="9.769450974799819"><ele>271.0</ele><time>2026-04-30T13:35:00Z</time></trkpt><trkpt lat="45.708490065184435" lon="9.76956786810477"><ele>271.0</ele><time>2026-04-30T13:35:01Z</time></trkpt><trkpt lat="45.70849795526039" lon="9.769681353235187"><ele>271.0</ele><time>2026-04-30T13:35:02Z</time></trkpt><trkpt lat="45.70850683008991" lon="9.769793067306004"><ele>271.0</ele><time>2026-04-30T13:35:03Z</time></trkpt><trkpt lat="45.70851812794789" lon="9.769910942100152"><ele>271.0</ele><time>2026-04-30T13:35:04Z</time></trkpt><trkpt lat="45.70853395255634" lon="9.770017710835608"><ele>271.0</ele><time>2026-04-30T13:35:05Z</time></trkpt><trkpt lat="45.708552905710704" lon="9.770128319571462"><ele>271.0</ele><time>2026-04-30T13:35:06Z</time></trkpt><trkpt lat="45.708569367819315" lon="9.770228406645511"><ele>271.0</ele><time>2026-04-30T13:35:07Z</time></trkpt><trkpt lat="45.70858472003171" lon="9.770335576273501"><ele>271.0</ele><time>2026-04-30T13:35:08Z</time></trkpt><trkpt lat="45.70859584135885" lon="9.770441057014967"><ele>271.0</ele><time>2026-04-30T13:35:09Z</time></trkpt><trkpt lat="45.70860674907673" lon="9.770543253495232"><ele>270.7142857142857</ele><time>2026-04-30T13:35:10Z</time></trkpt><trkpt lat="45.70862084021578" lon="9.770641409905947"><ele>270.42857142857144</ele><time>2026-04-30T13:35:11Z</time></trkpt><trkpt lat="45.70862788642639" lon="9.77074465592117"><ele>270.14285714285717</ele><time>2026-04-30T13:35:12Z</time></trkpt><trkpt lat="45.70863527283676" lon="9.77084658410362"><ele>269.8571428571429</ele><time>2026-04-30T13:35:13Z</time></trkpt><trkpt lat="45.70864094603738" lon="9.770944879105569"><ele>269.5714285714286</ele><time>2026-04-30T13:35:14Z</time></trkpt><trkpt lat="45.70864956731645" lon="9.771041943232275"><ele>269.2857142857143</ele><time>2026-04-30T13:35:15Z</time></trkpt><trkpt lat="45.70866495939216" lon="9.771135773746174"><ele>269.0</ele><time>2026-04-30T13:35:16Z</time></trkpt><trkpt lat="45.70867540426317" lon="9.771229521127479"><ele>269.0</ele><time>2026-04-30T13:35:17Z</time></trkpt><trkpt lat="45.70868341058439" lon="9.77132643788402"><ele>269.0</ele><time>2026-04-30T13:35:18Z</time></trkpt><trkpt lat="45.708688362251465" lon="9.771420519483467"><ele>269.0</ele><time>2026-04-30T13:35:19Z</time></trkpt><trkpt lat="45.70869697026157" lon="9.771514160458091"><ele>269.0</ele><time>2026-04-30T13:35:20Z</time></trkpt><trkpt lat="45.70870311999416" lon="9.771606211026981"><ele>269.0</ele><time>2026-04-30T13:35:21Z</time></trkpt><trkpt lat="45.708707885797764" lon="9.771699798204523"><ele>269.0</ele><time>2026-04-30T13:35:22Z</time></trkpt><trkpt lat="45.708712922950824" lon="9.771792116363946"><ele>269.0</ele><time>2026-04-30T13:35:23Z</time></trkpt><trkpt lat="45.70871524366976" lon="9.77188228898782"><ele>269.59999999999997</ele><time>2026-04-30T13:35:24Z</time></trkpt><trkpt lat="45.70871506129541" lon="9.771973303097194"><ele>270.2</ele><time>2026-04-30T13:35:25Z</time></trkpt><trkpt lat="45.70870938658991" lon="9.772067113385287"><ele>270.79999999999995</ele><time>2026-04-30T13:35:26Z</time></trkpt><trkpt lat="45.70869675301706" lon="9.772238868057512"><ele>271.4</ele><time>2026-04-30T13:35:28Z</time></trkpt><trkpt lat="45.70868853204363" lon="9.772402270987937"><ele>272.0</ele><time>2026-04-30T13:35:30Z</time></trkpt><trkpt lat="45.70869754231988" lon="9.772579802896994"><ele>272.0</ele><time>2026-04-30T13:35:32Z</time></trkpt><trkpt lat="45.70873207790439" lon="9.772657544638584"><ele>272.0</ele><time>2026-04-30T13:35:33Z</time></trkpt><trkpt lat="45.70878765795825" lon="9.772712784397642"><ele>272.0</ele><time>2026-04-30T13:35:34Z</time></trkpt><trkpt lat="45.70885059217509" lon="9.772736226986874"><ele>272.0</ele><time>2026-04-30T13:35:35Z</time></trkpt><trkpt lat="45.70891325603056" lon="9.772745517161969"><ele>272.0</ele><time>2026-04-30T13:35:36Z</time></trkpt><trkpt lat="45.7090355330941" lon="9.772769238752112"><ele>272.0</ele><time>2026-04-30T13:35:38Z</time></trkpt><trkpt lat="45.70915228468379" lon="9.77280771369261"><ele>273.0</ele><time>2026-04-30T13:35:40Z</time></trkpt><trkpt lat="45.7092672421061" lon="9.772850550624579"><ele>274.0</ele><time>2026-04-30T13:35:42Z</time></trkpt><trkpt lat="45.709379038235646" lon="9.77289398844167"><ele>275.0</ele><time>2026-04-30T13:35:44Z</time></trkpt><trkpt lat="45.7094911364848" lon="9.77294090685515"><ele>276.0</ele><time>2026-04-30T13:35:46Z</time></trkpt><trkpt lat="45.70960556678898" lon="9.772982268841028"><ele>278.25</ele><time>2026-04-30T13:35:48Z</time></trkpt><trkpt lat="45.709723823082754" lon="9.77301961598922"><ele>280.5</ele><time>2026-04-30T13:35:50Z</time></trkpt><trkpt lat="45.70984397659238" lon="9.773038945938815"><ele>282.75</ele><time>2026-04-30T13:35:52Z</time></trkpt><trkpt lat="45.709955835442884" lon="9.773071610280322"><ele>285.0</ele><time>2026-04-30T13:35:54Z</time></trkpt><trkpt lat="45.71007537126828" lon="9.773102568791991"><ele>285.0</ele><time>2026-04-30T13:35:56Z</time></trkpt><trkpt lat="45.710189002727624" lon="9.773142373532899"><ele>285.0</ele><time>2026-04-30T13:35:58Z</time></trkpt><trkpt lat="45.71030041712278" lon="9.773188919448959"><ele>285.0</ele><time>2026-04-30T13:36:00Z</time></trkpt><trkpt lat="45.71040926887541" lon="9.773234862223466"><ele>285.0</ele><time>2026-04-30T13:36:02Z</time></trkpt><trkpt lat="45.71051495489715" lon="9.773283530915513"><ele>286.4</ele><time>2026-04-30T13:36:04Z</time></trkpt><trkpt lat="45.710618046510895" lon="9.77333838163419"><ele>287.8</ele><time>2026-04-30T13:36:06Z</time></trkpt><trkpt lat="45.71072745087687" lon="9.773390591225246"><ele>289.2</ele><time>2026-04-30T13:36:08Z</time></trkpt><trkpt lat="45.710832068960116" lon="9.773452720035984"><ele>290.6</ele><time>2026-04-30T13:36:10Z</time></trkpt><trkpt lat="45.7109294262435" lon="9.773515553955589"><ele>292.0</ele><time>2026-04-30T13:36:12Z</time></trkpt><trkpt lat="45.71102601907293" lon="9.773573071007506"><ele>295.4</ele><time>2026-04-30T13:36:14Z</time></trkpt><trkpt lat="45.71112715393266" lon="9.773629245324"><ele>298.79999999999995</ele><time>2026-04-30T13:36:16Z</time></trkpt><trkpt lat="45.71122333734558" lon="9.773693587642864"><ele>302.2</ele><time>2026-04-30T13:36:18Z</time></trkpt><trkpt lat="45.711310761910575" lon="9.773756285576574"><ele>305.59999999999997</ele><time>2026-04-30T13:36:20Z</time></trkpt><trkpt lat="45.71140302886465" lon="9.773800157812248"><ele>309.0</ele><time>2026-04-30T13:36:22Z</time></trkpt><trkpt lat="45.711479933086494" lon="9.773856925692636"><ele>309.00000000000006</ele><time>2026-04-30T13:36:24Z</time></trkpt><trkpt lat="45.71153868503129" lon="9.773929273339167"><ele>309.0</ele><time>2026-04-30T13:36:26Z</time></trkpt><trkpt lat="45.71161690742295" lon="9.773973005876156"><ele>309.0</ele><time>2026-04-30T13:36:28Z</time></trkpt><trkpt lat="45.711680554056706" lon="9.77394398285958"><ele>309.0</ele><time>2026-04-30T13:36:30Z</time></trkpt><trkpt lat="45.71173000741839" lon="9.773877844706844"><ele>309.0</ele><time>2026-04-30T13:36:32Z</time></trkpt><trkpt lat="45.711791780126724" lon="9.773854033629947"><ele>309.00000000000006</ele><time>2026-04-30T13:36:34Z</time></trkpt><trkpt lat="45.71185535559053" lon="9.773920798113693"><ele>309.0</ele><time>2026-04-30T13:36:36Z</time></trkpt><trkpt lat="45.71193135255198" lon="9.773993957962809"><ele>308.8</ele><time>2026-04-30T13:36:38Z</time></trkpt><trkpt lat="45.712007116593725" lon="9.774078698585223"><ele>308.59999999999997</ele><time>2026-04-30T13:36:40Z</time></trkpt><trkpt lat="45.71207403452849" lon="9.774177208150618"><ele>308.4</ele><time>2026-04-30T13:36:42Z</time></trkpt><trkpt lat="45.71212325931757" lon="9.774294359557226"><ele>308.2</ele><time>2026-04-30T13:36:44Z</time></trkpt><trkpt lat="45.71219820422025" lon="9.774384390311921"><ele>308.0</ele><time>2026-04-30T13:36:46Z</time></trkpt><trkpt lat="45.712274180249175" lon="9.774479030690538"><ele>309.6</ele><time>2026-04-30T13:36:48Z</time></trkpt><trkpt lat="45.71236280101148" lon="9.774567271551563"><ele>311.20000000000005</ele><time>2026-04-30T13:36:50Z</time></trkpt><trkpt lat="45.71243668153151" lon="9.774661927202885"><ele>312.8</ele><time>2026-04-30T13:36:52Z</time></trkpt><trkpt lat="45.71251588946131" lon="9.774763814405823"><ele>314.40000000000003</ele><time>2026-04-30T13:36:54Z</time></trkpt><trkpt lat="45.71260454492241" lon="9.774859469732183"><ele>316.0</ele><time>2026-04-30T13:36:56Z</time></trkpt><trkpt lat="45.712688730980865" lon="9.774966054378787"><ele>316.8</ele><time>2026-04-30T13:36:58Z</time></trkpt><trkpt lat="45.71277361203138" lon="9.775067122991569"><ele>317.6</ele><time>2026-04-30T13:37:00Z</time></trkpt><trkpt lat="45.71285629204663" lon="9.775168944208529"><ele>318.4</ele><time>2026-04-30T13:37:02Z</time></trkpt><trkpt lat="45.71294222389572" lon="9.775268576884363"><ele>319.2</ele><time>2026-04-30T13:37:04Z</time></trkpt><trkpt lat="45.713032579860126" lon="9.775361293246233"><ele>320.0</ele><time>2026-04-30T13:37:06Z</time></trkpt><trkpt lat="45.71311518687686" lon="9.77544834819318"><ele>322.2</ele><time>2026-04-30T13:37:08Z</time></trkpt><trkpt lat="45.713196360797006" lon="9.775511742648138"><ele>324.4</ele><time>2026-04-30T13:37:10Z</time></trkpt><trkpt lat="45.713280108343575" lon="9.775533304909814"><ele>326.6</ele><time>2026-04-30T13:37:12Z</time></trkpt><trkpt lat="45.713380006741666" lon="9.775539322464573"><ele>328.8</ele><time>2026-04-30T13:37:14Z</time></trkpt><trkpt lat="45.713488079774905" lon="9.775548136445003"><ele>331.0</ele><time>2026-04-30T13:37:16Z</time></trkpt><trkpt lat="45.71360032273357" lon="9.775563718680093"><ele>333.6</ele><time>2026-04-30T13:37:18Z</time></trkpt><trkpt lat="45.71370865900927" lon="9.775583673343457"><ele>336.20000000000005</ele><time>2026-04-30T13:37:20Z</time></trkpt><trkpt lat="45.71381514528276" lon="9.775601938881906"><ele>338.79999999999995</ele><time>2026-04-30T13:37:22Z</time></trkpt><trkpt lat="45.71392458604169" lon="9.775625089485633"><ele>341.4</ele><time>2026-04-30T13:37:24Z</time></trkpt><trkpt lat="45.714034019028034" lon="9.775639515751486"><ele>344.0</ele><time>2026-04-30T13:37:26Z</time></trkpt><trkpt lat="45.71414261058216" lon="9.775676319868943"><ele>344.0</ele><time>2026-04-30T13:37:28Z</time></trkpt><trkpt lat="45.71423843249033" lon="9.775731956779536"><ele>344.0</ele><time>2026-04-30T13:37:30Z</time></trkpt><trkpt lat="45.71431715873872" lon="9.775720829531565"><ele>344.0</ele><time>2026-04-30T13:37:32Z</time></trkpt><trkpt lat="45.71434100364421" lon="9.775572714766056"><ele>344.0</ele><time>2026-04-30T13:37:34Z</time></trkpt><trkpt lat="45.71437421459214" lon="9.775437010854306"><ele>344.0</ele><time>2026-04-30T13:37:36Z</time></trkpt><trkpt lat="45.71446589008836" lon="9.775397119595382"><ele>343.83333333333337</ele><time>2026-04-30T13:37:38Z</time></trkpt><trkpt lat="45.714544069777254" lon="9.775450056842942"><ele>343.6666666666667</ele><time>2026-04-30T13:37:40Z</time></trkpt><trkpt lat="45.71460669506497" lon="9.775497899739939"><ele>343.5</ele><time>2026-04-30T13:37:42Z</time></trkpt><trkpt lat="45.71466939304146" lon="9.775536036724478"><ele>343.3333333333333</ele><time>2026-04-30T13:37:44Z</time></trkpt><trkpt lat="45.714728308173896" lon="9.775576493807842"><ele>343.16666666666663</ele><time>2026-04-30T13:37:46Z</time></trkpt><trkpt lat="45.7148188067979" lon="9.775593106433545"><ele>343.0</ele><time>2026-04-30T13:37:49Z</time></trkpt><trkpt lat="45.71491408693378" lon="9.775530343677826"><ele>343.0</ele><time>2026-04-30T13:37:51Z</time></trkpt><trkpt lat="45.7150090347297" lon="9.775416831729938"><ele>343.0</ele><time>2026-04-30T13:37:53Z</time></trkpt><trkpt lat="45.71504689752428" lon="9.775334138880531"><ele>343.0</ele><time>2026-04-30T13:37:54Z</time></trkpt><trkpt lat="45.71508417588882" lon="9.775247545134542"><ele>343.0</ele><time>2026-04-30T13:37:55Z</time></trkpt><trkpt lat="45.715105398477476" lon="9.775146199951276"><ele>343.0</ele><time>2026-04-30T13:37:56Z</time></trkpt><trkpt lat="45.715130892092596" lon="9.775039164003468"><ele>343.0</ele><time>2026-04-30T13:37:57Z</time></trkpt><trkpt lat="45.715152366985926" lon="9.774922438048701"><ele>342.8333333333333</ele><time>2026-04-30T13:37:58Z</time></trkpt><trkpt lat="45.715170790245146" lon="9.774798836293975"><ele>342.66666666666663</ele><time>2026-04-30T13:37:59Z</time></trkpt><trkpt lat="45.71519304754934" lon="9.774672295411289"><ele>342.5</ele><time>2026-04-30T13:38:00Z</time></trkpt><trkpt lat="45.71521007157553" lon="9.774541629598302"><ele>342.3333333333333</ele><time>2026-04-30T13:38:01Z</time></trkpt><trkpt lat="45.71520747375353" lon="9.77441183531835"><ele>342.1666666666667</ele><time>2026-04-30T13:38:02Z</time></trkpt><trkpt lat="45.71520377489215" lon="9.774287973394364"><ele>342.0</ele><time>2026-04-30T13:38:03Z</time></trkpt><trkpt lat="45.71519508645515" lon="9.774179707926542"><ele>340.8333333333333</ele><time>2026-04-30T13:38:04Z</time></trkpt><trkpt lat="45.715189704649994" lon="9.774076185283533"><ele>339.6666666666667</ele><time>2026-04-30T13:38:05Z</time></trkpt><trkpt lat="45.71518652289624" lon="9.77398038096612"><ele>338.5</ele><time>2026-04-30T13:38:06Z</time></trkpt><trkpt lat="45.71518357741991" lon="9.77388100555865"><ele>337.33333333333337</ele><time>2026-04-30T13:38:07Z</time></trkpt><trkpt lat="45.71518446397142" lon="9.773790546169412"><ele>336.1666666666667</ele><time>2026-04-30T13:38:08Z</time></trkpt><trkpt lat="45.71519369860313" lon="9.773616245960586"><ele>335.0</ele><time>2026-04-30T13:38:10Z</time></trkpt><trkpt lat="45.71521244589877" lon="9.773515933129957"><ele>334.2857142857143</ele><time>2026-04-30T13:38:11Z</time></trkpt><trkpt lat="45.71522873894451" lon="9.773427334499292"><ele>333.57142857142856</ele><time>2026-04-30T13:38:12Z</time></trkpt><trkpt lat="45.71526259646386" lon="9.773339672171545"><ele>332.8571428571429</ele><time>2026-04-30T13:38:13Z</time></trkpt><trkpt lat="45.71530899591745" lon="9.773268032529076"><ele>332.1428571428571</ele><time>2026-04-30T13:38:14Z</time></trkpt><trkpt lat="45.715357848696605" lon="9.773195808930446"><ele>331.42857142857144</ele><time>2026-04-30T13:38:15Z</time></trkpt><trkpt lat="45.71540761495776" lon="9.773125998848283"><ele>330.7142857142857</ele><time>2026-04-30T13:38:16Z</time></trkpt><trkpt lat="45.715461176448294" lon="9.77305505388274"><ele>330.0</ele><time>2026-04-30T13:38:17Z</time></trkpt><trkpt lat="45.71551533280149" lon="9.77297727276194"><ele>330.0</ele><time>2026-04-30T13:38:18Z</time></trkpt><trkpt lat="45.715582826969616" lon="9.772915217782735"><ele>330.0</ele><time>2026-04-30T13:38:19Z</time></trkpt><trkpt lat="45.715648530134324" lon="9.772817145329705"><ele>330.0</ele><time>2026-04-30T13:38:20Z</time></trkpt><trkpt lat="45.7157155564248" lon="9.772732049913122"><ele>330.0</ele><time>2026-04-30T13:38:21Z</time></trkpt><trkpt lat="45.71579046645234" lon="9.772632818705356"><ele>330.0</ele><time>2026-04-30T13:38:22Z</time></trkpt><trkpt lat="45.71586563817954" lon="9.772528907951372"><ele>330.4</ele><time>2026-04-30T13:38:23Z</time></trkpt><trkpt lat="45.71594441339538" lon="9.772422304953801"><ele>330.8</ele><time>2026-04-30T13:38:24Z</time></trkpt><trkpt lat="45.71602776192013" lon="9.772315180383067"><ele>331.20000000000005</ele><time>2026-04-30T13:38:25Z</time></trkpt><trkpt lat="45.71611312231543" lon="9.772210993336682"><ele>331.6</ele><time>2026-04-30T13:38:26Z</time></trkpt><trkpt lat="45.71619754267441" lon="9.772107770066073"><ele>332.0</ele><time>2026-04-30T13:38:27Z</time></trkpt><trkpt lat="45.71628344666547" lon="9.772006424976473"><ele>330.6</ele><time>2026-04-30T13:38:28Z</time></trkpt><trkpt lat="45.716365421870776" lon="9.771903398571219"><ele>329.20000000000005</ele><time>2026-04-30T13:38:29Z</time></trkpt><trkpt lat="45.71644667034737" lon="9.771799559545412"><ele>327.8</ele><time>2026-04-30T13:38:30Z</time></trkpt><trkpt lat="45.716525644018894" lon="9.771702858426787"><ele>326.4</ele><time>2026-04-30T13:38:31Z</time></trkpt><trkpt lat="45.71660003519711" lon="9.771604856399463"><ele>325.0</ele><time>2026-04-30T13:38:32Z</time></trkpt><trkpt lat="45.71666869656123" lon="9.77151011675501"><ele>325.0</ele><time>2026-04-30T13:38:33Z</time></trkpt><trkpt lat="45.716732411028616" lon="9.77142915185935"><ele>325.0</ele><time>2026-04-30T13:38:34Z</time></trkpt><trkpt lat="45.71680542702098" lon="9.771371601270117"><ele>325.0</ele><time>2026-04-30T13:38:35Z</time></trkpt><trkpt lat="45.71688746743729" lon="9.771361465854566"><ele>325.0</ele><time>2026-04-30T13:38:36Z</time></trkpt><trkpt lat="45.716961790101124" lon="9.771376289326335"><ele>325.0</ele><time>2026-04-30T13:38:37Z</time></trkpt><trkpt lat="45.71702947774187" lon="9.771404360408876"><ele>325.0</ele><time>2026-04-30T13:38:38Z</time></trkpt><trkpt lat="45.717146890491016" lon="9.771450066338"><ele>325.8</ele><time>2026-04-30T13:38:40Z</time></trkpt><trkpt lat="45.71726056296873" lon="9.771485348009925"><ele>326.6</ele><time>2026-04-30T13:38:42Z</time></trkpt><trkpt lat="45.71736715635795" lon="9.77151215455067"><ele>327.4</ele><time>2026-04-30T13:38:44Z</time></trkpt><trkpt lat="45.71746931243807" lon="9.771506381952829"><ele>328.2</ele><time>2026-04-30T13:38:46Z</time></trkpt><trkpt lat="45.717532667911556" lon="9.771379651419382"><ele>329.0</ele><time>2026-04-30T13:38:48Z</time></trkpt><trkpt lat="45.717569231547614" lon="9.77122428142993"><ele>329.0</ele><time>2026-04-30T13:38:50Z</time></trkpt><trkpt lat="45.71759855367631" lon="9.771093365987642"><ele>329.0</ele><time>2026-04-30T13:38:52Z</time></trkpt><trkpt lat="45.71764926061236" lon="9.770949437295823"><ele>329.0</ele><time>2026-04-30T13:38:54Z</time></trkpt><trkpt lat="45.71768891119133" lon="9.770879305075873"><ele>329.0</ele><time>2026-04-30T13:38:55Z</time></trkpt><trkpt lat="45.71778049195975" lon="9.77077072472598"><ele>329.0</ele><time>2026-04-30T13:38:57Z</time></trkpt><trkpt lat="45.71785924047919" lon="9.770646806748806"><ele>329.79999999999995</ele><time>2026-04-30T13:38:59Z</time></trkpt><trkpt lat="45.71796417881766" lon="9.770602373964726"><ele>330.59999999999997</ele><time>2026-04-30T13:39:01Z</time></trkpt><trkpt lat="45.718061542691984" lon="9.77068358409916"><ele>331.4</ele><time>2026-04-30T13:39:03Z</time></trkpt><trkpt lat="45.7181510985566" lon="9.770744528644743"><ele>332.2</ele><time>2026-04-30T13:39:05Z</time></trkpt><trkpt lat="45.718227876951076" lon="9.770798506850097"><ele>333.0</ele><time>2026-04-30T13:39:07Z</time></trkpt><trkpt lat="45.718299587396615" lon="9.770848873221029"><ele>333.0</ele><time>2026-04-30T13:39:09Z</time></trkpt><trkpt lat="45.718367646520065" lon="9.77089780095914"><ele>333.0</ele><time>2026-04-30T13:39:11Z</time></trkpt><trkpt lat="45.718438729323104" lon="9.770932390706815"><ele>333.0</ele><time>2026-04-30T13:39:13Z</time></trkpt><trkpt lat="45.71851318523084" lon="9.770959428325304"><ele>333.0</ele><time>2026-04-30T13:39:15Z</time></trkpt><trkpt lat="45.718575557738646" lon="9.771002405339983"><ele>333.0</ele><time>2026-04-30T13:39:17Z</time></trkpt><trkpt lat="45.718630494475335" lon="9.771055824955232"><ele>333.0</ele><time>2026-04-30T13:39:19Z</time></trkpt><trkpt lat="45.71868811597047" lon="9.771105624735103"><ele>333.0</ele><time>2026-04-30T13:39:21Z</time></trkpt><trkpt lat="45.7187547277162" lon="9.771132544262358"><ele>345.0</ele><time>2026-04-30T13:39:23Z</time></trkpt><trkpt lat="45.718820838431455" lon="9.771149297972821"><ele>345.0</ele><time>2026-04-30T13:39:25Z</time></trkpt><trkpt lat="45.718911227844465" lon="9.771176023018322"><ele>345.0</ele><time>2026-04-30T13:39:28Z</time></trkpt><trkpt lat="45.71897367519163" lon="9.771207506733797"><ele>345.0</ele><time>2026-04-30T13:39:32Z</time></trkpt></trkseg></trk></gpx>